<?xml version='1.0' encoding='UTF-8'?><gpx version="1.1" creator="JPX - https://github.com/jenetics/jpx" xmlns="http://www.topografix.com/GPX/1/1"><trk><trkseg><trkpt lat="45.61061399560083" lon="10.803426119165502"><ele>299.5</ele><time>2026-03-24T09:15:25.987Z</time></trkpt><trkpt lat="45.610528073520314" lon="10.803515667877942"><ele>299.0</ele><time>2026-03-24T09:15:27.989Z</time></trkpt><trkpt lat="45.610439406455356" lon="10.80361307694389"><ele>298.5</ele><time>2026-03-24T09:15:29.99Z</time></trkpt><trkpt lat="45.61038907622559" lon="10.803669149372425"><ele>298.0</ele><time>2026-03-24T09:15:30.991Z</time></trkpt><trkpt lat="45.61033613759109" lon="10.803720861825227"><ele>297.5</ele><time>2026-03-24T09:15:31.992Z</time></trkpt><trkpt lat="45.610278146536274" lon="10.80376243252325"><ele>297.0</ele><time>2026-03-24T09:15:32.992Z</time></trkpt><trkpt lat="45.610211671507905" lon="10.803815694376135"><ele>296.0</ele><time>2026-03-24T09:15:33.993Z</time></trkpt><trkpt lat="45.61015809097886" lon="10.803865113874572"><ele>295.0</ele><time>2026-03-24T09:15:34.993Z</time></trkpt><trkpt lat="45.61010154936746" lon="10.803911403586135"><ele>294.0</ele><time>2026-03-24T09:15:35.994Z</time></trkpt><trkpt lat="45.60999338936485" lon="10.804019820660766"><ele>293.0</ele><time>2026-03-24T09:15:37.995Z</time></trkpt><trkpt lat="45.60989178331882" lon="10.804111951950338"><ele>292.0</ele><time>2026-03-24T09:15:39.995Z</time></trkpt><trkpt lat="45.60984225250583" lon="10.804171544092133"><ele>291.0</ele><time>2026-03-24T09:15:40.996Z</time></trkpt><trkpt lat="45.609787577135464" lon="10.804220465068047"><ele>291.0</ele><time>2026-03-24T09:15:41.996Z</time></trkpt><trkpt lat="45.6097312951479" lon="10.804280241954565"><ele>291.0</ele><time>2026-03-24T09:15:42.996Z</time></trkpt><trkpt lat="45.60967261147929" lon="10.804338442646406"><ele>291.0</ele><time>2026-03-24T09:15:43.997Z</time></trkpt><trkpt lat="45.60961847944444" lon="10.804395419677974"><ele>291.0</ele><time>2026-03-24T09:15:44.997Z</time></trkpt><trkpt lat="45.60956001280902" lon="10.804441153669714"><ele>291.0</ele><time>2026-03-24T09:15:45.997Z</time></trkpt><trkpt lat="45.60950886453464" lon="10.80449383867667"><ele>291.0</ele><time>2026-03-24T09:15:46.997Z</time></trkpt><trkpt lat="45.60941215669253" lon="10.804585396447257"><ele>290.40000000000003</ele><time>2026-03-24T09:15:48.998Z</time></trkpt><trkpt lat="45.60934701655038" lon="10.804601218155705"><ele>289.8</ele><time>2026-03-24T09:15:50.998Z</time></trkpt><trkpt lat="45.60928645656963" lon="10.804514426753885"><ele>289.20000000000005</ele><time>2026-03-24T09:15:53.999Z</time></trkpt><trkpt lat="45.60921763949112" lon="10.804398757870258"><ele>288.6</ele><time>2026-03-24T09:15:55.999Z</time></trkpt><trkpt lat="45.60912872239114" lon="10.804289534840242"><ele>288.0</ele><time>2026-03-24T09:15:57.999Z</time></trkpt><trkpt lat="45.60903867346586" lon="10.80416563854849"><ele>288.00000000000006</ele><time>2026-03-24T09:15:59.999Z</time></trkpt><trkpt lat="45.608987056023196" lon="10.804113119705365"><ele>288.0</ele><time>2026-03-24T09:16:00.999Z</time></trkpt><trkpt lat="45.608934907660384" lon="10.804055569279233"><ele>288.0</ele><time>2026-03-24T09:16:01.999Z</time></trkpt><trkpt lat="45.60887609316127" lon="10.803988618889617"><ele>288.0</ele><time>2026-03-24T09:16:02.999Z</time></trkpt><trkpt lat="45.60882915751147" lon="10.803913942928213"><ele>288.0</ele><time>2026-03-24T09:16:03.999Z</time></trkpt><trkpt lat="45.60878814965326" lon="10.803831717347876"><ele>288.00000000000006</ele><time>2026-03-24T09:16:05Z</time></trkpt><trkpt lat="45.60875838051501" lon="10.80374101995284"><ele>288.0</ele><time>2026-03-24T09:16:06Z</time></trkpt><trkpt lat="45.60872307370088" lon="10.80365485593182"><ele>288.0</ele><time>2026-03-24T09:16:07Z</time></trkpt><trkpt lat="45.60869315477829" lon="10.803563164882775"><ele>288.0</ele><time>2026-03-24T09:16:08Z</time></trkpt><trkpt lat="45.60866606532544" lon="10.803475105981844"><ele>288.0</ele><time>2026-03-24T09:16:09Z</time></trkpt><trkpt lat="45.608636033904425" lon="10.803394553275826"><ele>288.0</ele><time>2026-03-24T09:16:10Z</time></trkpt><trkpt lat="45.60860568263108" lon="10.803315276169974"><ele>288.0</ele><time>2026-03-24T09:16:11Z</time></trkpt><trkpt lat="45.60853422495025" lon="10.803156139919876"><ele>288.0</ele><time>2026-03-24T09:16:13Z</time></trkpt><trkpt lat="45.60850298916576" lon="10.803059847932214"><ele>287.28571428571433</ele><time>2026-03-24T09:16:14Z</time></trkpt><trkpt lat="45.608472129631785" lon="10.802965262894196"><ele>286.57142857142856</ele><time>2026-03-24T09:16:15Z</time></trkpt><trkpt lat="45.60843725124534" lon="10.802876346878515"><ele>285.8571428571429</ele><time>2026-03-24T09:16:16Z</time></trkpt><trkpt lat="45.608410724768774" lon="10.802784756902948"><ele>285.14285714285717</ele><time>2026-03-24T09:16:17Z</time></trkpt><trkpt lat="45.608381954728515" lon="10.802699218958775"><ele>284.42857142857144</ele><time>2026-03-24T09:16:18Z</time></trkpt><trkpt lat="45.60834737066106" lon="10.802605571195508"><ele>283.7142857142857</ele><time>2026-03-24T09:16:19Z</time></trkpt><trkpt lat="45.6083144777963" lon="10.802518191985753"><ele>283.0</ele><time>2026-03-24T09:16:20Z</time></trkpt><trkpt lat="45.608276848467014" lon="10.802432125312261"><ele>283.0</ele><time>2026-03-24T09:16:21Z</time></trkpt><trkpt lat="45.60824745507643" lon="10.802340079469479"><ele>283.0</ele><time>2026-03-24T09:16:22Z</time></trkpt><trkpt lat="45.608212636924854" lon="10.802252969959683"><ele>283.0</ele><time>2026-03-24T09:16:23Z</time></trkpt><trkpt lat="45.6081692923822" lon="10.80217280962148"><ele>283.0</ele><time>2026-03-24T09:16:24Z</time></trkpt><trkpt lat="45.60812221082687" lon="10.802094057987018"><ele>283.0</ele><time>2026-03-24T09:16:25Z</time></trkpt><trkpt lat="45.6080808373025" lon="10.802017424683042"><ele>283.0</ele><time>2026-03-24T09:16:26Z</time></trkpt><trkpt lat="45.60803102027969" lon="10.801943431533008"><ele>283.0</ele><time>2026-03-24T09:16:27Z</time></trkpt><trkpt lat="45.607986796262544" lon="10.801868787032104"><ele>282.8571428571429</ele><time>2026-03-24T09:16:28Z</time></trkpt><trkpt lat="45.607944152192864" lon="10.801783668043175"><ele>282.7142857142857</ele><time>2026-03-24T09:16:29Z</time></trkpt><trkpt lat="45.60789988172039" lon="10.801706644497358"><ele>282.57142857142856</ele><time>2026-03-24T09:16:30Z</time></trkpt><trkpt lat="45.60784721640454" lon="10.801636270185165"><ele>282.42857142857144</ele><time>2026-03-24T09:16:31Z</time></trkpt><trkpt lat="45.60780135620875" lon="10.801560180324547"><ele>282.2857142857143</ele><time>2026-03-24T09:16:32Z</time></trkpt><trkpt lat="45.60775939542724" lon="10.801472121788995"><ele>282.14285714285717</ele><time>2026-03-24T09:16:33Z</time></trkpt><trkpt lat="45.60771222025661" lon="10.801394077041445"><ele>282.0</ele><time>2026-03-24T09:16:34Z</time></trkpt><trkpt lat="45.60766656466398" lon="10.801321520454986"><ele>281.57142857142856</ele><time>2026-03-24T09:16:35Z</time></trkpt><trkpt lat="45.607626058621356" lon="10.801235731616927"><ele>281.1428571428571</ele><time>2026-03-24T09:16:36Z</time></trkpt><trkpt lat="45.60758465806897" lon="10.801156365930098"><ele>280.71428571428567</ele><time>2026-03-24T09:16:37Z</time></trkpt><trkpt lat="45.607540583058935" lon="10.801066766071285"><ele>280.2857142857143</ele><time>2026-03-24T09:16:38Z</time></trkpt><trkpt lat="45.60748927368553" lon="10.80098506824038"><ele>279.85714285714283</ele><time>2026-03-24T09:16:39Z</time></trkpt><trkpt lat="45.60743953143439" lon="10.800909106337341"><ele>279.4285714285714</ele><time>2026-03-24T09:16:40Z</time></trkpt><trkpt lat="45.60739173676117" lon="10.800828322024442"><ele>279.0</ele><time>2026-03-24T09:16:41Z</time></trkpt><trkpt lat="45.607347632817365" lon="10.800745226513886"><ele>278.71428571428567</ele><time>2026-03-24T09:16:42Z</time></trkpt><trkpt lat="45.60729527594299" lon="10.800671102891942"><ele>278.42857142857144</ele><time>2026-03-24T09:16:43Z</time></trkpt><trkpt lat="45.60725056659454" lon="10.80059216271819"><ele>278.1428571428571</ele><time>2026-03-24T09:16:44Z</time></trkpt><trkpt lat="45.60720593513557" lon="10.800514313338772"><ele>277.85714285714283</ele><time>2026-03-24T09:16:45Z</time></trkpt><trkpt lat="45.6071588633355" lon="10.800431847887555"><ele>277.57142857142856</ele><time>2026-03-24T09:16:46Z</time></trkpt><trkpt lat="45.60711450087691" lon="10.80034912677463"><ele>277.2857142857143</ele><time>2026-03-24T09:16:47Z</time></trkpt><trkpt lat="45.607069997774424" lon="10.800272664206648"><ele>277.0</ele><time>2026-03-24T09:16:48Z</time></trkpt><trkpt lat="45.607024058057945" lon="10.800190257096425"><ele>276.4</ele><time>2026-03-24T09:16:49Z</time></trkpt><trkpt lat="45.606978487624666" lon="10.800112210245304"><ele>275.79999999999995</ele><time>2026-03-24T09:16:50Z</time></trkpt><trkpt lat="45.60693868677211" lon="10.800030377063736"><ele>275.2</ele><time>2026-03-24T09:16:51Z</time></trkpt><trkpt lat="45.606916084504924" lon="10.799931005473871"><ele>274.59999999999997</ele><time>2026-03-24T09:16:52Z</time></trkpt><trkpt lat="45.60688556987465" lon="10.799772942760809"><ele>274.0</ele><time>2026-03-24T09:16:54Z</time></trkpt><trkpt lat="45.60689140558861" lon="10.799578001864818"><ele>274.00000000000006</ele><time>2026-03-24T09:16:56Z</time></trkpt><trkpt lat="45.60688205681518" lon="10.799468173519129"><ele>274.0</ele><time>2026-03-24T09:16:57Z</time></trkpt><trkpt lat="45.606874410455525" lon="10.799364572076216"><ele>274.0</ele><time>2026-03-24T09:16:58Z</time></trkpt><trkpt lat="45.60687066866716" lon="10.79926986644661"><ele>274.0</ele><time>2026-03-24T09:16:59Z</time></trkpt><trkpt lat="45.60686299291412" lon="10.799166866357533"><ele>274.0</ele><time>2026-03-24T09:17:00Z</time></trkpt><trkpt lat="45.60686155930602" lon="10.799053475399623"><ele>274.00000000000006</ele><time>2026-03-24T09:17:01Z</time></trkpt><trkpt lat="45.60685336174539" lon="10.798941292505589"><ele>274.0</ele><time>2026-03-24T09:17:02Z</time></trkpt><trkpt lat="45.60684854520125" lon="10.798834815383577"><ele>273.8333333333333</ele><time>2026-03-24T09:17:03Z</time></trkpt><trkpt lat="45.60684403185175" lon="10.798724931680827"><ele>273.66666666666663</ele><time>2026-03-24T09:17:04Z</time></trkpt><trkpt lat="45.60683940901138" lon="10.798612960928114"><ele>273.5</ele><time>2026-03-24T09:17:05Z</time></trkpt><trkpt lat="45.606829050103656" lon="10.798498509687795"><ele>273.3333333333333</ele><time>2026-03-24T09:17:06Z</time></trkpt><trkpt lat="45.60681355935959" lon="10.798383835725389"><ele>273.1666666666667</ele><time>2026-03-24T09:17:07Z</time></trkpt><trkpt lat="45.6067976554594" lon="10.798272258740777"><ele>273.0</ele><time>2026-03-24T09:17:08Z</time></trkpt><trkpt lat="45.60677200410149" lon="10.798160645871095"><ele>272.6666666666667</ele><time>2026-03-24T09:17:09Z</time></trkpt><trkpt lat="45.6067536397787" lon="10.798040288923099"><ele>272.3333333333333</ele><time>2026-03-24T09:17:10Z</time></trkpt><trkpt lat="45.606737174700704" lon="10.79792585114144"><ele>272.0</ele><time>2026-03-24T09:17:11Z</time></trkpt><trkpt lat="45.60671775316612" lon="10.797809976271342"><ele>271.66666666666663</ele><time>2026-03-24T09:17:12Z</time></trkpt><trkpt lat="45.60669962205447" lon="10.797696523143856"><ele>271.3333333333333</ele><time>2026-03-24T09:17:13Z</time></trkpt><trkpt lat="45.606679758363846" lon="10.797577776099427"><ele>271.0</ele><time>2026-03-24T09:17:14Z</time></trkpt><trkpt lat="45.606658004185306" lon="10.79746098740053"><ele>270.3333333333333</ele><time>2026-03-24T09:17:15Z</time></trkpt><trkpt lat="45.60664115228146" lon="10.797341836900618"><ele>269.66666666666663</ele><time>2026-03-24T09:17:16Z</time></trkpt><trkpt lat="45.606623573277446" lon="10.79722342668404"><ele>269.0</ele><time>2026-03-24T09:17:17Z</time></trkpt><trkpt lat="45.60661095623231" lon="10.797101130132072"><ele>268.3333333333333</ele><time>2026-03-24T09:17:18Z</time></trkpt><trkpt lat="45.606603742140706" lon="10.796987258192594"><ele>267.6666666666667</ele><time>2026-03-24T09:17:19.002Z</time></trkpt><trkpt lat="45.60659082280333" lon="10.796875991329719"><ele>267.0</ele><time>2026-03-24T09:17:20.002Z</time></trkpt><trkpt lat="45.606579412812614" lon="10.796769311936181"><ele>266.6666666666667</ele><time>2026-03-24T09:17:21.002Z</time></trkpt><trkpt lat="45.606567890926314" lon="10.79665798849875"><ele>266.3333333333333</ele><time>2026-03-24T09:17:22.002Z</time></trkpt><trkpt lat="45.60655776053832" lon="10.796557011591677"><ele>266.0</ele><time>2026-03-24T09:17:23.001Z</time></trkpt><trkpt lat="45.60654810590897" lon="10.796448466530045"><ele>265.66666666666663</ele><time>2026-03-24T09:17:24.001Z</time></trkpt><trkpt lat="45.606529802307506" lon="10.796342564006466"><ele>265.3333333333333</ele><time>2026-03-24T09:17:25.001Z</time></trkpt><trkpt lat="45.60651301638817" lon="10.796242740001205"><ele>265.0</ele><time>2026-03-24T09:17:26.001Z</time></trkpt><trkpt lat="45.60650827964979" lon="10.796131138467747"><ele>265.0</ele><time>2026-03-24T09:17:27.001Z</time></trkpt><trkpt lat="45.60649490238104" lon="10.796022056106604"><ele>265.0</ele><time>2026-03-24T09:17:28.001Z</time></trkpt><trkpt lat="45.60648474859861" lon="10.79590870967711"><ele>265.0</ele><time>2026-03-24T09:17:29.001Z</time></trkpt><trkpt lat="45.60647505807055" lon="10.795799172116359"><ele>265.0</ele><time>2026-03-24T09:17:30.001Z</time></trkpt><trkpt lat="45.60647766228958" lon="10.795687459220147"><ele>265.0</ele><time>2026-03-24T09:17:31.001Z</time></trkpt><trkpt lat="45.6064767664411" lon="10.79556986539903"><ele>265.0</ele><time>2026-03-24T09:17:32.001Z</time></trkpt><trkpt lat="45.6064721286144" lon="10.795451849640079"><ele>264.8333333333333</ele><time>2026-03-24T09:17:33.001Z</time></trkpt><trkpt lat="45.60645453480044" lon="10.795336331569773"><ele>264.66666666666663</ele><time>2026-03-24T09:17:34.001Z</time></trkpt><trkpt lat="45.60644033917151" lon="10.795228324414705"><ele>264.5</ele><time>2026-03-24T09:17:35.001Z</time></trkpt><trkpt lat="45.60641059967902" lon="10.795120849416277"><ele>264.3333333333333</ele><time>2026-03-24T09:17:36.001Z</time></trkpt><trkpt lat="45.606380869484354" lon="10.795019202687097"><ele>264.1666666666667</ele><time>2026-03-24T09:17:37.001Z</time></trkpt><trkpt lat="45.60633934996218" lon="10.79491938735272"><ele>264.0</ele><time>2026-03-24T09:17:38.001Z</time></trkpt><trkpt lat="45.606300419473165" lon="10.794826996354315"><ele>263.6666666666667</ele><time>2026-03-24T09:17:39.001Z</time></trkpt><trkpt lat="45.60626498033397" lon="10.794725133315179"><ele>263.3333333333333</ele><time>2026-03-24T09:17:40.001Z</time></trkpt><trkpt lat="45.606233216855244" lon="10.794627977432524"><ele>263.0</ele><time>2026-03-24T09:17:41.001Z</time></trkpt><trkpt lat="45.60619869617659" lon="10.794526353305034"><ele>262.66666666666663</ele><time>2026-03-24T09:17:42.001Z</time></trkpt><trkpt lat="45.60616228365662" lon="10.794432170156128"><ele>262.3333333333333</ele><time>2026-03-24T09:17:43Z</time></trkpt><trkpt lat="45.60612291369577" lon="10.794342591807647"><ele>262.0</ele><time>2026-03-24T09:17:44Z</time></trkpt><trkpt lat="45.60607894452211" lon="10.794259384811527"><ele>261.7142857142857</ele><time>2026-03-24T09:17:45Z</time></trkpt><trkpt lat="45.60604353191911" lon="10.794170777080682"><ele>261.42857142857144</ele><time>2026-03-24T09:17:46Z</time></trkpt><trkpt lat="45.60599853984224" lon="10.794091685096104"><ele>261.14285714285717</ele><time>2026-03-24T09:17:47Z</time></trkpt><trkpt lat="45.60594914868346" lon="10.79402393058159"><ele>260.8571428571429</ele><time>2026-03-24T09:17:48Z</time></trkpt><trkpt lat="45.6058868551876" lon="10.793977745041618"><ele>260.57142857142856</ele><time>2026-03-24T09:17:49Z</time></trkpt><trkpt lat="45.60581200950892" lon="10.793978827578412"><ele>260.28571428571433</ele><time>2026-03-24T09:17:50Z</time></trkpt><trkpt lat="45.605744330385654" lon="10.794008646664471"><ele>260.0</ele><time>2026-03-24T09:17:51Z</time></trkpt><trkpt lat="45.6056789127103" lon="10.794029363567917"><ele>260.0</ele><time>2026-03-24T09:17:52Z</time></trkpt><trkpt lat="45.605562523002625" lon="10.794038977935106"><ele>260.0</ele><time>2026-03-24T09:17:54Z</time></trkpt><trkpt lat="45.605484843476965" lon="10.794047636003866"><ele>260.0</ele><time>2026-03-24T09:17:56Z</time></trkpt><trkpt lat="45.605406358616726" lon="10.794038519700278"><ele>260.0</ele><time>2026-03-24T09:17:58Z</time></trkpt><trkpt lat="45.60531421979887" lon="10.794027385495465"><ele>260.0</ele><time>2026-03-24T09:18:00Z</time></trkpt><trkpt lat="45.60523065706268" lon="10.794109181761167"><ele>259.5</ele><time>2026-03-24T09:18:03Z</time></trkpt><trkpt lat="45.60516237431749" lon="10.794226997316928"><ele>259.0</ele><time>2026-03-24T09:18:05Z</time></trkpt><trkpt lat="45.60508530657526" lon="10.794312941113276"><ele>258.5</ele><time>2026-03-24T09:18:07Z</time></trkpt><trkpt lat="45.605020188313354" lon="10.794320373650137"><ele>258.0</ele><time>2026-03-24T09:18:08Z</time></trkpt><trkpt lat="45.604954718223695" lon="10.794364949490218"><ele>257.5</ele><time>2026-03-24T09:18:10Z</time></trkpt><trkpt lat="45.60488012218277" lon="10.794399293388349"><ele>257.0</ele><time>2026-03-24T09:18:11Z</time></trkpt><trkpt lat="45.60481500923096" lon="10.794428940539339"><ele>256.85714285714283</ele><time>2026-03-24T09:18:12Z</time></trkpt><trkpt lat="45.60475503864904" lon="10.79447766962967"><ele>256.7142857142857</ele><time>2026-03-24T09:18:13Z</time></trkpt><trkpt lat="45.604689365662004" lon="10.794515911738554"><ele>256.57142857142856</ele><time>2026-03-24T09:18:14Z</time></trkpt><trkpt lat="45.60462174547857" lon="10.794540901162868"><ele>256.42857142857144</ele><time>2026-03-24T09:18:15Z</time></trkpt><trkpt lat="45.60455831690958" lon="10.794560127325813"><ele>256.2857142857143</ele><time>2026-03-24T09:18:16Z</time></trkpt><trkpt lat="45.60448927751507" lon="10.794586007628737"><ele>256.1428571428571</ele><time>2026-03-24T09:18:17Z</time></trkpt><trkpt lat="45.60442652975315" lon="10.79460402508889"><ele>256.0</ele><time>2026-03-24T09:18:18Z</time></trkpt><trkpt lat="45.60431613924537" lon="10.794619816445303"><ele>255.4</ele><time>2026-03-24T09:18:20Z</time></trkpt><trkpt lat="45.604244455521766" lon="10.794649059762873"><ele>254.8</ele><time>2026-03-24T09:18:21Z</time></trkpt><trkpt lat="45.60413717466339" lon="10.794678655032769"><ele>254.20000000000002</ele><time>2026-03-24T09:18:23Z</time></trkpt><trkpt lat="45.60401750036415" lon="10.794730777297271"><ele>253.60000000000002</ele><time>2026-03-24T09:18:25Z</time></trkpt><trkpt lat="45.6038944241484" lon="10.794720665821878"><ele>253.0</ele><time>2026-03-24T09:18:27Z</time></trkpt><trkpt lat="45.60379124355773" lon="10.794778678643782"><ele>252.60000000000002</ele><time>2026-03-24T09:18:29Z</time></trkpt><trkpt lat="45.60365541678108" lon="10.794825541312473"><ele>252.20000000000002</ele><time>2026-03-24T09:18:30.999Z</time></trkpt><trkpt lat="45.60358637546211" lon="10.794846161265486"><ele>251.8</ele><time>2026-03-24T09:18:31.999Z</time></trkpt><trkpt lat="45.60351491638522" lon="10.794861545982819"><ele>251.4</ele><time>2026-03-24T09:18:32.999Z</time></trkpt><trkpt lat="45.603391622905605" lon="10.794907516071442"><ele>251.0</ele><time>2026-03-24T09:18:34.999Z</time></trkpt><trkpt lat="45.60332432071049" lon="10.794933047614943"><ele>251.0</ele><time>2026-03-24T09:18:35.999Z</time></trkpt><trkpt lat="45.603260195432185" lon="10.79494259483602"><ele>251.00000000000003</ele><time>2026-03-24T09:18:36.999Z</time></trkpt><trkpt lat="45.603135229384854" lon="10.794991627220472"><ele>251.00000000000003</ele><time>2026-03-24T09:18:38.999Z</time></trkpt><trkpt lat="45.60301459796087" lon="10.79502251186966"><ele>251.0</ele><time>2026-03-24T09:18:40.999Z</time></trkpt><trkpt lat="45.602886954277665" lon="10.795054526334813"><ele>251.0</ele><time>2026-03-24T09:18:42.999Z</time></trkpt><trkpt lat="45.60276878972548" lon="10.795091326442629"><ele>250.8</ele><time>2026-03-24T09:18:44.999Z</time></trkpt><trkpt lat="45.60264778011252" lon="10.79512727455902"><ele>250.60000000000002</ele><time>2026-03-24T09:18:46.999Z</time></trkpt><trkpt lat="45.60253713029384" lon="10.795114590177407"><ele>250.4</ele><time>2026-03-24T09:18:48.999Z</time></trkpt><trkpt lat="45.60247378950922" lon="10.7951110890074"><ele>250.2</ele><time>2026-03-24T09:18:49.999Z</time></trkpt><trkpt lat="45.60235018441437" lon="10.795090470138117"><ele>250.0</ele><time>2026-03-24T09:18:51.999Z</time></trkpt><trkpt lat="45.60228562478041" lon="10.795089119083597"><ele>250.0</ele><time>2026-03-24T09:18:52.999Z</time></trkpt><trkpt lat="45.602220956180055" lon="10.79509336305585"><ele>250.0</ele><time>2026-03-24T09:18:53.999Z</time></trkpt><trkpt lat="45.60215456744723" lon="10.79509958363266"><ele>250.0</ele><time>2026-03-24T09:18:54.999Z</time></trkpt><trkpt lat="45.60208900419011" lon="10.795099559900438"><ele>250.0</ele><time>2026-03-24T09:18:55.999Z</time></trkpt><trkpt lat="45.60202236506702" lon="10.795103247702185"><ele>250.0</ele><time>2026-03-24T09:18:56.999Z</time></trkpt><trkpt lat="45.60195556109343" lon="10.79510447272648"><ele>250.0</ele><time>2026-03-24T09:18:57.999Z</time></trkpt><trkpt lat="45.6018873212569" lon="10.795111126780997"><ele>250.0</ele><time>2026-03-24T09:18:58.999Z</time></trkpt><trkpt lat="45.6018183976648" lon="10.795113888062609"><ele>249.71428571428572</ele><time>2026-03-24T09:18:59.999Z</time></trkpt><trkpt lat="45.60174949532306" lon="10.79511839435994"><ele>249.42857142857144</ele><time>2026-03-24T09:19:00.999Z</time></trkpt><trkpt lat="45.601681070443455" lon="10.79511157475924"><ele>249.14285714285717</ele><time>2026-03-24T09:19:01.999Z</time></trkpt><trkpt lat="45.601614002369246" lon="10.795081445167341"><ele>248.85714285714286</ele><time>2026-03-24T09:19:02.999Z</time></trkpt><trkpt lat="45.60156220544305" lon="10.795021340262894"><ele>248.5714285714286</ele><time>2026-03-24T09:19:03.999Z</time></trkpt><trkpt lat="45.60152281610751" lon="10.79492584681566"><ele>248.2857142857143</ele><time>2026-03-24T09:19:04.999Z</time></trkpt><trkpt lat="45.60150092065766" lon="10.794836346430921"><ele>248.0</ele><time>2026-03-24T09:19:05.999Z</time></trkpt><trkpt lat="45.601482054178994" lon="10.794742500766587"><ele>248.0</ele><time>2026-03-24T09:19:06.999Z</time></trkpt><trkpt lat="45.60145719450128" lon="10.794645795127645"><ele>248.00000000000003</ele><time>2026-03-24T09:19:07.999Z</time></trkpt><trkpt lat="45.60143199376266" lon="10.79456013991706"><ele>248.0</ele><time>2026-03-24T09:19:08.999Z</time></trkpt><trkpt lat="45.60141091270316" lon="10.794471155244937"><ele>248.0</ele><time>2026-03-24T09:19:09.999Z</time></trkpt><trkpt lat="45.601390468647686" lon="10.794379285836776"><ele>248.00000000000003</ele><time>2026-03-24T09:19:10.999Z</time></trkpt><trkpt lat="45.601368584165115" lon="10.794287866408109"><ele>248.0</ele><time>2026-03-24T09:19:11.999Z</time></trkpt><trkpt lat="45.60134590558536" lon="10.794201109235454"><ele>248.0</ele><time>2026-03-24T09:19:12.999Z</time></trkpt><trkpt lat="45.601322868364875" lon="10.794112013572054"><ele>247.50000000000003</ele><time>2026-03-24T09:19:13.999Z</time></trkpt><trkpt lat="45.60129972241246" lon="10.7940240115707"><ele>247.0</ele><time>2026-03-24T09:19:14.999Z</time></trkpt><trkpt lat="45.601276308191494" lon="10.793937848700667"><ele>246.5</ele><time>2026-03-24T09:19:15.999Z</time></trkpt><trkpt lat="45.6012576783939" lon="10.793850500583114"><ele>246.0</ele><time>2026-03-24T09:19:16.999Z</time></trkpt><trkpt lat="45.60123614349744" lon="10.793762928600193"><ele>245.50000000000003</ele><time>2026-03-24T09:19:17.999Z</time></trkpt><trkpt lat="45.60120617028674" lon="10.793593309544962"><ele>245.0</ele><time>2026-03-24T09:19:19.999Z</time></trkpt><trkpt lat="45.60115371690511" lon="10.793436775995971"><ele>245.0</ele><time>2026-03-24T09:19:21.999Z</time></trkpt><trkpt lat="45.60106102526115" lon="10.793321953828771"><ele>245.0</ele><time>2026-03-24T09:19:23.999Z</time></trkpt><trkpt lat="45.60095509667149" lon="10.79325101507498"><ele>245.0</ele><time>2026-03-24T09:19:26Z</time></trkpt><trkpt lat="45.600857181403065" lon="10.793183847900343"><ele>245.0</ele><time>2026-03-24T09:19:28Z</time></trkpt><trkpt lat="45.60078823247184" lon="10.793073152018435"><ele>245.00000000000003</ele><time>2026-03-24T09:19:30Z</time></trkpt><trkpt lat="45.600750591374506" lon="10.792890236958018"><ele>245.0</ele><time>2026-03-24T09:19:32Z</time></trkpt><trkpt lat="45.600722117646725" lon="10.79279098187907"><ele>245.0</ele><time>2026-03-24T09:19:33Z</time></trkpt><trkpt lat="45.60070145997685" lon="10.792695113540319"><ele>245.0</ele><time>2026-03-24T09:19:34Z</time></trkpt><trkpt lat="45.600677312383155" lon="10.792609468289532"><ele>245.00000000000003</ele><time>2026-03-24T09:19:35Z</time></trkpt><trkpt lat="45.60065449837438" lon="10.792518168383843"><ele>245.0</ele><time>2026-03-24T09:19:36Z</time></trkpt><trkpt lat="45.600629738278364" lon="10.792427345443835"><ele>245.33333333333334</ele><time>2026-03-24T09:19:37Z</time></trkpt><trkpt lat="45.60060463999931" lon="10.792342995260174"><ele>245.66666666666669</ele><time>2026-03-24T09:19:38Z</time></trkpt><trkpt lat="45.60058168865449" lon="10.792249160387717"><ele>246.0</ele><time>2026-03-24T09:19:39Z</time></trkpt><trkpt lat="45.60055766967832" lon="10.792158397268642"><ele>246.33333333333331</ele><time>2026-03-24T09:19:40Z</time></trkpt><trkpt lat="45.600503052546486" lon="10.791997099588775"><ele>246.66666666666666</ele><time>2026-03-24T09:19:42Z</time></trkpt><trkpt lat="45.600467793372275" lon="10.791831940773235"><ele>247.0</ele><time>2026-03-24T09:19:44Z</time></trkpt><trkpt lat="45.60045027497084" lon="10.791682568246523"><ele>247.0</ele><time>2026-03-24T09:19:46Z</time></trkpt><trkpt lat="45.60037803283" lon="10.791694431113061"><ele>247.0</ele><time>2026-03-24T09:19:48Z</time></trkpt><trkpt lat="45.60032704299485" lon="10.791806333703585"><ele>247.0</ele><time>2026-03-24T09:19:50Z</time></trkpt><trkpt lat="45.600252822691" lon="10.79187140187081"><ele>247.0</ele><time>2026-03-24T09:19:52Z</time></trkpt><trkpt lat="45.600162276205516" lon="10.791911976544714"><ele>247.0</ele><time>2026-03-24T09:19:54Z</time></trkpt><trkpt lat="45.600059262273454" lon="10.791904814032618"><ele>246.5</ele><time>2026-03-24T09:19:56Z</time></trkpt><trkpt lat="45.59997733448953" lon="10.791976607317398"><ele>246.0</ele><time>2026-03-24T09:20:00Z</time></trkpt><trkpt lat="45.599825950414846" lon="10.791970358824404"><ele>245.5</ele><time>2026-03-24T09:20:01Z</time></trkpt><trkpt lat="45.59977336095865" lon="10.792107846097586"><ele>245.0</ele><time>2026-03-24T09:20:03Z</time></trkpt><trkpt lat="45.599730184924" lon="10.792271779460608"><ele>245.0</ele><time>2026-03-24T09:20:05Z</time></trkpt><trkpt lat="45.599688596182844" lon="10.792414446751897"><ele>245.0</ele><time>2026-03-24T09:20:07Z</time></trkpt><trkpt lat="45.599628642433544" lon="10.792513738365887"><ele>245.0</ele><time>2026-03-24T09:20:09Z</time></trkpt><trkpt lat="45.59956043948479" lon="10.792548958103149"><ele>245.0</ele><time>2026-03-24T09:20:12Z</time></trkpt><trkpt lat="45.59951271362571" lon="10.792457420613113"><ele>245.0</ele><time>2026-03-24T09:20:14Z</time></trkpt><trkpt lat="45.59954101202057" lon="10.792295585764016"><ele>245.0</ele><time>2026-03-24T09:20:16Z</time></trkpt><trkpt lat="45.59956761297403" lon="10.792165444907326"><ele>245.0</ele><time>2026-03-24T09:20:17Z</time></trkpt><trkpt lat="45.59964504357958" lon="10.791973490558812"><ele>245.0</ele><time>2026-03-24T09:20:18Z</time></trkpt><trkpt lat="45.5996791333127" lon="10.791833965177213"><ele>245.0</ele><time>2026-03-24T09:20:19Z</time></trkpt><trkpt lat="45.599701818071956" lon="10.791726800572414"><ele>245.0</ele><time>2026-03-24T09:20:20Z</time></trkpt><trkpt lat="45.599704999983494" lon="10.791562783203617"><ele>245.0</ele><time>2026-03-24T09:20:21.999Z</time></trkpt><trkpt lat="45.59967774507367" lon="10.79147990963226"><ele>245.0</ele><time>2026-03-24T09:20:22.999Z</time></trkpt><trkpt lat="45.599641462869705" lon="10.791405955817575"><ele>245.0</ele><time>2026-03-24T09:20:23.999Z</time></trkpt><trkpt lat="45.59957104447938" lon="10.791267382041324"><ele>245.0</ele><time>2026-03-24T09:20:25.999Z</time></trkpt><trkpt lat="45.59947992205494" lon="10.79116377326756"><ele>245.0</ele><time>2026-03-24T09:20:27.999Z</time></trkpt><trkpt lat="45.59938642086181" lon="10.791070000206853"><ele>244.50000000000003</ele><time>2026-03-24T09:20:29.999Z</time></trkpt><trkpt lat="45.599289270678646" lon="10.790976933393923"><ele>244.0</ele><time>2026-03-24T09:20:31.999Z</time></trkpt><trkpt lat="45.5991912504696" lon="10.79087082398169"><ele>243.5</ele><time>2026-03-24T09:20:33.999Z</time></trkpt><trkpt lat="45.599142675542495" lon="10.790812427270403"><ele>243.0</ele><time>2026-03-24T09:20:34.999Z</time></trkpt><trkpt lat="45.59908900047947" lon="10.79075248178782"><ele>242.50000000000003</ele><time>2026-03-24T09:20:35.999Z</time></trkpt><trkpt lat="45.59903548148684" lon="10.790697169506426"><ele>242.0</ele><time>2026-03-24T09:20:36.999Z</time></trkpt><trkpt lat="45.59898356465383" lon="10.790639641880468"><ele>242.0</ele><time>2026-03-24T09:20:37.999Z</time></trkpt><trkpt lat="45.59888466724187" lon="10.790523746359865"><ele>242.0</ele><time>2026-03-24T09:20:39.999Z</time></trkpt><trkpt lat="45.598834546383" lon="10.79046555525383"><ele>242.0</ele><time>2026-03-24T09:20:40.999Z</time></trkpt><trkpt lat="45.59874758876303" lon="10.790333665245416"><ele>242.0</ele><time>2026-03-24T09:20:42.999Z</time></trkpt><trkpt lat="45.59870454995039" lon="10.790260959319335"><ele>242.0</ele><time>2026-03-24T09:20:43.999Z</time></trkpt><trkpt lat="45.598664362160946" lon="10.790188224147869"><ele>241.85714285714283</ele><time>2026-03-24T09:20:44.999Z</time></trkpt><trkpt lat="45.598623701353965" lon="10.790118293270043"><ele>241.7142857142857</ele><time>2026-03-24T09:20:45.999Z</time></trkpt><trkpt lat="45.59858056530582" lon="10.790045348659767"><ele>241.57142857142856</ele><time>2026-03-24T09:20:46.999Z</time></trkpt><trkpt lat="45.59853764370018" lon="10.789979041054233"><ele>241.42857142857144</ele><time>2026-03-24T09:20:47.999Z</time></trkpt><trkpt lat="45.59849394241163" lon="10.789910611256277"><ele>241.2857142857143</ele><time>2026-03-24T09:20:48.999Z</time></trkpt><trkpt lat="45.59845415354805" lon="10.789840384361893"><ele>241.14285714285717</ele><time>2026-03-24T09:20:49.999Z</time></trkpt><trkpt lat="45.59836989825017" lon="10.789712876332228"><ele>241.0</ele><time>2026-03-24T09:20:51.999Z</time></trkpt><trkpt lat="45.59827712694072" lon="10.789602343980004"><ele>241.0</ele><time>2026-03-24T09:20:53.999Z</time></trkpt><trkpt lat="45.598182761106024" lon="10.789487265392008"><ele>241.00000000000003</ele><time>2026-03-24T09:20:55.999Z</time></trkpt><trkpt lat="45.59808990133275" lon="10.789364917471767"><ele>241.00000000000003</ele><time>2026-03-24T09:20:57.999Z</time></trkpt><trkpt lat="45.5980401466903" lon="10.789306895994022"><ele>241.0</ele><time>2026-03-24T09:20:58.999Z</time></trkpt><trkpt lat="45.59795559038173" lon="10.789178458219373"><ele>241.0</ele><time>2026-03-24T09:21:00.999Z</time></trkpt><trkpt lat="45.59787457562029" lon="10.789046751685719"><ele>240.83333333333331</ele><time>2026-03-24T09:21:02.999Z</time></trkpt><trkpt lat="45.5978157218472" lon="10.7888894675984"><ele>240.66666666666666</ele><time>2026-03-24T09:21:04.999Z</time></trkpt><trkpt lat="45.597793106900504" lon="10.788799075205361"><ele>240.5</ele><time>2026-03-24T09:21:05.999Z</time></trkpt><trkpt lat="45.59776665813031" lon="10.788711587491784"><ele>240.33333333333331</ele><time>2026-03-24T09:21:06.999Z</time></trkpt><trkpt lat="45.59774140950972" lon="10.788627352937885"><ele>240.16666666666666</ele><time>2026-03-24T09:21:07.999Z</time></trkpt><trkpt lat="45.597716308865486" lon="10.788542920996253"><ele>240.0</ele><time>2026-03-24T09:21:08.999Z</time></trkpt><trkpt lat="45.597688437229856" lon="10.788460574286114"><ele>239.33333333333334</ele><time>2026-03-24T09:21:09.999Z</time></trkpt><trkpt lat="45.59765933512931" lon="10.788378266889213"><ele>238.66666666666669</ele><time>2026-03-24T09:21:10.999Z</time></trkpt><trkpt lat="45.59763028985707" lon="10.78829505234987"><ele>238.0</ele><time>2026-03-24T09:21:11.999Z</time></trkpt><trkpt lat="45.597578289455015" lon="10.78813294062001"><ele>237.33333333333334</ele><time>2026-03-24T09:21:13.999Z</time></trkpt><trkpt lat="45.59754485513146" lon="10.788055650237567"><ele>236.66666666666669</ele><time>2026-03-24T09:21:14.999Z</time></trkpt><trkpt lat="45.59751351681589" lon="10.78797244263175"><ele>236.0</ele><time>2026-03-24T09:21:15.999Z</time></trkpt><trkpt lat="45.59744750404174" lon="10.787824283022536"><ele>235.75</ele><time>2026-03-24T09:21:17.999Z</time></trkpt><trkpt lat="45.597385259818395" lon="10.787673997135776"><ele>235.5</ele><time>2026-03-24T09:21:19.999Z</time></trkpt><trkpt lat="45.597323471408174" lon="10.787522447908756"><ele>235.25</ele><time>2026-03-24T09:21:21.999Z</time></trkpt><trkpt lat="45.597253566910574" lon="10.78737686845851"><ele>235.0</ele><time>2026-03-24T09:21:23.999Z</time></trkpt><trkpt lat="45.59718504535356" lon="10.787229357955514"><ele>235.0</ele><time>2026-03-24T09:21:25.999Z</time></trkpt><trkpt lat="45.59714746704432" lon="10.787155963829196"><ele>235.0</ele><time>2026-03-24T09:21:26.999Z</time></trkpt><trkpt lat="45.59708534650854" lon="10.787002802968056"><ele>235.0</ele><time>2026-03-24T09:21:28.999Z</time></trkpt><trkpt lat="45.597019741931696" lon="10.786855575328904"><ele>235.0</ele><time>2026-03-24T09:21:30.999Z</time></trkpt><trkpt lat="45.596948274607215" lon="10.786722383197258"><ele>235.0</ele><time>2026-03-24T09:21:32.999Z</time></trkpt><trkpt lat="45.596883790832024" lon="10.78658021618177"><ele>235.5</ele><time>2026-03-24T09:21:34.999Z</time></trkpt><trkpt lat="45.596810598786284" lon="10.786444717911007"><ele>236.0</ele><time>2026-03-24T09:21:36.999Z</time></trkpt><trkpt lat="45.59673991336367" lon="10.786310871233328"><ele>236.5</ele><time>2026-03-24T09:21:38.999Z</time></trkpt><trkpt lat="45.596676542186216" lon="10.786173084706522"><ele>237.0</ele><time>2026-03-24T09:21:40.999Z</time></trkpt><trkpt lat="45.59660741579001" lon="10.786036311625347"><ele>236.0</ele><time>2026-03-24T09:21:42.999Z</time></trkpt><trkpt lat="45.59654416207437" lon="10.78589517288916"><ele>235.0</ele><time>2026-03-24T09:21:44.999Z</time></trkpt><trkpt lat="45.59648219924755" lon="10.78576929521382"><ele>234.0</ele><time>2026-03-24T09:21:46.999Z</time></trkpt><trkpt lat="45.596446437493654" lon="10.785626256114076"><ele>233.0</ele><time>2026-03-24T09:21:48.999Z</time></trkpt><trkpt lat="45.59640604605897" lon="10.785468387066217"><ele>232.0</ele><time>2026-03-24T09:21:50.999Z</time></trkpt><trkpt lat="45.59635584150992" lon="10.78530659324813"><ele>232.0</ele><time>2026-03-24T09:21:52.999Z</time></trkpt><trkpt lat="45.596302518573374" lon="10.785145562424116"><ele>232.0</ele><time>2026-03-24T09:21:54.999Z</time></trkpt><trkpt lat="45.596246088908515" lon="10.78499077433922"><ele>232.0</ele><time>2026-03-24T09:21:56.999Z</time></trkpt><trkpt lat="45.5961850911281" lon="10.784839664410768"><ele>232.0</ele><time>2026-03-24T09:21:58.999Z</time></trkpt><trkpt lat="45.59611819664051" lon="10.784701202269057"><ele>231.75</ele><time>2026-03-24T09:22:00.999Z</time></trkpt><trkpt lat="45.59604397854632" lon="10.784560580083358"><ele>231.5</ele><time>2026-03-24T09:22:02.999Z</time></trkpt><trkpt lat="45.595967818306185" lon="10.78442408523624"><ele>231.25</ele><time>2026-03-24T09:22:04.999Z</time></trkpt><trkpt lat="45.5958980043386" lon="10.784288094608403"><ele>231.0</ele><time>2026-03-24T09:22:06.999Z</time></trkpt><trkpt lat="45.595822852204634" lon="10.784162854900698"><ele>231.0</ele><time>2026-03-24T09:22:08.999Z</time></trkpt><trkpt lat="45.59574505835826" lon="10.784027127090152"><ele>231.0</ele><time>2026-03-24T09:22:10.999Z</time></trkpt><trkpt lat="45.59567007647952" lon="10.78388754565186"><ele>231.0</ele><time>2026-03-24T09:22:12.999Z</time></trkpt><trkpt lat="45.595599726929436" lon="10.783741909830084"><ele>231.0</ele><time>2026-03-24T09:22:14.999Z</time></trkpt><trkpt lat="45.595519137629864" lon="10.783604605392922"><ele>230.75</ele><time>2026-03-24T09:22:16.999Z</time></trkpt><trkpt lat="45.595436588446866" lon="10.783480289855"><ele>230.5</ele><time>2026-03-24T09:22:18.999Z</time></trkpt><trkpt lat="45.59534345986279" lon="10.783363328898696"><ele>230.25</ele><time>2026-03-24T09:22:20.999Z</time></trkpt><trkpt lat="45.59524930394642" lon="10.78326663036491"><ele>230.0</ele><time>2026-03-24T09:22:22.999Z</time></trkpt><trkpt lat="45.59515454589975" lon="10.78318134497849"><ele>230.00000000000003</ele><time>2026-03-24T09:22:24.999Z</time></trkpt><trkpt lat="45.59506085370479" lon="10.78312840641177"><ele>230.0</ele><time>2026-03-24T09:22:26.999Z</time></trkpt><trkpt lat="45.594974142034765" lon="10.78306958091294"><ele>230.0</ele><time>2026-03-24T09:22:28.999Z</time></trkpt><trkpt lat="45.594908232430065" lon="10.782958246850725"><ele>230.0</ele><time>2026-03-24T09:22:30.999Z</time></trkpt><trkpt lat="45.594848094471" lon="10.78289063021378"><ele>230.00000000000003</ele><time>2026-03-24T09:22:32.999Z</time></trkpt><trkpt lat="45.59479645139192" lon="10.782823945854023"><ele>230.0</ele><time>2026-03-24T09:22:33.999Z</time></trkpt><trkpt lat="45.59474691029278" lon="10.782765426365417"><ele>229.8</ele><time>2026-03-24T09:22:34.999Z</time></trkpt><trkpt lat="45.59467403203334" lon="10.782672742831032"><ele>229.6</ele><time>2026-03-24T09:22:36.999Z</time></trkpt><trkpt lat="45.59459418412399" lon="10.782582871164673"><ele>229.39999999999998</ele><time>2026-03-24T09:22:38.999Z</time></trkpt><trkpt lat="45.59452291076574" lon="10.78248527689075"><ele>229.2</ele><time>2026-03-24T09:22:40.999Z</time></trkpt><trkpt lat="45.59444941232305" lon="10.782377883122976"><ele>229.0</ele><time>2026-03-24T09:22:42.999Z</time></trkpt><trkpt lat="45.59436722707535" lon="10.782278470536365"><ele>229.0</ele><time>2026-03-24T09:22:44.999Z</time></trkpt><trkpt lat="45.59429001776396" lon="10.782182586679705"><ele>228.99999999999997</ele><time>2026-03-24T09:22:46.999Z</time></trkpt><trkpt lat="45.59420474310273" lon="10.782086675389355"><ele>228.99999999999997</ele><time>2026-03-24T09:22:48.999Z</time></trkpt><trkpt lat="45.59411950443482" lon="10.781995060814683"><ele>229.0</ele><time>2026-03-24T09:22:50.999Z</time></trkpt><trkpt lat="45.594040877566556" lon="10.781897992092611"><ele>229.0</ele><time>2026-03-24T09:22:52.999Z</time></trkpt><trkpt lat="45.5939687105704" lon="10.781801961244904"><ele>229.0</ele><time>2026-03-24T09:22:54.999Z</time></trkpt><trkpt lat="45.59388953824528" lon="10.781705521361118"><ele>228.99999999999997</ele><time>2026-03-24T09:22:56.999Z</time></trkpt><trkpt lat="45.59381497553885" lon="10.78161088713011"><ele>228.99999999999997</ele><time>2026-03-24T09:22:58.999Z</time></trkpt><trkpt lat="45.59374110590323" lon="10.781480669526264"><ele>229.0</ele><time>2026-03-24T09:23:00.999Z</time></trkpt><trkpt lat="45.59365981238392" lon="10.781369649640334"><ele>229.0</ele><time>2026-03-24T09:23:02.999Z</time></trkpt><trkpt lat="45.593575707647204" lon="10.781264101264384"><ele>229.0</ele><time>2026-03-24T09:23:04.999Z</time></trkpt><trkpt lat="45.593485442618785" lon="10.781166680946127"><ele>229.0</ele><time>2026-03-24T09:23:06.999Z</time></trkpt><trkpt lat="45.59339389988682" lon="10.78107388901131"><ele>229.0</ele><time>2026-03-24T09:23:08.999Z</time></trkpt><trkpt lat="45.59329359643149" lon="10.780976377247832"><ele>229.0</ele><time>2026-03-24T09:23:10.999Z</time></trkpt><trkpt lat="45.59320071797569" lon="10.78086514485621"><ele>228.5</ele><time>2026-03-24T09:23:12.999Z</time></trkpt><trkpt lat="45.59312471444456" lon="10.780733922025407"><ele>228.0</ele><time>2026-03-24T09:23:14.999Z</time></trkpt><trkpt lat="45.59305917539623" lon="10.780589510987548"><ele>227.5</ele><time>2026-03-24T09:23:16.999Z</time></trkpt><trkpt lat="45.5930049697291" lon="10.780436039626549"><ele>227.0</ele><time>2026-03-24T09:23:18.999Z</time></trkpt><trkpt lat="45.59295190138914" lon="10.780285063496379"><ele>227.25</ele><time>2026-03-24T09:23:20.999Z</time></trkpt><trkpt lat="45.59289223907967" lon="10.78014210585792"><ele>227.5</ele><time>2026-03-24T09:23:22.999Z</time></trkpt><trkpt lat="45.59282564803946" lon="10.780001226790061"><ele>227.75</ele><time>2026-03-24T09:23:24.999Z</time></trkpt><trkpt lat="45.592751367167594" lon="10.779869479908205"><ele>228.0</ele><time>2026-03-24T09:23:26.999Z</time></trkpt><trkpt lat="45.59267322037753" lon="10.779742417835608"><ele>228.0</ele><time>2026-03-24T09:23:28.998Z</time></trkpt><trkpt lat="45.592583648256706" lon="10.77963259530459"><ele>228.0</ele><time>2026-03-24T09:23:30.998Z</time></trkpt><trkpt lat="45.592489974917626" lon="10.77954417147138"><ele>228.0</ele><time>2026-03-24T09:23:32.998Z</time></trkpt><trkpt lat="45.59240599798187" lon="10.779449461077766"><ele>228.0</ele><time>2026-03-24T09:23:34.998Z</time></trkpt><trkpt lat="45.59234082637893" lon="10.779328383794448"><ele>228.0</ele><time>2026-03-24T09:23:36.998Z</time></trkpt><trkpt lat="45.59228665529043" lon="10.77919401719785"><ele>227.8</ele><time>2026-03-24T09:23:38.998Z</time></trkpt><trkpt lat="45.592214206191606" lon="10.779084151434514"><ele>227.60000000000002</ele><time>2026-03-24T09:23:40.998Z</time></trkpt><trkpt lat="45.59214405239657" lon="10.779014273423725"><ele>227.39999999999998</ele><time>2026-03-24T09:23:43.998Z</time></trkpt><trkpt lat="45.59204622425806" lon="10.77889952094567"><ele>227.2</ele><time>2026-03-24T09:23:44.998Z</time></trkpt><trkpt lat="45.59196322201478" lon="10.778801657901049"><ele>227.0</ele><time>2026-03-24T09:23:46.998Z</time></trkpt><trkpt lat="45.59187210318491" lon="10.778704786102157"><ele>227.0</ele><time>2026-03-24T09:23:48.998Z</time></trkpt><trkpt lat="45.591790376279775" lon="10.778616081382665"><ele>227.0</ele><time>2026-03-24T09:23:50.998Z</time></trkpt><trkpt lat="45.591715050900945" lon="10.778525426869063"><ele>227.0</ele><time>2026-03-24T09:23:52.999Z</time></trkpt><trkpt lat="45.59163757898756" lon="10.778434523772546"><ele>227.0</ele><time>2026-03-24T09:23:54.999Z</time></trkpt><trkpt lat="45.59156370444075" lon="10.778336432803918"><ele>227.0</ele><time>2026-03-24T09:23:56.999Z</time></trkpt><trkpt lat="45.59148715353418" lon="10.778239764396305"><ele>226.8</ele><time>2026-03-24T09:23:58.999Z</time></trkpt><trkpt lat="45.591414013682034" lon="10.778142972764671"><ele>226.6</ele><time>2026-03-24T09:24:00.999Z</time></trkpt><trkpt lat="45.59133197536328" lon="10.778051519187404"><ele>226.40000000000003</ele><time>2026-03-24T09:24:02.999Z</time></trkpt><trkpt lat="45.5912667025017" lon="10.777947930478879"><ele>226.20000000000002</ele><time>2026-03-24T09:24:04.999Z</time></trkpt><trkpt lat="45.59119186416611" lon="10.777843804648093"><ele>226.0</ele><time>2026-03-24T09:24:06.999Z</time></trkpt><trkpt lat="45.59115387234188" lon="10.777762608586848"><ele>225.60000000000002</ele><time>2026-03-24T09:24:08.999Z</time></trkpt><trkpt lat="45.59110736519027" lon="10.777673759382523"><ele>225.20000000000002</ele><time>2026-03-24T09:24:09.999Z</time></trkpt><trkpt lat="45.59101231505353" lon="10.777532666133059"><ele>224.79999999999998</ele><time>2026-03-24T09:24:11.999Z</time></trkpt><trkpt lat="45.59093386508625" lon="10.777411003082339"><ele>224.39999999999998</ele><time>2026-03-24T09:24:13.999Z</time></trkpt><trkpt lat="45.59085255881072" lon="10.777292570766948"><ele>224.0</ele><time>2026-03-24T09:24:15.999Z</time></trkpt><trkpt lat="45.5907750671884" lon="10.777164816715345"><ele>224.00000000000003</ele><time>2026-03-24T09:24:17.999Z</time></trkpt><trkpt lat="45.59070111850644" lon="10.777030503116498"><ele>224.0</ele><time>2026-03-24T09:24:19.999Z</time></trkpt><trkpt lat="45.59061544576023" lon="10.77689333903355"><ele>224.0</ele><time>2026-03-24T09:24:21.999Z</time></trkpt><trkpt lat="45.590568628315154" lon="10.776827864221232"><ele>224.0</ele><time>2026-03-24T09:24:22.999Z</time></trkpt><trkpt lat="45.590521987328025" lon="10.776763126668023"><ele>224.00000000000003</ele><time>2026-03-24T09:24:23.999Z</time></trkpt><trkpt lat="45.590474357166016" lon="10.776701741431866"><ele>224.0</ele><time>2026-03-24T09:24:24.999Z</time></trkpt><trkpt lat="45.590424426147926" lon="10.776642622757299"><ele>224.00000000000003</ele><time>2026-03-24T09:24:25.999Z</time></trkpt><trkpt lat="45.59037480728442" lon="10.776582275158093"><ele>224.0</ele><time>2026-03-24T09:24:26.999Z</time></trkpt><trkpt lat="45.59032480934409" lon="10.77652230753911"><ele>224.0</ele><time>2026-03-24T09:24:27.999Z</time></trkpt><trkpt lat="45.59027284520078" lon="10.776466823472717"><ele>224.0</ele><time>2026-03-24T09:24:28.999Z</time></trkpt><trkpt lat="45.59022060707922" lon="10.776410657414775"><ele>224.00000000000003</ele><time>2026-03-24T09:24:29.999Z</time></trkpt><trkpt lat="45.59013664382163" lon="10.776306912042948"><ele>224.0</ele><time>2026-03-24T09:24:31.999Z</time></trkpt><trkpt lat="45.59003283113166" lon="10.776203746277398"><ele>224.0</ele><time>2026-03-24T09:24:33.999Z</time></trkpt><trkpt lat="45.58994050290931" lon="10.776097337537681"><ele>223.99999999999997</ele><time>2026-03-24T09:24:35.999Z</time></trkpt><trkpt lat="45.58983802941739" lon="10.77600168138436"><ele>223.99999999999997</ele><time>2026-03-24T09:24:37.999Z</time></trkpt><trkpt lat="45.58978341796737" lon="10.775955988304704"><ele>224.0</ele><time>2026-03-24T09:24:38.999Z</time></trkpt><trkpt lat="45.58969401428191" lon="10.775848911022832"><ele>224.0</ele><time>2026-03-24T09:24:40.999Z</time></trkpt><trkpt lat="45.58960518675341" lon="10.77574925843675"><ele>223.25</ele><time>2026-03-24T09:24:42.999Z</time></trkpt><trkpt lat="45.58952282393547" lon="10.775618246702226"><ele>222.5</ele><time>2026-03-24T09:24:44.999Z</time></trkpt><trkpt lat="45.58945310125344" lon="10.77547763070145"><ele>221.75</ele><time>2026-03-24T09:24:46.999Z</time></trkpt><trkpt lat="45.58938694162052" lon="10.775332660873966"><ele>221.0</ele><time>2026-03-24T09:24:48.999Z</time></trkpt><trkpt lat="45.58932346415606" lon="10.775185614123423"><ele>220.66666666666669</ele><time>2026-03-24T09:24:50.999Z</time></trkpt><trkpt lat="45.58925587677133" lon="10.775033781757642"><ele>220.33333333333334</ele><time>2026-03-24T09:24:52.999Z</time></trkpt><trkpt lat="45.58922370458406" lon="10.774954731391244"><ele>220.0</ele><time>2026-03-24T09:24:53.999Z</time></trkpt><trkpt lat="45.589192035945864" lon="10.774871534957345"><ele>219.66666666666669</ele><time>2026-03-24T09:24:54.999Z</time></trkpt><trkpt lat="45.58916017646391" lon="10.774788978257131"><ele>219.33333333333334</ele><time>2026-03-24T09:24:55.999Z</time></trkpt><trkpt lat="45.58912836329692" lon="10.774703641139832"><ele>219.0</ele><time>2026-03-24T09:24:56.999Z</time></trkpt><trkpt lat="45.58909769870806" lon="10.774622850755476"><ele>219.0</ele><time>2026-03-24T09:24:57.999Z</time></trkpt><trkpt lat="45.58906908539196" lon="10.774539726397846"><ele>218.99999999999997</ele><time>2026-03-24T09:24:58.999Z</time></trkpt><trkpt lat="45.58903522759449" lon="10.774463293427857"><ele>218.99999999999997</ele><time>2026-03-24T09:24:59.999Z</time></trkpt><trkpt lat="45.58898223434909" lon="10.774308073106035"><ele>219.0</ele><time>2026-03-24T09:25:01.999Z</time></trkpt><trkpt lat="45.588928270661924" lon="10.774162487619469"><ele>219.0</ele><time>2026-03-24T09:25:03.999Z</time></trkpt><trkpt lat="45.58886518833421" lon="10.77401434653197"><ele>219.0</ele><time>2026-03-24T09:25:05.999Z</time></trkpt><trkpt lat="45.58877390212579" lon="10.77389675085094"><ele>219.0</ele><time>2026-03-24T09:25:07.999Z</time></trkpt><trkpt lat="45.58868274362314" lon="10.77378985493257"><ele>219.0</ele><time>2026-03-24T09:25:09.999Z</time></trkpt><trkpt lat="45.58859143619327" lon="10.773676640170269"><ele>219.0</ele><time>2026-03-24T09:25:11.999Z</time></trkpt><trkpt lat="45.58849383961318" lon="10.7735900647724"><ele>218.75</ele><time>2026-03-24T09:25:13.999Z</time></trkpt><trkpt lat="45.58839687590092" lon="10.773497868503714"><ele>218.5</ele><time>2026-03-24T09:25:15.999Z</time></trkpt><trkpt lat="45.58829934673426" lon="10.773399204093947"><ele>218.25</ele><time>2026-03-24T09:25:17.999Z</time></trkpt><trkpt lat="45.588201553147606" lon="10.773301379527636"><ele>218.0</ele><time>2026-03-24T09:25:19.999Z</time></trkpt><trkpt lat="45.588110480214695" lon="10.773195250475467"><ele>218.0</ele><time>2026-03-24T09:25:21.999Z</time></trkpt><trkpt lat="45.588016515738566" lon="10.773084356160233"><ele>218.0</ele><time>2026-03-24T09:25:23.999Z</time></trkpt><trkpt lat="45.58792713777056" lon="10.772974304238872"><ele>218.0</ele><time>2026-03-24T09:25:25.999Z</time></trkpt><trkpt lat="45.58784340268563" lon="10.772856454504945"><ele>218.0</ele><time>2026-03-24T09:25:27.999Z</time></trkpt><trkpt lat="45.587759055447734" lon="10.772743672745069"><ele>218.0</ele><time>2026-03-24T09:25:29.999Z</time></trkpt><trkpt lat="45.5876740398519" lon="10.772631730861638"><ele>218.0</ele><time>2026-03-24T09:25:31.999Z</time></trkpt><trkpt lat="45.58760207444281" lon="10.772505643438455"><ele>218.0</ele><time>2026-03-24T09:25:33.999Z</time></trkpt><trkpt lat="45.5875314089032" lon="10.772379761622664"><ele>218.0</ele><time>2026-03-24T09:25:35.999Z</time></trkpt><trkpt lat="45.58746272770372" lon="10.77225476391687"><ele>218.0</ele><time>2026-03-24T09:25:37.999Z</time></trkpt><trkpt lat="45.58739291086538" lon="10.77212977006962"><ele>218.0</ele><time>2026-03-24T09:25:39.999Z</time></trkpt><trkpt lat="45.587319787432186" lon="10.772003132247223"><ele>218.0</ele><time>2026-03-24T09:25:41.999Z</time></trkpt><trkpt lat="45.5872431179725" lon="10.771889913028575"><ele>218.0</ele><time>2026-03-24T09:25:43.998Z</time></trkpt><trkpt lat="45.58715513526784" lon="10.771800047002298"><ele>218.0</ele><time>2026-03-24T09:25:45.998Z</time></trkpt><trkpt lat="45.58707997929957" lon="10.771684954045218"><ele>218.0</ele><time>2026-03-24T09:25:47.998Z</time></trkpt><trkpt lat="45.58700833026606" lon="10.771553771846941"><ele>218.0</ele><time>2026-03-24T09:25:49.998Z</time></trkpt><trkpt lat="45.58693337131395" lon="10.771442386815481"><ele>218.0</ele><time>2026-03-24T09:25:51.998Z</time></trkpt><trkpt lat="45.58685323068812" lon="10.771327816877744"><ele>218.0</ele><time>2026-03-24T09:25:53.998Z</time></trkpt><trkpt lat="45.586774005847474" lon="10.771198654190766"><ele>218.0</ele><time>2026-03-24T09:25:55.998Z</time></trkpt><trkpt lat="45.58674422382612" lon="10.77111417094764"><ele>218.0</ele><time>2026-03-24T09:25:56.998Z</time></trkpt><trkpt lat="45.58667829999005" lon="10.770972738571118"><ele>218.0</ele><time>2026-03-24T09:25:58.998Z</time></trkpt><trkpt lat="45.586618606132" lon="10.7708288891763"><ele>218.0</ele><time>2026-03-24T09:26:00.999Z</time></trkpt><trkpt lat="45.586555748423606" lon="10.770695381406258"><ele>218.0</ele><time>2026-03-24T09:26:02.999Z</time></trkpt><trkpt lat="45.586507632294854" lon="10.770551513220706"><ele>217.83333333333334</ele><time>2026-03-24T09:26:04.999Z</time></trkpt><trkpt lat="45.58644921791719" lon="10.770424856527281"><ele>217.66666666666669</ele><time>2026-03-24T09:26:06.999Z</time></trkpt><trkpt lat="45.586391807150235" lon="10.770299296194874"><ele>217.5</ele><time>2026-03-24T09:26:08.999Z</time></trkpt><trkpt lat="45.58633417890048" lon="10.770248228293635"><ele>217.33333333333331</ele><time>2026-03-24T09:26:10.999Z</time></trkpt><trkpt lat="45.58627634174695" lon="10.77021215646588"><ele>217.16666666666666</ele><time>2026-03-24T09:26:11.999Z</time></trkpt><trkpt lat="45.58620370174641" lon="10.77019426196577"><ele>217.0</ele><time>2026-03-24T09:26:12.999Z</time></trkpt><trkpt lat="45.58611577513428" lon="10.770220608177121"><ele>217.0</ele><time>2026-03-24T09:26:14.999Z</time></trkpt><trkpt lat="45.586072330783466" lon="10.77037245527979"><ele>217.0</ele><time>2026-03-24T09:26:15.999Z</time></trkpt><trkpt lat="45.58593868168042" lon="10.770484057460232"><ele>217.0</ele><time>2026-03-24T09:26:18.999Z</time></trkpt><trkpt lat="45.58589486394973" lon="10.770584759428619"><ele>217.0</ele><time>2026-03-24T09:26:20.999Z</time></trkpt><trkpt lat="45.58568899424244" lon="10.77035726644951"><ele>217.0</ele><time>2026-03-24T09:26:22.999Z</time></trkpt><trkpt lat="45.58558906617644" lon="10.770353026593574"><ele>217.0</ele><time>2026-03-24T09:26:24.999Z</time></trkpt><trkpt lat="45.5855216010163" lon="10.770243338658167"><ele>217.0</ele><time>2026-03-24T09:26:26.999Z</time></trkpt><trkpt lat="45.585454815801334" lon="10.770131768591659"><ele>217.0</ele><time>2026-03-24T09:26:28.999Z</time></trkpt><trkpt lat="45.58537931400665" lon="10.770029431460756"><ele>217.0</ele><time>2026-03-24T09:26:30.999Z</time></trkpt><trkpt lat="45.58530730143138" lon="10.769929720943862"><ele>216.8</ele><time>2026-03-24T09:26:32.999Z</time></trkpt><trkpt lat="45.58523080998235" lon="10.769829785061841"><ele>216.6</ele><time>2026-03-24T09:26:34.999Z</time></trkpt><trkpt lat="45.58516647956601" lon="10.769730708077864"><ele>216.40000000000003</ele><time>2026-03-24T09:26:36.999Z</time></trkpt><trkpt lat="45.58509166240778" lon="10.769614775540612"><ele>216.20000000000002</ele><time>2026-03-24T09:26:38.999Z</time></trkpt><trkpt lat="45.5850128952489" lon="10.769505683335849"><ele>216.0</ele><time>2026-03-24T09:26:40.999Z</time></trkpt><trkpt lat="45.58493513969344" lon="10.769408069502738"><ele>215.60000000000002</ele><time>2026-03-24T09:26:42.999Z</time></trkpt><trkpt lat="45.58485242359528" lon="10.769289430216123"><ele>215.20000000000002</ele><time>2026-03-24T09:26:44.999Z</time></trkpt><trkpt lat="45.58477371227583" lon="10.769184728787202"><ele>214.79999999999998</ele><time>2026-03-24T09:26:46.999Z</time></trkpt><trkpt lat="45.584693007421826" lon="10.769076784047062"><ele>214.39999999999998</ele><time>2026-03-24T09:26:48.999Z</time></trkpt><trkpt lat="45.58461029182648" lon="10.768973400104935"><ele>214.0</ele><time>2026-03-24T09:26:50.999Z</time></trkpt><trkpt lat="45.58453025100913" lon="10.768864058822862"><ele>213.79999999999998</ele><time>2026-03-24T09:26:52.999Z</time></trkpt><trkpt lat="45.58445399797587" lon="10.768756837111237"><ele>213.59999999999997</ele><time>2026-03-24T09:26:54.999Z</time></trkpt><trkpt lat="45.5843618999502" lon="10.768664517167034"><ele>213.4</ele><time>2026-03-24T09:26:56.999Z</time></trkpt><trkpt lat="45.58425909622541" lon="10.768595858695384"><ele>213.2</ele><time>2026-03-24T09:26:58.999Z</time></trkpt><trkpt lat="45.58415769547433" lon="10.768545485822049"><ele>213.0</ele><time>2026-03-24T09:27:00.999Z</time></trkpt><trkpt lat="45.58405398276953" lon="10.76849264037517"><ele>213.0</ele><time>2026-03-24T09:27:02.999Z</time></trkpt><trkpt lat="45.583954507466174" lon="10.768428326338752"><ele>213.0</ele><time>2026-03-24T09:27:04.999Z</time></trkpt><trkpt lat="45.58385722897053" lon="10.768385523449151"><ele>213.0</ele><time>2026-03-24T09:27:06.999Z</time></trkpt><trkpt lat="45.58375098296847" lon="10.76835665609215"><ele>213.0</ele><time>2026-03-24T09:27:08.999Z</time></trkpt><trkpt lat="45.58366713730478" lon="10.768311801617765"><ele>213.0</ele><time>2026-03-24T09:27:10.999Z</time></trkpt><trkpt lat="45.583540544994236" lon="10.768275113411972"><ele>213.0</ele><time>2026-03-24T09:27:12.999Z</time></trkpt><trkpt lat="45.58343018318571" lon="10.76825111128318"><ele>213.0</ele><time>2026-03-24T09:27:14.999Z</time></trkpt><trkpt lat="45.58332099486088" lon="10.76822533214492"><ele>213.0</ele><time>2026-03-24T09:27:16.999Z</time></trkpt><trkpt lat="45.58320478794982" lon="10.76820129640049"><ele>213.0</ele><time>2026-03-24T09:27:18.999Z</time></trkpt><trkpt lat="45.58309561809098" lon="10.768161248353264"><ele>213.0</ele><time>2026-03-24T09:27:20.999Z</time></trkpt><trkpt lat="45.582984082283154" lon="10.768123338299075"><ele>213.0</ele><time>2026-03-24T09:27:22.999Z</time></trkpt><trkpt lat="45.582875359093144" lon="10.76808926512864"><ele>213.0</ele><time>2026-03-24T09:27:24.999Z</time></trkpt><trkpt lat="45.582768747168664" lon="10.76806053382041"><ele>213.0</ele><time>2026-03-24T09:27:26.999Z</time></trkpt><trkpt lat="45.58265908311296" lon="10.768039620502254"><ele>213.0</ele><time>2026-03-24T09:27:28.999Z</time></trkpt><trkpt lat="45.58254503890569" lon="10.76804114337821"><ele>212.75</ele><time>2026-03-24T09:27:30.999Z</time></trkpt><trkpt lat="45.5824419016523" lon="10.768048025615817"><ele>212.5</ele><time>2026-03-24T09:27:32.999Z</time></trkpt><trkpt lat="45.58232761294706" lon="10.768060735179487"><ele>212.25</ele><time>2026-03-24T09:27:34.999Z</time></trkpt><trkpt lat="45.5822107220238" lon="10.768076852825308"><ele>212.0</ele><time>2026-03-24T09:27:36.999Z</time></trkpt><trkpt lat="45.5820960522211" lon="10.768100667755046"><ele>211.5</ele><time>2026-03-24T09:27:38.999Z</time></trkpt><trkpt lat="45.58198304457362" lon="10.768107914596678"><ele>211.0</ele><time>2026-03-24T09:27:40.999Z</time></trkpt><trkpt lat="45.58186653503928" lon="10.768123462472474"><ele>210.5</ele><time>2026-03-24T09:27:42.999Z</time></trkpt><trkpt lat="45.58175384752527" lon="10.768133665168916"><ele>210.0</ele><time>2026-03-24T09:27:44.999Z</time></trkpt><trkpt lat="45.581643266204225" lon="10.768144585051484"><ele>210.0</ele><time>2026-03-24T09:27:46.999Z</time></trkpt><trkpt lat="45.581534257836815" lon="10.768155405376815"><ele>210.0</ele><time>2026-03-24T09:27:48.998Z</time></trkpt><trkpt lat="45.581421751580294" lon="10.768161973790164"><ele>210.0</ele><time>2026-03-24T09:27:50.998Z</time></trkpt><trkpt lat="45.581313124059506" lon="10.76817701342151"><ele>210.0</ele><time>2026-03-24T09:27:52.998Z</time></trkpt><trkpt lat="45.58120471419525" lon="10.76819500577172"><ele>210.0</ele><time>2026-03-24T09:27:54.998Z</time></trkpt><trkpt lat="45.581095400779276" lon="10.768211792958573"><ele>210.75</ele><time>2026-03-24T09:27:56.998Z</time></trkpt><trkpt lat="45.580982016873165" lon="10.768196032197348"><ele>211.5</ele><time>2026-03-24T09:27:58.998Z</time></trkpt><trkpt lat="45.580864208599934" lon="10.768200599186892"><ele>212.25</ele><time>2026-03-24T09:28:00.998Z</time></trkpt><trkpt lat="45.580748925640755" lon="10.768198396389852"><ele>213.0</ele><time>2026-03-24T09:28:02.998Z</time></trkpt><trkpt lat="45.58063541306118" lon="10.768179147633214"><ele>213.0</ele><time>2026-03-24T09:28:04.999Z</time></trkpt><trkpt lat="45.58051954426544" lon="10.76814264011601"><ele>213.0</ele><time>2026-03-24T09:28:06.999Z</time></trkpt><trkpt lat="45.58040859564475" lon="10.768100923459164"><ele>213.0</ele><time>2026-03-24T09:28:08.999Z</time></trkpt><trkpt lat="45.58030837928782" lon="10.76805613258651"><ele>213.0</ele><time>2026-03-24T09:28:10.999Z</time></trkpt><trkpt lat="45.58020620425051" lon="10.768007482902627"><ele>213.0</ele><time>2026-03-24T09:28:12.999Z</time></trkpt><trkpt lat="45.58010267404894" lon="10.767947780280041"><ele>213.0</ele><time>2026-03-24T09:28:14.999Z</time></trkpt><trkpt lat="45.58004251026654" lon="10.767913334752803"><ele>213.0</ele><time>2026-03-24T09:28:15.999Z</time></trkpt><trkpt lat="45.57994236441281" lon="10.767839706708715"><ele>213.0</ele><time>2026-03-24T09:28:17.999Z</time></trkpt><trkpt lat="45.5798370841418" lon="10.767765954959792"><ele>213.0</ele><time>2026-03-24T09:28:19.999Z</time></trkpt><trkpt lat="45.57971770830702" lon="10.76771052194028"><ele>213.0</ele><time>2026-03-24T09:28:21.999Z</time></trkpt><trkpt lat="45.57959721203581" lon="10.767665506313078"><ele>212.5</ele><time>2026-03-24T09:28:23.999Z</time></trkpt><trkpt lat="45.5794755537396" lon="10.767630954891763"><ele>212.0</ele><time>2026-03-24T09:28:25.999Z</time></trkpt><trkpt lat="45.57935590337017" lon="10.767606874787814"><ele>211.5</ele><time>2026-03-24T09:28:27.999Z</time></trkpt><trkpt lat="45.57923753037765" lon="10.767583567933196"><ele>211.0</ele><time>2026-03-24T09:28:29.999Z</time></trkpt><trkpt lat="45.57912141280851" lon="10.76756515953263"><ele>211.0</ele><time>2026-03-24T09:28:31.999Z</time></trkpt><trkpt lat="45.57900222598035" lon="10.767543098106128"><ele>211.0</ele><time>2026-03-24T09:28:33.999Z</time></trkpt><trkpt lat="45.578888108658724" lon="10.767523017425535"><ele>211.0</ele><time>2026-03-24T09:28:35.999Z</time></trkpt><trkpt lat="45.57876730910254" lon="10.767503897447769"><ele>211.0</ele><time>2026-03-24T09:28:37.999Z</time></trkpt><trkpt lat="45.57865034326158" lon="10.76748529440525"><ele>211.0</ele><time>2026-03-24T09:28:39.999Z</time></trkpt><trkpt lat="45.57853220609086" lon="10.767455704448329"><ele>211.0</ele><time>2026-03-24T09:28:41.999Z</time></trkpt><trkpt lat="45.57841160169274" lon="10.76743386343841"><ele>211.0</ele><time>2026-03-24T09:28:43.999Z</time></trkpt><trkpt lat="45.57829252755407" lon="10.767408264595137"><ele>211.0</ele><time>2026-03-24T09:28:45.999Z</time></trkpt><trkpt lat="45.57817461457487" lon="10.767386335405776"><ele>211.0</ele><time>2026-03-24T09:28:47.999Z</time></trkpt><trkpt lat="45.578059591983255" lon="10.767365304435408"><ele>211.0</ele><time>2026-03-24T09:28:49.999Z</time></trkpt><trkpt lat="45.5779392422273" lon="10.76733571615064"><ele>211.0</ele><time>2026-03-24T09:28:51.999Z</time></trkpt><trkpt lat="45.577821992964225" lon="10.76731156069455"><ele>211.0</ele><time>2026-03-24T09:28:53.999Z</time></trkpt><trkpt lat="45.5777032473122" lon="10.767294142840496"><ele>210.75</ele><time>2026-03-24T09:28:55.999Z</time></trkpt><trkpt lat="45.577588626981886" lon="10.767278353155637"><ele>210.5</ele><time>2026-03-24T09:28:57.999Z</time></trkpt><trkpt lat="45.57747317350561" lon="10.767264280374825"><ele>210.25</ele><time>2026-03-24T09:28:59.999Z</time></trkpt><trkpt lat="45.577356700787085" lon="10.767231001315054"><ele>210.0</ele><time>2026-03-24T09:29:01.999Z</time></trkpt><trkpt lat="45.57724320692237" lon="10.767204930610182"><ele>210.0</ele><time>2026-03-24T09:29:03.999Z</time></trkpt><trkpt lat="45.57712785097616" lon="10.767191181109473"><ele>210.0</ele><time>2026-03-24T09:29:05.999Z</time></trkpt><trkpt lat="45.577010005355305" lon="10.767168626915883"><ele>210.0</ele><time>2026-03-24T09:29:07.999Z</time></trkpt><trkpt lat="45.576891340055695" lon="10.76715288236615"><ele>210.0</ele><time>2026-03-24T09:29:09.999Z</time></trkpt><trkpt lat="45.57678085688681" lon="10.767133842086373"><ele>210.0</ele><time>2026-03-24T09:29:11.999Z</time></trkpt><trkpt lat="45.57666646987696" lon="10.767125967528477"><ele>210.0</ele><time>2026-03-24T09:29:13.999Z</time></trkpt><trkpt lat="45.57655123515436" lon="10.767119309414062"><ele>210.0</ele><time>2026-03-24T09:29:15.999Z</time></trkpt><trkpt lat="45.57643079139166" lon="10.767100095905343"><ele>210.0</ele><time>2026-03-24T09:29:17.999Z</time></trkpt><trkpt lat="45.57632161872891" lon="10.767089214724427"><ele>210.0</ele><time>2026-03-24T09:29:19.999Z</time></trkpt><trkpt lat="45.576211077929514" lon="10.767056404003105"><ele>210.0</ele><time>2026-03-24T09:29:21.999Z</time></trkpt><trkpt lat="45.57609438835047" lon="10.767024472307158"><ele>210.0</ele><time>2026-03-24T09:29:23.999Z</time></trkpt><trkpt lat="45.57597978519131" lon="10.766989851550305"><ele>210.0</ele><time>2026-03-24T09:29:25.999Z</time></trkpt><trkpt lat="45.575915182615056" lon="10.76698201120447"><ele>210.0</ele><time>2026-03-24T09:29:26.999Z</time></trkpt><trkpt lat="45.575797225144456" lon="10.766958270813321"><ele>209.85714285714286</ele><time>2026-03-24T09:29:28.999Z</time></trkpt><trkpt lat="45.5757295842278" lon="10.766933366312145"><ele>209.71428571428572</ele><time>2026-03-24T09:29:29.999Z</time></trkpt><trkpt lat="45.57566363856873" lon="10.766914306677615"><ele>209.57142857142856</ele><time>2026-03-24T09:29:30.999Z</time></trkpt><trkpt lat="45.575598016090524" lon="10.766907544622597"><ele>209.42857142857144</ele><time>2026-03-24T09:29:31.999Z</time></trkpt><trkpt lat="45.5755335157379" lon="10.766890404148311"><ele>209.28571428571428</ele><time>2026-03-24T09:29:32.999Z</time></trkpt><trkpt lat="45.575466213200855" lon="10.766870940841981"><ele>209.14285714285714</ele><time>2026-03-24T09:29:33.999Z</time></trkpt><trkpt lat="45.57539361768538" lon="10.766858529092385"><ele>209.0</ele><time>2026-03-24T09:29:34.999Z</time></trkpt><trkpt lat="45.575274933401104" lon="10.766851183190274"><ele>208.6</ele><time>2026-03-24T09:29:36.999Z</time></trkpt><trkpt lat="45.575155207727356" lon="10.766823142844936"><ele>208.2</ele><time>2026-03-24T09:29:38.999Z</time></trkpt><trkpt lat="45.57503879303852" lon="10.76679820951114"><ele>207.79999999999998</ele><time>2026-03-24T09:29:40.999Z</time></trkpt><trkpt lat="45.574934146315094" lon="10.76677586766336"><ele>207.39999999999998</ele><time>2026-03-24T09:29:42.999Z</time></trkpt><trkpt lat="45.57485521212793" lon="10.766744812676887"><ele>207.0</ele><time>2026-03-24T09:29:44.999Z</time></trkpt><trkpt lat="45.57486517446035" lon="10.766647850118034"><ele>207.0</ele><time>2026-03-24T09:29:46.999Z</time></trkpt><trkpt lat="45.57486718629298" lon="10.76643558696939"><ele>207.0</ele><time>2026-03-24T09:29:49.999Z</time></trkpt><trkpt lat="45.574935221222844" lon="10.76630068165601"><ele>207.0</ele><time>2026-03-24T09:29:51.999Z</time></trkpt><trkpt lat="45.57497507993513" lon="10.766229024786607"><ele>207.0</ele><time>2026-03-24T09:29:52.999Z</time></trkpt><trkpt lat="45.575026335711634" lon="10.766091538626872"><ele>207.0</ele><time>2026-03-24T09:29:54.998Z</time></trkpt><trkpt lat="45.575065143991885" lon="10.765960207020878"><ele>207.39999999999998</ele><time>2026-03-24T09:29:56.998Z</time></trkpt><trkpt lat="45.57510615557711" lon="10.765843620581963"><ele>207.79999999999998</ele><time>2026-03-24T09:29:58.998Z</time></trkpt><trkpt lat="45.575162440814374" lon="10.765732346507736"><ele>208.2</ele><time>2026-03-24T09:30:00.998Z</time></trkpt><trkpt lat="45.57520748015127" lon="10.76560264902899"><ele>208.6</ele><time>2026-03-24T09:30:02.998Z</time></trkpt><trkpt lat="45.57524322632711" lon="10.7654652693685"><ele>209.0</ele><time>2026-03-24T09:30:04.998Z</time></trkpt><trkpt lat="45.57528661541956" lon="10.76534458236537"><ele>209.0</ele><time>2026-03-24T09:30:06.999Z</time></trkpt><trkpt lat="45.5753355291984" lon="10.765221590258957"><ele>209.0</ele><time>2026-03-24T09:30:08.999Z</time></trkpt><trkpt lat="45.575364867063485" lon="10.765093101974482"><ele>209.0</ele><time>2026-03-24T09:30:10.999Z</time></trkpt><trkpt lat="45.57528001889354" lon="10.764941330771185"><ele>209.0</ele><time>2026-03-24T09:30:12.999Z</time></trkpt><trkpt lat="45.57520445296518" lon="10.764821896908362"><ele>209.0</ele><time>2026-03-24T09:30:14.999Z</time></trkpt><trkpt lat="45.57513173820964" lon="10.76469700405042"><ele>208.75</ele><time>2026-03-24T09:30:16.999Z</time></trkpt><trkpt lat="45.57506513401156" lon="10.764561626227522"><ele>208.5</ele><time>2026-03-24T09:30:18.999Z</time></trkpt><trkpt lat="45.57504595462524" lon="10.764394872043889"><ele>208.25</ele><time>2026-03-24T09:30:20.999Z</time></trkpt><trkpt lat="45.5750644573386" lon="10.764234511269589"><ele>208.0</ele><time>2026-03-24T09:30:22.999Z</time></trkpt><trkpt lat="45.57508480081496" lon="10.76407213480869"><ele>207.5</ele><time>2026-03-24T09:30:24.999Z</time></trkpt><trkpt lat="45.57510701218451" lon="10.763904468023709"><ele>207.0</ele><time>2026-03-24T09:30:26.999Z</time></trkpt><trkpt lat="45.57512489010481" lon="10.763735983294225"><ele>206.5</ele><time>2026-03-24T09:30:28.999Z</time></trkpt><trkpt lat="45.57514297390987" lon="10.763566317552206"><ele>206.0</ele><time>2026-03-24T09:30:30.999Z</time></trkpt><trkpt lat="45.57516755434495" lon="10.763405468584002"><ele>205.75</ele><time>2026-03-24T09:30:32.999Z</time></trkpt><trkpt lat="45.575184112372504" lon="10.7632379420525"><ele>205.5</ele><time>2026-03-24T09:30:34.999Z</time></trkpt><trkpt lat="45.57521966623277" lon="10.763074931208486"><ele>205.25</ele><time>2026-03-24T09:30:36.999Z</time></trkpt><trkpt lat="45.57523453870104" lon="10.762910756867571"><ele>205.0</ele><time>2026-03-24T09:30:38.999Z</time></trkpt><trkpt lat="45.57525648522145" lon="10.762753785038496"><ele>204.8</ele><time>2026-03-24T09:30:40.999Z</time></trkpt><trkpt lat="45.57526956464942" lon="10.762601539862574"><ele>204.6</ele><time>2026-03-24T09:30:42.999Z</time></trkpt><trkpt lat="45.57528680855004" lon="10.76244824272222"><ele>204.39999999999998</ele><time>2026-03-24T09:30:44.999Z</time></trkpt><trkpt lat="45.57527287899893" lon="10.762293219839131"><ele>204.2</ele><time>2026-03-24T09:30:46.999Z</time></trkpt><trkpt lat="45.57523707474079" lon="10.762140939089802"><ele>204.0</ele><time>2026-03-24T09:30:48.999Z</time></trkpt><trkpt lat="45.575199505097366" lon="10.761980089833441"><ele>203.75</ele><time>2026-03-24T09:30:50.999Z</time></trkpt><trkpt lat="45.57518436245798" lon="10.761821668616113"><ele>203.5</ele><time>2026-03-24T09:30:52.999Z</time></trkpt><trkpt lat="45.575166141716025" lon="10.761657362578221"><ele>203.25</ele><time>2026-03-24T09:30:54.999Z</time></trkpt><trkpt lat="45.575147530459795" lon="10.761499484745356"><ele>203.0</ele><time>2026-03-24T09:30:56.999Z</time></trkpt><trkpt lat="45.575129066302786" lon="10.761338514459572"><ele>203.00000000000003</ele><time>2026-03-24T09:30:58.999Z</time></trkpt><trkpt lat="45.575106223613055" lon="10.761181767148566"><ele>203.0</ele><time>2026-03-24T09:31:00.999Z</time></trkpt><trkpt lat="45.57508893222316" lon="10.761022654741431"><ele>203.0</ele><time>2026-03-24T09:31:02.999Z</time></trkpt><trkpt lat="45.57507201225438" lon="10.760928001573305"><ele>203.0</ele><time>2026-03-24T09:31:05.999Z</time></trkpt><trkpt lat="45.57506358011279" lon="10.760818907321116"><ele>203.00000000000003</ele><time>2026-03-24T09:31:08.999Z</time></trkpt><trkpt lat="45.57505601778098" lon="10.760725751773018"><ele>203.0</ele><time>2026-03-24T09:31:10.999Z</time></trkpt><trkpt lat="45.575047362216274" lon="10.760565597667844"><ele>202.8</ele><time>2026-03-24T09:31:13.999Z</time></trkpt><trkpt lat="45.575027337355735" lon="10.76041033362645"><ele>202.60000000000002</ele><time>2026-03-24T09:31:15.999Z</time></trkpt><trkpt lat="45.57500104240503" lon="10.760264643965476"><ele>202.39999999999998</ele><time>2026-03-24T09:31:17.999Z</time></trkpt><trkpt lat="45.57497790587859" lon="10.760120670793626"><ele>202.2</ele><time>2026-03-24T09:31:19.999Z</time></trkpt><trkpt lat="45.57495772654933" lon="10.76000360875012"><ele>202.0</ele><time>2026-03-24T09:31:22Z</time></trkpt><trkpt lat="45.57493205133968" lon="10.759858404520156"><ele>202.39999999999998</ele><time>2026-03-24T09:31:24Z</time></trkpt><trkpt lat="45.57490834392886" lon="10.759713252415326"><ele>202.79999999999998</ele><time>2026-03-24T09:31:26Z</time></trkpt><trkpt lat="45.574886419824104" lon="10.75957983136157"><ele>203.2</ele><time>2026-03-24T09:31:28Z</time></trkpt><trkpt lat="45.574867442243416" lon="10.759413784199143"><ele>203.6</ele><time>2026-03-24T09:31:30Z</time></trkpt><trkpt lat="45.57484523130665" lon="10.759310613923676"><ele>204.0</ele><time>2026-03-24T09:31:31Z</time></trkpt><trkpt lat="45.574818660839085" lon="10.759175516766248"><ele>204.39999999999998</ele><time>2026-03-24T09:31:33Z</time></trkpt><trkpt lat="45.57480312848142" lon="10.759035891624992"><ele>204.8</ele><time>2026-03-24T09:31:35Z</time></trkpt><trkpt lat="45.574783751317796" lon="10.758891155182875"><ele>205.2</ele><time>2026-03-24T09:31:37Z</time></trkpt><trkpt lat="45.57477590954743" lon="10.758753851184824"><ele>205.60000000000002</ele><time>2026-03-24T09:31:39Z</time></trkpt><trkpt lat="45.574805828118826" lon="10.758629997292685"><ele>206.0</ele><time>2026-03-24T09:31:41Z</time></trkpt><trkpt lat="45.574896260871796" lon="10.758558261290144"><ele>206.16666666666669</ele><time>2026-03-24T09:31:43Z</time></trkpt><trkpt lat="45.57491503913169" lon="10.758440892565408"><ele>206.33333333333334</ele><time>2026-03-24T09:31:45Z</time></trkpt><trkpt lat="45.57488309388292" lon="10.758310577748466"><ele>206.5</ele><time>2026-03-24T09:31:47Z</time></trkpt><trkpt lat="45.57487608757443" lon="10.758185134313711"><ele>206.66666666666669</ele><time>2026-03-24T09:31:49Z</time></trkpt><trkpt lat="45.574862863557215" lon="10.758064523308228"><ele>206.83333333333334</ele><time>2026-03-24T09:31:51Z</time></trkpt><trkpt lat="45.57485197619556" lon="10.757950942686712"><ele>207.0</ele><time>2026-03-24T09:31:53Z</time></trkpt><trkpt lat="45.57483680839749" lon="10.757841697689377"><ele>207.00000000000003</ele><time>2026-03-24T09:31:55Z</time></trkpt><trkpt lat="45.57482655918903" lon="10.757747852823071"><ele>207.0</ele><time>2026-03-24T09:31:57Z</time></trkpt><trkpt lat="45.574823318854015" lon="10.757643540543087"><ele>207.0</ele><time>2026-03-24T09:32:00Z</time></trkpt><trkpt lat="45.57481341537112" lon="10.757554044030012"><ele>207.0</ele><time>2026-03-24T09:32:05.999Z</time></trkpt><trkpt lat="45.5747999032276" lon="10.757443603709632"><ele>207.0</ele><time>2026-03-24T09:32:08.999Z</time></trkpt><trkpt lat="45.574775503243934" lon="10.757358775528996"><ele>207.00000000000003</ele><time>2026-03-24T09:32:10.999Z</time></trkpt><trkpt lat="45.5747330903182" lon="10.757277279834476"><ele>207.0</ele><time>2026-03-24T09:32:13.999Z</time></trkpt><trkpt lat="45.5747396927934" lon="10.75717496542865"><ele>207.00000000000003</ele><time>2026-03-24T09:32:16.999Z</time></trkpt><trkpt lat="45.57475097426375" lon="10.757072476707311"><ele>207.0</ele><time>2026-03-24T09:32:18.999Z</time></trkpt><trkpt lat="45.5747463705393" lon="10.756976153110342"><ele>207.0</ele><time>2026-03-24T09:32:20.999Z</time></trkpt><trkpt lat="45.5747598053835" lon="10.756875576425863"><ele>207.0</ele><time>2026-03-24T09:32:22.999Z</time></trkpt><trkpt lat="45.5747638472727" lon="10.756775063082042"><ele>207.0</ele><time>2026-03-24T09:32:24.999Z</time></trkpt><trkpt lat="45.57477092577084" lon="10.756673489728668"><ele>207.00000000000003</ele><time>2026-03-24T09:32:26.999Z</time></trkpt><trkpt lat="45.57478655033886" lon="10.7565799369134"><ele>207.0</ele><time>2026-03-24T09:32:28.999Z</time></trkpt><trkpt lat="45.574800915852585" lon="10.756466188889151"><ele>206.83333333333334</ele><time>2026-03-24T09:32:30.999Z</time></trkpt><trkpt lat="45.57482151618602" lon="10.756358992722173"><ele>206.66666666666669</ele><time>2026-03-24T09:32:33.999Z</time></trkpt><trkpt lat="45.574824702451224" lon="10.756248761544857"><ele>206.5</ele><time>2026-03-24T09:32:34.999Z</time></trkpt><trkpt lat="45.57485243559652" lon="10.756147563309034"><ele>206.33333333333334</ele><time>2026-03-24T09:32:36.999Z</time></trkpt><trkpt lat="45.57487976960055" lon="10.75604273241983"><ele>206.16666666666669</ele><time>2026-03-24T09:32:38.999Z</time></trkpt><trkpt lat="45.574905272299475" lon="10.755938285638269"><ele>206.0</ele><time>2026-03-24T09:32:41Z</time></trkpt><trkpt lat="45.57493451863564" lon="10.755841286337263"><ele>206.28571428571428</ele><time>2026-03-24T09:32:43Z</time></trkpt><trkpt lat="45.574962525022386" lon="10.755739316578458"><ele>206.57142857142856</ele><time>2026-03-24T09:32:45Z</time></trkpt><trkpt lat="45.5749926511187" lon="10.755636995202753"><ele>206.85714285714283</ele><time>2026-03-24T09:32:47Z</time></trkpt><trkpt lat="45.57502644652383" lon="10.755547006599976"><ele>207.14285714285714</ele><time>2026-03-24T09:32:49Z</time></trkpt><trkpt lat="45.57501265264866" lon="10.755452699201163"><ele>207.42857142857144</ele><time>2026-03-24T09:32:51Z</time></trkpt><trkpt lat="45.574973685661746" lon="10.755357727825011"><ele>207.7142857142857</ele><time>2026-03-24T09:32:54Z</time></trkpt><trkpt lat="45.57491602147571" lon="10.755282803699634"><ele>208.0</ele><time>2026-03-24T09:32:58Z</time></trkpt><trkpt lat="45.574842440328545" lon="10.75525259034915"><ele>207.99999999999997</ele><time>2026-03-24T09:33:01Z</time></trkpt><trkpt lat="45.57475387829295" lon="10.755247546882698"><ele>208.0</ele><time>2026-03-24T09:33:04Z</time></trkpt><trkpt lat="45.57467262827079" lon="10.75521279441335"><ele>208.0</ele><time>2026-03-24T09:33:05Z</time></trkpt><trkpt lat="45.57458484109328" lon="10.75523491368863"><ele>208.0</ele><time>2026-03-24T09:33:07Z</time></trkpt><trkpt lat="45.57450018419825" lon="10.755258900488402"><ele>207.99999999999997</ele><time>2026-03-24T09:33:09Z</time></trkpt><trkpt lat="45.57440985347914" lon="10.755276994482765"><ele>208.0</ele><time>2026-03-24T09:33:11Z</time></trkpt><trkpt lat="45.57431538281594" lon="10.755305890990094"><ele>208.4</ele><time>2026-03-24T09:33:13Z</time></trkpt><trkpt lat="45.57421699988281" lon="10.755331803642584"><ele>208.8</ele><time>2026-03-24T09:33:15Z</time></trkpt><trkpt lat="45.57411775250035" lon="10.755356499966906"><ele>209.2</ele><time>2026-03-24T09:33:17Z</time></trkpt><trkpt lat="45.57401493357958" lon="10.755382142518155"><ele>209.6</ele><time>2026-03-24T09:33:19Z</time></trkpt><trkpt lat="45.573908430755985" lon="10.755408841757315"><ele>210.0</ele><time>2026-03-24T09:33:21Z</time></trkpt><trkpt lat="45.573814468923274" lon="10.755433580820952"><ele>210.0</ele><time>2026-03-24T09:33:23Z</time></trkpt><trkpt lat="45.573716971639165" lon="10.755453098751511"><ele>210.0</ele><time>2026-03-24T09:33:25Z</time></trkpt><trkpt lat="45.57362124869739" lon="10.75547335895568"><ele>210.0</ele><time>2026-03-24T09:33:27Z</time></trkpt><trkpt lat="45.57353150746191" lon="10.755483493891072"><ele>210.0</ele><time>2026-03-24T09:33:29Z</time></trkpt><trkpt lat="45.573433255769224" lon="10.75550596106837"><ele>210.0</ele><time>2026-03-24T09:33:31Z</time></trkpt><trkpt lat="45.5732782537338" lon="10.755563049063287"><ele>210.0</ele><time>2026-03-24T09:33:34Z</time></trkpt><trkpt lat="45.573178965243585" lon="10.755582594701744"><ele>210.0</ele><time>2026-03-24T09:33:36Z</time></trkpt><trkpt lat="45.57308047334193" lon="10.755590119690607"><ele>210.0</ele><time>2026-03-24T09:33:38Z</time></trkpt><trkpt lat="45.57297501416693" lon="10.755612895146786"><ele>210.0</ele><time>2026-03-24T09:33:40Z</time></trkpt><trkpt lat="45.57287690379227" lon="10.755633813667133"><ele>210.0</ele><time>2026-03-24T09:33:42Z</time></trkpt><trkpt lat="45.57277244921177" lon="10.7556698729725"><ele>210.2</ele><time>2026-03-24T09:33:44Z</time></trkpt><trkpt lat="45.572663622197936" lon="10.755701415863411"><ele>210.4</ele><time>2026-03-24T09:33:46Z</time></trkpt><trkpt lat="45.57255631821366" lon="10.75572247800577"><ele>210.60000000000002</ele><time>2026-03-24T09:33:48Z</time></trkpt><trkpt lat="45.57245615075164" lon="10.755754395636918"><ele>210.8</ele><time>2026-03-24T09:33:50Z</time></trkpt><trkpt lat="45.57236832368068" lon="10.755767667593465"><ele>211.0</ele><time>2026-03-24T09:33:52Z</time></trkpt><trkpt lat="45.572258121435496" lon="10.755797260984684"><ele>211.0</ele><time>2026-03-24T09:33:54Z</time></trkpt><trkpt lat="45.57215321659097" lon="10.755816126004614"><ele>211.0</ele><time>2026-03-24T09:33:56Z</time></trkpt><trkpt lat="45.5720452306493" lon="10.755838132118273"><ele>211.0</ele><time>2026-03-24T09:33:58Z</time></trkpt><trkpt lat="45.57194079217282" lon="10.755869256142809"><ele>211.0</ele><time>2026-03-24T09:34:00Z</time></trkpt><trkpt lat="45.57187665705735" lon="10.755894250626783"><ele>211.0</ele><time>2026-03-24T09:34:02Z</time></trkpt><trkpt lat="45.57180411579299" lon="10.75592053500461"><ele>210.83333333333331</ele><time>2026-03-24T09:34:04Z</time></trkpt><trkpt lat="45.571736885851855" lon="10.755922635832787"><ele>210.66666666666666</ele><time>2026-03-24T09:34:05Z</time></trkpt><trkpt lat="45.57167860191244" lon="10.755850584874656"><ele>210.5</ele><time>2026-03-24T09:34:08.999Z</time></trkpt><trkpt lat="45.57165277166674" lon="10.755741694888314"><ele>210.33333333333331</ele><time>2026-03-24T09:34:11.999Z</time></trkpt><trkpt lat="45.57158933690594" lon="10.755599744461037"><ele>210.16666666666666</ele><time>2026-03-24T09:34:12.999Z</time></trkpt><trkpt lat="45.571578815095975" lon="10.755491852919079"><ele>210.0</ele><time>2026-03-24T09:34:14.999Z</time></trkpt><trkpt lat="45.57155650317617" lon="10.755401222987423"><ele>210.0</ele><time>2026-03-24T09:34:16.999Z</time></trkpt><trkpt lat="45.57153087694493" lon="10.755302693330671"><ele>210.0</ele><time>2026-03-24T09:34:18.999Z</time></trkpt><trkpt lat="45.571519337141524" lon="10.755204545580431"><ele>210.0</ele><time>2026-03-24T09:34:20.999Z</time></trkpt><trkpt lat="45.57150104264105" lon="10.755101628599604"><ele>210.0</ele><time>2026-03-24T09:34:22.999Z</time></trkpt><trkpt lat="45.571487394467574" lon="10.754981505364915"><ele>210.0</ele><time>2026-03-24T09:34:26Z</time></trkpt><trkpt lat="45.57147323330082" lon="10.754881036861793"><ele>210.0</ele><time>2026-03-24T09:34:28Z</time></trkpt><trkpt lat="45.5714462429996" lon="10.754752119169051"><ele>210.33333333333334</ele><time>2026-03-24T09:34:31Z</time></trkpt><trkpt lat="45.571412522839985" lon="10.75462512892631"><ele>210.66666666666669</ele><time>2026-03-24T09:34:32Z</time></trkpt><trkpt lat="45.57139397592098" lon="10.754524198412302"><ele>211.0</ele><time>2026-03-24T09:34:34Z</time></trkpt><trkpt lat="45.57137961740989" lon="10.754422625796284"><ele>211.33333333333334</ele><time>2026-03-24T09:34:36Z</time></trkpt><trkpt lat="45.57136682603793" lon="10.754321088845657"><ele>211.66666666666669</ele><time>2026-03-24T09:34:38Z</time></trkpt><trkpt lat="45.57134854436287" lon="10.754196618438382"><ele>212.0</ele><time>2026-03-24T09:34:41Z</time></trkpt><trkpt lat="45.57131406193906" lon="10.75407656069404"><ele>213.00000000000003</ele><time>2026-03-24T09:34:44Z</time></trkpt><trkpt lat="45.57129009332438" lon="10.753983861577476"><ele>214.0</ele><time>2026-03-24T09:34:46Z</time></trkpt><trkpt lat="45.571270594599326" lon="10.75385411403382"><ele>215.0</ele><time>2026-03-24T09:34:49Z</time></trkpt><trkpt lat="45.5712364830458" lon="10.753726304983001"><ele>216.0</ele><time>2026-03-24T09:34:53Z</time></trkpt><trkpt lat="45.57120375881359" lon="10.753602262777765"><ele>217.00000000000003</ele><time>2026-03-24T09:34:56Z</time></trkpt><trkpt lat="45.57117322630522" lon="10.753500570325846"><ele>218.0</ele><time>2026-03-24T09:34:58Z</time></trkpt><trkpt lat="45.57114104788513" lon="10.753379083069255"><ele>218.14285714285714</ele><time>2026-03-24T09:35:01Z</time></trkpt><trkpt lat="45.57110901713955" lon="10.753293090896785"><ele>218.28571428571428</ele><time>2026-03-24T09:35:03Z</time></trkpt><trkpt lat="45.57108336563166" lon="10.753205092239861"><ele>218.42857142857144</ele><time>2026-03-24T09:35:05Z</time></trkpt><trkpt lat="45.571046314694755" lon="10.753116110118631"><ele>218.57142857142856</ele><time>2026-03-24T09:35:07Z</time></trkpt><trkpt lat="45.57099069065284" lon="10.753017206037837"><ele>218.7142857142857</ele><time>2026-03-24T09:35:08Z</time></trkpt><trkpt lat="45.570953393243364" lon="10.752932003210203"><ele>218.85714285714286</ele><time>2026-03-24T09:35:10Z</time></trkpt><trkpt lat="45.57091109518712" lon="10.752849882575608"><ele>219.0</ele><time>2026-03-24T09:35:12Z</time></trkpt><trkpt lat="45.570870551436016" lon="10.752764898124367"><ele>220.0</ele><time>2026-03-24T09:35:14Z</time></trkpt><trkpt lat="45.5708250478276" lon="10.752683840735505"><ele>221.0</ele><time>2026-03-24T09:35:16Z</time></trkpt><trkpt lat="45.57077093428755" lon="10.752594079411411"><ele>222.0</ele><time>2026-03-24T09:35:18Z</time></trkpt><trkpt lat="45.57072240584219" lon="10.75250175863409"><ele>223.0</ele><time>2026-03-24T09:35:20Z</time></trkpt><trkpt lat="45.57066615588471" lon="10.752421017289599"><ele>224.0</ele><time>2026-03-24T09:35:22Z</time></trkpt><trkpt lat="45.57060304169308" lon="10.752347176109065"><ele>225.0</ele><time>2026-03-24T09:35:24Z</time></trkpt><trkpt lat="45.57054246054176" lon="10.752268454630213"><ele>225.0</ele><time>2026-03-24T09:35:26Z</time></trkpt><trkpt lat="45.5704716397469" lon="10.75214930400905"><ele>225.0</ele><time>2026-03-24T09:35:30Z</time></trkpt><trkpt lat="45.57036149391382" lon="10.752025358569895"><ele>225.0</ele><time>2026-03-24T09:35:32Z</time></trkpt><trkpt lat="45.570312502116465" lon="10.751936242319728"><ele>225.0</ele><time>2026-03-24T09:35:34Z</time></trkpt><trkpt lat="45.57025824385246" lon="10.751851303458581"><ele>225.0</ele><time>2026-03-24T09:35:36Z</time></trkpt><trkpt lat="45.570210224490694" lon="10.75175934495635"><ele>224.83333333333334</ele><time>2026-03-24T09:35:38Z</time></trkpt><trkpt lat="45.57016977820375" lon="10.751667210152242"><ele>224.66666666666669</ele><time>2026-03-24T09:35:40Z</time></trkpt><trkpt lat="45.570132190216015" lon="10.751570682815121"><ele>224.5</ele><time>2026-03-24T09:35:42Z</time></trkpt><trkpt lat="45.57010485603696" lon="10.751463131173866"><ele>224.33333333333334</ele><time>2026-03-24T09:35:44Z</time></trkpt><trkpt lat="45.57006928002007" lon="10.75136287002435"><ele>224.16666666666669</ele><time>2026-03-24T09:35:46Z</time></trkpt><trkpt lat="45.57003001299999" lon="10.751274208024196"><ele>224.0</ele><time>2026-03-24T09:35:48Z</time></trkpt><trkpt lat="45.56998413742582" lon="10.751149968039842"><ele>224.00000000000003</ele><time>2026-03-24T09:35:51Z</time></trkpt><trkpt lat="45.56994916952418" lon="10.751053747973453"><ele>224.0</ele><time>2026-03-24T09:35:53Z</time></trkpt><trkpt lat="45.569900264139626" lon="10.750936875058537"><ele>224.0</ele><time>2026-03-24T09:35:55Z</time></trkpt><trkpt lat="45.5698734024382" lon="10.75082973308264"><ele>224.0</ele><time>2026-03-24T09:35:57Z</time></trkpt><trkpt lat="45.56984095024025" lon="10.750669282379201"><ele>224.00000000000003</ele><time>2026-03-24T09:36:00Z</time></trkpt><trkpt lat="45.569808283084086" lon="10.750580109577852"><ele>224.0</ele><time>2026-03-24T09:36:02Z</time></trkpt><trkpt lat="45.5697725186212" lon="10.750463490356267"><ele>224.50000000000003</ele><time>2026-03-24T09:36:04Z</time></trkpt><trkpt lat="45.56974649677757" lon="10.750354583845146"><ele>225.0</ele><time>2026-03-24T09:36:06.001Z</time></trkpt><trkpt lat="45.56970464665164" lon="10.75021761489873"><ele>225.5</ele><time>2026-03-24T09:36:09.001Z</time></trkpt><trkpt lat="45.56967580909917" lon="10.750104312889977"><ele>226.0</ele><time>2026-03-24T09:36:11.001Z</time></trkpt><trkpt lat="45.56964153574933" lon="10.750001695313552"><ele>226.50000000000003</ele><time>2026-03-24T09:36:12.999Z</time></trkpt><trkpt lat="45.56960491836153" lon="10.749877399700269"><ele>227.0</ele><time>2026-03-24T09:36:15.999Z</time></trkpt><trkpt lat="45.569553443880984" lon="10.749697353679801"><ele>226.83333333333334</ele><time>2026-03-24T09:36:17.999Z</time></trkpt><trkpt lat="45.56952288673372" lon="10.749590448343678"><ele>226.66666666666669</ele><time>2026-03-24T09:36:19.999Z</time></trkpt><trkpt lat="45.56950401638828" lon="10.749483933103944"><ele>226.5</ele><time>2026-03-24T09:36:21.999Z</time></trkpt><trkpt lat="45.5694845762951" lon="10.749374376408637"><ele>226.33333333333331</ele><time>2026-03-24T09:36:23.999Z</time></trkpt><trkpt lat="45.569463738416246" lon="10.749262409269898"><ele>226.16666666666666</ele><time>2026-03-24T09:36:25.999Z</time></trkpt><trkpt lat="45.56945440451787" lon="10.749149384499788"><ele>226.0</ele><time>2026-03-24T09:36:27.999Z</time></trkpt><trkpt lat="45.56944184823981" lon="10.749032176541485"><ele>225.99999999999997</ele><time>2026-03-24T09:36:29.999Z</time></trkpt><trkpt lat="45.56941577286267" lon="10.74891852888705"><ele>226.0</ele><time>2026-03-24T09:36:32Z</time></trkpt><trkpt lat="45.569396123919546" lon="10.74880417212452"><ele>226.0</ele><time>2026-03-24T09:36:34Z</time></trkpt><trkpt lat="45.56940253516568" lon="10.74864801703796"><ele>226.0</ele><time>2026-03-24T09:36:37Z</time></trkpt><trkpt lat="45.56939605734398" lon="10.748552679055145"><ele>225.99999999999997</ele><time>2026-03-24T09:36:39Z</time></trkpt><trkpt lat="45.5693903349697" lon="10.748438914435438"><ele>226.0</ele><time>2026-03-24T09:36:41Z</time></trkpt><trkpt lat="45.569368127507666" lon="10.74832592650429"><ele>225.83333333333331</ele><time>2026-03-24T09:36:43Z</time></trkpt><trkpt lat="45.569315036534064" lon="10.74821245599762"><ele>225.66666666666666</ele><time>2026-03-24T09:36:44Z</time></trkpt><trkpt lat="45.56923920953082" lon="10.74813980051901"><ele>225.5</ele><time>2026-03-24T09:36:46Z</time></trkpt><trkpt lat="45.56917375662317" lon="10.748069744192021"><ele>225.33333333333331</ele><time>2026-03-24T09:36:48Z</time></trkpt><trkpt lat="45.56911201762269" lon="10.74800482125633"><ele>225.16666666666666</ele><time>2026-03-24T09:36:50Z</time></trkpt><trkpt lat="45.56905173022024" lon="10.74793307681943"><ele>225.0</ele><time>2026-03-24T09:36:52Z</time></trkpt><trkpt lat="45.568994155937645" lon="10.747865409804477"><ele>225.00000000000003</ele><time>2026-03-24T09:36:54Z</time></trkpt><trkpt lat="45.56894087674067" lon="10.747800166254029"><ele>225.0</ele><time>2026-03-24T09:36:56Z</time></trkpt><trkpt lat="45.568890039182435" lon="10.747739897562086"><ele>225.00000000000003</ele><time>2026-03-24T09:36:58Z</time></trkpt><trkpt lat="45.56884305706177" lon="10.747677189703264"><ele>225.00000000000003</ele><time>2026-03-24T09:37:00Z</time></trkpt><trkpt lat="45.568791866664526" lon="10.747619443493834"><ele>225.0</ele><time>2026-03-24T09:37:02Z</time></trkpt><trkpt lat="45.56874215090553" lon="10.747528692608192"><ele>225.00000000000003</ele><time>2026-03-24T09:37:05Z</time></trkpt><trkpt lat="45.56869223972444" lon="10.747436164931372"><ele>225.00000000000003</ele><time>2026-03-24T09:37:09Z</time></trkpt><trkpt lat="45.568659162169645" lon="10.747359191102746"><ele>226.0</ele><time>2026-03-24T09:37:12Z</time></trkpt><trkpt lat="45.56862136865307" lon="10.747273994046424"><ele>227.0</ele><time>2026-03-24T09:37:16Z</time></trkpt><trkpt lat="45.56858560341092" lon="10.747181295442704"><ele>228.0</ele><time>2026-03-24T09:37:20Z</time></trkpt><trkpt lat="45.56855779949757" lon="10.747069667154486"><ele>229.0</ele><time>2026-03-24T09:37:24Z</time></trkpt><trkpt lat="45.56853541895441" lon="10.746969178269838"><ele>230.0</ele><time>2026-03-24T09:37:28Z</time></trkpt><trkpt lat="45.568525350773115" lon="10.746871345944685"><ele>231.0</ele><time>2026-03-24T09:37:32Z</time></trkpt><trkpt lat="45.56850731027143" lon="10.746748025818372"><ele>231.85714285714286</ele><time>2026-03-24T09:37:36Z</time></trkpt><trkpt lat="45.568494100134636" lon="10.74664783099277"><ele>232.71428571428572</ele><time>2026-03-24T09:37:40Z</time></trkpt><trkpt lat="45.56847782138671" lon="10.7465409285823"><ele>233.57142857142856</ele><time>2026-03-24T09:37:44Z</time></trkpt><trkpt lat="45.568464579565045" lon="10.746442798942867"><ele>234.42857142857142</ele><time>2026-03-24T09:37:47Z</time></trkpt><trkpt lat="45.56846359584678" lon="10.746347447567597"><ele>235.28571428571428</ele><time>2026-03-24T09:37:50Z</time></trkpt><trkpt lat="45.568469069534956" lon="10.746252544605335"><ele>236.1428571428571</ele><time>2026-03-24T09:37:53Z</time></trkpt><trkpt lat="45.56846325757827" lon="10.746128700125254"><ele>236.99999999999997</ele><time>2026-03-24T09:37:57.001Z</time></trkpt><trkpt lat="45.5684549454237" lon="10.746035004863995"><ele>237.71428571428567</ele><time>2026-03-24T09:38:00.001Z</time></trkpt><trkpt lat="45.56844886400109" lon="10.745922214091848"><ele>238.42857142857142</ele><time>2026-03-24T09:38:04.001Z</time></trkpt><trkpt lat="45.56844646288876" lon="10.745823895023713"><ele>239.1428571428571</ele><time>2026-03-24T09:38:07.001Z</time></trkpt><trkpt lat="45.568437265245315" lon="10.745732510342101"><ele>239.85714285714283</ele><time>2026-03-24T09:38:10.001Z</time></trkpt><trkpt lat="45.568434112623976" lon="10.745642092602212"><ele>240.57142857142856</ele><time>2026-03-24T09:38:13.001Z</time></trkpt><trkpt lat="45.568430998535554" lon="10.745552211093292"><ele>241.28571428571428</ele><time>2026-03-24T09:38:16.001Z</time></trkpt><trkpt lat="45.568423702102386" lon="10.745461265215564"><ele>242.0</ele><time>2026-03-24T09:38:19Z</time></trkpt><trkpt lat="45.56840135778812" lon="10.745348046059657"><ele>242.00000000000003</ele><time>2026-03-24T09:38:23Z</time></trkpt><trkpt lat="45.56837213643613" lon="10.745259828833175"><ele>242.0</ele><time>2026-03-24T09:38:26Z</time></trkpt><trkpt lat="45.56830181591788" lon="10.745209662703042"><ele>242.0</ele><time>2026-03-24T09:38:30Z</time></trkpt><trkpt lat="45.56821892702753" lon="10.74517986366529"><ele>242.0</ele><time>2026-03-24T09:38:34Z</time></trkpt><trkpt lat="45.56814251827293" lon="10.745127987007978"><ele>242.00000000000003</ele><time>2026-03-24T09:38:38Z</time></trkpt><trkpt lat="45.5680987251322" lon="10.745030854275424"><ele>242.0</ele><time>2026-03-24T09:38:42Z</time></trkpt><trkpt lat="45.568062955724784" lon="10.74492551429957"><ele>243.0</ele><time>2026-03-24T09:38:46Z</time></trkpt><trkpt lat="45.56803605526443" lon="10.74482347614548"><ele>243.99999999999997</ele><time>2026-03-24T09:38:50Z</time></trkpt><trkpt lat="45.56800983560423" lon="10.744739253864582"><ele>245.0</ele><time>2026-03-24T09:38:53Z</time></trkpt><trkpt lat="45.56797379180841" lon="10.744646529246587"><ele>246.0</ele><time>2026-03-24T09:38:57Z</time></trkpt><trkpt lat="45.567935900235845" lon="10.744548588912128"><ele>246.99999999999997</ele><time>2026-03-24T09:39:01Z</time></trkpt><trkpt lat="45.56789343114246" lon="10.744463100800045"><ele>248.0</ele><time>2026-03-24T09:39:05Z</time></trkpt><trkpt lat="45.567855769578706" lon="10.74437955159162"><ele>249.0</ele><time>2026-03-24T09:39:09Z</time></trkpt><trkpt lat="45.56780005329274" lon="10.744310878698904"><ele>249.0</ele><time>2026-03-24T09:39:13Z</time></trkpt><trkpt lat="45.56773768147988" lon="10.744251776309197"><ele>248.99999999999997</ele><time>2026-03-24T09:39:17Z</time></trkpt><trkpt lat="45.567672391390644" lon="10.744202033717468"><ele>248.99999999999997</ele><time>2026-03-24T09:39:20Z</time></trkpt><trkpt lat="45.56759304598193" lon="10.74416617484635"><ele>249.0</ele><time>2026-03-24T09:39:23Z</time></trkpt><trkpt lat="45.56746260119679" lon="10.744099954873887"><ele>249.0</ele><time>2026-03-24T09:39:26Z</time></trkpt><trkpt lat="45.56733011080752" lon="10.744045342612557"><ele>249.0</ele><time>2026-03-24T09:39:27Z</time></trkpt><trkpt lat="45.56726324461454" lon="10.744020124514757"><ele>249.0</ele><time>2026-03-24T09:39:28Z</time></trkpt><trkpt lat="45.567194407046905" lon="10.744001399274785"><ele>249.0</ele><time>2026-03-24T09:39:29Z</time></trkpt><trkpt lat="45.567124266394075" lon="10.743985692219379"><ele>249.0</ele><time>2026-03-24T09:39:30Z</time></trkpt><trkpt lat="45.56703967043961" lon="10.74399192312129"><ele>249.0</ele><time>2026-03-24T09:39:31Z</time></trkpt><trkpt lat="45.56691229412533" lon="10.743986727273814"><ele>249.0</ele><time>2026-03-24T09:39:33Z</time></trkpt><trkpt lat="45.56678946509841" lon="10.743984737029033"><ele>248.5</ele><time>2026-03-24T09:39:35Z</time></trkpt><trkpt lat="45.56668579396399" lon="10.74399401822927"><ele>248.0</ele><time>2026-03-24T09:39:37Z</time></trkpt><trkpt lat="45.566578186567284" lon="10.74401452482379"><ele>247.5</ele><time>2026-03-24T09:39:39Z</time></trkpt><trkpt lat="45.56646166683318" lon="10.744017383606606"><ele>247.0</ele><time>2026-03-24T09:39:41.001Z</time></trkpt><trkpt lat="45.56634310450554" lon="10.744057147348988"><ele>247.0</ele><time>2026-03-24T09:39:43.001Z</time></trkpt><trkpt lat="45.56622954132085" lon="10.74408058388389"><ele>247.0</ele><time>2026-03-24T09:39:45.001Z</time></trkpt><trkpt lat="45.566124377818845" lon="10.744122064058269"><ele>247.0</ele><time>2026-03-24T09:39:47.001Z</time></trkpt><trkpt lat="45.56602104805121" lon="10.744160110125673"><ele>247.0</ele><time>2026-03-24T09:39:49.001Z</time></trkpt><trkpt lat="45.56591558119061" lon="10.744188669350578"><ele>247.0</ele><time>2026-03-24T09:39:51.001Z</time></trkpt><trkpt lat="45.56581536388283" lon="10.744223153651218"><ele>246.33333333333331</ele><time>2026-03-24T09:39:53.001Z</time></trkpt><trkpt lat="45.56573607359564" lon="10.744257212823602"><ele>245.66666666666666</ele><time>2026-03-24T09:39:55.001Z</time></trkpt><trkpt lat="45.56566468331431" lon="10.74427780459268"><ele>245.0</ele><time>2026-03-24T09:39:57.001Z</time></trkpt><trkpt lat="45.56558402660926" lon="10.744300194256684"><ele>244.33333333333331</ele><time>2026-03-24T09:39:58.001Z</time></trkpt><trkpt lat="45.565478795198075" lon="10.744314198170997"><ele>243.66666666666666</ele><time>2026-03-24T09:40:00.001Z</time></trkpt><trkpt lat="45.56537788835707" lon="10.744313281148498"><ele>243.0</ele><time>2026-03-24T09:40:02.001Z</time></trkpt><trkpt lat="45.56527545544394" lon="10.744306528151986"><ele>242.8</ele><time>2026-03-24T09:40:04.001Z</time></trkpt><trkpt lat="45.565169610990715" lon="10.744296029394388"><ele>242.60000000000002</ele><time>2026-03-24T09:40:06.001Z</time></trkpt><trkpt lat="45.56506703272865" lon="10.744294019172417"><ele>242.39999999999998</ele><time>2026-03-24T09:40:08.001Z</time></trkpt><trkpt lat="45.564962753770324" lon="10.744298292311118"><ele>242.2</ele><time>2026-03-24T09:40:10.001Z</time></trkpt><trkpt lat="45.564859768944565" lon="10.744277150917068"><ele>242.0</ele><time>2026-03-24T09:40:12.001Z</time></trkpt><trkpt lat="45.56475693351722" lon="10.744258425106047"><ele>242.0</ele><time>2026-03-24T09:40:14.001Z</time></trkpt><trkpt lat="45.564663658505424" lon="10.744281188890893"><ele>242.0</ele><time>2026-03-24T09:40:16.001Z</time></trkpt><trkpt lat="45.564560102447565" lon="10.744273043107784"><ele>242.0</ele><time>2026-03-24T09:40:18.001Z</time></trkpt><trkpt lat="45.56446198394068" lon="10.74427509943185"><ele>242.0</ele><time>2026-03-24T09:40:20.001Z</time></trkpt><trkpt lat="45.56435522115045" lon="10.744268901617025"><ele>242.0</ele><time>2026-03-24T09:40:22.001Z</time></trkpt><trkpt lat="45.56425300111345" lon="10.744268290414688"><ele>241.39999999999998</ele><time>2026-03-24T09:40:24Z</time></trkpt><trkpt lat="45.56415289098786" lon="10.744266644040424"><ele>240.79999999999998</ele><time>2026-03-24T09:40:26Z</time></trkpt><trkpt lat="45.56405048534447" lon="10.744273728198674"><ele>240.2</ele><time>2026-03-24T09:40:28Z</time></trkpt><trkpt lat="45.56393950744721" lon="10.744266946818037"><ele>239.6</ele><time>2026-03-24T09:40:30Z</time></trkpt><trkpt lat="45.56382783460686" lon="10.744252660079214"><ele>239.0</ele><time>2026-03-24T09:40:32Z</time></trkpt><trkpt lat="45.563720736683905" lon="10.744231300873746"><ele>239.0</ele><time>2026-03-24T09:40:34Z</time></trkpt><trkpt lat="45.563615203735814" lon="10.744194178699118"><ele>238.99999999999997</ele><time>2026-03-24T09:40:36Z</time></trkpt><trkpt lat="45.563510532674606" lon="10.74414858149251"><ele>238.99999999999997</ele><time>2026-03-24T09:40:38Z</time></trkpt><trkpt lat="45.5634100337672" lon="10.74409253855995"><ele>239.0</ele><time>2026-03-24T09:40:40Z</time></trkpt><trkpt lat="45.56332659097389" lon="10.744004505642826"><ele>239.0</ele><time>2026-03-24T09:40:42Z</time></trkpt><trkpt lat="45.56333050149506" lon="10.743908258302515"><ele>239.0</ele><time>2026-03-24T09:40:43Z</time></trkpt><trkpt lat="45.56333031829669" lon="10.743711311362247"><ele>238.99999999999997</ele><time>2026-03-24T09:40:45Z</time></trkpt><trkpt lat="45.56332885459385" lon="10.74354611530229"><ele>238.99999999999997</ele><time>2026-03-24T09:40:47Z</time></trkpt><trkpt lat="45.563327613366745" lon="10.743372215275686"><ele>239.0</ele><time>2026-03-24T09:40:49Z</time></trkpt><trkpt lat="45.56332245769054" lon="10.743281846303148"><ele>239.0</ele><time>2026-03-24T09:40:50Z</time></trkpt><trkpt lat="45.563349154846904" lon="10.743106822092868"><ele>238.79999999999998</ele><time>2026-03-24T09:40:52Z</time></trkpt><trkpt lat="45.56338667349363" lon="10.743018429868771"><ele>238.59999999999997</ele><time>2026-03-24T09:40:53Z</time></trkpt><trkpt lat="45.56341500427731" lon="10.742925936286692"><ele>238.4</ele><time>2026-03-24T09:40:54Z</time></trkpt><trkpt lat="45.56343698443892" lon="10.742757592010575"><ele>238.2</ele><time>2026-03-24T09:40:56Z</time></trkpt><trkpt lat="45.56345749942439" lon="10.742594784552862"><ele>238.0</ele><time>2026-03-24T09:40:58Z</time></trkpt><trkpt lat="45.563482112837896" lon="10.742451388482444"><ele>237.99999999999997</ele><time>2026-03-24T09:41:00Z</time></trkpt><trkpt lat="45.56348772293818" lon="10.742323119137337"><ele>238.0</ele><time>2026-03-24T09:41:02Z</time></trkpt><trkpt lat="45.563465416905004" lon="10.742210887648994"><ele>238.0</ele><time>2026-03-24T09:41:04Z</time></trkpt><trkpt lat="45.56340823147131" lon="10.742039719556338"><ele>238.0</ele><time>2026-03-24T09:41:07Z</time></trkpt><trkpt lat="45.563373547904355" lon="10.741955451456313"><ele>237.99999999999997</ele><time>2026-03-24T09:41:09Z</time></trkpt><trkpt lat="45.56334234387451" lon="10.741870170182299"><ele>238.0</ele><time>2026-03-24T09:41:11Z</time></trkpt><trkpt lat="45.56329579810309" lon="10.741752230530292"><ele>238.14285714285714</ele><time>2026-03-24T09:41:14Z</time></trkpt><trkpt lat="45.56325849624415" lon="10.741675863778273"><ele>238.28571428571428</ele><time>2026-03-24T09:41:16Z</time></trkpt><trkpt lat="45.5632232707701" lon="10.741591629153561"><ele>238.42857142857144</ele><time>2026-03-24T09:41:18Z</time></trkpt><trkpt lat="45.563178171331224" lon="10.741524559365558"><ele>238.57142857142858</ele><time>2026-03-24T09:41:20Z</time></trkpt><trkpt lat="45.56312934007212" lon="10.741443530050278"><ele>238.71428571428572</ele><time>2026-03-24T09:41:22Z</time></trkpt><trkpt lat="45.563079978568055" lon="10.741347178825798"><ele>238.8571428571429</ele><time>2026-03-24T09:41:24Z</time></trkpt><trkpt lat="45.563023659693464" lon="10.741259234116317"><ele>239.00000000000003</ele><time>2026-03-24T09:41:27Z</time></trkpt><trkpt lat="45.562977006379725" lon="10.741153152969192"><ele>239.00000000000003</ele><time>2026-03-24T09:41:29Z</time></trkpt><trkpt lat="45.56294225583621" lon="10.741070603470087"><ele>239.0</ele><time>2026-03-24T09:41:31Z</time></trkpt><trkpt lat="45.56289768049687" lon="10.740981899705934"><ele>239.00000000000003</ele><time>2026-03-24T09:41:33Z</time></trkpt><trkpt lat="45.562844606205" lon="10.740897255311992"><ele>239.00000000000003</ele><time>2026-03-24T09:41:35Z</time></trkpt><trkpt lat="45.562801319823926" lon="10.740809170085875"><ele>239.0</ele><time>2026-03-24T09:41:37Z</time></trkpt><trkpt lat="45.562760036396384" lon="10.740720114060085"><ele>239.00000000000003</ele><time>2026-03-24T09:41:39.001Z</time></trkpt><trkpt lat="45.56271489033569" lon="10.740638662369284"><ele>239.00000000000003</ele><time>2026-03-24T09:41:41.001Z</time></trkpt><trkpt lat="45.56266762983586" lon="10.740562704558947"><ele>239.00000000000003</ele><time>2026-03-24T09:41:43.001Z</time></trkpt><trkpt lat="45.562623944817936" lon="10.740485500469928"><ele>239.0</ele><time>2026-03-24T09:41:45.001Z</time></trkpt><trkpt lat="45.56258510249051" lon="10.74040771111601"><ele>239.00000000000003</ele><time>2026-03-24T09:41:47.001Z</time></trkpt><trkpt lat="45.562542535912925" lon="10.740311850086975"><ele>239.00000000000003</ele><time>2026-03-24T09:41:50.001Z</time></trkpt><trkpt lat="45.562501664451844" lon="10.740232607222072"><ele>239.0</ele><time>2026-03-24T09:41:53.001Z</time></trkpt><trkpt lat="45.56244034197659" lon="10.74018565464132"><ele>239.00000000000003</ele><time>2026-03-24T09:41:56.001Z</time></trkpt><trkpt lat="45.5623667380782" lon="10.740204778860564"><ele>239.00000000000003</ele><time>2026-03-24T09:41:59.001Z</time></trkpt><trkpt lat="45.56229370672929" lon="10.740249030834569"><ele>239.00000000000003</ele><time>2026-03-24T09:42:02.001Z</time></trkpt><trkpt lat="45.562218568581066" lon="10.740298361746884"><ele>239.0</ele><time>2026-03-24T09:42:05.001Z</time></trkpt><trkpt lat="45.5621460061119" lon="10.740359998866545"><ele>239.0</ele><time>2026-03-24T09:42:08.001Z</time></trkpt><trkpt lat="45.562077014865025" lon="10.740430681451409"><ele>239.0</ele><time>2026-03-24T09:42:11.001Z</time></trkpt><trkpt lat="45.56197933564867" lon="10.74049628276209"><ele>239.00000000000003</ele><time>2026-03-24T09:42:15.001Z</time></trkpt><trkpt lat="45.5619160100252" lon="10.740555765941219"><ele>239.0</ele><time>2026-03-24T09:42:17.001Z</time></trkpt><trkpt lat="45.56182886670477" lon="10.740626757540163"><ele>238.66666666666669</ele><time>2026-03-24T09:42:20.001Z</time></trkpt><trkpt lat="45.5617329108778" lon="10.74067727686284"><ele>238.33333333333334</ele><time>2026-03-24T09:42:23.001Z</time></trkpt><trkpt lat="45.56167251260681" lon="10.740723155934328"><ele>238.0</ele><time>2026-03-24T09:42:25.001Z</time></trkpt><trkpt lat="45.5615937338568" lon="10.740762616507686"><ele>237.66666666666669</ele><time>2026-03-24T09:42:27.001Z</time></trkpt><trkpt lat="45.5615136383394" lon="10.740803440378063"><ele>237.33333333333334</ele><time>2026-03-24T09:42:29.001Z</time></trkpt><trkpt lat="45.561411052207" lon="10.740829182602397"><ele>237.0</ele><time>2026-03-24T09:42:30Z</time></trkpt><trkpt lat="45.56132830033885" lon="10.740864802114126"><ele>237.0</ele><time>2026-03-24T09:42:32Z</time></trkpt><trkpt lat="45.561240866048266" lon="10.74090407578888"><ele>237.0</ele><time>2026-03-24T09:42:34Z</time></trkpt><trkpt lat="45.56115102864638" lon="10.740945471580902"><ele>237.0</ele><time>2026-03-24T09:42:36Z</time></trkpt><trkpt lat="45.56106034496843" lon="10.740990116737889"><ele>237.0</ele><time>2026-03-24T09:42:38Z</time></trkpt><trkpt lat="45.5609658342257" lon="10.741033949731383"><ele>237.0</ele><time>2026-03-24T09:42:40Z</time></trkpt><trkpt lat="45.56087476521369" lon="10.74107858479399"><ele>238.6</ele><time>2026-03-24T09:42:42Z</time></trkpt><trkpt lat="45.56078801404075" lon="10.741134139764624"><ele>240.2</ele><time>2026-03-24T09:42:44Z</time></trkpt><trkpt lat="45.56070333153339" lon="10.741189071645977"><ele>241.8</ele><time>2026-03-24T09:42:46Z</time></trkpt><trkpt lat="45.56061097535935" lon="10.741236850857513"><ele>243.4</ele><time>2026-03-24T09:42:48Z</time></trkpt><trkpt lat="45.56050462874548" lon="10.741310983084317"><ele>245.0</ele><time>2026-03-24T09:42:50Z</time></trkpt><trkpt lat="45.56040549272886" lon="10.741371301147229"><ele>244.16666666666669</ele><time>2026-03-24T09:42:52Z</time></trkpt><trkpt lat="45.56029120399186" lon="10.741434969222501"><ele>243.33333333333334</ele><time>2026-03-24T09:42:54Z</time></trkpt><trkpt lat="45.560229396221736" lon="10.741455477153892"><ele>242.5</ele><time>2026-03-24T09:42:55Z</time></trkpt><trkpt lat="45.56015647741991" lon="10.741460638635647"><ele>241.66666666666669</ele><time>2026-03-24T09:42:56Z</time></trkpt><trkpt lat="45.56008532314727" lon="10.741454949474438"><ele>240.83333333333334</ele><time>2026-03-24T09:42:57Z</time></trkpt><trkpt lat="45.56001781148049" lon="10.741456698067102"><ele>240.0</ele><time>2026-03-24T09:42:58Z</time></trkpt><trkpt lat="45.55989149277017" lon="10.741492888426297"><ele>240.0</ele><time>2026-03-24T09:43:00Z</time></trkpt><trkpt lat="45.55982465878352" lon="10.741497551657872"><ele>240.0</ele><time>2026-03-24T09:43:01Z</time></trkpt><trkpt lat="45.55975891521224" lon="10.741507254542968"><ele>240.0</ele><time>2026-03-24T09:43:02Z</time></trkpt><trkpt lat="45.559696295245914" lon="10.741527862484626"><ele>240.0</ele><time>2026-03-24T09:43:03Z</time></trkpt><trkpt lat="45.55957522680831" lon="10.741557402964816"><ele>240.0</ele><time>2026-03-24T09:43:05Z</time></trkpt><trkpt lat="45.55951318339294" lon="10.741577751123986"><ele>240.0</ele><time>2026-03-24T09:43:06Z</time></trkpt><trkpt lat="45.55939366649264" lon="10.74162061030654"><ele>239.16666666666666</ele><time>2026-03-24T09:43:08Z</time></trkpt><trkpt lat="45.55932814527684" lon="10.74164646963688"><ele>238.33333333333331</ele><time>2026-03-24T09:43:09Z</time></trkpt><trkpt lat="45.55925631432876" lon="10.741755165412792"><ele>237.5</ele><time>2026-03-24T09:43:11Z</time></trkpt><trkpt lat="45.55912905119421" lon="10.741775589978605"><ele>236.66666666666666</ele><time>2026-03-24T09:43:13Z</time></trkpt><trkpt lat="45.55906002210951" lon="10.741778388428964"><ele>235.83333333333331</ele><time>2026-03-24T09:43:14Z</time></trkpt><trkpt lat="45.5589845302843" lon="10.741763826205485"><ele>235.0</ele><time>2026-03-24T09:43:15Z</time></trkpt><trkpt lat="45.55891818459626" lon="10.741762800613897"><ele>234.99999999999997</ele><time>2026-03-24T09:43:16Z</time></trkpt><trkpt lat="45.558790424144796" lon="10.74179839944381"><ele>235.0</ele><time>2026-03-24T09:43:18Z</time></trkpt><trkpt lat="45.55872759691205" lon="10.741812832191302"><ele>235.0</ele><time>2026-03-24T09:43:19Z</time></trkpt><trkpt lat="45.55866399237947" lon="10.74182505221408"><ele>235.0</ele><time>2026-03-24T09:43:20Z</time></trkpt><trkpt lat="45.55859464602382" lon="10.741835133465377"><ele>234.99999999999997</ele><time>2026-03-24T09:43:21Z</time></trkpt><trkpt lat="45.55852856232109" lon="10.74184796314923"><ele>235.0</ele><time>2026-03-24T09:43:22Z</time></trkpt><trkpt lat="45.558461750578495" lon="10.741849460237658"><ele>234.2</ele><time>2026-03-24T09:43:23Z</time></trkpt><trkpt lat="45.5583332438278" lon="10.741863269261035"><ele>233.4</ele><time>2026-03-24T09:43:25Z</time></trkpt><trkpt lat="45.558270511650406" lon="10.74187567723856"><ele>232.60000000000002</ele><time>2026-03-24T09:43:26Z</time></trkpt><trkpt lat="45.55815593664606" lon="10.741904007770486"><ele>231.8</ele><time>2026-03-24T09:43:28Z</time></trkpt><trkpt lat="45.55805676854039" lon="10.741932946187292"><ele>231.0</ele><time>2026-03-24T09:43:30Z</time></trkpt><trkpt lat="45.557918270411356" lon="10.741951425320432"><ele>230.60000000000002</ele><time>2026-03-24T09:43:32Z</time></trkpt><trkpt lat="45.55786572191017" lon="10.7419016560856"><ele>230.20000000000002</ele><time>2026-03-24T09:43:33Z</time></trkpt><trkpt lat="45.55782620405269" lon="10.741803522748715"><ele>229.79999999999998</ele><time>2026-03-24T09:43:35Z</time></trkpt><trkpt lat="45.55771168395138" lon="10.741689769258507"><ele>229.39999999999998</ele><time>2026-03-24T09:43:37.001Z</time></trkpt><trkpt lat="45.557644887603885" lon="10.741602990066047"><ele>229.0</ele><time>2026-03-24T09:43:38.001Z</time></trkpt><trkpt lat="45.55759323771686" lon="10.741507806901575"><ele>229.0</ele><time>2026-03-24T09:43:39.001Z</time></trkpt><trkpt lat="45.55755110592474" lon="10.741384527825534"><ele>228.99999999999997</ele><time>2026-03-24T09:43:40.001Z</time></trkpt><trkpt lat="45.55751156452343" lon="10.74126402426456"><ele>228.99999999999997</ele><time>2026-03-24T09:43:41.001Z</time></trkpt><trkpt lat="45.55748896893725" lon="10.741170665062235"><ele>229.0</ele><time>2026-03-24T09:43:42.001Z</time></trkpt><trkpt lat="45.55740175286464" lon="10.741025831822682"><ele>229.0</ele><time>2026-03-24T09:43:44.001Z</time></trkpt><trkpt lat="45.557326505217794" lon="10.74098663464969"><ele>226.83333333333331</ele><time>2026-03-24T09:43:45.001Z</time></trkpt><trkpt lat="45.55723563721012" lon="10.740975749167557"><ele>224.66666666666666</ele><time>2026-03-24T09:43:46.001Z</time></trkpt><trkpt lat="45.5571691760742" lon="10.740923648827932"><ele>222.5</ele><time>2026-03-24T09:43:47.001Z</time></trkpt><trkpt lat="45.55711214292691" lon="10.74087670385185"><ele>220.33333333333331</ele><time>2026-03-24T09:43:48.001Z</time></trkpt><trkpt lat="45.557039531591634" lon="10.74081323954302"><ele>218.16666666666666</ele><time>2026-03-24T09:43:50.001Z</time></trkpt><trkpt lat="45.55695961393083" lon="10.740721718848096"><ele>216.0</ele><time>2026-03-24T09:43:52.001Z</time></trkpt><trkpt lat="45.55685912998102" lon="10.740780784658211"><ele>215.14285714285714</ele><time>2026-03-24T09:43:53.001Z</time></trkpt><trkpt lat="45.55679572506167" lon="10.740793676118816"><ele>214.28571428571428</ele><time>2026-03-24T09:43:54.001Z</time></trkpt><trkpt lat="45.55673442677764" lon="10.740820213328174"><ele>213.42857142857144</ele><time>2026-03-24T09:43:55.001Z</time></trkpt><trkpt lat="45.5566673058098" lon="10.740817130770864"><ele>212.57142857142856</ele><time>2026-03-24T09:43:56.001Z</time></trkpt><trkpt lat="45.55659979078008" lon="10.740838663639808"><ele>211.71428571428572</ele><time>2026-03-24T09:43:57.001Z</time></trkpt><trkpt lat="45.55653551847779" lon="10.740859162280955"><ele>210.85714285714286</ele><time>2026-03-24T09:43:58.001Z</time></trkpt><trkpt lat="45.55646803509629" lon="10.74087032731128"><ele>210.0</ele><time>2026-03-24T09:43:59.001Z</time></trkpt><trkpt lat="45.55640099320942" lon="10.740882461546937"><ele>210.0</ele><time>2026-03-24T09:44:00.001Z</time></trkpt><trkpt lat="45.55635404106833" lon="10.741026624680114"><ele>210.0</ele><time>2026-03-24T09:44:01.001Z</time></trkpt><trkpt lat="45.556313054980926" lon="10.741094989222733"><ele>210.0</ele><time>2026-03-24T09:44:02.001Z</time></trkpt><trkpt lat="45.55622594136348" lon="10.74119537826218"><ele>210.0</ele><time>2026-03-24T09:44:04.001Z</time></trkpt><trkpt lat="45.55613341817513" lon="10.741305119928654"><ele>210.0</ele><time>2026-03-24T09:44:06.001Z</time></trkpt><trkpt lat="45.55607495821086" lon="10.74135270909999"><ele>210.6</ele><time>2026-03-24T09:44:07.001Z</time></trkpt><trkpt lat="45.55598071758291" lon="10.74143336548916"><ele>211.2</ele><time>2026-03-24T09:44:09.001Z</time></trkpt><trkpt lat="45.555886755410775" lon="10.74153683967233"><ele>211.8</ele><time>2026-03-24T09:44:11.001Z</time></trkpt><trkpt lat="45.55583093940788" lon="10.741585201636818"><ele>212.4</ele><time>2026-03-24T09:44:12.001Z</time></trkpt><trkpt lat="45.555729864298755" lon="10.741675406485921"><ele>213.0</ele><time>2026-03-24T09:44:14.001Z</time></trkpt><trkpt lat="45.555625645514546" lon="10.741759100587151"><ele>213.0</ele><time>2026-03-24T09:44:16.001Z</time></trkpt><trkpt lat="45.55552116615195" lon="10.74185617545914"><ele>213.0</ele><time>2026-03-24T09:44:18.001Z</time></trkpt><trkpt lat="45.55541908975638" lon="10.741946949406321"><ele>213.0</ele><time>2026-03-24T09:44:20.001Z</time></trkpt><trkpt lat="45.55536406555498" lon="10.741997929852037"><ele>213.0</ele><time>2026-03-24T09:44:21.001Z</time></trkpt><trkpt lat="45.55524960268955" lon="10.74207995684176"><ele>213.0</ele><time>2026-03-24T09:44:23.001Z</time></trkpt><trkpt lat="45.555192345015655" lon="10.74212412965458"><ele>213.14285714285714</ele><time>2026-03-24T09:44:24.001Z</time></trkpt><trkpt lat="45.5551352530707" lon="10.742162034244137"><ele>213.28571428571428</ele><time>2026-03-24T09:44:25.001Z</time></trkpt><trkpt lat="45.55507116016776" lon="10.742192285334424"><ele>213.42857142857144</ele><time>2026-03-24T09:44:26.001Z</time></trkpt><trkpt lat="45.55500789635625" lon="10.742227524178915"><ele>213.57142857142856</ele><time>2026-03-24T09:44:27.001Z</time></trkpt><trkpt lat="45.55494617311839" lon="10.742260585240162"><ele>213.71428571428572</ele><time>2026-03-24T09:44:28.001Z</time></trkpt><trkpt lat="45.55488090460626" lon="10.742283144552863"><ele>213.85714285714286</ele><time>2026-03-24T09:44:29.001Z</time></trkpt><trkpt lat="45.55481341434883" lon="10.74229674548908"><ele>214.0</ele><time>2026-03-24T09:44:30.001Z</time></trkpt><trkpt lat="45.554697313755064" lon="10.742364341867813"><ele>214.00000000000003</ele><time>2026-03-24T09:44:32.001Z</time></trkpt><trkpt lat="45.55463633631188" lon="10.742392615683876"><ele>214.0</ele><time>2026-03-24T09:44:33.001Z</time></trkpt><trkpt lat="45.55457200854984" lon="10.74242131731441"><ele>214.0</ele><time>2026-03-24T09:44:34.001Z</time></trkpt><trkpt lat="45.55451124339621" lon="10.742448441442976"><ele>214.0</ele><time>2026-03-24T09:44:35.001Z</time></trkpt><trkpt lat="45.554448081756405" lon="10.742475000592274"><ele>214.0</ele><time>2026-03-24T09:44:36.001Z</time></trkpt><trkpt lat="45.554386160327866" lon="10.742503831119333"><ele>214.00000000000003</ele><time>2026-03-24T09:44:37.001Z</time></trkpt><trkpt lat="45.55432464608695" lon="10.742540396864516"><ele>214.0</ele><time>2026-03-24T09:44:38.001Z</time></trkpt><trkpt lat="45.55425096884945" lon="10.742569775981945"><ele>212.79999999999998</ele><time>2026-03-24T09:44:39.001Z</time></trkpt><trkpt lat="45.55418240345794" lon="10.742597406021853"><ele>211.59999999999997</ele><time>2026-03-24T09:44:40.001Z</time></trkpt><trkpt lat="45.55406247564101" lon="10.742632865086039"><ele>210.4</ele><time>2026-03-24T09:44:42.001Z</time></trkpt><trkpt lat="45.55395519558072" lon="10.742684247809063"><ele>209.2</ele><time>2026-03-24T09:44:44.001Z</time></trkpt><trkpt lat="45.553864975630894" lon="10.742724360437006"><ele>208.0</ele><time>2026-03-24T09:44:46.001Z</time></trkpt><trkpt lat="45.553765625058084" lon="10.742762323338473"><ele>209.2</ele><time>2026-03-24T09:44:48.001Z</time></trkpt><trkpt lat="45.55369100822227" lon="10.742800775452412"><ele>210.4</ele><time>2026-03-24T09:44:51.001Z</time></trkpt><trkpt lat="45.55351441868585" lon="10.742832761307282"><ele>211.59999999999997</ele><time>2026-03-24T09:44:52.001Z</time></trkpt><trkpt lat="45.55345337818434" lon="10.742868011792217"><ele>212.79999999999998</ele><time>2026-03-24T09:44:53.001Z</time></trkpt><trkpt lat="45.55334059115309" lon="10.742933482446778"><ele>214.0</ele><time>2026-03-24T09:44:55.001Z</time></trkpt><trkpt lat="45.55322195498741" lon="10.74297993956736"><ele>214.0</ele><time>2026-03-24T09:44:57.001Z</time></trkpt><trkpt lat="45.553113696591176" lon="10.743036849585659"><ele>213.99999999999997</ele><time>2026-03-24T09:44:59.001Z</time></trkpt><trkpt lat="45.55300066589151" lon="10.743075279803115"><ele>213.99999999999997</ele><time>2026-03-24T09:45:01.001Z</time></trkpt><trkpt lat="45.55289741844442" lon="10.743122520717803"><ele>214.0</ele><time>2026-03-24T09:45:03.001Z</time></trkpt><trkpt lat="45.552791459251345" lon="10.743134746330597"><ele>214.0</ele><time>2026-03-24T09:45:05.001Z</time></trkpt><trkpt lat="45.552695173827296" lon="10.743064180566323"><ele>212.0</ele><time>2026-03-24T09:45:07.001Z</time></trkpt><trkpt lat="45.55263635236259" lon="10.742906074481297"><ele>209.99999999999997</ele><time>2026-03-24T09:45:09.001Z</time></trkpt><trkpt lat="45.552597123633696" lon="10.742828722776936"><ele>208.0</ele><time>2026-03-24T09:45:10.001Z</time></trkpt><trkpt lat="45.55255929202588" lon="10.742736505086022"><ele>206.0</ele><time>2026-03-24T09:45:11.001Z</time></trkpt><trkpt lat="45.55251610653647" lon="10.742583500173112"><ele>204.0</ele><time>2026-03-24T09:45:12.001Z</time></trkpt><trkpt lat="45.552482859982426" lon="10.742456697686693"><ele>202.39999999999998</ele><time>2026-03-24T09:45:13.001Z</time></trkpt><trkpt lat="45.55245212997171" lon="10.742336731749528"><ele>200.8</ele><time>2026-03-24T09:45:14.001Z</time></trkpt><trkpt lat="45.55240803511742" lon="10.742198795186674"><ele>199.2</ele><time>2026-03-24T09:45:15.001Z</time></trkpt><trkpt lat="45.55234509652021" lon="10.74209550991069"><ele>197.60000000000002</ele><time>2026-03-24T09:45:16.001Z</time></trkpt><trkpt lat="45.55228631497445" lon="10.741991886724769"><ele>196.0</ele><time>2026-03-24T09:45:17.001Z</time></trkpt><trkpt lat="45.552223931870984" lon="10.741900380815535"><ele>193.60000000000002</ele><time>2026-03-24T09:45:18.001Z</time></trkpt><trkpt lat="45.55215522927272" lon="10.741825961746358"><ele>191.2</ele><time>2026-03-24T09:45:19.001Z</time></trkpt><trkpt lat="45.55206278498723" lon="10.741695974332048"><ele>188.8</ele><time>2026-03-24T09:45:21.001Z</time></trkpt><trkpt lat="45.55198035409435" lon="10.741671604774348"><ele>186.39999999999998</ele><time>2026-03-24T09:45:22.001Z</time></trkpt><trkpt lat="45.55186833000567" lon="10.741710430941502"><ele>184.0</ele><time>2026-03-24T09:45:23.001Z</time></trkpt><trkpt lat="45.551773270968155" lon="10.741731359963723"><ele>183.6</ele><time>2026-03-24T09:45:24.001Z</time></trkpt><trkpt lat="45.55168307088323" lon="10.741755694214534"><ele>183.2</ele><time>2026-03-24T09:45:25.001Z</time></trkpt><trkpt lat="45.55157048852826" lon="10.741736534501674"><ele>182.79999999999998</ele><time>2026-03-24T09:45:26.001Z</time></trkpt><trkpt lat="45.55146459403139" lon="10.741706837598597"><ele>182.39999999999998</ele><time>2026-03-24T09:45:27.001Z</time></trkpt><trkpt lat="45.551363091405285" lon="10.74172615808489"><ele>182.0</ele><time>2026-03-24T09:45:28.001Z</time></trkpt><trkpt lat="45.55125565221448" lon="10.74178047487335"><ele>182.75</ele><time>2026-03-24T09:45:29.001Z</time></trkpt><trkpt lat="45.55114116836655" lon="10.74183311224127"><ele>183.5</ele><time>2026-03-24T09:45:30.001Z</time></trkpt><trkpt lat="45.55102929280862" lon="10.741874065054553"><ele>184.25</ele><time>2026-03-24T09:45:31.001Z</time></trkpt><trkpt lat="45.55092430836631" lon="10.741907334158007"><ele>185.0</ele><time>2026-03-24T09:45:32.001Z</time></trkpt><trkpt lat="45.55081694975923" lon="10.741937789859485"><ele>185.0</ele><time>2026-03-24T09:45:33.001Z</time></trkpt><trkpt lat="45.55071735893754" lon="10.741962362491398"><ele>185.0</ele><time>2026-03-24T09:45:34.001Z</time></trkpt><trkpt lat="45.55061794965142" lon="10.741984906576082"><ele>185.0</ele><time>2026-03-24T09:45:35.001Z</time></trkpt><trkpt lat="45.55051919788852" lon="10.741998429728325"><ele>185.0</ele><time>2026-03-24T09:45:36.001Z</time></trkpt><trkpt lat="45.55041120303271" lon="10.742003351583502"><ele>185.0</ele><time>2026-03-24T09:45:37.001Z</time></trkpt><trkpt lat="45.550300105937644" lon="10.742029238933252"><ele>182.2</ele><time>2026-03-24T09:45:38.001Z</time></trkpt><trkpt lat="45.55018323697988" lon="10.742061821041409"><ele>179.4</ele><time>2026-03-24T09:45:39.001Z</time></trkpt><trkpt lat="45.5500750562666" lon="10.742087049034627"><ele>176.60000000000002</ele><time>2026-03-24T09:45:40.001Z</time></trkpt><trkpt lat="45.54998328621879" lon="10.74211361557454"><ele>173.8</ele><time>2026-03-24T09:45:41.001Z</time></trkpt><trkpt lat="45.54988723026587" lon="10.742136575116632"><ele>171.0</ele><time>2026-03-24T09:45:42.001Z</time></trkpt><trkpt lat="45.54979446934533" lon="10.742166659598746"><ele>171.0</ele><time>2026-03-24T09:45:43.001Z</time></trkpt><trkpt lat="45.549701627412766" lon="10.742203817949845"><ele>171.0</ele><time>2026-03-24T09:45:44.001Z</time></trkpt><trkpt lat="45.549613777779946" lon="10.742230699673321"><ele>171.0</ele><time>2026-03-24T09:45:45.001Z</time></trkpt><trkpt lat="45.549529355063015" lon="10.742272147463515"><ele>171.0</ele><time>2026-03-24T09:45:46.001Z</time></trkpt><trkpt lat="45.549447170983484" lon="10.742311197329718"><ele>171.0</ele><time>2026-03-24T09:45:47.001Z</time></trkpt><trkpt lat="45.54936623056297" lon="10.742340598906576"><ele>171.0</ele><time>2026-03-24T09:45:48.001Z</time></trkpt><trkpt lat="45.549286440359076" lon="10.74236140032923"><ele>168.66666666666666</ele><time>2026-03-24T09:45:49.001Z</time></trkpt><trkpt lat="45.54921218682428" lon="10.742374815527944"><ele>166.33333333333334</ele><time>2026-03-24T09:45:50.001Z</time></trkpt><trkpt lat="45.54909250540141" lon="10.742370892922903"><ele>164.0</ele><time>2026-03-24T09:45:52.001Z</time></trkpt><trkpt lat="45.5490249902865" lon="10.742359085189994"><ele>161.66666666666669</ele><time>2026-03-24T09:45:53.001Z</time></trkpt><trkpt lat="45.54895982668263" lon="10.742345158278082"><ele>159.33333333333334</ele><time>2026-03-24T09:45:54.001Z</time></trkpt><trkpt lat="45.54886667626252" lon="10.742316691780578"><ele>157.0</ele><time>2026-03-24T09:45:56.001Z</time></trkpt><trkpt lat="45.548862739625285" lon="10.742207294276167"><ele>157.0</ele><time>2026-03-24T09:45:57.001Z</time></trkpt><trkpt lat="45.548828549399495" lon="10.742130949317422"><ele>157.0</ele><time>2026-03-24T09:45:58.001Z</time></trkpt><trkpt lat="45.5487765355577" lon="10.742056179137135"><ele>157.0</ele><time>2026-03-24T09:45:59.001Z</time></trkpt><trkpt lat="45.5487401500853" lon="10.741977463927402"><ele>157.0</ele><time>2026-03-24T09:46:00.001Z</time></trkpt><trkpt lat="45.548679105982615" lon="10.741856231605038"><ele>157.0</ele><time>2026-03-24T09:46:02.001Z</time></trkpt><trkpt lat="45.54864403839705" lon="10.741773782655013"><ele>157.0</ele><time>2026-03-24T09:46:04.001Z</time></trkpt><trkpt lat="45.548521008864256" lon="10.741894229143725"><ele>156.4</ele><time>2026-03-24T09:46:06.001Z</time></trkpt><trkpt lat="45.54846413006101" lon="10.741991831117348"><ele>155.79999999999998</ele><time>2026-03-24T09:46:08.001Z</time></trkpt><trkpt lat="45.548414105609" lon="10.742112054011118"><ele>155.2</ele><time>2026-03-24T09:46:10.001Z</time></trkpt><trkpt lat="45.54835333654981" lon="10.742226756439686"><ele>154.6</ele><time>2026-03-24T09:46:12.001Z</time></trkpt><trkpt lat="45.548298861973976" lon="10.742339590349925"><ele>154.0</ele><time>2026-03-24T09:46:14.001Z</time></trkpt><trkpt lat="45.54828195219586" lon="10.74247764755265"><ele>154.0</ele><time>2026-03-24T09:46:16.001Z</time></trkpt><trkpt lat="45.548256144259476" lon="10.742593076258261"><ele>154.0</ele><time>2026-03-24T09:46:19.001Z</time></trkpt><trkpt lat="45.54823938862548" lon="10.742702390936767"><ele>154.0</ele><time>2026-03-24T09:46:22.001Z</time></trkpt><trkpt lat="45.548136398381864" lon="10.742795771256342"><ele>154.0</ele><time>2026-03-24T09:46:23.001Z</time></trkpt><trkpt lat="45.548020080321145" lon="10.742862633388143"><ele>154.0</ele><time>2026-03-24T09:46:25.001Z</time></trkpt><trkpt lat="45.54795934785971" lon="10.742891545268126"><ele>153.75</ele><time>2026-03-24T09:46:26.001Z</time></trkpt><trkpt lat="45.547824735800965" lon="10.742963965813596"><ele>153.5</ele><time>2026-03-24T09:46:28.002Z</time></trkpt><trkpt lat="45.54771304659723" lon="10.743031710485935"><ele>153.25</ele><time>2026-03-24T09:46:30.002Z</time></trkpt><trkpt lat="45.5476150069768" lon="10.743127993289365"><ele>153.0</ele><time>2026-03-24T09:46:32.002Z</time></trkpt><trkpt lat="45.547510555919736" lon="10.743196903762144"><ele>153.0</ele><time>2026-03-24T09:46:34.002Z</time></trkpt><trkpt lat="45.54741097677327" lon="10.7432658440705"><ele>153.0</ele><time>2026-03-24T09:46:36.002Z</time></trkpt><trkpt lat="45.54733454915043" lon="10.74336835058171"><ele>153.0</ele><time>2026-03-24T09:46:38.002Z</time></trkpt><trkpt lat="45.54722811415262" lon="10.743428451071036"><ele>153.0</ele><time>2026-03-24T09:46:40.002Z</time></trkpt><trkpt lat="45.54713233528528" lon="10.743506057583545"><ele>153.0</ele><time>2026-03-24T09:46:42.002Z</time></trkpt><trkpt lat="45.54702577203585" lon="10.74358244664294"><ele>153.28571428571428</ele><time>2026-03-24T09:46:44.002Z</time></trkpt><trkpt lat="45.54696654548605" lon="10.743627013285467"><ele>153.57142857142858</ele><time>2026-03-24T09:46:45.002Z</time></trkpt><trkpt lat="45.546904905272505" lon="10.743674290189283"><ele>153.85714285714286</ele><time>2026-03-24T09:46:46.002Z</time></trkpt><trkpt lat="45.54684027950316" lon="10.743712113714047"><ele>154.14285714285714</ele><time>2026-03-24T09:46:47.002Z</time></trkpt><trkpt lat="45.546777241518214" lon="10.743746021200776"><ele>154.42857142857142</ele><time>2026-03-24T09:46:48.002Z</time></trkpt><trkpt lat="45.5467108635448" lon="10.743793202940482"><ele>154.71428571428572</ele><time>2026-03-24T09:46:49.002Z</time></trkpt><trkpt lat="45.546645387383705" lon="10.74382752670459"><ele>155.0</ele><time>2026-03-24T09:46:50.002Z</time></trkpt><trkpt lat="45.54658666618502" lon="10.74386806044652"><ele>155.0</ele><time>2026-03-24T09:46:51.002Z</time></trkpt><trkpt lat="45.546520985942045" lon="10.743915154632292"><ele>155.0</ele><time>2026-03-24T09:46:52.002Z</time></trkpt><trkpt lat="45.546407142007865" lon="10.743985523162017"><ele>155.0</ele><time>2026-03-24T09:46:54.002Z</time></trkpt><trkpt lat="45.54630957337457" lon="10.74405653469114"><ele>155.0</ele><time>2026-03-24T09:46:56.002Z</time></trkpt><trkpt lat="45.546220755102105" lon="10.744106624641738"><ele>155.0</ele><time>2026-03-24T09:46:58.002Z</time></trkpt><trkpt lat="45.546144841855636" lon="10.74414507306811"><ele>155.66666666666666</ele><time>2026-03-24T09:47:00.002Z</time></trkpt><trkpt lat="45.54608256481391" lon="10.744202671112204"><ele>156.33333333333331</ele><time>2026-03-24T09:47:03.002Z</time></trkpt><trkpt lat="45.5459440296411" lon="10.744274937203409"><ele>157.0</ele><time>2026-03-24T09:47:05.002Z</time></trkpt><trkpt lat="45.545878308263674" lon="10.744327439537933"><ele>157.66666666666666</ele><time>2026-03-24T09:47:07.002Z</time></trkpt><trkpt lat="45.54581490731476" lon="10.74438109512392"><ele>158.33333333333334</ele><time>2026-03-24T09:47:09.002Z</time></trkpt><trkpt lat="45.54576027199053" lon="10.744445371334212"><ele>159.0</ele><time>2026-03-24T09:47:11.002Z</time></trkpt><trkpt lat="45.545706094921655" lon="10.744502655259032"><ele>159.0</ele><time>2026-03-24T09:47:13.002Z</time></trkpt><trkpt lat="45.54563734561051" lon="10.744569686990348"><ele>159.0</ele><time>2026-03-24T09:47:16.001Z</time></trkpt><trkpt lat="45.54556412731001" lon="10.74462049255416"><ele>159.0</ele><time>2026-03-24T09:47:18.001Z</time></trkpt><trkpt lat="45.54545385380886" lon="10.74466646471991"><ele>159.0</ele><time>2026-03-24T09:47:20.001Z</time></trkpt><trkpt lat="45.54534358534472" lon="10.744723073243858"><ele>159.0</ele><time>2026-03-24T09:47:22.001Z</time></trkpt><trkpt lat="45.54523307342629" lon="10.744802264646191"><ele>157.0</ele><time>2026-03-24T09:47:24.001Z</time></trkpt><trkpt lat="45.54518392064017" lon="10.744858703914069"><ele>155.0</ele><time>2026-03-24T09:47:25.001Z</time></trkpt><trkpt lat="45.5450843893737" lon="10.744914777011104"><ele>153.0</ele><time>2026-03-24T09:47:27.001Z</time></trkpt><trkpt lat="45.54499838844699" lon="10.744998134830825"><ele>151.0</ele><time>2026-03-24T09:47:29.001Z</time></trkpt><trkpt lat="45.54491486852119" lon="10.745084919488347"><ele>149.0</ele><time>2026-03-24T09:47:31.001Z</time></trkpt><trkpt lat="45.54482705241698" lon="10.745176052714378"><ele>149.4</ele><time>2026-03-24T09:47:33.001Z</time></trkpt><trkpt lat="45.544744879958714" lon="10.745269881640624"><ele>149.8</ele><time>2026-03-24T09:47:35.001Z</time></trkpt><trkpt lat="45.54468674951826" lon="10.745379701724321"><ele>150.2</ele><time>2026-03-24T09:47:37.001Z</time></trkpt><trkpt lat="45.54461428373624" lon="10.74548073065565"><ele>150.6</ele><time>2026-03-24T09:47:39.001Z</time></trkpt><trkpt lat="45.54453675644165" lon="10.745565398630976"><ele>151.0</ele><time>2026-03-24T09:47:41.001Z</time></trkpt><trkpt lat="45.544450067647844" lon="10.745660130485495"><ele>151.0</ele><time>2026-03-24T09:47:43.001Z</time></trkpt><trkpt lat="45.544377400803405" lon="10.745746575701475"><ele>151.0</ele><time>2026-03-24T09:47:45.002Z</time></trkpt><trkpt lat="45.544291499047084" lon="10.74584502135009"><ele>151.0</ele><time>2026-03-24T09:47:47.002Z</time></trkpt><trkpt lat="45.54421238320903" lon="10.745921539626112"><ele>151.0</ele><time>2026-03-24T09:47:49.002Z</time></trkpt><trkpt lat="45.54413534921044" lon="10.745991664462409"><ele>151.0</ele><time>2026-03-24T09:47:51.002Z</time></trkpt><trkpt lat="45.544058623137566" lon="10.74606026944683"><ele>151.5</ele><time>2026-03-24T09:47:53.002Z</time></trkpt><trkpt lat="45.54398698710095" lon="10.746126989471204"><ele>152.0</ele><time>2026-03-24T09:47:55.002Z</time></trkpt><trkpt lat="45.54391161417691" lon="10.746188294307464"><ele>152.5</ele><time>2026-03-24T09:47:57.002Z</time></trkpt><trkpt lat="45.543831286595584" lon="10.746230471262082"><ele>153.0</ele><time>2026-03-24T09:47:59.002Z</time></trkpt><trkpt lat="45.543746023647394" lon="10.746273796588259"><ele>153.5</ele><time>2026-03-24T09:48:01.002Z</time></trkpt><trkpt lat="45.543669689188604" lon="10.74633853583717"><ele>154.0</ele><time>2026-03-24T09:48:03.002Z</time></trkpt><trkpt lat="45.54359031996485" lon="10.746375449272257"><ele>154.0</ele><time>2026-03-24T09:48:05.002Z</time></trkpt><trkpt lat="45.54352239753703" lon="10.746423384796849"><ele>154.0</ele><time>2026-03-24T09:48:07.002Z</time></trkpt><trkpt lat="45.54345980272782" lon="10.746472658243384"><ele>154.0</ele><time>2026-03-24T09:48:09.002Z</time></trkpt><trkpt lat="45.543398531004975" lon="10.746523806372709"><ele>154.0</ele><time>2026-03-24T09:48:11.002Z</time></trkpt><trkpt lat="45.54333829214663" lon="10.746564847099823"><ele>154.0</ele><time>2026-03-24T09:48:13.002Z</time></trkpt><trkpt lat="45.54326078802327" lon="10.74661962026662"><ele>154.0</ele><time>2026-03-24T09:48:16.002Z</time></trkpt><trkpt lat="45.54319647937176" lon="10.746674607792807"><ele>154.0</ele><time>2026-03-24T09:48:20.002Z</time></trkpt><trkpt lat="45.54309949809159" lon="10.74676415670188"><ele>154.0</ele><time>2026-03-24T09:48:23.002Z</time></trkpt><trkpt lat="45.543043843365474" lon="10.746809937133124"><ele>154.0</ele><time>2026-03-24T09:48:26.002Z</time></trkpt><trkpt lat="45.542941947322674" lon="10.746863628833067"><ele>154.0</ele><time>2026-03-24T09:48:27.002Z</time></trkpt><trkpt lat="45.54285217220519" lon="10.746928185086253"><ele>154.0</ele><time>2026-03-24T09:48:29.002Z</time></trkpt><trkpt lat="45.54274684424076" lon="10.747014615111727"><ele>154.0</ele><time>2026-03-24T09:48:31.002Z</time></trkpt><trkpt lat="45.54265005272597" lon="10.747100526230584"><ele>154.8</ele><time>2026-03-24T09:48:33.002Z</time></trkpt><trkpt lat="45.54255753811669" lon="10.747175325226022"><ele>155.60000000000002</ele><time>2026-03-24T09:48:35.002Z</time></trkpt><trkpt lat="45.54248786881398" lon="10.74725651339327"><ele>156.4</ele><time>2026-03-24T09:48:37.002Z</time></trkpt><trkpt lat="45.54240344023738" lon="10.747337430737051"><ele>157.20000000000002</ele><time>2026-03-24T09:48:39.002Z</time></trkpt><trkpt lat="45.54231269887557" lon="10.747417047710844"><ele>158.0</ele><time>2026-03-24T09:48:41.002Z</time></trkpt><trkpt lat="45.542215467343105" lon="10.747502358340713"><ele>158.0</ele><time>2026-03-24T09:48:43.002Z</time></trkpt><trkpt lat="45.542115914313925" lon="10.747589757811493"><ele>158.0</ele><time>2026-03-24T09:48:45.002Z</time></trkpt><trkpt lat="45.542050915767135" lon="10.747647670069732"><ele>158.0</ele><time>2026-03-24T09:48:46.002Z</time></trkpt><trkpt lat="45.541945897404055" lon="10.747724037477356"><ele>158.0</ele><time>2026-03-24T09:48:48.001Z</time></trkpt><trkpt lat="45.54184397665202" lon="10.747816392484241"><ele>158.0</ele><time>2026-03-24T09:48:50.001Z</time></trkpt><trkpt lat="45.54173746339054" lon="10.74789549945181"><ele>158.20000000000002</ele><time>2026-03-24T09:48:52.001Z</time></trkpt><trkpt lat="45.54161721127755" lon="10.747975308268622"><ele>158.4</ele><time>2026-03-24T09:48:54.001Z</time></trkpt><trkpt lat="45.541501284144395" lon="10.74804720686432"><ele>158.60000000000002</ele><time>2026-03-24T09:48:56.001Z</time></trkpt><trkpt lat="45.541439401761494" lon="10.748086819931721"><ele>158.8</ele><time>2026-03-24T09:48:57.001Z</time></trkpt><trkpt lat="45.541377075428464" lon="10.748118315131352"><ele>159.0</ele><time>2026-03-24T09:48:58.001Z</time></trkpt><trkpt lat="45.541316483109505" lon="10.748150749350053"><ele>159.0</ele><time>2026-03-24T09:48:59.001Z</time></trkpt><trkpt lat="45.541259045295455" lon="10.748188165014387"><ele>159.0</ele><time>2026-03-24T09:49:00.001Z</time></trkpt><trkpt lat="45.541142741241536" lon="10.748243270036012"><ele>159.0</ele><time>2026-03-24T09:49:02.001Z</time></trkpt><trkpt lat="45.54103096803954" lon="10.748315956218875"><ele>159.0</ele><time>2026-03-24T09:49:04.001Z</time></trkpt><trkpt lat="45.54097437307913" lon="10.74835679680072"><ele>159.0</ele><time>2026-03-24T09:49:05.001Z</time></trkpt><trkpt lat="45.54086516564156" lon="10.748437015696075"><ele>159.6</ele><time>2026-03-24T09:49:07Z</time></trkpt><trkpt lat="45.54075986303543" lon="10.74852256439751"><ele>160.2</ele><time>2026-03-24T09:49:09Z</time></trkpt><trkpt lat="45.540657961626955" lon="10.748604386738569"><ele>160.79999999999998</ele><time>2026-03-24T09:49:11Z</time></trkpt><trkpt lat="45.540561465327535" lon="10.74867986349092"><ele>161.4</ele><time>2026-03-24T09:49:13Z</time></trkpt><trkpt lat="45.54050470818293" lon="10.748720641430214"><ele>162.0</ele><time>2026-03-24T09:49:14Z</time></trkpt><trkpt lat="45.54044499254424" lon="10.748774482267985"><ele>159.4</ele><time>2026-03-24T09:49:15Z</time></trkpt><trkpt lat="45.540382152734225" lon="10.748844496431634"><ele>156.79999999999998</ele><time>2026-03-24T09:49:16Z</time></trkpt><trkpt lat="45.54032071297638" lon="10.748922084978787"><ele>154.2</ele><time>2026-03-24T09:49:17Z</time></trkpt><trkpt lat="45.54025486519507" lon="10.749018665546231"><ele>151.6</ele><time>2026-03-24T09:49:18Z</time></trkpt><trkpt lat="45.540186403405286" lon="10.749103129056744"><ele>149.0</ele><time>2026-03-24T09:49:19Z</time></trkpt><trkpt lat="45.54010592748555" lon="10.749199953710866"><ele>149.0</ele><time>2026-03-24T09:49:20Z</time></trkpt><trkpt lat="45.540028795660945" lon="10.749294180730073"><ele>149.0</ele><time>2026-03-24T09:49:21.001Z</time></trkpt><trkpt lat="45.539954968579266" lon="10.749380956615516"><ele>149.0</ele><time>2026-03-24T09:49:22.001Z</time></trkpt><trkpt lat="45.53988433253316" lon="10.7494439373251"><ele>149.0</ele><time>2026-03-24T09:49:23.001Z</time></trkpt><trkpt lat="45.539816767903105" lon="10.74950672962517"><ele>149.0</ele><time>2026-03-24T09:49:24.001Z</time></trkpt><trkpt lat="45.539747919616254" lon="10.74956037137938"><ele>149.0</ele><time>2026-03-24T09:49:25.001Z</time></trkpt><trkpt lat="45.539688350723125" lon="10.749610654485352"><ele>149.16666666666666</ele><time>2026-03-24T09:49:26.001Z</time></trkpt><trkpt lat="45.539626322546646" lon="10.749643359242356"><ele>149.33333333333331</ele><time>2026-03-24T09:49:27.001Z</time></trkpt><trkpt lat="45.53957275765558" lon="10.749693485532886"><ele>149.5</ele><time>2026-03-24T09:49:28.001Z</time></trkpt><trkpt lat="45.53947356620107" lon="10.74976025903758"><ele>149.66666666666666</ele><time>2026-03-24T09:49:30.001Z</time></trkpt><trkpt lat="45.53938261637503" lon="10.749798996764852"><ele>149.83333333333334</ele><time>2026-03-24T09:49:32.001Z</time></trkpt><trkpt lat="45.53932477002777" lon="10.749880373664977"><ele>150.0</ele><time>2026-03-24T09:49:34.001Z</time></trkpt><trkpt lat="45.53926555467354" lon="10.74993300473003"><ele>150.0</ele><time>2026-03-24T09:49:36.001Z</time></trkpt><trkpt lat="45.53919347314085" lon="10.750002929251165"><ele>150.0</ele><time>2026-03-24T09:49:40.001Z</time></trkpt><trkpt lat="45.53911551892442" lon="10.750074143558658"><ele>150.0</ele><time>2026-03-24T09:49:43.001Z</time></trkpt><trkpt lat="45.53906700063711" lon="10.750132449457979"><ele>150.0</ele><time>2026-03-24T09:49:45.001Z</time></trkpt><trkpt lat="45.53899024277665" lon="10.750184208864578"><ele>150.0</ele><time>2026-03-24T09:49:47.001Z</time></trkpt><trkpt lat="45.538925413301754" lon="10.750231930213161"><ele>150.0</ele><time>2026-03-24T09:49:49.001Z</time></trkpt><trkpt lat="45.538865788591664" lon="10.750280051636787"><ele>150.5</ele><time>2026-03-24T09:49:51.001Z</time></trkpt><trkpt lat="45.53880580082262" lon="10.750333801462865"><ele>151.0</ele><time>2026-03-24T09:49:54.001Z</time></trkpt><trkpt lat="45.53868248176112" lon="10.750375697857736"><ele>151.5</ele><time>2026-03-24T09:49:55.001Z</time></trkpt><trkpt lat="45.53862158321073" lon="10.750434978620754"><ele>152.0</ele><time>2026-03-24T09:49:57.001Z</time></trkpt><trkpt lat="45.538560835693154" lon="10.750495073690107"><ele>152.5</ele><time>2026-03-24T09:49:59.001Z</time></trkpt><trkpt lat="45.5385062749188" lon="10.750551514895909"><ele>153.0</ele><time>2026-03-24T09:50:01.001Z</time></trkpt><trkpt lat="45.53845249155325" lon="10.750610105156634"><ele>153.0</ele><time>2026-03-24T09:50:03.001Z</time></trkpt><trkpt lat="45.53839840992559" lon="10.750664982602363"><ele>153.0</ele><time>2026-03-24T09:50:05.001Z</time></trkpt><trkpt lat="45.53832703044209" lon="10.75072020279482"><ele>153.0</ele><time>2026-03-24T09:50:07.001Z</time></trkpt><trkpt lat="45.53822964731502" lon="10.750752265669274"><ele>153.0</ele><time>2026-03-24T09:50:09.001Z</time></trkpt><trkpt lat="45.53812902072267" lon="10.750764166286137"><ele>153.0</ele><time>2026-03-24T09:50:11.001Z</time></trkpt><trkpt lat="45.5380508292624" lon="10.750765746979747"><ele>153.0</ele><time>2026-03-24T09:50:12.001Z</time></trkpt><trkpt lat="45.537987704214174" lon="10.750771361270266"><ele>153.0</ele><time>2026-03-24T09:50:13.001Z</time></trkpt><trkpt lat="45.53792419576521" lon="10.750784963248327"><ele>153.0</ele><time>2026-03-24T09:50:14.001Z</time></trkpt><trkpt lat="45.537861286935865" lon="10.750795890139399"><ele>153.0</ele><time>2026-03-24T09:50:15.001Z</time></trkpt><trkpt lat="45.53779620080928" lon="10.75079964738488"><ele>153.0</ele><time>2026-03-24T09:50:16.001Z</time></trkpt><trkpt lat="45.537728504939125" lon="10.750809024808838"><ele>153.0</ele><time>2026-03-24T09:50:17.001Z</time></trkpt><trkpt lat="45.53766294116616" lon="10.7508243383474"><ele>153.0</ele><time>2026-03-24T09:50:18.001Z</time></trkpt><trkpt lat="45.53753931641003" lon="10.750835884032021"><ele>152.6</ele><time>2026-03-24T09:50:20.001Z</time></trkpt><trkpt lat="45.5374195835924" lon="10.750852668614163"><ele>152.20000000000002</ele><time>2026-03-24T09:50:22.001Z</time></trkpt><trkpt lat="45.53730704428346" lon="10.750877796714821"><ele>151.8</ele><time>2026-03-24T09:50:24.001Z</time></trkpt><trkpt lat="45.53720382342273" lon="10.750883122827949"><ele>151.4</ele><time>2026-03-24T09:50:26.001Z</time></trkpt><trkpt lat="45.537104898338804" lon="10.75088005724406"><ele>151.0</ele><time>2026-03-24T09:50:28.001Z</time></trkpt><trkpt lat="45.53700969782104" lon="10.750880808593228"><ele>151.0</ele><time>2026-03-24T09:50:30.001Z</time></trkpt><trkpt lat="45.53690436611452" lon="10.750876304207292"><ele>151.0</ele><time>2026-03-24T09:50:32.001Z</time></trkpt><trkpt lat="45.53682027369528" lon="10.750873763605242"><ele>151.0</ele><time>2026-03-24T09:50:34.001Z</time></trkpt><trkpt lat="45.536738828742195" lon="10.750872680850852"><ele>151.0</ele><time>2026-03-24T09:50:36.001Z</time></trkpt><trkpt lat="45.53665823115158" lon="10.750883856239707"><ele>151.0</ele><time>2026-03-24T09:50:38.001Z</time></trkpt><trkpt lat="45.53658894337464" lon="10.750873104692225"><ele>151.0</ele><time>2026-03-24T09:50:40.001Z</time></trkpt><trkpt lat="45.53652604660708" lon="10.750862725948348"><ele>151.0</ele><time>2026-03-24T09:50:42.001Z</time></trkpt><trkpt lat="45.53646272214326" lon="10.750802515382443"><ele>151.0</ele><time>2026-03-24T09:50:45.001Z</time></trkpt><trkpt lat="45.53638665912359" lon="10.750761614299027"><ele>151.0</ele><time>2026-03-24T09:50:48.001Z</time></trkpt><trkpt lat="45.5362970088017" lon="10.750722491463103"><ele>151.0</ele><time>2026-03-24T09:50:51.001Z</time></trkpt><trkpt lat="45.53623305923332" lon="10.750692991661683"><ele>151.0</ele><time>2026-03-24T09:50:54Z</time></trkpt><trkpt lat="45.53617139608209" lon="10.750655707679957"><ele>151.0</ele><time>2026-03-24T09:50:57Z</time></trkpt><trkpt lat="45.53609750348551" lon="10.750612422028995"><ele>152.14285714285717</ele><time>2026-03-24T09:51:00Z</time></trkpt><trkpt lat="45.53603380832008" lon="10.750568416975796"><ele>153.28571428571428</ele><time>2026-03-24T09:51:03Z</time></trkpt><trkpt lat="45.53596656119121" lon="10.750528565494195"><ele>154.42857142857144</ele><time>2026-03-24T09:51:06Z</time></trkpt><trkpt lat="45.53589453420989" lon="10.750499891346603"><ele>155.57142857142858</ele><time>2026-03-24T09:51:09Z</time></trkpt><trkpt lat="45.53582158469229" lon="10.750488996360861"><ele>156.71428571428572</ele><time>2026-03-24T09:51:12Z</time></trkpt><trkpt lat="45.535753204840844" lon="10.750492188358088"><ele>157.85714285714286</ele><time>2026-03-24T09:51:15Z</time></trkpt><trkpt lat="45.535686765584245" lon="10.750496913640859"><ele>159.0</ele><time>2026-03-24T09:51:18Z</time></trkpt><trkpt lat="45.535626329280426" lon="10.750535592442619"><ele>159.0</ele><time>2026-03-24T09:51:21Z</time></trkpt><trkpt lat="45.53555418195662" lon="10.750591680015853"><ele>159.0</ele><time>2026-03-24T09:51:25Z</time></trkpt><trkpt lat="45.53549333631036" lon="10.75067154451197"><ele>159.0</ele><time>2026-03-24T09:51:29Z</time></trkpt><trkpt lat="45.53544220908013" lon="10.750734230141221"><ele>159.0</ele><time>2026-03-24T09:51:32Z</time></trkpt><trkpt lat="45.53538741389932" lon="10.750798864104167"><ele>159.0</ele><time>2026-03-24T09:51:35Z</time></trkpt><trkpt lat="45.53531925177864" lon="10.750864194844183"><ele>159.0</ele><time>2026-03-24T09:51:39Z</time></trkpt><trkpt lat="45.5352605275868" lon="10.750898207884319"><ele>159.0</ele><time>2026-03-24T09:51:42Z</time></trkpt><trkpt lat="45.53519598210389" lon="10.750953838983493"><ele>159.83333333333334</ele><time>2026-03-24T09:51:46Z</time></trkpt><trkpt lat="45.53512777950198" lon="10.751007618098077"><ele>160.66666666666666</ele><time>2026-03-24T09:51:50Z</time></trkpt><trkpt lat="45.53505792189022" lon="10.751064591794604"><ele>161.5</ele><time>2026-03-24T09:51:54Z</time></trkpt><trkpt lat="45.534981466317156" lon="10.751104919998982"><ele>162.33333333333331</ele><time>2026-03-24T09:51:58Z</time></trkpt><trkpt lat="45.534907335437005" lon="10.751156769335616"><ele>163.16666666666666</ele><time>2026-03-24T09:52:02Z</time></trkpt><trkpt lat="45.5348312245782" lon="10.751199970818936"><ele>164.0</ele><time>2026-03-24T09:52:06Z</time></trkpt><trkpt lat="45.534756494201886" lon="10.751237293811869"><ele>164.0</ele><time>2026-03-24T09:52:10Z</time></trkpt><trkpt lat="45.53468421646185" lon="10.751282002914309"><ele>164.0</ele><time>2026-03-24T09:52:14Z</time></trkpt><trkpt lat="45.534610073320245" lon="10.751327698717212"><ele>164.0</ele><time>2026-03-24T09:52:18Z</time></trkpt><trkpt lat="45.53453471508109" lon="10.751363060006078"><ele>164.0</ele><time>2026-03-24T09:52:22Z</time></trkpt><trkpt lat="45.534460050596834" lon="10.751409140563906"><ele>164.0</ele><time>2026-03-24T09:52:26Z</time></trkpt><trkpt lat="45.53439568029586" lon="10.751447317370092"><ele>164.0</ele><time>2026-03-24T09:52:29Z</time></trkpt><trkpt lat="45.5343163225444" lon="10.751481796628777"><ele>164.2</ele><time>2026-03-24T09:52:32Z</time></trkpt><trkpt lat="45.534219250407034" lon="10.751515767677084"><ele>164.39999999999998</ele><time>2026-03-24T09:52:35Z</time></trkpt><trkpt lat="45.534143255894534" lon="10.751555341277902"><ele>164.6</ele><time>2026-03-24T09:52:37Z</time></trkpt><trkpt lat="45.53404627630709" lon="10.751571818739714"><ele>164.8</ele><time>2026-03-24T09:52:39Z</time></trkpt><trkpt lat="45.53392900820508" lon="10.751589886180732"><ele>165.0</ele><time>2026-03-24T09:52:41Z</time></trkpt><trkpt lat="45.533804290315025" lon="10.751613245387132"><ele>164.5</ele><time>2026-03-24T09:52:43Z</time></trkpt><trkpt lat="45.53368468882854" lon="10.751630762315688"><ele>164.0</ele><time>2026-03-24T09:52:45Z</time></trkpt><trkpt lat="45.53356733529756" lon="10.751655737078096"><ele>163.5</ele><time>2026-03-24T09:52:47.001Z</time></trkpt><trkpt lat="45.53345227680536" lon="10.751683568363411"><ele>163.0</ele><time>2026-03-24T09:52:49.001Z</time></trkpt><trkpt lat="45.533341986127475" lon="10.751711155607115"><ele>163.0</ele><time>2026-03-24T09:52:51.001Z</time></trkpt><trkpt lat="45.53323325735905" lon="10.751741640368182"><ele>163.0</ele><time>2026-03-24T09:52:53.001Z</time></trkpt><trkpt lat="45.53312106423518" lon="10.751782625227474"><ele>163.0</ele><time>2026-03-24T09:52:55.001Z</time></trkpt><trkpt lat="45.5330080107464" lon="10.751807478258872"><ele>163.0</ele><time>2026-03-24T09:52:57.001Z</time></trkpt><trkpt lat="45.532908146956935" lon="10.75183481940841"><ele>163.0</ele><time>2026-03-24T09:52:59.001Z</time></trkpt><trkpt lat="45.53280454202494" lon="10.751864077667747"><ele>162.20000000000002</ele><time>2026-03-24T09:53:00.999Z</time></trkpt><trkpt lat="45.53270382843777" lon="10.751885567203031"><ele>161.4</ele><time>2026-03-24T09:53:02.999Z</time></trkpt><trkpt lat="45.53260048700543" lon="10.751915834992694"><ele>160.60000000000002</ele><time>2026-03-24T09:53:04.999Z</time></trkpt><trkpt lat="45.53250522745035" lon="10.751981315023805"><ele>159.8</ele><time>2026-03-24T09:53:06.999Z</time></trkpt><trkpt lat="45.53239792813578" lon="10.752039756169003"><ele>159.0</ele><time>2026-03-24T09:53:08.999Z</time></trkpt><trkpt lat="45.5322846614996" lon="10.752110684219398"><ele>159.0</ele><time>2026-03-24T09:53:10.999Z</time></trkpt><trkpt lat="45.532227399493806" lon="10.752156693073617"><ele>159.0</ele><time>2026-03-24T09:53:11.999Z</time></trkpt><trkpt lat="45.53217558020959" lon="10.752211171217724"><ele>159.0</ele><time>2026-03-24T09:53:12.999Z</time></trkpt><trkpt lat="45.53206801191461" lon="10.75230694222572"><ele>159.0</ele><time>2026-03-24T09:53:14.999Z</time></trkpt><trkpt lat="45.532003685775024" lon="10.75236377634513"><ele>159.0</ele><time>2026-03-24T09:53:15.999Z</time></trkpt><trkpt lat="45.53194754913218" lon="10.752421413883837"><ele>159.0</ele><time>2026-03-24T09:53:16.999Z</time></trkpt><trkpt lat="45.53183089257583" lon="10.752482214705942"><ele>158.83333333333334</ele><time>2026-03-24T09:53:17.999Z</time></trkpt><trkpt lat="45.53176712531633" lon="10.752540078964087"><ele>158.66666666666666</ele><time>2026-03-24T09:53:18.999Z</time></trkpt><trkpt lat="45.53169622975343" lon="10.75260478390391"><ele>158.5</ele><time>2026-03-24T09:53:19.999Z</time></trkpt><trkpt lat="45.53164231054251" lon="10.752689198525335"><ele>158.33333333333331</ele><time>2026-03-24T09:53:20.999Z</time></trkpt><trkpt lat="45.531568054457225" lon="10.752735026645949"><ele>158.16666666666666</ele><time>2026-03-24T09:53:21.999Z</time></trkpt><trkpt lat="45.5315032892893" lon="10.752803193482714"><ele>158.0</ele><time>2026-03-24T09:53:23Z</time></trkpt><trkpt lat="45.53144214731624" lon="10.752867038894191"><ele>157.33333333333331</ele><time>2026-03-24T09:53:24Z</time></trkpt><trkpt lat="45.53137672436328" lon="10.752935284085357"><ele>156.66666666666666</ele><time>2026-03-24T09:53:25Z</time></trkpt><trkpt lat="45.53131136989037" lon="10.753017059069137"><ele>156.0</ele><time>2026-03-24T09:53:26Z</time></trkpt><trkpt lat="45.53123725832117" lon="10.753077231882378"><ele>155.33333333333334</ele><time>2026-03-24T09:53:27Z</time></trkpt><trkpt lat="45.53116877175372" lon="10.753115006118996"><ele>154.66666666666669</ele><time>2026-03-24T09:53:28Z</time></trkpt><trkpt lat="45.53110655828455" lon="10.753151667211215"><ele>154.0</ele><time>2026-03-24T09:53:29Z</time></trkpt><trkpt lat="45.53104217824586" lon="10.75317994009437"><ele>153.66666666666669</ele><time>2026-03-24T09:53:30Z</time></trkpt><trkpt lat="45.53095033071448" lon="10.753202388288843"><ele>153.33333333333334</ele><time>2026-03-24T09:53:32Z</time></trkpt><trkpt lat="45.53088744476459" lon="10.753223701970535"><ele>153.0</ele><time>2026-03-24T09:53:34Z</time></trkpt><trkpt lat="45.53081978850842" lon="10.753242249704998"><ele>152.66666666666666</ele><time>2026-03-24T09:53:35Z</time></trkpt><trkpt lat="45.53072746840993" lon="10.753308716157468"><ele>152.33333333333331</ele><time>2026-03-24T09:53:37Z</time></trkpt><trkpt lat="45.53062943100207" lon="10.753399256331404"><ele>152.0</ele><time>2026-03-24T09:53:39Z</time></trkpt><trkpt lat="45.530569720969325" lon="10.753436901786586"><ele>152.0</ele><time>2026-03-24T09:53:40Z</time></trkpt><trkpt lat="45.53050476702573" lon="10.753455726210674"><ele>152.0</ele><time>2026-03-24T09:53:41Z</time></trkpt><trkpt lat="45.530445135543566" lon="10.753501694252046"><ele>152.0</ele><time>2026-03-24T09:53:42Z</time></trkpt><trkpt lat="45.53032848039153" lon="10.753569830675989"><ele>152.0</ele><time>2026-03-24T09:53:44Z</time></trkpt><trkpt lat="45.530266482655136" lon="10.753606083327263"><ele>152.0</ele><time>2026-03-24T09:53:45Z</time></trkpt><trkpt lat="45.53020832429551" lon="10.753640722372836"><ele>152.0</ele><time>2026-03-24T09:53:46Z</time></trkpt><trkpt lat="45.53009094238243" lon="10.75370406569892"><ele>151.79999999999998</ele><time>2026-03-24T09:53:48Z</time></trkpt><trkpt lat="45.52997796100779" lon="10.753770455440554"><ele>151.6</ele><time>2026-03-24T09:53:50Z</time></trkpt><trkpt lat="45.529861597520714" lon="10.753820727401274"><ele>151.39999999999998</ele><time>2026-03-24T09:53:52Z</time></trkpt><trkpt lat="45.52980013443544" lon="10.753853033594536"><ele>151.2</ele><time>2026-03-24T09:53:53Z</time></trkpt><trkpt lat="45.52969606432295" lon="10.753907952853123"><ele>151.0</ele><time>2026-03-24T09:53:55Z</time></trkpt><trkpt lat="45.529588095725096" lon="10.753971343366585"><ele>150.75</ele><time>2026-03-24T09:53:57Z</time></trkpt><trkpt lat="45.52947740001367" lon="10.75402780643803"><ele>150.5</ele><time>2026-03-24T09:53:59Z</time></trkpt><trkpt lat="45.52936490148623" lon="10.754084027430888"><ele>150.25</ele><time>2026-03-24T09:54:01Z</time></trkpt><trkpt lat="45.52925820571762" lon="10.754148064576118"><ele>150.0</ele><time>2026-03-24T09:54:03Z</time></trkpt><trkpt lat="45.52914800204275" lon="10.75420831042077"><ele>150.0</ele><time>2026-03-24T09:54:05Z</time></trkpt><trkpt lat="45.52903295174091" lon="10.754261639928897"><ele>150.0</ele><time>2026-03-24T09:54:07Z</time></trkpt><trkpt lat="45.52897360463887" lon="10.754293362514577"><ele>150.0</ele><time>2026-03-24T09:54:08Z</time></trkpt><trkpt lat="45.52884827155547" lon="10.754337070536668"><ele>150.0</ele><time>2026-03-24T09:54:10Z</time></trkpt><trkpt lat="45.52878388434636" lon="10.754355109159718"><ele>150.0</ele><time>2026-03-24T09:54:11Z</time></trkpt><trkpt lat="45.528720454230736" lon="10.754367602838"><ele>150.0</ele><time>2026-03-24T09:54:12Z</time></trkpt><trkpt lat="45.528658200818576" lon="10.754383963559302"><ele>149.7142857142857</ele><time>2026-03-24T09:54:13Z</time></trkpt><trkpt lat="45.5285336691477" lon="10.754417762667753"><ele>149.42857142857142</ele><time>2026-03-24T09:54:15Z</time></trkpt><trkpt lat="45.52847526266923" lon="10.754458351920896"><ele>149.14285714285714</ele><time>2026-03-24T09:54:16Z</time></trkpt><trkpt lat="45.52841967310994" lon="10.754502822993505"><ele>148.85714285714283</ele><time>2026-03-24T09:54:17Z</time></trkpt><trkpt lat="45.528369573302214" lon="10.75456068997461"><ele>148.57142857142856</ele><time>2026-03-24T09:54:18Z</time></trkpt><trkpt lat="45.52832407661971" lon="10.754624397376583"><ele>148.28571428571428</ele><time>2026-03-24T09:54:19Z</time></trkpt><trkpt lat="45.528274601992734" lon="10.754680047494798"><ele>148.0</ele><time>2026-03-24T09:54:20Z</time></trkpt><trkpt lat="45.528177505553764" lon="10.754800637814926"><ele>148.0</ele><time>2026-03-24T09:54:22Z</time></trkpt><trkpt lat="45.52812934648251" lon="10.754860784847653"><ele>148.0</ele><time>2026-03-24T09:54:23Z</time></trkpt><trkpt lat="45.52808000203256" lon="10.754919098748422"><ele>148.0</ele><time>2026-03-24T09:54:24Z</time></trkpt><trkpt lat="45.528029459259145" lon="10.754979128627918"><ele>148.0</ele><time>2026-03-24T09:54:25Z</time></trkpt><trkpt lat="45.5279783565806" lon="10.755039344123052"><ele>148.0</ele><time>2026-03-24T09:54:26Z</time></trkpt><trkpt lat="45.52792921815058" lon="10.755100969087703"><ele>148.0</ele><time>2026-03-24T09:54:27Z</time></trkpt><trkpt lat="45.527877854664204" lon="10.755159165947553"><ele>148.0</ele><time>2026-03-24T09:54:28Z</time></trkpt><trkpt lat="45.52782945290364" lon="10.755217862573218"><ele>147.71428571428572</ele><time>2026-03-24T09:54:29Z</time></trkpt><trkpt lat="45.52777989783327" lon="10.755280372119568"><ele>147.42857142857142</ele><time>2026-03-24T09:54:30Z</time></trkpt><trkpt lat="45.52773463786512" lon="10.755346228295581"><ele>147.14285714285714</ele><time>2026-03-24T09:54:31Z</time></trkpt><trkpt lat="45.527687341290715" lon="10.755412236867835"><ele>146.85714285714286</ele><time>2026-03-24T09:54:32Z</time></trkpt><trkpt lat="45.52764228710198" lon="10.755482826875477"><ele>146.57142857142858</ele><time>2026-03-24T09:54:33Z</time></trkpt><trkpt lat="45.52759565513523" lon="10.755548901819562"><ele>146.28571428571428</ele><time>2026-03-24T09:54:34Z</time></trkpt><trkpt lat="45.5275520011162" lon="10.755617237719173"><ele>146.0</ele><time>2026-03-24T09:54:35Z</time></trkpt><trkpt lat="45.52750573905625" lon="10.75568930626828"><ele>146.0</ele><time>2026-03-24T09:54:36Z</time></trkpt><trkpt lat="45.52746295044146" lon="10.755762741118323"><ele>146.0</ele><time>2026-03-24T09:54:37Z</time></trkpt><trkpt lat="45.52741990835348" lon="10.755833174793226"><ele>146.0</ele><time>2026-03-24T09:54:38Z</time></trkpt><trkpt lat="45.52737375845513" lon="10.755905650684925"><ele>146.0</ele><time>2026-03-24T09:54:39Z</time></trkpt><trkpt lat="45.527331742161614" lon="10.755977366798831"><ele>146.0</ele><time>2026-03-24T09:54:40Z</time></trkpt><trkpt lat="45.52728636430179" lon="10.75605396640213"><ele>146.0</ele><time>2026-03-24T09:54:41Z</time></trkpt><trkpt lat="45.52724258995413" lon="10.756129001901758"><ele>146.0</ele><time>2026-03-24T09:54:42Z</time></trkpt><trkpt lat="45.52719345979954" lon="10.756197737853654"><ele>146.0</ele><time>2026-03-24T09:54:43Z</time></trkpt><trkpt lat="45.52714406475787" lon="10.756270171684639"><ele>146.0</ele><time>2026-03-24T09:54:44Z</time></trkpt><trkpt lat="45.5270903951323" lon="10.756339655814841"><ele>146.0</ele><time>2026-03-24T09:54:45Z</time></trkpt><trkpt lat="45.52703076652324" lon="10.756406019260279"><ele>146.0</ele><time>2026-03-24T09:54:46Z</time></trkpt><trkpt lat="45.52697021604338" lon="10.756471306003196"><ele>146.0</ele><time>2026-03-24T09:54:47Z</time></trkpt><trkpt lat="45.526909601487866" lon="10.756539662526796"><ele>146.0</ele><time>2026-03-24T09:54:48Z</time></trkpt><trkpt lat="45.52685177829295" lon="10.756603610539473"><ele>146.0</ele><time>2026-03-24T09:54:49Z</time></trkpt><trkpt lat="45.52678825926711" lon="10.756662690362694"><ele>146.0</ele><time>2026-03-24T09:54:50Z</time></trkpt><trkpt lat="45.52672761212896" lon="10.756715281461009"><ele>146.0</ele><time>2026-03-24T09:54:51Z</time></trkpt><trkpt lat="45.52666427953766" lon="10.756775663148078"><ele>146.0</ele><time>2026-03-24T09:54:52Z</time></trkpt><trkpt lat="45.52660235616678" lon="10.756836588454732"><ele>146.0</ele><time>2026-03-24T09:54:53Z</time></trkpt><trkpt lat="45.52654281379475" lon="10.75689471466387"><ele>146.0</ele><time>2026-03-24T09:54:54Z</time></trkpt><trkpt lat="45.52647842222829" lon="10.756955218692523"><ele>146.0</ele><time>2026-03-24T09:54:55Z</time></trkpt><trkpt lat="45.526418430752614" lon="10.757020407990105"><ele>146.0</ele><time>2026-03-24T09:54:56Z</time></trkpt><trkpt lat="45.52636010013054" lon="10.757083571135036"><ele>146.0</ele><time>2026-03-24T09:54:57Z</time></trkpt><trkpt lat="45.52629905512899" lon="10.757149430706278"><ele>146.0</ele><time>2026-03-24T09:54:58Z</time></trkpt><trkpt lat="45.52623907469136" lon="10.757204130095934"><ele>146.0</ele><time>2026-03-24T09:54:59Z</time></trkpt><trkpt lat="45.52617902220141" lon="10.75726335098938"><ele>146.0</ele><time>2026-03-24T09:55:00Z</time></trkpt><trkpt lat="45.52611560919763" lon="10.757321937509518"><ele>146.0</ele><time>2026-03-24T09:55:01Z</time></trkpt><trkpt lat="45.52605198683853" lon="10.757370210290357"><ele>146.0</ele><time>2026-03-24T09:55:02Z</time></trkpt><trkpt lat="45.52598146376959" lon="10.757418369326457"><ele>146.0</ele><time>2026-03-24T09:55:03Z</time></trkpt><trkpt lat="45.525914419875605" lon="10.757468722792874"><ele>146.0</ele><time>2026-03-24T09:55:04Z</time></trkpt><trkpt lat="45.52584952238405" lon="10.757518088745744"><ele>146.0</ele><time>2026-03-24T09:55:05.001Z</time></trkpt><trkpt lat="45.52578220189822" lon="10.757566393936278"><ele>146.0</ele><time>2026-03-24T09:55:06.001Z</time></trkpt><trkpt lat="45.52572030375376" lon="10.75761611609841"><ele>146.0</ele><time>2026-03-24T09:55:07.001Z</time></trkpt><trkpt lat="45.52565705311788" lon="10.7576659688987"><ele>146.0</ele><time>2026-03-24T09:55:08.001Z</time></trkpt><trkpt lat="45.52559295240278" lon="10.757715246438256"><ele>146.0</ele><time>2026-03-24T09:55:09.001Z</time></trkpt><trkpt lat="45.525531952209704" lon="10.757758720653255"><ele>146.0</ele><time>2026-03-24T09:55:10.001Z</time></trkpt><trkpt lat="45.525473698683946" lon="10.75780570320651"><ele>146.0</ele><time>2026-03-24T09:55:11.001Z</time></trkpt><trkpt lat="45.52537812848428" lon="10.757872125090039"><ele>146.0</ele><time>2026-03-24T09:55:13.001Z</time></trkpt><trkpt lat="45.5253096436149" lon="10.757887998525547"><ele>146.0</ele><time>2026-03-24T09:55:15.001Z</time></trkpt><trkpt lat="45.5252237296568" lon="10.757860711069908"><ele>146.0</ele><time>2026-03-24T09:55:17.001Z</time></trkpt><trkpt lat="45.52514062850851" lon="10.757783013151075"><ele>146.0</ele><time>2026-03-24T09:55:19.001Z</time></trkpt><trkpt lat="45.5250579172692" lon="10.757703023424524"><ele>146.2</ele><time>2026-03-24T09:55:21.001Z</time></trkpt><trkpt lat="45.5249726655155" lon="10.757636923800158"><ele>146.39999999999998</ele><time>2026-03-24T09:55:23.001Z</time></trkpt><trkpt lat="45.52488458388949" lon="10.757564211485686"><ele>146.6</ele><time>2026-03-24T09:55:25.001Z</time></trkpt><trkpt lat="45.5247700384274" lon="10.75747648823527"><ele>146.79999999999998</ele><time>2026-03-24T09:55:27.001Z</time></trkpt><trkpt lat="45.52467087158712" lon="10.757418782322144"><ele>147.0</ele><time>2026-03-24T09:55:29.001Z</time></trkpt><trkpt lat="45.52456692950766" lon="10.75736929854468"><ele>146.4</ele><time>2026-03-24T09:55:31.001Z</time></trkpt><trkpt lat="45.52445821910882" lon="10.757322729483302"><ele>145.79999999999998</ele><time>2026-03-24T09:55:33.001Z</time></trkpt><trkpt lat="45.5243502351554" lon="10.757282447169352"><ele>145.2</ele><time>2026-03-24T09:55:35.001Z</time></trkpt><trkpt lat="45.52424576264035" lon="10.757235677885761"><ele>144.6</ele><time>2026-03-24T09:55:37.001Z</time></trkpt><trkpt lat="45.524140927356584" lon="10.75719059795279"><ele>144.0</ele><time>2026-03-24T09:55:39.001Z</time></trkpt><trkpt lat="45.52403906345961" lon="10.757134618432342"><ele>144.0</ele><time>2026-03-24T09:55:41.001Z</time></trkpt><trkpt lat="45.52393733025892" lon="10.757067080620253"><ele>144.0</ele><time>2026-03-24T09:55:43.001Z</time></trkpt><trkpt lat="45.52384194087761" lon="10.756981020477806"><ele>144.0</ele><time>2026-03-24T09:55:45.001Z</time></trkpt><trkpt lat="45.523750882224505" lon="10.756883762842433"><ele>144.0</ele><time>2026-03-24T09:55:47.001Z</time></trkpt><trkpt lat="45.52367562488884" lon="10.75677416508348"><ele>144.0</ele><time>2026-03-24T09:55:49.001Z</time></trkpt><trkpt lat="45.52359170267873" lon="10.756668299918188"><ele>144.2</ele><time>2026-03-24T09:55:51.001Z</time></trkpt><trkpt lat="45.523504583371505" lon="10.756571877750874"><ele>144.4</ele><time>2026-03-24T09:55:53.001Z</time></trkpt><trkpt lat="45.52341901544943" lon="10.756483541836358"><ele>144.6</ele><time>2026-03-24T09:55:55.001Z</time></trkpt><trkpt lat="45.523341106420396" lon="10.756385353908888"><ele>144.8</ele><time>2026-03-24T09:55:57.001Z</time></trkpt><trkpt lat="45.52327706244732" lon="10.756298397774824"><ele>145.0</ele><time>2026-03-24T09:55:59.001Z</time></trkpt><trkpt lat="45.52320460582878" lon="10.756203171650617"><ele>145.0</ele><time>2026-03-24T09:56:01.001Z</time></trkpt><trkpt lat="45.52314488008463" lon="10.75608991769426"><ele>145.0</ele><time>2026-03-24T09:56:03.001Z</time></trkpt><trkpt lat="45.523115363606244" lon="10.75594960939119"><ele>145.0</ele><time>2026-03-24T09:56:05.001Z</time></trkpt><trkpt lat="45.523132709578654" lon="10.7558212782743"><ele>145.0</ele><time>2026-03-24T09:56:07.001Z</time></trkpt><trkpt lat="45.5231677917981" lon="10.755731686720464"><ele>145.0</ele><time>2026-03-24T09:56:09.001Z</time></trkpt><trkpt lat="45.523180244808984" lon="10.75552336241458"><ele>145.2</ele><time>2026-03-24T09:56:11.001Z</time></trkpt><trkpt lat="45.52321512727327" lon="10.755402270462428"><ele>145.4</ele><time>2026-03-24T09:56:13.001Z</time></trkpt><trkpt lat="45.52325853209898" lon="10.75526995204055"><ele>145.6</ele><time>2026-03-24T09:56:15.001Z</time></trkpt><trkpt lat="45.523299684274185" lon="10.755148817888921"><ele>145.8</ele><time>2026-03-24T09:56:17.001Z</time></trkpt><trkpt lat="45.523333502470734" lon="10.755038178309617"><ele>146.0</ele><time>2026-03-24T09:56:19.001Z</time></trkpt><trkpt lat="45.52336183882817" lon="10.754924687163905"><ele>146.2</ele><time>2026-03-24T09:56:21.001Z</time></trkpt><trkpt lat="45.52338578907222" lon="10.754797792411036"><ele>146.39999999999998</ele><time>2026-03-24T09:56:23.001Z</time></trkpt><trkpt lat="45.52341783411321" lon="10.754672164847108"><ele>146.6</ele><time>2026-03-24T09:56:25.001Z</time></trkpt><trkpt lat="45.523399212509354" lon="10.754544721310385"><ele>146.79999999999998</ele><time>2026-03-24T09:56:27.001Z</time></trkpt><trkpt lat="45.52335626607233" lon="10.754420899046611"><ele>147.0</ele><time>2026-03-24T09:56:30.001Z</time></trkpt><trkpt lat="45.52329301068134" lon="10.754346447794802"><ele>147.66666666666666</ele><time>2026-03-24T09:56:31.001Z</time></trkpt><trkpt lat="45.523238651295856" lon="10.754245255699322"><ele>148.33333333333334</ele><time>2026-03-24T09:56:33.001Z</time></trkpt><trkpt lat="45.52318085359154" lon="10.754146399819943"><ele>149.0</ele><time>2026-03-24T09:56:35.001Z</time></trkpt><trkpt lat="45.523126991796964" lon="10.754062200679499"><ele>149.66666666666669</ele><time>2026-03-24T09:56:37.001Z</time></trkpt><trkpt lat="45.52309307189301" lon="10.753961912081817"><ele>150.33333333333334</ele><time>2026-03-24T09:56:39.001Z</time></trkpt><trkpt lat="45.5230772246936" lon="10.753853709980802"><ele>151.0</ele><time>2026-03-24T09:56:41.001Z</time></trkpt><trkpt lat="45.52305616172617" lon="10.753746280053992"><ele>151.0</ele><time>2026-03-24T09:56:43.001Z</time></trkpt><trkpt lat="45.523041150303946" lon="10.753627692771804"><ele>151.0</ele><time>2026-03-24T09:56:45.001Z</time></trkpt><trkpt lat="45.52302116924026" lon="10.753512201757948"><ele>151.0</ele><time>2026-03-24T09:56:47.001Z</time></trkpt><trkpt lat="45.52300249039125" lon="10.753401126404448"><ele>151.0</ele><time>2026-03-24T09:56:49.001Z</time></trkpt><trkpt lat="45.52298035927615" lon="10.753228946450774"><ele>151.0</ele><time>2026-03-24T09:56:52.001Z</time></trkpt><trkpt lat="45.52299336065698" lon="10.753133708531891"><ele>151.0</ele><time>2026-03-24T09:56:54.001Z</time></trkpt><trkpt lat="45.5229551590176" lon="10.752884115140093"><ele>151.5</ele><time>2026-03-24T09:56:58.001Z</time></trkpt><trkpt lat="45.52294374286224" lon="10.7527729197419"><ele>152.0</ele><time>2026-03-24T09:57:00.001Z</time></trkpt><trkpt lat="45.52293560663596" lon="10.7526626313006"><ele>152.5</ele><time>2026-03-24T09:57:02.001Z</time></trkpt><trkpt lat="45.522925687147115" lon="10.752553672618097"><ele>153.0</ele><time>2026-03-24T09:57:04.001Z</time></trkpt><trkpt lat="45.52291069754869" lon="10.752448864225803"><ele>153.5</ele><time>2026-03-24T09:57:06.001Z</time></trkpt><trkpt lat="45.5229026684671" lon="10.752355435831282"><ele>154.0</ele><time>2026-03-24T09:57:08.001Z</time></trkpt><trkpt lat="45.52288712898683" lon="10.75222769292719"><ele>154.0</ele><time>2026-03-24T09:57:11.001Z</time></trkpt><trkpt lat="45.522866347887124" lon="10.752102759358017"><ele>154.0</ele><time>2026-03-24T09:57:14.001Z</time></trkpt><trkpt lat="45.52286278589004" lon="10.751995535545873"><ele>154.0</ele><time>2026-03-24T09:57:17.001Z</time></trkpt><trkpt lat="45.52280706375788" lon="10.751915441166128"><ele>154.0</ele><time>2026-03-24T09:57:20.001Z</time></trkpt><trkpt lat="45.522735395744135" lon="10.751920750510525"><ele>154.0</ele><time>2026-03-24T09:57:22.001Z</time></trkpt><trkpt lat="45.522657423492895" lon="10.751953571967462"><ele>154.0</ele><time>2026-03-24T09:57:25.001Z</time></trkpt><trkpt lat="45.52257116248787" lon="10.75196119690958"><ele>154.0</ele><time>2026-03-24T09:57:27.001Z</time></trkpt><trkpt lat="45.522500172157606" lon="10.751995855964946"><ele>154.0</ele><time>2026-03-24T09:57:29.001Z</time></trkpt><trkpt lat="45.52234262401176" lon="10.752082871929362"><ele>154.0</ele><time>2026-03-24T09:57:31.001Z</time></trkpt><trkpt lat="45.52225728795623" lon="10.752152928673219"><ele>154.0</ele><time>2026-03-24T09:57:33Z</time></trkpt><trkpt lat="45.52219870316847" lon="10.752185889596207"><ele>154.0</ele><time>2026-03-24T09:57:35Z</time></trkpt><trkpt lat="45.522119621999416" lon="10.75218406850053"><ele>154.4</ele><time>2026-03-24T09:57:38Z</time></trkpt><trkpt lat="45.52205331711123" lon="10.752206984717764"><ele>154.8</ele><time>2026-03-24T09:57:40Z</time></trkpt><trkpt lat="45.521968386453004" lon="10.752266701603476"><ele>155.2</ele><time>2026-03-24T09:57:42Z</time></trkpt><trkpt lat="45.52185414970207" lon="10.752431849601086"><ele>155.6</ele><time>2026-03-24T09:57:44Z</time></trkpt><trkpt lat="45.52179428679348" lon="10.752465623557597"><ele>156.0</ele><time>2026-03-24T09:57:45Z</time></trkpt><trkpt lat="45.52169238086762" lon="10.752487343685722"><ele>156.0</ele><time>2026-03-24T09:57:47Z</time></trkpt><trkpt lat="45.52172352115485" lon="10.75226515722879"><ele>156.0</ele><time>2026-03-24T09:57:49Z</time></trkpt><trkpt lat="45.52168514971254" lon="10.75209723120564"><ele>156.0</ele><time>2026-03-24T09:57:51Z</time></trkpt><trkpt lat="45.52164696646602" lon="10.752007940739515"><ele>156.0</ele><time>2026-03-24T09:57:52Z</time></trkpt><trkpt lat="45.52161614963489" lon="10.751917728822708"><ele>156.0</ele><time>2026-03-24T09:57:53Z</time></trkpt><trkpt lat="45.52159736755695" lon="10.751826967346046"><ele>155.85714285714286</ele><time>2026-03-24T09:57:54.001Z</time></trkpt><trkpt lat="45.521614582858646" lon="10.75172835415223"><ele>155.7142857142857</ele><time>2026-03-24T09:57:55.001Z</time></trkpt><trkpt lat="45.521638603338886" lon="10.75162432366085"><ele>155.57142857142856</ele><time>2026-03-24T09:57:56.001Z</time></trkpt><trkpt lat="45.521688634737295" lon="10.751539121957336"><ele>155.42857142857144</ele><time>2026-03-24T09:57:57.001Z</time></trkpt><trkpt lat="45.52172924024828" lon="10.751448789375768"><ele>155.28571428571428</ele><time>2026-03-24T09:57:58.001Z</time></trkpt><trkpt lat="45.52175474128831" lon="10.751346907324312"><ele>155.14285714285714</ele><time>2026-03-24T09:57:59.001Z</time></trkpt><trkpt lat="45.52180301726705" lon="10.751272076063819"><ele>155.0</ele><time>2026-03-24T09:58:00.001Z</time></trkpt><trkpt lat="45.52185170878252" lon="10.751201458983278"><ele>155.0</ele><time>2026-03-24T09:58:01.001Z</time></trkpt><trkpt lat="45.521887311231886" lon="10.751090252979065"><ele>155.0</ele><time>2026-03-24T09:58:02.001Z</time></trkpt><trkpt lat="45.52190612692615" lon="10.750976821525162"><ele>155.0</ele><time>2026-03-24T09:58:03.001Z</time></trkpt><trkpt lat="45.52191975087103" lon="10.750869349571762"><ele>155.0</ele><time>2026-03-24T09:58:04.001Z</time></trkpt><trkpt lat="45.521934253623016" lon="10.750750123772198"><ele>155.0</ele><time>2026-03-24T09:58:05.001Z</time></trkpt><trkpt lat="45.521934302032605" lon="10.750627530898475"><ele>155.0</ele><time>2026-03-24T09:58:06.001Z</time></trkpt><trkpt lat="45.52192484577681" lon="10.750508299157266"><ele>153.66666666666666</ele><time>2026-03-24T09:58:07.001Z</time></trkpt><trkpt lat="45.52190825830198" lon="10.75038490336628"><ele>152.33333333333331</ele><time>2026-03-24T09:58:08.001Z</time></trkpt><trkpt lat="45.52188805617315" lon="10.75025883113653"><ele>151.0</ele><time>2026-03-24T09:58:09.001Z</time></trkpt><trkpt lat="45.521876927002346" lon="10.750135164183666"><ele>149.66666666666666</ele><time>2026-03-24T09:58:10.001Z</time></trkpt><trkpt lat="45.52187198036561" lon="10.75001180436051"><ele>148.33333333333334</ele><time>2026-03-24T09:58:11.001Z</time></trkpt><trkpt lat="45.521868274743056" lon="10.749884069406614"><ele>147.0</ele><time>2026-03-24T09:58:12.001Z</time></trkpt><trkpt lat="45.521875226185315" lon="10.74976275437235"><ele>145.66666666666666</ele><time>2026-03-24T09:58:13.001Z</time></trkpt><trkpt lat="45.521894367369995" lon="10.749639063210463"><ele>144.33333333333334</ele><time>2026-03-24T09:58:14.001Z</time></trkpt><trkpt lat="45.52191259926278" lon="10.749521117494412"><ele>143.0</ele><time>2026-03-24T09:58:15.001Z</time></trkpt><trkpt lat="45.52192420834352" lon="10.749402505626199"><ele>141.66666666666669</ele><time>2026-03-24T09:58:16.001Z</time></trkpt><trkpt lat="45.52193168309663" lon="10.74928258243229"><ele>140.33333333333334</ele><time>2026-03-24T09:58:17.001Z</time></trkpt><trkpt lat="45.5219442692789" lon="10.74917247204383"><ele>139.0</ele><time>2026-03-24T09:58:18.001Z</time></trkpt><trkpt lat="45.52196552225863" lon="10.749061766620999"><ele>138.85714285714286</ele><time>2026-03-24T09:58:19.001Z</time></trkpt><trkpt lat="45.521981360087814" lon="10.748958561923153"><ele>138.71428571428572</ele><time>2026-03-24T09:58:20.001Z</time></trkpt><trkpt lat="45.52199332358623" lon="10.748852418854993"><ele>138.57142857142858</ele><time>2026-03-24T09:58:21.001Z</time></trkpt><trkpt lat="45.52200403657019" lon="10.74874606030676"><ele>138.42857142857144</ele><time>2026-03-24T09:58:22.001Z</time></trkpt><trkpt lat="45.522015467724195" lon="10.74864663568767"><ele>138.2857142857143</ele><time>2026-03-24T09:58:23.001Z</time></trkpt><trkpt lat="45.52203139725991" lon="10.748540906178839"><ele>138.14285714285714</ele><time>2026-03-24T09:58:24.001Z</time></trkpt><trkpt lat="45.522045190167326" lon="10.748441534175493"><ele>138.0</ele><time>2026-03-24T09:58:25.001Z</time></trkpt><trkpt lat="45.5220601339729" lon="10.748349136460826"><ele>138.0</ele><time>2026-03-24T09:58:26.001Z</time></trkpt><trkpt lat="45.52208001454025" lon="10.748263698486552"><ele>138.0</ele><time>2026-03-24T09:58:27.001Z</time></trkpt><trkpt lat="45.52212181752045" lon="10.748110624675004"><ele>138.0</ele><time>2026-03-24T09:58:29.001Z</time></trkpt><trkpt lat="45.52207990595994" lon="10.747968291368638"><ele>138.0</ele><time>2026-03-24T09:58:31.001Z</time></trkpt><trkpt lat="45.52196522906221" lon="10.747964486184205"><ele>138.0</ele><time>2026-03-24T09:58:33.001Z</time></trkpt><trkpt lat="45.521851394588836" lon="10.748028060781722"><ele>138.0</ele><time>2026-03-24T09:58:35.001Z</time></trkpt><trkpt lat="45.52179179289332" lon="10.748069228450175"><ele>138.0</ele><time>2026-03-24T09:58:36.001Z</time></trkpt><trkpt lat="45.52172839125869" lon="10.748121228015561"><ele>138.0</ele><time>2026-03-24T09:58:37.001Z</time></trkpt><trkpt lat="45.521666102974535" lon="10.748166863661583"><ele>138.0</ele><time>2026-03-24T09:58:38.001Z</time></trkpt><trkpt lat="45.52159975378859" lon="10.748222931614293"><ele>138.0</ele><time>2026-03-24T09:58:39.001Z</time></trkpt><trkpt lat="45.52153368229749" lon="10.748283722893863"><ele>138.0</ele><time>2026-03-24T09:58:40.001Z</time></trkpt><trkpt lat="45.52146920858461" lon="10.748342915734975"><ele>138.0</ele><time>2026-03-24T09:58:41.001Z</time></trkpt><trkpt lat="45.52139909796398" lon="10.748402390089089"><ele>138.0</ele><time>2026-03-24T09:58:42.001Z</time></trkpt><trkpt lat="45.52133350995622" lon="10.748457214222466"><ele>138.0</ele><time>2026-03-24T09:58:43.001Z</time></trkpt><trkpt lat="45.521265667500494" lon="10.748514806484136"><ele>138.0</ele><time>2026-03-24T09:58:44.001Z</time></trkpt><trkpt lat="45.52119494733093" lon="10.748562384243412"><ele>138.0</ele><time>2026-03-24T09:58:45.001Z</time></trkpt><trkpt lat="45.52110962788943" lon="10.748586783667369"><ele>138.0</ele><time>2026-03-24T09:58:46.001Z</time></trkpt><trkpt lat="45.52103572247724" lon="10.748613553928282"><ele>138.0</ele><time>2026-03-24T09:58:47.001Z</time></trkpt><trkpt lat="45.52095703913894" lon="10.748629904340415"><ele>137.33333333333334</ele><time>2026-03-24T09:58:48.001Z</time></trkpt><trkpt lat="45.52088244246398" lon="10.748634114259694"><ele>136.66666666666666</ele><time>2026-03-24T09:58:49.001Z</time></trkpt><trkpt lat="45.520797626914046" lon="10.748632583421362"><ele>136.0</ele><time>2026-03-24T09:58:50.001Z</time></trkpt><trkpt lat="45.52071606240126" lon="10.748638699816711"><ele>135.33333333333331</ele><time>2026-03-24T09:58:51.001Z</time></trkpt><trkpt lat="45.520639944280404" lon="10.74864748135846"><ele>134.66666666666666</ele><time>2026-03-24T09:58:52.001Z</time></trkpt><trkpt lat="45.52055262911222" lon="10.748638541677009"><ele>134.0</ele><time>2026-03-24T09:58:53.001Z</time></trkpt><trkpt lat="45.520476360909456" lon="10.748643033000109"><ele>134.0</ele><time>2026-03-24T09:58:54.001Z</time></trkpt><trkpt lat="45.520402600216535" lon="10.748655209834558"><ele>134.0</ele><time>2026-03-24T09:58:55.001Z</time></trkpt><trkpt lat="45.52032499591174" lon="10.74865881400697"><ele>134.0</ele><time>2026-03-24T09:58:56.001Z</time></trkpt><trkpt lat="45.52024859398434" lon="10.748664232117415"><ele>134.0</ele><time>2026-03-24T09:58:57.001Z</time></trkpt><trkpt lat="45.5201727718199" lon="10.748670251132927"><ele>134.0</ele><time>2026-03-24T09:58:58.001Z</time></trkpt><trkpt lat="45.52010139376264" lon="10.748674583493864"><ele>134.0</ele><time>2026-03-24T09:58:59.001Z</time></trkpt><trkpt lat="45.520029289251056" lon="10.748688705732913"><ele>134.0</ele><time>2026-03-24T09:59:00.001Z</time></trkpt><trkpt lat="45.51996016889957" lon="10.748697508623287"><ele>134.16666666666666</ele><time>2026-03-24T09:59:01.001Z</time></trkpt><trkpt lat="45.51989154243403" lon="10.748709989107004"><ele>134.33333333333331</ele><time>2026-03-24T09:59:02.001Z</time></trkpt><trkpt lat="45.519824350724875" lon="10.748712380204022"><ele>134.5</ele><time>2026-03-24T09:59:03.001Z</time></trkpt><trkpt lat="45.51972529111733" lon="10.748643835101523"><ele>134.66666666666666</ele><time>2026-03-24T09:59:05.001Z</time></trkpt><trkpt lat="45.519649576806195" lon="10.74863274670067"><ele>134.83333333333334</ele><time>2026-03-24T09:59:07.001Z</time></trkpt><trkpt lat="45.51956411176912" lon="10.748698284389624"><ele>135.0</ele><time>2026-03-24T09:59:09.001Z</time></trkpt><trkpt lat="45.51946006522214" lon="10.74871779898339"><ele>135.0</ele><time>2026-03-24T09:59:11.001Z</time></trkpt><trkpt lat="45.519338716047216" lon="10.748708660999355"><ele>135.0</ele><time>2026-03-24T09:59:13.001Z</time></trkpt><trkpt lat="45.51921916860447" lon="10.748720784009983"><ele>135.0</ele><time>2026-03-24T09:59:15.001Z</time></trkpt><trkpt lat="45.51909411707944" lon="10.748732060475145"><ele>135.0</ele><time>2026-03-24T09:59:17.001Z</time></trkpt><trkpt lat="45.5190300242749" lon="10.748738111933315"><ele>135.0</ele><time>2026-03-24T09:59:18.001Z</time></trkpt><trkpt lat="45.51896555969715" lon="10.748745602789661"><ele>135.0</ele><time>2026-03-24T09:59:19.001Z</time></trkpt><trkpt lat="45.51890243467924" lon="10.74874226649841"><ele>135.0</ele><time>2026-03-24T09:59:20.001Z</time></trkpt><trkpt lat="45.518837334489895" lon="10.748747471733763"><ele>135.0</ele><time>2026-03-24T09:59:21.001Z</time></trkpt><trkpt lat="45.51877219350879" lon="10.748755084915512"><ele>135.0</ele><time>2026-03-24T09:59:22.001Z</time></trkpt><trkpt lat="45.51870579272069" lon="10.748763713580626"><ele>135.0</ele><time>2026-03-24T09:59:23.001Z</time></trkpt><trkpt lat="45.51864046255456" lon="10.748770209707924"><ele>135.0</ele><time>2026-03-24T09:59:24.001Z</time></trkpt><trkpt lat="45.51857727869035" lon="10.748772701193152"><ele>135.0</ele><time>2026-03-24T09:59:25.001Z</time></trkpt><trkpt lat="45.5185049888315" lon="10.748778867718407"><ele>134.28571428571428</ele><time>2026-03-24T09:59:26.001Z</time></trkpt><trkpt lat="45.51843823328994" lon="10.748791236330733"><ele>133.57142857142856</ele><time>2026-03-24T09:59:27.001Z</time></trkpt><trkpt lat="45.51837428114017" lon="10.748799793319503"><ele>132.85714285714286</ele><time>2026-03-24T09:59:28.001Z</time></trkpt><trkpt lat="45.51830802203862" lon="10.748802703298342"><ele>132.14285714285714</ele><time>2026-03-24T09:59:29.001Z</time></trkpt><trkpt lat="45.51824080974547" lon="10.748808030633686"><ele>131.42857142857144</ele><time>2026-03-24T09:59:30.001Z</time></trkpt><trkpt lat="45.51817323610029" lon="10.74881548075795"><ele>130.71428571428572</ele><time>2026-03-24T09:59:31.001Z</time></trkpt><trkpt lat="45.51811033712326" lon="10.748819317754432"><ele>130.0</ele><time>2026-03-24T09:59:32.001Z</time></trkpt><trkpt lat="45.51798757090432" lon="10.748830881331498"><ele>130.2</ele><time>2026-03-24T09:59:34.001Z</time></trkpt><trkpt lat="45.51787219549831" lon="10.748843078860926"><ele>130.4</ele><time>2026-03-24T09:59:36.001Z</time></trkpt><trkpt lat="45.51775805988769" lon="10.748848919492639"><ele>130.6</ele><time>2026-03-24T09:59:38.001Z</time></trkpt><trkpt lat="45.517648707308965" lon="10.74886108423196"><ele>130.8</ele><time>2026-03-24T09:59:40.001Z</time></trkpt><trkpt lat="45.5175424695386" lon="10.748871893705866"><ele>131.0</ele><time>2026-03-24T09:59:42.001Z</time></trkpt><trkpt lat="45.517438948041814" lon="10.748876076285027"><ele>131.0</ele><time>2026-03-24T09:59:44.001Z</time></trkpt><trkpt lat="45.51735778424106" lon="10.74888002525945"><ele>131.0</ele><time>2026-03-24T09:59:46.001Z</time></trkpt><trkpt lat="45.51727219578852" lon="10.74888603946114"><ele>131.0</ele><time>2026-03-24T09:59:48.001Z</time></trkpt><trkpt lat="45.517182853496706" lon="10.748876772934578"><ele>131.0</ele><time>2026-03-24T09:59:50.001Z</time></trkpt><trkpt lat="45.51708858096471" lon="10.748854526580848"><ele>131.0</ele><time>2026-03-24T09:59:52.001Z</time></trkpt><trkpt lat="45.51698929109518" lon="10.74881239279793"><ele>131.4</ele><time>2026-03-24T09:59:54.001Z</time></trkpt><trkpt lat="45.51689290735982" lon="10.748763092295393"><ele>131.8</ele><time>2026-03-24T09:59:56.001Z</time></trkpt><trkpt lat="45.51679466248683" lon="10.748712312227914"><ele>132.20000000000002</ele><time>2026-03-24T09:59:58.001Z</time></trkpt><trkpt lat="45.51672379746282" lon="10.748690833791207"><ele>132.6</ele><time>2026-03-24T09:59:59.001Z</time></trkpt><trkpt lat="45.51665042824871" lon="10.748658832165749"><ele>133.0</ele><time>2026-03-24T10:00:02.001Z</time></trkpt><trkpt lat="45.51650412617046" lon="10.748618639568583"><ele>133.0</ele><time>2026-03-24T10:00:03.001Z</time></trkpt><trkpt lat="45.51640517938192" lon="10.748613080493133"><ele>133.0</ele><time>2026-03-24T10:00:05.001Z</time></trkpt><trkpt lat="45.516296690860756" lon="10.748600451349333"><ele>133.0</ele><time>2026-03-24T10:00:07.001Z</time></trkpt><trkpt lat="45.51618409670793" lon="10.748599675495784"><ele>133.0</ele><time>2026-03-24T10:00:09.001Z</time></trkpt><trkpt lat="45.51607492677919" lon="10.748598010918377"><ele>133.0</ele><time>2026-03-24T10:00:11.001Z</time></trkpt><trkpt lat="45.51596040359895" lon="10.748591478668102"><ele>133.4</ele><time>2026-03-24T10:00:13.001Z</time></trkpt><trkpt lat="45.515845976127544" lon="10.74858836901283"><ele>133.8</ele><time>2026-03-24T10:00:15.001Z</time></trkpt><trkpt lat="45.51573321075565" lon="10.748583686910099"><ele>134.2</ele><time>2026-03-24T10:00:17.001Z</time></trkpt><trkpt lat="45.51562279398912" lon="10.74856936915728"><ele>134.6</ele><time>2026-03-24T10:00:19.001Z</time></trkpt><trkpt lat="45.51551430552017" lon="10.748541281735589"><ele>135.0</ele><time>2026-03-24T10:00:21.001Z</time></trkpt><trkpt lat="45.515419333348426" lon="10.748496187012679"><ele>133.4</ele><time>2026-03-24T10:00:23.001Z</time></trkpt><trkpt lat="45.51530686836961" lon="10.748409899906465"><ele>131.8</ele><time>2026-03-24T10:00:25.001Z</time></trkpt><trkpt lat="45.51519958001219" lon="10.74832029408663"><ele>130.2</ele><time>2026-03-24T10:00:27.001Z</time></trkpt><trkpt lat="45.515103677313334" lon="10.748208140379324"><ele>128.6</ele><time>2026-03-24T10:00:29.001Z</time></trkpt><trkpt lat="45.51505093878067" lon="10.748152440176645"><ele>127.0</ele><time>2026-03-24T10:00:30.001Z</time></trkpt><trkpt lat="45.51494598987477" lon="10.748032340489749"><ele>127.0</ele><time>2026-03-24T10:00:32.001Z</time></trkpt><trkpt lat="45.514896263739836" lon="10.747973263998022"><ele>127.0</ele><time>2026-03-24T10:00:33.001Z</time></trkpt><trkpt lat="45.5148397283246" lon="10.747916533872619"><ele>127.0</ele><time>2026-03-24T10:00:34.001Z</time></trkpt><trkpt lat="45.514784828686615" lon="10.747857224743493"><ele>127.0</ele><time>2026-03-24T10:00:35.001Z</time></trkpt><trkpt lat="45.514730230419566" lon="10.74778624689605"><ele>127.0</ele><time>2026-03-24T10:00:36.001Z</time></trkpt><trkpt lat="45.5146769627643" lon="10.747716531313705"><ele>127.0</ele><time>2026-03-24T10:00:37.001Z</time></trkpt><trkpt lat="45.51462048646272" lon="10.747644683945136"><ele>127.0</ele><time>2026-03-24T10:00:38.001Z</time></trkpt><trkpt lat="45.51455860911006" lon="10.747568169329288"><ele>126.16666666666667</ele><time>2026-03-24T10:00:39.001Z</time></trkpt><trkpt lat="45.51449634575634" lon="10.747496586117812"><ele>125.33333333333334</ele><time>2026-03-24T10:00:40.001Z</time></trkpt><trkpt lat="45.51443120115683" lon="10.747413800045681"><ele>124.5</ele><time>2026-03-24T10:00:41.001Z</time></trkpt><trkpt lat="45.5143619071478" lon="10.747339353984215"><ele>123.66666666666666</ele><time>2026-03-24T10:00:42.001Z</time></trkpt><trkpt lat="45.5142941117931" lon="10.747253753010051"><ele>122.83333333333333</ele><time>2026-03-24T10:00:43.001Z</time></trkpt><trkpt lat="45.514227233267874" lon="10.747172433614368"><ele>122.0</ele><time>2026-03-24T10:00:44.001Z</time></trkpt><trkpt lat="45.51416775460609" lon="10.747076865342562"><ele>122.0</ele><time>2026-03-24T10:00:45.001Z</time></trkpt><trkpt lat="45.5141193661477" lon="10.746978788108366"><ele>121.99999999999999</ele><time>2026-03-24T10:00:46.001Z</time></trkpt><trkpt lat="45.51406805500635" lon="10.746866597138586"><ele>121.99999999999999</ele><time>2026-03-24T10:00:47.001Z</time></trkpt><trkpt lat="45.514020560003594" lon="10.746746539493973"><ele>122.0</ele><time>2026-03-24T10:00:48.001Z</time></trkpt><trkpt lat="45.51398416708429" lon="10.746624421536941"><ele>122.0</ele><time>2026-03-24T10:00:49.001Z</time></trkpt><trkpt lat="45.51394689145558" lon="10.746500750946998"><ele>121.39999999999999</ele><time>2026-03-24T10:00:50.001Z</time></trkpt><trkpt lat="45.513914365951145" lon="10.746368261456645"><ele>120.79999999999998</ele><time>2026-03-24T10:00:51.001Z</time></trkpt><trkpt lat="45.51387028368532" lon="10.74624825673716"><ele>120.2</ele><time>2026-03-24T10:00:52.001Z</time></trkpt><trkpt lat="45.513830561727225" lon="10.746127318180559"><ele>119.6</ele><time>2026-03-24T10:00:53.001Z</time></trkpt><trkpt lat="45.51377717072602" lon="10.746018100866394"><ele>119.0</ele><time>2026-03-24T10:00:54.001Z</time></trkpt><trkpt lat="45.513708644452215" lon="10.745922308539736"><ele>117.0</ele><time>2026-03-24T10:00:55.001Z</time></trkpt><trkpt lat="45.513626421770915" lon="10.745847726585785"><ele>115.0</ele><time>2026-03-24T10:00:56.001Z</time></trkpt><trkpt lat="45.513541790198104" lon="10.74578567521426"><ele>113.0</ele><time>2026-03-24T10:00:57.001Z</time></trkpt><trkpt lat="45.5134534218765" lon="10.74573043679344"><ele>111.0</ele><time>2026-03-24T10:00:58.001Z</time></trkpt><trkpt lat="45.51336518674182" lon="10.745671553641706"><ele>109.0</ele><time>2026-03-24T10:00:59.001Z</time></trkpt><trkpt lat="45.51328115415729" lon="10.745606196597759"><ele>109.0</ele><time>2026-03-24T10:01:00.001Z</time></trkpt><trkpt lat="45.51319858858512" lon="10.745536255631311"><ele>109.0</ele><time>2026-03-24T10:01:01.001Z</time></trkpt><trkpt lat="45.51312315444182" lon="10.745471641414934"><ele>109.0</ele><time>2026-03-24T10:01:02.001Z</time></trkpt><trkpt lat="45.51303798912546" lon="10.745399261353816"><ele>109.0</ele><time>2026-03-24T10:01:03.001Z</time></trkpt><trkpt lat="45.51295118711405" lon="10.74532175187115"><ele>109.0</ele><time>2026-03-24T10:01:04.001Z</time></trkpt><trkpt lat="45.51287171211607" lon="10.74524388199979"><ele>107.80000000000001</ele><time>2026-03-24T10:01:05.001Z</time></trkpt><trkpt lat="45.5127984217334" lon="10.745165521902761"><ele>106.60000000000001</ele><time>2026-03-24T10:01:06.001Z</time></trkpt><trkpt lat="45.512727678814436" lon="10.745077299143352"><ele>105.4</ele><time>2026-03-24T10:01:07.001Z</time></trkpt><trkpt lat="45.512655905151014" lon="10.745001058087036"><ele>104.2</ele><time>2026-03-24T10:01:08.001Z</time></trkpt><trkpt lat="45.51258125041443" lon="10.744920569425739"><ele>103.0</ele><time>2026-03-24T10:01:09.001Z</time></trkpt><trkpt lat="45.512513225427455" lon="10.744835271633102"><ele>103.00000000000001</ele><time>2026-03-24T10:01:10.001Z</time></trkpt><trkpt lat="45.51244332048595" lon="10.744745157569975"><ele>103.0</ele><time>2026-03-24T10:01:11.001Z</time></trkpt><trkpt lat="45.51237868575257" lon="10.744661854260286"><ele>103.0</ele><time>2026-03-24T10:01:12.001Z</time></trkpt><trkpt lat="45.512312829433846" lon="10.744581551508874"><ele>103.0</ele><time>2026-03-24T10:01:13.001Z</time></trkpt><trkpt lat="45.51224995715903" lon="10.74450362012652"><ele>103.00000000000001</ele><time>2026-03-24T10:01:14.001Z</time></trkpt><trkpt lat="45.512188914943614" lon="10.744419631757765"><ele>103.0</ele><time>2026-03-24T10:01:15.001Z</time></trkpt><trkpt lat="45.51212471507074" lon="10.74434251601177"><ele>102.83333333333334</ele><time>2026-03-24T10:01:16.001Z</time></trkpt><trkpt lat="45.512059953795465" lon="10.744276870786559"><ele>102.66666666666667</ele><time>2026-03-24T10:01:17.001Z</time></trkpt><trkpt lat="45.511992812316095" lon="10.744213251675669"><ele>102.5</ele><time>2026-03-24T10:01:18.001Z</time></trkpt><trkpt lat="45.5119234258257" lon="10.744166507045078"><ele>102.33333333333334</ele><time>2026-03-24T10:01:19.001Z</time></trkpt><trkpt lat="45.511843412100056" lon="10.74413695068122"><ele>102.16666666666667</ele><time>2026-03-24T10:01:20.001Z</time></trkpt><trkpt lat="45.511768166728174" lon="10.744106655359131"><ele>102.0</ele><time>2026-03-24T10:01:21.001Z</time></trkpt><trkpt lat="45.511688900107124" lon="10.744078618153019"><ele>102.0</ele><time>2026-03-24T10:01:22.001Z</time></trkpt><trkpt lat="45.5116172116217" lon="10.744053500757042"><ele>102.0</ele><time>2026-03-24T10:01:23.001Z</time></trkpt><trkpt lat="45.51154718971058" lon="10.744016616016548"><ele>102.0</ele><time>2026-03-24T10:01:24.002Z</time></trkpt><trkpt lat="45.511479460975096" lon="10.743992838803536"><ele>102.0</ele><time>2026-03-24T10:01:25.002Z</time></trkpt><trkpt lat="45.511411195493146" lon="10.743960240597612"><ele>102.0</ele><time>2026-03-24T10:01:26.002Z</time></trkpt><trkpt lat="45.511340753777546" lon="10.743930494008765"><ele>102.0</ele><time>2026-03-24T10:01:27.002Z</time></trkpt><trkpt lat="45.511270439139146" lon="10.743900984035813"><ele>102.0</ele><time>2026-03-24T10:01:28.002Z</time></trkpt><trkpt lat="45.51115094464036" lon="10.743854134183081"><ele>102.19999999999999</ele><time>2026-03-24T10:01:30.002Z</time></trkpt><trkpt lat="45.511087143631066" lon="10.743824794115909"><ele>102.4</ele><time>2026-03-24T10:01:31.002Z</time></trkpt><trkpt lat="45.51096799645462" lon="10.743780057920024"><ele>102.6</ele><time>2026-03-24T10:01:33.002Z</time></trkpt><trkpt lat="45.51085048823626" lon="10.74375138804305"><ele>102.80000000000001</ele><time>2026-03-24T10:01:35.002Z</time></trkpt><trkpt lat="45.51072907581411" lon="10.743724927946626"><ele>103.0</ele><time>2026-03-24T10:01:37.002Z</time></trkpt><trkpt lat="45.51061120127167" lon="10.743723324951565"><ele>103.0</ele><time>2026-03-24T10:01:39.001Z</time></trkpt><trkpt lat="45.51049566441944" lon="10.743723050363908"><ele>103.0</ele><time>2026-03-24T10:01:41.001Z</time></trkpt><trkpt lat="45.51037795231013" lon="10.743726892434648"><ele>103.0</ele><time>2026-03-24T10:01:43.001Z</time></trkpt><trkpt lat="45.510258474037535" lon="10.743737944559474"><ele>103.0</ele><time>2026-03-24T10:01:45.001Z</time></trkpt><trkpt lat="45.5101330498446" lon="10.743745124703523"><ele>103.25</ele><time>2026-03-24T10:01:47.001Z</time></trkpt><trkpt lat="45.51001055632641" lon="10.743752714923643"><ele>103.5</ele><time>2026-03-24T10:01:49.001Z</time></trkpt><trkpt lat="45.50989045806511" lon="10.743757275647226"><ele>103.75</ele><time>2026-03-24T10:01:51.001Z</time></trkpt><trkpt lat="45.50976607565067" lon="10.743754044652778"><ele>104.0</ele><time>2026-03-24T10:01:53.001Z</time></trkpt><trkpt lat="45.50964775409143" lon="10.743767967576295"><ele>104.2</ele><time>2026-03-24T10:01:55.001Z</time></trkpt><trkpt lat="45.50952870366799" lon="10.743776082192033"><ele>104.4</ele><time>2026-03-24T10:01:57.001Z</time></trkpt><trkpt lat="45.50940826614653" lon="10.743794631445152"><ele>104.6</ele><time>2026-03-24T10:01:59.001Z</time></trkpt><trkpt lat="45.5093475396868" lon="10.743824368222528"><ele>104.8</ele><time>2026-03-24T10:02:00.001Z</time></trkpt><trkpt lat="45.50922977375341" lon="10.74385721827451"><ele>105.0</ele><time>2026-03-24T10:02:02.001Z</time></trkpt><trkpt lat="45.50916697264068" lon="10.743889954563295"><ele>105.0</ele><time>2026-03-24T10:02:03.001Z</time></trkpt><trkpt lat="45.50905882840877" lon="10.743970019994277"><ele>105.0</ele><time>2026-03-24T10:02:05.001Z</time></trkpt><trkpt lat="45.50900422621633" lon="10.744021866104346"><ele>105.0</ele><time>2026-03-24T10:02:06.001Z</time></trkpt><trkpt lat="45.508952464788436" lon="10.744076035355354"><ele>105.0</ele><time>2026-03-24T10:02:07.001Z</time></trkpt><trkpt lat="45.5088667054192" lon="10.744202657585024"><ele>105.0</ele><time>2026-03-24T10:02:09.001Z</time></trkpt><trkpt lat="45.508820680448075" lon="10.744264814457768"><ele>105.0</ele><time>2026-03-24T10:02:10.001Z</time></trkpt><trkpt lat="45.50872907028872" lon="10.744384951547605"><ele>104.85714285714286</ele><time>2026-03-24T10:02:12.001Z</time></trkpt><trkpt lat="45.50863709238862" lon="10.74450246919466"><ele>104.71428571428572</ele><time>2026-03-24T10:02:14.001Z</time></trkpt><trkpt lat="45.50858710329549" lon="10.744561582517347"><ele>104.57142857142857</ele><time>2026-03-24T10:02:15.001Z</time></trkpt><trkpt lat="45.50854258465449" lon="10.744625552953039"><ele>104.42857142857143</ele><time>2026-03-24T10:02:16.001Z</time></trkpt><trkpt lat="45.508498241991" lon="10.744689319447891"><ele>104.28571428571429</ele><time>2026-03-24T10:02:17.001Z</time></trkpt><trkpt lat="45.508445382167274" lon="10.744742451174435"><ele>104.14285714285714</ele><time>2026-03-24T10:02:18.001Z</time></trkpt><trkpt lat="45.508384475833246" lon="10.744765384579395"><ele>104.0</ele><time>2026-03-24T10:02:19.001Z</time></trkpt><trkpt lat="45.50828271581499" lon="10.744663519878188"><ele>104.0</ele><time>2026-03-24T10:02:21.001Z</time></trkpt><trkpt lat="45.50825533442379" lon="10.744565594955262"><ele>104.0</ele><time>2026-03-24T10:02:22.001Z</time></trkpt><trkpt lat="45.508245580903626" lon="10.744472172084915"><ele>104.0</ele><time>2026-03-24T10:02:23.001Z</time></trkpt><trkpt lat="45.50820678123397" lon="10.744322257027678"><ele>104.0</ele><time>2026-03-24T10:02:25.001Z</time></trkpt><trkpt lat="45.50816529917738" lon="10.744184703006615"><ele>104.0</ele><time>2026-03-24T10:02:27.001Z</time></trkpt><trkpt lat="45.50812430383546" lon="10.744048155998563"><ele>103.4</ele><time>2026-03-24T10:02:29.001Z</time></trkpt><trkpt lat="45.50807793703648" lon="10.74390226485702"><ele>102.80000000000001</ele><time>2026-03-24T10:02:31.001Z</time></trkpt><trkpt lat="45.508035567665104" lon="10.743761307534324"><ele>102.19999999999999</ele><time>2026-03-24T10:02:33.001Z</time></trkpt><trkpt lat="45.5079993098123" lon="10.743632717991403"><ele>101.6</ele><time>2026-03-24T10:02:35.001Z</time></trkpt><trkpt lat="45.5079605252406" lon="10.743510164110843"><ele>101.0</ele><time>2026-03-24T10:02:37.001Z</time></trkpt><trkpt lat="45.50792949310197" lon="10.743401364919766"><ele>101.0</ele><time>2026-03-24T10:02:40.001Z</time></trkpt><trkpt lat="45.50787445908799" lon="10.74322473936688"><ele>101.0</ele><time>2026-03-24T10:02:41.001Z</time></trkpt><trkpt lat="45.50784354626873" lon="10.743103550516228"><ele>101.0</ele><time>2026-03-24T10:02:43.001Z</time></trkpt><trkpt lat="45.50780641121491" lon="10.742981766958822"><ele>101.0</ele><time>2026-03-24T10:02:45.001Z</time></trkpt><trkpt lat="45.50777521923813" lon="10.742846508299923"><ele>101.0</ele><time>2026-03-24T10:02:47.001Z</time></trkpt><trkpt lat="45.507755059176084" lon="10.742703208592594"><ele>101.0</ele><time>2026-03-24T10:02:49.001Z</time></trkpt><trkpt lat="45.507727075527036" lon="10.742552703888201"><ele>101.0</ele><time>2026-03-24T10:02:51.001Z</time></trkpt><trkpt lat="45.50770139141732" lon="10.742390626558223"><ele>101.0</ele><time>2026-03-24T10:02:53.001Z</time></trkpt><trkpt lat="45.507668536013234" lon="10.742232323402439"><ele>101.0</ele><time>2026-03-24T10:02:55.001Z</time></trkpt><trkpt lat="45.507635737006254" lon="10.742074211784352"><ele>101.0</ele><time>2026-03-24T10:02:57.001Z</time></trkpt><trkpt lat="45.507608675708134" lon="10.74191011444358"><ele>101.0</ele><time>2026-03-24T10:02:59.001Z</time></trkpt><trkpt lat="45.50758542987313" lon="10.74175759738684"><ele>101.0</ele><time>2026-03-24T10:03:01.001Z</time></trkpt><trkpt lat="45.50756207809285" lon="10.741600041722117"><ele>101.0</ele><time>2026-03-24T10:03:03.001Z</time></trkpt><trkpt lat="45.507532436590665" lon="10.741439598160103"><ele>100.5</ele><time>2026-03-24T10:03:05.001Z</time></trkpt><trkpt lat="45.50750699864421" lon="10.741269225406494"><ele>100.0</ele><time>2026-03-24T10:03:07.001Z</time></trkpt><trkpt lat="45.507489330557604" lon="10.741105149363065"><ele>99.5</ele><time>2026-03-24T10:03:09.001Z</time></trkpt><trkpt lat="45.507451775910674" lon="10.740950139034496"><ele>99.0</ele><time>2026-03-24T10:03:11.001Z</time></trkpt><trkpt lat="45.50742177026106" lon="10.740766306802383"><ele>98.66666666666667</ele><time>2026-03-24T10:03:13.001Z</time></trkpt><trkpt lat="45.50740194707152" lon="10.740675904126752"><ele>98.33333333333334</ele><time>2026-03-24T10:03:14.001Z</time></trkpt><trkpt lat="45.50736452128714" lon="10.740506623375914"><ele>98.0</ele><time>2026-03-24T10:03:16.001Z</time></trkpt><trkpt lat="45.50734673166522" lon="10.740415690962472"><ele>97.66666666666667</ele><time>2026-03-24T10:03:17.001Z</time></trkpt><trkpt lat="45.50732603383689" lon="10.740327047650482"><ele>97.33333333333334</ele><time>2026-03-24T10:03:18.001Z</time></trkpt><trkpt lat="45.507303338318415" lon="10.740235185081804"><ele>97.0</ele><time>2026-03-24T10:03:19.001Z</time></trkpt><trkpt lat="45.50727410497128" lon="10.740149114490347"><ele>96.71428571428571</ele><time>2026-03-24T10:03:20.001Z</time></trkpt><trkpt lat="45.50724069934338" lon="10.74006549336111"><ele>96.42857142857143</ele><time>2026-03-24T10:03:21.001Z</time></trkpt><trkpt lat="45.50720969533079" lon="10.739973608202622"><ele>96.14285714285714</ele><time>2026-03-24T10:03:22.001Z</time></trkpt><trkpt lat="45.50718138190139" lon="10.739877895059156"><ele>95.85714285714286</ele><time>2026-03-24T10:03:23.001Z</time></trkpt><trkpt lat="45.50715677601718" lon="10.739785016981157"><ele>95.57142857142858</ele><time>2026-03-24T10:03:24.001Z</time></trkpt><trkpt lat="45.50713565011935" lon="10.739680630300372"><ele>95.28571428571429</ele><time>2026-03-24T10:03:25.001Z</time></trkpt><trkpt lat="45.5071022276001" lon="10.739581041187405"><ele>95.0</ele><time>2026-03-24T10:03:26.001Z</time></trkpt><trkpt lat="45.507074342313366" lon="10.739485557070184"><ele>94.33333333333334</ele><time>2026-03-24T10:03:27.001Z</time></trkpt><trkpt lat="45.50704759204455" lon="10.739380775631975"><ele>93.66666666666667</ele><time>2026-03-24T10:03:28.001Z</time></trkpt><trkpt lat="45.507018699270624" lon="10.739276367168843"><ele>93.0</ele><time>2026-03-24T10:03:29.001Z</time></trkpt><trkpt lat="45.50699310579274" lon="10.739160660019039"><ele>92.33333333333333</ele><time>2026-03-24T10:03:30.002Z</time></trkpt><trkpt lat="45.50696938722049" lon="10.739048143315557"><ele>91.66666666666666</ele><time>2026-03-24T10:03:31.002Z</time></trkpt><trkpt lat="45.50694763605364" lon="10.738939472382564"><ele>91.0</ele><time>2026-03-24T10:03:32.002Z</time></trkpt><trkpt lat="45.506923763463156" lon="10.738822025419458"><ele>91.0</ele><time>2026-03-24T10:03:33.002Z</time></trkpt><trkpt lat="45.50689703235538" lon="10.738704526502762"><ele>91.0</ele><time>2026-03-24T10:03:34.002Z</time></trkpt><trkpt lat="45.50687241714138" lon="10.738584741773584"><ele>91.0</ele><time>2026-03-24T10:03:35.002Z</time></trkpt><trkpt lat="45.506849094918806" lon="10.73846716600369"><ele>91.0</ele><time>2026-03-24T10:03:36.002Z</time></trkpt><trkpt lat="45.50682949179231" lon="10.738344157776044"><ele>91.0</ele><time>2026-03-24T10:03:37.002Z</time></trkpt><trkpt lat="45.506806656706345" lon="10.738225130338957"><ele>91.0</ele><time>2026-03-24T10:03:38.002Z</time></trkpt><trkpt lat="45.50678302743074" lon="10.738108315544764"><ele>90.16666666666666</ele><time>2026-03-24T10:03:39.002Z</time></trkpt><trkpt lat="45.506759622735906" lon="10.737989110467975"><ele>89.33333333333333</ele><time>2026-03-24T10:03:40.002Z</time></trkpt><trkpt lat="45.50674150697183" lon="10.73787057197871"><ele>88.5</ele><time>2026-03-24T10:03:41.002Z</time></trkpt><trkpt lat="45.506716957897304" lon="10.737752103921844"><ele>87.66666666666667</ele><time>2026-03-24T10:03:42.001Z</time></trkpt><trkpt lat="45.50669891686604" lon="10.737643939815847"><ele>86.83333333333334</ele><time>2026-03-24T10:03:43.001Z</time></trkpt><trkpt lat="45.50667834582981" lon="10.737524004779177"><ele>86.0</ele><time>2026-03-24T10:03:44.001Z</time></trkpt><trkpt lat="45.50665507837061" lon="10.737411441409764"><ele>85.66666666666667</ele><time>2026-03-24T10:03:45.001Z</time></trkpt><trkpt lat="45.50663664329895" lon="10.737304018799367"><ele>85.33333333333334</ele><time>2026-03-24T10:03:46.001Z</time></trkpt><trkpt lat="45.506624344200524" lon="10.737197132322581"><ele>85.0</ele><time>2026-03-24T10:03:47.001Z</time></trkpt><trkpt lat="45.50659988144735" lon="10.737091729258061"><ele>84.66666666666667</ele><time>2026-03-24T10:03:48.001Z</time></trkpt><trkpt lat="45.50658247062463" lon="10.736989403346287"><ele>84.33333333333333</ele><time>2026-03-24T10:03:49.001Z</time></trkpt><trkpt lat="45.50655960764383" lon="10.73688700984431"><ele>84.0</ele><time>2026-03-24T10:03:50.001Z</time></trkpt><trkpt lat="45.5065322881796" lon="10.736791865329593"><ele>83.71428571428571</ele><time>2026-03-24T10:03:51.001Z</time></trkpt><trkpt lat="45.5065020056292" lon="10.736695815358392"><ele>83.42857142857143</ele><time>2026-03-24T10:03:52.001Z</time></trkpt><trkpt lat="45.50647830726129" lon="10.736602722858034"><ele>83.14285714285714</ele><time>2026-03-24T10:03:53.001Z</time></trkpt><trkpt lat="45.506453006884776" lon="10.73650749868396"><ele>82.85714285714286</ele><time>2026-03-24T10:03:54.001Z</time></trkpt><trkpt lat="45.50642016551224" lon="10.736420747870998"><ele>82.57142857142857</ele><time>2026-03-24T10:03:55.001Z</time></trkpt><trkpt lat="45.50638679548623" lon="10.736333026062235"><ele>82.28571428571428</ele><time>2026-03-24T10:03:56.001Z</time></trkpt><trkpt lat="45.50635736893728" lon="10.736241057235702"><ele>82.0</ele><time>2026-03-24T10:03:57.001Z</time></trkpt><trkpt lat="45.50632601558677" lon="10.73615170563584"><ele>81.99999999999999</ele><time>2026-03-24T10:03:58.001Z</time></trkpt><trkpt lat="45.50629598482622" lon="10.73606018235495"><ele>82.0</ele><time>2026-03-24T10:03:59.001Z</time></trkpt><trkpt lat="45.50626173699292" lon="10.735972867748925"><ele>82.0</ele><time>2026-03-24T10:04:00.001Z</time></trkpt><trkpt lat="45.50623898782749" lon="10.735881325170558"><ele>82.0</ele><time>2026-03-24T10:04:01.001Z</time></trkpt><trkpt lat="45.50621395286097" lon="10.735786406186811"><ele>82.0</ele><time>2026-03-24T10:04:02.001Z</time></trkpt><trkpt lat="45.506189646764064" lon="10.735695334961529"><ele>81.99999999999999</ele><time>2026-03-24T10:04:03.001Z</time></trkpt><trkpt lat="45.506166005919624" lon="10.735607575273075"><ele>82.0</ele><time>2026-03-24T10:04:04.001Z</time></trkpt><trkpt lat="45.506136535797964" lon="10.735526320548692"><ele>81.0</ele><time>2026-03-24T10:04:05.001Z</time></trkpt><trkpt lat="45.50610662774401" lon="10.735438566126643"><ele>80.0</ele><time>2026-03-24T10:04:07.001Z</time></trkpt><trkpt lat="45.506081162800804" lon="10.735321570568777"><ele>79.0</ele><time>2026-03-24T10:04:10.001Z</time></trkpt><trkpt lat="45.50604901031383" lon="10.7352107536717"><ele>78.0</ele><time>2026-03-24T10:04:12.001Z</time></trkpt><trkpt lat="45.50595672916393" lon="10.735142075360457"><ele>77.0</ele><time>2026-03-24T10:04:14.001Z</time></trkpt><trkpt lat="45.50583630960799" lon="10.735131559363962"><ele>76.33333333333334</ele><time>2026-03-24T10:04:16.001Z</time></trkpt><trkpt lat="45.50577178003408" lon="10.735135493562007"><ele>75.66666666666667</ele><time>2026-03-24T10:04:17.001Z</time></trkpt><trkpt lat="45.505644065689246" lon="10.735126565877296"><ele>75.0</ele><time>2026-03-24T10:04:19.001Z</time></trkpt><trkpt lat="45.505580826118766" lon="10.73513015248991"><ele>74.33333333333333</ele><time>2026-03-24T10:04:20.001Z</time></trkpt><trkpt lat="45.50551830591766" lon="10.735147722886708"><ele>73.66666666666666</ele><time>2026-03-24T10:04:21.001Z</time></trkpt><trkpt lat="45.50540186236952" lon="10.735174150175347"><ele>73.0</ele><time>2026-03-24T10:04:23.001Z</time></trkpt><trkpt lat="45.505323822728215" lon="10.735126315699818"><ele>73.0</ele><time>2026-03-24T10:04:25.001Z</time></trkpt><trkpt lat="45.50530922712643" lon="10.735018428375858"><ele>73.0</ele><time>2026-03-24T10:04:27.001Z</time></trkpt><trkpt lat="45.50529820722484" lon="10.734898933151571"><ele>73.0</ele><time>2026-03-24T10:04:31.001Z</time></trkpt><trkpt lat="45.50531252398197" lon="10.734809475558533"><ele>73.0</ele><time>2026-03-24T10:04:34.001Z</time></trkpt><trkpt lat="45.5052948141701" lon="10.734712519029687"><ele>73.0</ele><time>2026-03-24T10:04:40.001Z</time></trkpt><trkpt lat="45.50533409825493" lon="10.734606169663532"><ele>73.0</ele><time>2026-03-24T10:04:43.001Z</time></trkpt><trkpt lat="45.50535702114222" lon="10.73451561545945"><ele>73.0</ele><time>2026-03-24T10:04:45.001Z</time></trkpt><trkpt lat="45.50536125063339" lon="10.734423101441871"><ele>72.85714285714286</ele><time>2026-03-24T10:04:47.001Z</time></trkpt><trkpt lat="45.505406164164675" lon="10.734313581467536"><ele>72.71428571428572</ele><time>2026-03-24T10:04:50.001Z</time></trkpt><trkpt lat="45.50543122602414" lon="10.734227239329385"><ele>72.57142857142858</ele><time>2026-03-24T10:04:52.001Z</time></trkpt><trkpt lat="45.505469873730696" lon="10.734150868473225"><ele>72.42857142857143</ele><time>2026-03-24T10:04:54.001Z</time></trkpt><trkpt lat="45.50551077471242" lon="10.734066807543885"><ele>72.28571428571429</ele><time>2026-03-24T10:04:56.001Z</time></trkpt><trkpt lat="45.50551913863054" lon="10.733968162287665"><ele>72.14285714285715</ele><time>2026-03-24T10:04:58.001Z</time></trkpt><trkpt lat="45.50551735270434" lon="10.733871792285687"><ele>72.0</ele><time>2026-03-24T10:05:00.001Z</time></trkpt><trkpt lat="45.50549494003024" lon="10.733767789815758"><ele>72.0</ele><time>2026-03-24T10:05:02.001Z</time></trkpt><trkpt lat="45.50546687645112" lon="10.733684554741345"><ele>72.0</ele><time>2026-03-24T10:05:04.001Z</time></trkpt><trkpt lat="45.505411474489414" lon="10.733594076753334"><ele>72.0</ele><time>2026-03-24T10:05:07.001Z</time></trkpt><trkpt lat="45.50536239833281" lon="10.733504274466805"><ele>72.0</ele><time>2026-03-24T10:05:10.001Z</time></trkpt><trkpt lat="45.50532783619338" lon="10.733382047249087"><ele>72.0</ele><time>2026-03-24T10:05:13Z</time></trkpt><trkpt lat="45.50531442360758" lon="10.733280864472993"><ele>72.0</ele><time>2026-03-24T10:05:16Z</time></trkpt><trkpt lat="45.50531549600859" lon="10.733188602166281"><ele>71.71428571428572</ele><time>2026-03-24T10:05:20Z</time></trkpt><trkpt lat="45.50527889337283" lon="10.733095776163102"><ele>71.42857142857143</ele><time>2026-03-24T10:05:25Z</time></trkpt><trkpt lat="45.505252315180314" lon="10.733000350806964"><ele>71.14285714285714</ele><time>2026-03-24T10:05:30Z</time></trkpt><trkpt lat="45.505258791484295" lon="10.732889981487054"><ele>70.85714285714286</ele><time>2026-03-24T10:05:36.001Z</time></trkpt><trkpt lat="45.50527347467526" lon="10.732797771185835"><ele>70.57142857142857</ele><time>2026-03-24T10:05:41.001Z</time></trkpt><trkpt lat="45.50526761763767" lon="10.732696441383533"><ele>70.28571428571429</ele><time>2026-03-24T10:05:47.001Z</time></trkpt><trkpt lat="45.5052809387828" lon="10.732607024651537"><ele>70.0</ele><time>2026-03-24T10:05:52.001Z</time></trkpt><trkpt lat="45.505298143762715" lon="10.732505065729384"><ele>70.0</ele><time>2026-03-24T10:05:58.001Z</time></trkpt><trkpt lat="45.50530664886735" lon="10.73239390988823"><ele>70.0</ele><time>2026-03-24T10:06:03.001Z</time></trkpt><trkpt lat="45.50528868674971" lon="10.732296436084667"><ele>70.0</ele><time>2026-03-24T10:06:08.001Z</time></trkpt><trkpt lat="45.50528822774814" lon="10.732198226224217"><ele>70.0</ele><time>2026-03-24T10:06:13.001Z</time></trkpt><trkpt lat="45.50529123826452" lon="10.732106124703405"><ele>70.0</ele><time>2026-03-24T10:06:18.001Z</time></trkpt><trkpt lat="45.50529471575074" lon="10.732013110498773"><ele>70.0</ele><time>2026-03-24T10:06:24Z</time></trkpt><trkpt lat="45.50530761616607" lon="10.731915498471684"><ele>70.0</ele><time>2026-03-24T10:06:30Z</time></trkpt><trkpt lat="45.505314123355696" lon="10.731817286459254"><ele>69.85714285714286</ele><time>2026-03-24T10:06:36Z</time></trkpt><trkpt lat="45.50532380276759" lon="10.731724549296766"><ele>69.71428571428572</ele><time>2026-03-24T10:06:41Z</time></trkpt><trkpt lat="45.50532948465517" lon="10.73161599886941"><ele>69.57142857142857</ele><time>2026-03-24T10:06:46Z</time></trkpt><trkpt lat="45.505334161620496" lon="10.73151788382809"><ele>69.42857142857143</ele><time>2026-03-24T10:06:51Z</time></trkpt><trkpt lat="45.50532856404103" lon="10.731425206621338"><ele>69.28571428571429</ele><time>2026-03-24T10:06:56Z</time></trkpt><trkpt lat="45.50530809989754" lon="10.731332045298458"><ele>69.14285714285714</ele><time>2026-03-24T10:07:01Z</time></trkpt><trkpt lat="45.50533209778303" lon="10.73123422342354"><ele>69.0</ele><time>2026-03-24T10:07:06Z</time></trkpt><trkpt lat="45.505355126712644" lon="10.731144301292423"><ele>68.85714285714286</ele><time>2026-03-24T10:07:11Z</time></trkpt><trkpt lat="45.50541736720602" lon="10.731129730670498"><ele>68.71428571428572</ele><time>2026-03-24T10:07:16Z</time></trkpt><trkpt lat="45.505487282813085" lon="10.731098347708748"><ele>68.57142857142857</ele><time>2026-03-24T10:07:23Z</time></trkpt><trkpt lat="45.50555122894428" lon="10.731077327728883"><ele>68.42857142857143</ele><time>2026-03-24T10:07:28Z</time></trkpt><trkpt lat="45.50561617307592" lon="10.73106995985322"><ele>68.28571428571428</ele><time>2026-03-24T10:07:32Z</time></trkpt><trkpt lat="45.50568390598474" lon="10.73103938991262"><ele>68.14285714285714</ele><time>2026-03-24T10:07:37Z</time></trkpt><trkpt lat="45.505746896457765" lon="10.731025752088863"><ele>68.0</ele><time>2026-03-24T10:07:42Z</time></trkpt><trkpt lat="45.50581329262773" lon="10.731011974189396"><ele>67.57142857142857</ele><time>2026-03-24T10:07:47Z</time></trkpt><trkpt lat="45.50588709953385" lon="10.730990463221387"><ele>67.14285714285714</ele><time>2026-03-24T10:07:52Z</time></trkpt><trkpt lat="45.50595205203027" lon="10.730978707131664"><ele>66.71428571428572</ele><time>2026-03-24T10:07:57Z</time></trkpt><trkpt lat="45.50602214197627" lon="10.73097696075324"><ele>66.28571428571428</ele><time>2026-03-24T10:08:03Z</time></trkpt><trkpt lat="45.50608146434243" lon="10.730938165866926"><ele>65.85714285714286</ele><time>2026-03-24T10:08:08Z</time></trkpt><trkpt lat="45.506150697864754" lon="10.730904768823615"><ele>65.42857142857143</ele><time>2026-03-24T10:08:13Z</time></trkpt><trkpt lat="45.50621810200354" lon="10.730881346741219"><ele>65.0</ele><time>2026-03-24T10:08:18Z</time></trkpt><trkpt lat="45.5062805443075" lon="10.730893313903442"><ele>64.71428571428572</ele><time>2026-03-24T10:08:23Z</time></trkpt><trkpt lat="45.50634384058001" lon="10.73089618803372"><ele>64.42857142857143</ele><time>2026-03-24T10:08:28Z</time></trkpt><trkpt lat="45.506407845530624" lon="10.73091109703391"><ele>64.14285714285714</ele><time>2026-03-24T10:08:33Z</time></trkpt><trkpt lat="45.5064713647531" lon="10.730917548543992"><ele>63.85714285714286</ele><time>2026-03-24T10:08:37.999Z</time></trkpt><trkpt lat="45.50654251059721" lon="10.730947054088235"><ele>63.57142857142857</ele><time>2026-03-24T10:08:43.999Z</time></trkpt><trkpt lat="45.50661624877076" lon="10.730969721365247"><ele>63.285714285714285</ele><time>2026-03-24T10:08:49.999Z</time></trkpt><trkpt lat="45.50667999342912" lon="10.731002056474926"><ele>63.0</ele><time>2026-03-24T10:08:54.999Z</time></trkpt><trkpt lat="45.50674644268725" lon="10.731052260989399"><ele>63.333333333333336</ele><time>2026-03-24T10:08:59.999Z</time></trkpt><trkpt lat="45.50681358274726" lon="10.731073159846337"><ele>63.66666666666667</ele><time>2026-03-24T10:09:02.999Z</time></trkpt><trkpt lat="45.50688913033879" lon="10.73111602002899"><ele>64.0</ele><time>2026-03-24T10:09:04.999Z</time></trkpt><trkpt lat="45.50696036866467" lon="10.731136534942332"><ele>64.33333333333334</ele><time>2026-03-24T10:09:07.999Z</time></trkpt><trkpt lat="45.50702824118486" lon="10.731151781677623"><ele>64.66666666666667</ele><time>2026-03-24T10:09:08.999Z</time></trkpt><trkpt lat="45.50709550160036" lon="10.731167729626808"><ele>65.0</ele><time>2026-03-24T10:09:10.999Z</time></trkpt><trkpt lat="45.50718783904385" lon="10.731202086803941"><ele>65.0</ele><time>2026-03-24T10:09:12.999Z</time></trkpt><trkpt lat="45.507261909303004" lon="10.731210842298122"><ele>65.0</ele><time>2026-03-24T10:09:14.999Z</time></trkpt><trkpt lat="45.507341663720865" lon="10.731237660780835"><ele>65.0</ele><time>2026-03-24T10:09:16.999Z</time></trkpt><trkpt lat="45.50742192085804" lon="10.731254275076378"><ele>65.0</ele><time>2026-03-24T10:09:18.999Z</time></trkpt><trkpt lat="45.50750629679509" lon="10.731257696310271"><ele>65.0</ele><time>2026-03-24T10:09:20.999Z</time></trkpt><trkpt lat="45.50756883920501" lon="10.731283425173064"><ele>65.0</ele><time>2026-03-24T10:09:21.999Z</time></trkpt><trkpt lat="45.507629337104966" lon="10.731314139761926"><ele>65.0</ele><time>2026-03-24T10:09:23.999Z</time></trkpt><trkpt lat="45.50770272956959" lon="10.731351493803068"><ele>65.0</ele><time>2026-03-24T10:09:25.999Z</time></trkpt><trkpt lat="45.50777028827242" lon="10.731419833151456"><ele>65.0</ele><time>2026-03-24T10:09:27.999Z</time></trkpt><trkpt lat="45.50783449632243" lon="10.731493572572921"><ele>65.0</ele><time>2026-03-24T10:09:29.999Z</time></trkpt><trkpt lat="45.50788596031278" lon="10.73155547796743"><ele>65.0</ele><time>2026-03-24T10:09:31.999Z</time></trkpt><trkpt lat="45.50795783563696" lon="10.73156595794578"><ele>65.0</ele><time>2026-03-24T10:09:33.999Z</time></trkpt><trkpt lat="45.50802815855386" lon="10.731497423128554"><ele>65.00000000000001</ele><time>2026-03-24T10:09:35.999Z</time></trkpt><trkpt lat="45.508093604671465" lon="10.731455161973837"><ele>65.0</ele><time>2026-03-24T10:09:37.999Z</time></trkpt><trkpt lat="45.50816133147832" lon="10.73144233818625"><ele>65.0</ele><time>2026-03-24T10:09:39.999Z</time></trkpt><trkpt lat="45.50822654490898" lon="10.731412240771009"><ele>65.0</ele><time>2026-03-24T10:09:41.999Z</time></trkpt><trkpt lat="45.50829051773556" lon="10.731384692806857"><ele>65.0</ele><time>2026-03-24T10:09:43.999Z</time></trkpt><trkpt lat="45.50835916346" lon="10.731381390683772"><ele>65.00000000000001</ele><time>2026-03-24T10:09:45.999Z</time></trkpt><trkpt lat="45.50843684487952" lon="10.731358637702787"><ele>65.0</ele><time>2026-03-24T10:09:47.998Z</time></trkpt><trkpt lat="45.50854056472224" lon="10.731358704167942"><ele>65.0</ele><time>2026-03-24T10:09:49.998Z</time></trkpt><trkpt lat="45.5086547291232" lon="10.73136941593822"><ele>65.0</ele><time>2026-03-24T10:09:51.998Z</time></trkpt><trkpt lat="45.508761198627454" lon="10.73138763830186"><ele>65.0</ele><time>2026-03-24T10:09:53.998Z</time></trkpt><trkpt lat="45.50886837582265" lon="10.731388740436607"><ele>65.0</ele><time>2026-03-24T10:09:55.999Z</time></trkpt><trkpt lat="45.50896540975087" lon="10.731385772798115"><ele>65.0</ele><time>2026-03-24T10:09:57.999Z</time></trkpt><trkpt lat="45.5090137111464" lon="10.731307235016631"><ele>65.0</ele><time>2026-03-24T10:09:58.999Z</time></trkpt><trkpt lat="45.50909604621486" lon="10.73130536719428"><ele>65.0</ele><time>2026-03-24T10:10:00.999Z</time></trkpt><trkpt lat="45.50923892453144" lon="10.73130212590966"><ele>65.0</ele><time>2026-03-24T10:10:04.999Z</time></trkpt><trkpt lat="45.50932951519622" lon="10.731300070796886"><ele>65.0</ele><time>2026-03-24T10:10:06.999Z</time></trkpt><trkpt lat="45.50939492738379" lon="10.731298211909145"><ele>65.0</ele><time>2026-03-24T10:10:08.999Z</time></trkpt><trkpt lat="45.5094814580059" lon="10.731365635449293"><ele>65.0</ele><time>2026-03-24T10:10:11.999Z</time></trkpt><trkpt lat="45.50956255735252" lon="10.731341764011216"><ele>65.0</ele><time>2026-03-24T10:10:15.999Z</time></trkpt><trkpt lat="45.509686116474064" lon="10.731312257371812"><ele>65.0</ele><time>2026-03-24T10:10:21.999Z</time></trkpt><trkpt lat="45.50983036505169" lon="10.731319289009827"><ele>65.0</ele><time>2026-03-24T10:10:32.999Z</time></trkpt><trkpt lat="45.50991096583279" lon="10.731311467841584"><ele>65.0</ele><time>2026-03-24T10:10:36.999Z</time></trkpt><trkpt lat="45.50998494120383" lon="10.731280637426925"><ele>65.16666666666667</ele><time>2026-03-24T10:10:39.999Z</time></trkpt><trkpt lat="45.51005915894346" lon="10.731274292625816"><ele>65.33333333333334</ele><time>2026-03-24T10:10:41.999Z</time></trkpt><trkpt lat="45.51013040633037" lon="10.731254632397333"><ele>65.5</ele><time>2026-03-24T10:10:43.999Z</time></trkpt><trkpt lat="45.51022240453218" lon="10.731243803035996"><ele>65.66666666666667</ele><time>2026-03-24T10:10:45.999Z</time></trkpt><trkpt lat="45.51031666235933" lon="10.73124674192174"><ele>65.83333333333333</ele><time>2026-03-24T10:10:47.999Z</time></trkpt><trkpt lat="45.51042473043284" lon="10.731231251706735"><ele>66.0</ele><time>2026-03-24T10:10:49.999Z</time></trkpt><trkpt lat="45.510522558961355" lon="10.731208644775084"><ele>66.0</ele><time>2026-03-24T10:10:51.999Z</time></trkpt><trkpt lat="45.510629624685784" lon="10.731193759035145"><ele>66.0</ele><time>2026-03-24T10:10:53.999Z</time></trkpt><trkpt lat="45.51073474984529" lon="10.731180320036767"><ele>66.0</ele><time>2026-03-24T10:10:55.999Z</time></trkpt><trkpt lat="45.51083567706432" lon="10.731157008167342"><ele>66.0</ele><time>2026-03-24T10:10:57.999Z</time></trkpt><trkpt lat="45.51094817717293" lon="10.73114491419431"><ele>66.0</ele><time>2026-03-24T10:10:59.999Z</time></trkpt><trkpt lat="45.51102705194348" lon="10.731100211987874"><ele>66.0</ele><time>2026-03-24T10:11:01.999Z</time></trkpt><trkpt lat="45.51113074849357" lon="10.731091990860072"><ele>66.0</ele><time>2026-03-24T10:11:04.999Z</time></trkpt><trkpt lat="45.51126023043853" lon="10.731050168801895"><ele>66.0</ele><time>2026-03-24T10:11:08.999Z</time></trkpt><trkpt lat="45.511353329452234" lon="10.73102911789366"><ele>66.0</ele><time>2026-03-24T10:11:10.999Z</time></trkpt><trkpt lat="45.51146722027976" lon="10.73100311402437"><ele>66.0</ele><time>2026-03-24T10:11:12.999Z</time></trkpt><trkpt lat="45.511556924868" lon="10.730982711323863"><ele>65.8</ele><time>2026-03-24T10:11:14.999Z</time></trkpt><trkpt lat="45.511642164220746" lon="10.730963962485827"><ele>65.6</ele><time>2026-03-24T10:11:16.999Z</time></trkpt><trkpt lat="45.511738948963945" lon="10.730942674156772"><ele>65.4</ele><time>2026-03-24T10:11:18.999Z</time></trkpt><trkpt lat="45.51184121889485" lon="10.730920777120541"><ele>65.2</ele><time>2026-03-24T10:11:20.999Z</time></trkpt><trkpt lat="45.511914555299676" lon="10.730905288076663"><ele>65.0</ele><time>2026-03-24T10:11:21.999Z</time></trkpt><trkpt lat="45.51206180720209" lon="10.730859028148853"><ele>65.0</ele><time>2026-03-24T10:11:22.999Z</time></trkpt><trkpt lat="45.512158852618825" lon="10.730851472613267"><ele>65.0</ele><time>2026-03-24T10:11:26.999Z</time></trkpt><trkpt lat="45.51224774939255" lon="10.730829302417494"><ele>65.0</ele><time>2026-03-24T10:11:28.999Z</time></trkpt><trkpt lat="45.512311431958715" lon="10.730938104948876"><ele>65.0</ele><time>2026-03-24T10:11:29.999Z</time></trkpt><trkpt lat="45.51240624641573" lon="10.730905424301689"><ele>65.0</ele><time>2026-03-24T10:11:31.999Z</time></trkpt><trkpt lat="45.5125196395642" lon="10.730853012900353"><ele>65.0</ele><time>2026-03-24T10:11:33.999Z</time></trkpt><trkpt lat="45.51260760418309" lon="10.730817013736402"><ele>65.0</ele><time>2026-03-24T10:11:35.999Z</time></trkpt><trkpt lat="45.51271958569868" lon="10.730763705370583"><ele>65.0</ele><time>2026-03-24T10:11:37.999Z</time></trkpt><trkpt lat="45.51281100734694" lon="10.73075110683072"><ele>65.0</ele><time>2026-03-24T10:11:39.999Z</time></trkpt><trkpt lat="45.5129156554081" lon="10.730707452592036"><ele>65.0</ele><time>2026-03-24T10:11:41.999Z</time></trkpt><trkpt lat="45.513022973633504" lon="10.730674646586673"><ele>65.83333333333334</ele><time>2026-03-24T10:11:43.999Z</time></trkpt><trkpt lat="45.513112827030206" lon="10.730717010121033"><ele>66.66666666666667</ele><time>2026-03-24T10:11:46.999Z</time></trkpt><trkpt lat="45.51321371352533" lon="10.730716346144446"><ele>67.5</ele><time>2026-03-24T10:11:49.999Z</time></trkpt><trkpt lat="45.51328202831407" lon="10.730731716254827"><ele>68.33333333333333</ele><time>2026-03-24T10:11:51.999Z</time></trkpt><trkpt lat="45.51336892206738" lon="10.730710919160442"><ele>69.16666666666666</ele><time>2026-03-24T10:11:53.998Z</time></trkpt><trkpt lat="45.51346386410958" lon="10.730710352695313"><ele>70.0</ele><time>2026-03-24T10:11:55.998Z</time></trkpt><trkpt lat="45.513548504014416" lon="10.730658352472949"><ele>70.0</ele><time>2026-03-24T10:11:57.998Z</time></trkpt><trkpt lat="45.51363225488579" lon="10.73062159907137"><ele>70.0</ele><time>2026-03-24T10:11:59.998Z</time></trkpt><trkpt lat="45.51371348852196" lon="10.730574562699415"><ele>70.0</ele><time>2026-03-24T10:12:01.998Z</time></trkpt><trkpt lat="45.51379440209231" lon="10.730527335559167"><ele>70.0</ele><time>2026-03-24T10:12:03.998Z</time></trkpt><trkpt lat="45.51387081218731" lon="10.730480790860899"><ele>70.0</ele><time>2026-03-24T10:12:05.998Z</time></trkpt><trkpt lat="45.51395099867267" lon="10.730448661173618"><ele>70.0</ele><time>2026-03-24T10:12:07.999Z</time></trkpt><trkpt lat="45.51402112772568" lon="10.730404736697508"><ele>70.16666666666666</ele><time>2026-03-24T10:12:09.999Z</time></trkpt><trkpt lat="45.51408710607901" lon="10.730365999524654"><ele>70.33333333333333</ele><time>2026-03-24T10:12:11.999Z</time></trkpt><trkpt lat="45.51415816403717" lon="10.730311621566223"><ele>70.5</ele><time>2026-03-24T10:12:13.999Z</time></trkpt><trkpt lat="45.51422691155093" lon="10.7302741285805"><ele>70.66666666666667</ele><time>2026-03-24T10:12:16.999Z</time></trkpt><trkpt lat="45.51429729683159" lon="10.730236869114904"><ele>70.83333333333334</ele><time>2026-03-24T10:12:19.999Z</time></trkpt><trkpt lat="45.51438233467854" lon="10.730200080054486"><ele>71.0</ele><time>2026-03-24T10:12:22.999Z</time></trkpt><trkpt lat="45.514447898664656" lon="10.7301862448758"><ele>71.0</ele><time>2026-03-24T10:12:24.999Z</time></trkpt><trkpt lat="45.514527098474005" lon="10.730147150231062"><ele>71.0</ele><time>2026-03-24T10:12:27.999Z</time></trkpt><trkpt lat="45.514626974265" lon="10.730114077288968"><ele>71.0</ele><time>2026-03-24T10:12:30.999Z</time></trkpt><trkpt lat="45.514711647777865" lon="10.730105872668364"><ele>71.0</ele><time>2026-03-24T10:12:32.999Z</time></trkpt><trkpt lat="45.51479845101963" lon="10.730075785698476"><ele>71.0</ele><time>2026-03-24T10:12:34.999Z</time></trkpt><trkpt lat="45.51488362178864" lon="10.73004616092926"><ele>71.0</ele><time>2026-03-24T10:12:36.999Z</time></trkpt><trkpt lat="45.51497016234789" lon="10.730005342668614"><ele>70.33333333333334</ele><time>2026-03-24T10:12:38.999Z</time></trkpt><trkpt lat="45.515065220962484" lon="10.72996318066426"><ele>69.66666666666667</ele><time>2026-03-24T10:12:40.999Z</time></trkpt><trkpt lat="45.5151227249926" lon="10.72989865309587"><ele>69.0</ele><time>2026-03-24T10:12:42.999Z</time></trkpt><trkpt lat="45.51518270515252" lon="10.729861112260696"><ele>68.33333333333333</ele><time>2026-03-24T10:12:44.999Z</time></trkpt><trkpt lat="45.515265828309005" lon="10.729834224424026"><ele>67.66666666666666</ele><time>2026-03-24T10:12:46.999Z</time></trkpt><trkpt lat="45.51534807754106" lon="10.729809352007548"><ele>67.0</ele><time>2026-03-24T10:12:48.999Z</time></trkpt><trkpt lat="45.51544891082686" lon="10.729814569165812"><ele>67.0</ele><time>2026-03-24T10:12:50.999Z</time></trkpt><trkpt lat="45.51554295432322" lon="10.729808532061607"><ele>67.0</ele><time>2026-03-24T10:12:52.999Z</time></trkpt><trkpt lat="45.51564552580145" lon="10.729794234879831"><ele>67.0</ele><time>2026-03-24T10:12:54.999Z</time></trkpt><trkpt lat="45.515749014367714" lon="10.729790953931449"><ele>67.0</ele><time>2026-03-24T10:12:56.999Z</time></trkpt><trkpt lat="45.51590315422293" lon="10.72974126778047"><ele>67.0</ele><time>2026-03-24T10:12:58.999Z</time></trkpt><trkpt lat="45.51600672985725" lon="10.729728274004298"><ele>67.0</ele><time>2026-03-24T10:13:00.999Z</time></trkpt><trkpt lat="45.516107696697205" lon="10.729722718366272"><ele>67.0</ele><time>2026-03-24T10:13:02.999Z</time></trkpt><trkpt lat="45.51621113474255" lon="10.729719453395303"><ele>67.0</ele><time>2026-03-24T10:13:04.999Z</time></trkpt><trkpt lat="45.51630393690759" lon="10.729728415441814"><ele>67.0</ele><time>2026-03-24T10:13:06.999Z</time></trkpt><trkpt lat="45.516381677677586" lon="10.729743528362482"><ele>67.8</ele><time>2026-03-24T10:13:08.999Z</time></trkpt><trkpt lat="45.51645819139962" lon="10.72974323457666"><ele>68.6</ele><time>2026-03-24T10:13:10.999Z</time></trkpt><trkpt lat="45.51653365597305" lon="10.729724393393404"><ele>69.39999999999999</ele><time>2026-03-24T10:13:12.999Z</time></trkpt><trkpt lat="45.51660492986807" lon="10.72963725250448"><ele>70.2</ele><time>2026-03-24T10:13:14.999Z</time></trkpt><trkpt lat="45.516677039171064" lon="10.729543004153383"><ele>71.0</ele><time>2026-03-24T10:13:16.999Z</time></trkpt><trkpt lat="45.51679206934413" lon="10.729473876507928"><ele>70.2</ele><time>2026-03-24T10:13:18.999Z</time></trkpt><trkpt lat="45.516891267465354" lon="10.729347912080238"><ele>69.39999999999999</ele><time>2026-03-24T10:13:21.999Z</time></trkpt><trkpt lat="45.51698372219546" lon="10.729321118176705"><ele>68.6</ele><time>2026-03-24T10:13:23.999Z</time></trkpt><trkpt lat="45.51707530446303" lon="10.729321006279179"><ele>67.8</ele><time>2026-03-24T10:13:25.999Z</time></trkpt><trkpt lat="45.51716458737349" lon="10.729321954517962"><ele>67.0</ele><time>2026-03-24T10:13:27.999Z</time></trkpt><trkpt lat="45.51724950280911" lon="10.729311336798084"><ele>67.0</ele><time>2026-03-24T10:13:29.999Z</time></trkpt><trkpt lat="45.51732743509153" lon="10.729298477630886"><ele>67.0</ele><time>2026-03-24T10:13:31.999Z</time></trkpt><trkpt lat="45.517424470595785" lon="10.729270917054151"><ele>67.0</ele><time>2026-03-24T10:13:34.999Z</time></trkpt><trkpt lat="45.51749560057055" lon="10.729198099865979"><ele>67.0</ele><time>2026-03-24T10:13:36.999Z</time></trkpt><trkpt lat="45.51756185557242" lon="10.729134476779896"><ele>67.0</ele><time>2026-03-24T10:13:38.999Z</time></trkpt><trkpt lat="45.517633678681065" lon="10.729111062874821"><ele>67.0</ele><time>2026-03-24T10:13:40.999Z</time></trkpt><trkpt lat="45.517689702751795" lon="10.729184624970218"><ele>67.0</ele><time>2026-03-24T10:13:41.999Z</time></trkpt><trkpt lat="45.517772152134704" lon="10.729133390416926"><ele>67.0</ele><time>2026-03-24T10:13:43.999Z</time></trkpt><trkpt lat="45.51785643464483" lon="10.729090954083764"><ele>67.0</ele><time>2026-03-24T10:13:45.999Z</time></trkpt><trkpt lat="45.51793497428731" lon="10.729049271277372"><ele>67.0</ele><time>2026-03-24T10:13:47.999Z</time></trkpt><trkpt lat="45.51817023099162" lon="10.728925144744354"><ele>68.4</ele><time>2026-03-24T10:13:52.999Z</time></trkpt><trkpt lat="45.51826507774535" lon="10.728869389622714"><ele>69.80000000000001</ele><time>2026-03-24T10:13:54.999Z</time></trkpt><trkpt lat="45.51835083280561" lon="10.728812540696191"><ele>71.2</ele><time>2026-03-24T10:13:56.999Z</time></trkpt><trkpt lat="45.51842414387369" lon="10.728766012838394"><ele>72.60000000000001</ele><time>2026-03-24T10:13:58.998Z</time></trkpt><trkpt lat="45.51850833475615" lon="10.72871324910783"><ele>74.0</ele><time>2026-03-24T10:14:00.998Z</time></trkpt><trkpt lat="45.51859822928207" lon="10.72867127882125"><ele>74.0</ele><time>2026-03-24T10:14:02.998Z</time></trkpt><trkpt lat="45.51868330007372" lon="10.728634105909261"><ele>74.0</ele><time>2026-03-24T10:14:04.998Z</time></trkpt><trkpt lat="45.51877776324694" lon="10.728601853042358"><ele>74.0</ele><time>2026-03-24T10:14:06.998Z</time></trkpt><trkpt lat="45.518890569153115" lon="10.728619275965231"><ele>74.0</ele><time>2026-03-24T10:14:08.998Z</time></trkpt><trkpt lat="45.51894613741206" lon="10.728519783239447"><ele>74.0</ele><time>2026-03-24T10:14:10.998Z</time></trkpt><trkpt lat="45.5190346316076" lon="10.728446117721075"><ele>72.4</ele><time>2026-03-24T10:14:12.998Z</time></trkpt><trkpt lat="45.519153585265116" lon="10.728497117242561"><ele>70.80000000000001</ele><time>2026-03-24T10:14:14.998Z</time></trkpt><trkpt lat="45.51925192132773" lon="10.728470094053934"><ele>69.19999999999999</ele><time>2026-03-24T10:14:17.999Z</time></trkpt><trkpt lat="45.51933429046198" lon="10.728431726407381"><ele>67.6</ele><time>2026-03-24T10:14:20.999Z</time></trkpt><trkpt lat="45.51939932055487" lon="10.72841274034955"><ele>66.0</ele><time>2026-03-24T10:14:23.999Z</time></trkpt><trkpt lat="45.519473549375014" lon="10.728375909923852"><ele>67.33333333333333</ele><time>2026-03-24T10:14:26.999Z</time></trkpt><trkpt lat="45.51956885586948" lon="10.72834256315281"><ele>68.66666666666667</ele><time>2026-03-24T10:14:29.999Z</time></trkpt><trkpt lat="45.51965159652177" lon="10.728327268966572"><ele>70.0</ele><time>2026-03-24T10:14:31.999Z</time></trkpt><trkpt lat="45.51972479825224" lon="10.728276648194973"><ele>71.33333333333334</ele><time>2026-03-24T10:14:34.999Z</time></trkpt><trkpt lat="45.519789958964886" lon="10.728265563866291"><ele>72.66666666666667</ele><time>2026-03-24T10:14:36.999Z</time></trkpt><trkpt lat="45.51984892135846" lon="10.728204865761654"><ele>74.0</ele><time>2026-03-24T10:14:38.999Z</time></trkpt><trkpt lat="45.519928059048" lon="10.728151469336105"><ele>74.0</ele><time>2026-03-24T10:14:40.999Z</time></trkpt><trkpt lat="45.519994294352756" lon="10.728091412965203"><ele>74.0</ele><time>2026-03-24T10:14:42.999Z</time></trkpt><trkpt lat="45.52007150570375" lon="10.728040890455409"><ele>74.0</ele><time>2026-03-24T10:14:44.999Z</time></trkpt><trkpt lat="45.52015345782954" lon="10.728007537502812"><ele>74.0</ele><time>2026-03-24T10:14:46.999Z</time></trkpt><trkpt lat="45.52023602252099" lon="10.72800126564514"><ele>74.0</ele><time>2026-03-24T10:14:48.999Z</time></trkpt><trkpt lat="45.520316818684776" lon="10.727919931383793"><ele>74.0</ele><time>2026-03-24T10:14:50.999Z</time></trkpt><trkpt lat="45.52038896556823" lon="10.727870265801876"><ele>74.33333333333334</ele><time>2026-03-24T10:14:52.999Z</time></trkpt><trkpt lat="45.52047323357708" lon="10.72782620195754"><ele>74.66666666666667</ele><time>2026-03-24T10:14:54.999Z</time></trkpt><trkpt lat="45.52055405352799" lon="10.727787718001352"><ele>75.0</ele><time>2026-03-24T10:14:56.999Z</time></trkpt><trkpt lat="45.520637804179664" lon="10.727747789612005"><ele>75.33333333333333</ele><time>2026-03-24T10:14:58.999Z</time></trkpt><trkpt lat="45.52072726769892" lon="10.72773537367807"><ele>75.66666666666666</ele><time>2026-03-24T10:15:00.999Z</time></trkpt><trkpt lat="45.52081273771518" lon="10.727702429998603"><ele>76.0</ele><time>2026-03-24T10:15:02.999Z</time></trkpt><trkpt lat="45.5209020974473" lon="10.727683778990436"><ele>74.2</ele><time>2026-03-24T10:15:04.999Z</time></trkpt><trkpt lat="45.520994357989395" lon="10.72766557718537"><ele>72.39999999999999</ele><time>2026-03-24T10:15:06.999Z</time></trkpt><trkpt lat="45.52112073067691" lon="10.727602875969488"><ele>70.6</ele><time>2026-03-24T10:15:08.999Z</time></trkpt><trkpt lat="45.52121662929529" lon="10.727596373985971"><ele>68.8</ele><time>2026-03-24T10:15:10.999Z</time></trkpt><trkpt lat="45.52131834208102" lon="10.727589814969122"><ele>67.0</ele><time>2026-03-24T10:15:12.999Z</time></trkpt><trkpt lat="45.521416283873926" lon="10.727572655364705"><ele>67.0</ele><time>2026-03-24T10:15:14.999Z</time></trkpt><trkpt lat="45.52152840940767" lon="10.727554588189202"><ele>67.0</ele><time>2026-03-24T10:15:16.999Z</time></trkpt><trkpt lat="45.521634017016915" lon="10.727594888594375"><ele>67.0</ele><time>2026-03-24T10:15:18.999Z</time></trkpt><trkpt lat="45.521729675675644" lon="10.727524810755193"><ele>67.0</ele><time>2026-03-24T10:15:20.999Z</time></trkpt><trkpt lat="45.521828351143235" lon="10.727505875647555"><ele>67.0</ele><time>2026-03-24T10:15:22.999Z</time></trkpt><trkpt lat="45.52192194685972" lon="10.727484910041973"><ele>67.0</ele><time>2026-03-24T10:15:24.999Z</time></trkpt><trkpt lat="45.52200772913457" lon="10.72746890753078"><ele>67.0</ele><time>2026-03-24T10:15:26.999Z</time></trkpt><trkpt lat="45.52209993597195" lon="10.727495542665347"><ele>67.0</ele><time>2026-03-24T10:15:28.999Z</time></trkpt><trkpt lat="45.52218152176103" lon="10.727499211109642"><ele>67.0</ele><time>2026-03-24T10:15:30.999Z</time></trkpt><trkpt lat="45.52227781454155" lon="10.727486090567957"><ele>67.0</ele><time>2026-03-24T10:15:32.999Z</time></trkpt><trkpt lat="45.52234518802588" lon="10.72747376337753"><ele>67.0</ele><time>2026-03-24T10:15:34.999Z</time></trkpt><trkpt lat="45.5224256094595" lon="10.727458277248974"><ele>67.5</ele><time>2026-03-24T10:15:36.999Z</time></trkpt><trkpt lat="45.52260681984739" lon="10.727387542397347"><ele>68.0</ele><time>2026-03-24T10:15:39.999Z</time></trkpt><trkpt lat="45.52270703131348" lon="10.727367411833091"><ele>68.5</ele><time>2026-03-24T10:15:41.999Z</time></trkpt><trkpt lat="45.5228074977286" lon="10.727357467586057"><ele>69.0</ele><time>2026-03-24T10:15:43.999Z</time></trkpt><trkpt lat="45.52290563022177" lon="10.727343635797968"><ele>69.2</ele><time>2026-03-24T10:15:45.999Z</time></trkpt><trkpt lat="45.52300745205442" lon="10.727333112341844"><ele>69.4</ele><time>2026-03-24T10:15:47.999Z</time></trkpt><trkpt lat="45.523116024905455" lon="10.727312566220563"><ele>69.6</ele><time>2026-03-24T10:15:49.999Z</time></trkpt><trkpt lat="45.52323476433591" lon="10.727313274816199"><ele>69.8</ele><time>2026-03-24T10:15:51.999Z</time></trkpt><trkpt lat="45.52334067796023" lon="10.727303961807067"><ele>70.0</ele><time>2026-03-24T10:15:53.999Z</time></trkpt><trkpt lat="45.52344327500867" lon="10.727291225715833"><ele>70.0</ele><time>2026-03-24T10:15:55.999Z</time></trkpt><trkpt lat="45.52354300991235" lon="10.727279433701312"><ele>70.0</ele><time>2026-03-24T10:15:57.999Z</time></trkpt><trkpt lat="45.523609074935116" lon="10.727302456146923"><ele>70.0</ele><time>2026-03-24T10:15:58.999Z</time></trkpt><trkpt lat="45.523714118720896" lon="10.727296690666048"><ele>70.0</ele><time>2026-03-24T10:16:00.999Z</time></trkpt><trkpt lat="45.52381282910042" lon="10.727296164687568"><ele>70.0</ele><time>2026-03-24T10:16:02.999Z</time></trkpt><trkpt lat="45.52389312174149" lon="10.727255619536443"><ele>70.6</ele><time>2026-03-24T10:16:04.998Z</time></trkpt><trkpt lat="45.52400394828553" lon="10.727236875822154"><ele>71.2</ele><time>2026-03-24T10:16:06.998Z</time></trkpt><trkpt lat="45.5241110111389" lon="10.727215721902319"><ele>71.8</ele><time>2026-03-24T10:16:08.998Z</time></trkpt><trkpt lat="45.52419911891359" lon="10.727203681912053"><ele>72.4</ele><time>2026-03-24T10:16:10.998Z</time></trkpt><trkpt lat="45.524300697163106" lon="10.727185298539506"><ele>73.0</ele><time>2026-03-24T10:16:12.998Z</time></trkpt><trkpt lat="45.524408816667304" lon="10.727177411375903"><ele>73.0</ele><time>2026-03-24T10:16:14.998Z</time></trkpt><trkpt lat="45.52451691911485" lon="10.727162381595566"><ele>73.0</ele><time>2026-03-24T10:16:16.998Z</time></trkpt><trkpt lat="45.52462119019228" lon="10.727131503516375"><ele>73.0</ele><time>2026-03-24T10:16:18.998Z</time></trkpt><trkpt lat="45.52472160208613" lon="10.727081514574731"><ele>73.0</ele><time>2026-03-24T10:16:20.999Z</time></trkpt><trkpt lat="45.5248182969011" lon="10.727036163479921"><ele>73.0</ele><time>2026-03-24T10:16:22.999Z</time></trkpt><trkpt lat="45.52487359906454" lon="10.727098987632116"><ele>72.5</ele><time>2026-03-24T10:16:23.999Z</time></trkpt><trkpt lat="45.52491466070227" lon="10.727360010283256"><ele>72.0</ele><time>2026-03-24T10:16:24.999Z</time></trkpt><trkpt lat="45.525000930068664" lon="10.72737172043714"><ele>71.5</ele><time>2026-03-24T10:16:26.999Z</time></trkpt><trkpt lat="45.525092251949964" lon="10.727385443135983"><ele>71.0</ele><time>2026-03-24T10:16:28.999Z</time></trkpt><trkpt lat="45.525182553714885" lon="10.727395586446"><ele>71.0</ele><time>2026-03-24T10:16:31.999Z</time></trkpt><trkpt lat="45.525303913508" lon="10.727395907498462"><ele>71.0</ele><time>2026-03-24T10:16:32.999Z</time></trkpt><trkpt lat="45.52541636619595" lon="10.727378729181318"><ele>71.0</ele><time>2026-03-24T10:16:34.999Z</time></trkpt><trkpt lat="45.52552335231086" lon="10.727359015778847"><ele>71.0</ele><time>2026-03-24T10:16:36.999Z</time></trkpt><trkpt lat="45.52562293004496" lon="10.72734027126769"><ele>71.0</ele><time>2026-03-24T10:16:38.999Z</time></trkpt><trkpt lat="45.52572079131578" lon="10.727326365046148"><ele>70.25</ele><time>2026-03-24T10:16:40.999Z</time></trkpt><trkpt lat="45.525821578979354" lon="10.727317616870216"><ele>69.5</ele><time>2026-03-24T10:16:42.999Z</time></trkpt><trkpt lat="45.5259233003675" lon="10.727309803347818"><ele>68.75</ele><time>2026-03-24T10:16:44.999Z</time></trkpt><trkpt lat="45.52602847628204" lon="10.727296760086949"><ele>68.0</ele><time>2026-03-24T10:16:46.999Z</time></trkpt><trkpt lat="45.526102896584845" lon="10.727059423067667"><ele>68.0</ele><time>2026-03-24T10:16:48.999Z</time></trkpt><trkpt lat="45.52617843333997" lon="10.727045805377246"><ele>68.0</ele><time>2026-03-24T10:16:50.999Z</time></trkpt><trkpt lat="45.526265536804395" lon="10.727014024438974"><ele>68.0</ele><time>2026-03-24T10:16:53.999Z</time></trkpt><trkpt lat="45.526348740013354" lon="10.726992003694585"><ele>68.0</ele><time>2026-03-24T10:16:55.999Z</time></trkpt><trkpt lat="45.526429095291434" lon="10.726967043206933"><ele>68.0</ele><time>2026-03-24T10:16:57.999Z</time></trkpt><trkpt lat="45.52651020803062" lon="10.726942263986809"><ele>68.0</ele><time>2026-03-24T10:16:59.999Z</time></trkpt><trkpt lat="45.52663387571328" lon="10.726924325691407"><ele>68.2</ele><time>2026-03-24T10:17:03.999Z</time></trkpt><trkpt lat="45.52670494005645" lon="10.726908396012705"><ele>68.4</ele><time>2026-03-24T10:17:09.999Z</time></trkpt><trkpt lat="45.526784537946114" lon="10.726887558423561"><ele>68.60000000000001</ele><time>2026-03-24T10:17:13.999Z</time></trkpt><trkpt lat="45.52686503532973" lon="10.726880528792128"><ele>68.8</ele><time>2026-03-24T10:17:16.999Z</time></trkpt><trkpt lat="45.52701110175006" lon="10.726908917967252"><ele>69.0</ele><time>2026-03-24T10:17:20.999Z</time></trkpt><trkpt lat="45.527223550865436" lon="10.726827041874554"><ele>69.0</ele><time>2026-03-24T10:17:25.999Z</time></trkpt><trkpt lat="45.52730619782344" lon="10.726784453187658"><ele>69.0</ele><time>2026-03-24T10:17:27.999Z</time></trkpt><trkpt lat="45.527384758203056" lon="10.726740855564538"><ele>69.0</ele><time>2026-03-24T10:17:30Z</time></trkpt><trkpt lat="45.52746941128948" lon="10.726693322796013"><ele>69.0</ele><time>2026-03-24T10:17:32Z</time></trkpt><trkpt lat="45.52754856791962" lon="10.726627424672467"><ele>69.0</ele><time>2026-03-24T10:17:34Z</time></trkpt><trkpt lat="45.527621841376515" lon="10.726575232326349"><ele>69.0</ele><time>2026-03-24T10:17:37Z</time></trkpt><trkpt lat="45.527683551900395" lon="10.726538449130317"><ele>69.0</ele><time>2026-03-24T10:17:39Z</time></trkpt><trkpt lat="45.52779071044248" lon="10.726484740627907"><ele>69.0</ele><time>2026-03-24T10:17:41Z</time></trkpt><trkpt lat="45.527852696964935" lon="10.726444389375857"><ele>69.0</ele><time>2026-03-24T10:17:43Z</time></trkpt><trkpt lat="45.52794149326286" lon="10.72638266993306"><ele>69.0</ele><time>2026-03-24T10:17:44Z</time></trkpt><trkpt lat="45.52801439845844" lon="10.726366357540119"><ele>69.0</ele><time>2026-03-24T10:17:50Z</time></trkpt><trkpt lat="45.52807706495731" lon="10.726347601082916"><ele>69.0</ele><time>2026-03-24T10:17:56Z</time></trkpt><trkpt lat="45.52814316614823" lon="10.726314543605545"><ele>69.2</ele><time>2026-03-24T10:18:01Z</time></trkpt><trkpt lat="45.52831140348066" lon="10.726275538171288"><ele>69.4</ele><time>2026-03-24T10:18:08Z</time></trkpt><trkpt lat="45.528347230969736" lon="10.726185266838996"><ele>69.6</ele><time>2026-03-24T10:18:09.999Z</time></trkpt><trkpt lat="45.52836110776331" lon="10.726069710426046"><ele>69.8</ele><time>2026-03-24T10:18:12.999Z</time></trkpt><trkpt lat="45.52844235490374" lon="10.726010950928659"><ele>70.0</ele><time>2026-03-24T10:18:15.999Z</time></trkpt><trkpt lat="45.528512796126904" lon="10.725994156443662"><ele>69.5</ele><time>2026-03-24T10:18:17.999Z</time></trkpt><trkpt lat="45.52859023008709" lon="10.725957772811565"><ele>69.0</ele><time>2026-03-24T10:18:19.999Z</time></trkpt><trkpt lat="45.52866597815873" lon="10.72592526425183"><ele>68.5</ele><time>2026-03-24T10:18:21.999Z</time></trkpt><trkpt lat="45.52874120032975" lon="10.725932793162338"><ele>68.0</ele><time>2026-03-24T10:18:23.999Z</time></trkpt><trkpt lat="45.52886853981093" lon="10.72587281404997"><ele>67.5</ele><time>2026-03-24T10:18:26.999Z</time></trkpt><trkpt lat="45.528946668800394" lon="10.725869973112449"><ele>67.0</ele><time>2026-03-24T10:18:28.999Z</time></trkpt><trkpt lat="45.52903141108937" lon="10.725929764945386"><ele>67.0</ele><time>2026-03-24T10:18:31.999Z</time></trkpt><trkpt lat="45.5291488796153" lon="10.72595115105011"><ele>67.0</ele><time>2026-03-24T10:18:34.999Z</time></trkpt><trkpt lat="45.52921887691242" lon="10.725969221627032"><ele>67.0</ele><time>2026-03-24T10:18:36.999Z</time></trkpt><trkpt lat="45.529281755541646" lon="10.725982163329858"><ele>67.0</ele><time>2026-03-24T10:18:39Z</time></trkpt><trkpt lat="45.529530311593476" lon="10.72598902803502"><ele>66.66666666666666</ele><time>2026-03-24T10:18:46Z</time></trkpt><trkpt lat="45.52975690203261" lon="10.725995489620171"><ele>66.33333333333333</ele><time>2026-03-24T10:18:52Z</time></trkpt><trkpt lat="45.529947324384494" lon="10.72599654699884"><ele>66.0</ele><time>2026-03-24T10:18:58Z</time></trkpt><trkpt lat="45.530044508486895" lon="10.725973216456648"><ele>66.0</ele><time>2026-03-24T10:19:02Z</time></trkpt><trkpt lat="45.53011571761619" lon="10.72595610888775"><ele>66.0</ele><time>2026-03-24T10:19:05Z</time></trkpt><trkpt lat="45.530196515861334" lon="10.725955445275089"><ele>66.0</ele><time>2026-03-24T10:19:08Z</time></trkpt><trkpt lat="45.530333242815956" lon="10.725981796549684"><ele>66.0</ele><time>2026-03-24T10:19:13Z</time></trkpt><trkpt lat="45.530400553154074" lon="10.725987749148384"><ele>66.0</ele><time>2026-03-24T10:19:15Z</time></trkpt><trkpt lat="45.53047202575258" lon="10.725967913279339"><ele>66.0</ele><time>2026-03-24T10:19:17Z</time></trkpt><trkpt lat="45.53054373139672" lon="10.725960857619317"><ele>66.0</ele><time>2026-03-24T10:19:19Z</time></trkpt><trkpt lat="45.5306085797769" lon="10.725956293955237"><ele>66.0</ele><time>2026-03-24T10:19:22Z</time></trkpt><trkpt lat="45.53062076751252" lon="10.72609079846089"><ele>66.0</ele><time>2026-03-24T10:19:26Z</time></trkpt><trkpt lat="45.53066741312571" lon="10.726186918587961"><ele>66.0</ele><time>2026-03-24T10:19:28Z</time></trkpt><trkpt lat="45.53073822083773" lon="10.726272791674479"><ele>66.0</ele><time>2026-03-24T10:19:30Z</time></trkpt><trkpt lat="45.53082705197203" lon="10.72632170808287"><ele>66.0</ele><time>2026-03-24T10:19:32Z</time></trkpt><trkpt lat="45.530910581083994" lon="10.726332599768444"><ele>66.33333333333333</ele><time>2026-03-24T10:19:34Z</time></trkpt><trkpt lat="45.53098342739267" lon="10.72633043696193"><ele>66.66666666666667</ele><time>2026-03-24T10:19:36Z</time></trkpt><trkpt lat="45.53106132746455" lon="10.726360709255893"><ele>67.0</ele><time>2026-03-24T10:19:38Z</time></trkpt><trkpt lat="45.53114198352701" lon="10.726386164056272"><ele>67.33333333333334</ele><time>2026-03-24T10:19:40Z</time></trkpt><trkpt lat="45.531222112625535" lon="10.726414918185677"><ele>67.66666666666667</ele><time>2026-03-24T10:19:42Z</time></trkpt><trkpt lat="45.53131223437957" lon="10.726402441648423"><ele>68.0</ele><time>2026-03-24T10:19:44Z</time></trkpt><trkpt lat="45.531393471960214" lon="10.726374827235126"><ele>68.0</ele><time>2026-03-24T10:19:46Z</time></trkpt><trkpt lat="45.53146113829911" lon="10.72630673408179"><ele>68.0</ele><time>2026-03-24T10:19:49Z</time></trkpt><trkpt lat="45.53153544480636" lon="10.726288107783267"><ele>68.0</ele><time>2026-03-24T10:19:51Z</time></trkpt><trkpt lat="45.53163656088433" lon="10.726306442777103"><ele>68.0</ele><time>2026-03-24T10:19:53Z</time></trkpt><trkpt lat="45.53173489082905" lon="10.726324207271437"><ele>68.0</ele><time>2026-03-24T10:19:55Z</time></trkpt><trkpt lat="45.5318224428756" lon="10.72636358875348"><ele>68.0</ele><time>2026-03-24T10:19:57Z</time></trkpt><trkpt lat="45.53189624768182" lon="10.726446525401327"><ele>68.0</ele><time>2026-03-24T10:19:59Z</time></trkpt><trkpt lat="45.53193898394169" lon="10.726564352809994"><ele>68.0</ele><time>2026-03-24T10:20:01Z</time></trkpt><trkpt lat="45.53202605195251" lon="10.726632105637654"><ele>68.0</ele><time>2026-03-24T10:20:03Z</time></trkpt><trkpt lat="45.53212644931442" lon="10.72664393204242"><ele>68.0</ele><time>2026-03-24T10:20:05Z</time></trkpt><trkpt lat="45.5322243202721" lon="10.726665634003465"><ele>67.4</ele><time>2026-03-24T10:20:07Z</time></trkpt><trkpt lat="45.53231997050784" lon="10.726687523195295"><ele>66.8</ele><time>2026-03-24T10:20:09Z</time></trkpt><trkpt lat="45.53241898709125" lon="10.726709902528475"><ele>66.2</ele><time>2026-03-24T10:20:11Z</time></trkpt><trkpt lat="45.53252655027506" lon="10.72673719892986"><ele>65.6</ele><time>2026-03-24T10:20:13Z</time></trkpt><trkpt lat="45.53263650142304" lon="10.726766466058717"><ele>65.0</ele><time>2026-03-24T10:20:15Z</time></trkpt><trkpt lat="45.532680913840295" lon="10.72684407534964"><ele>65.0</ele><time>2026-03-24T10:20:16Z</time></trkpt><trkpt lat="45.53278418454294" lon="10.726878032718233"><ele>65.0</ele><time>2026-03-24T10:20:18Z</time></trkpt><trkpt lat="45.53288916593786" lon="10.726913657367824"><ele>65.0</ele><time>2026-03-24T10:20:20Z</time></trkpt><trkpt lat="45.53299457258213" lon="10.726949426488988"><ele>65.0</ele><time>2026-03-24T10:20:22Z</time></trkpt><trkpt lat="45.533058176326215" lon="10.726971009845965"><ele>65.0</ele><time>2026-03-24T10:20:24Z</time></trkpt><trkpt lat="45.53315615239158" lon="10.727004478433566"><ele>65.4</ele><time>2026-03-24T10:20:25Z</time></trkpt><trkpt lat="45.53325596333296" lon="10.727038878199863"><ele>65.8</ele><time>2026-03-24T10:20:27Z</time></trkpt><trkpt lat="45.53335654713721" lon="10.727073203160767"><ele>66.2</ele><time>2026-03-24T10:20:29Z</time></trkpt><trkpt lat="45.53342424534664" lon="10.727096070742883"><ele>66.6</ele><time>2026-03-24T10:20:31Z</time></trkpt><trkpt lat="45.53349321257517" lon="10.727119359977145"><ele>67.0</ele><time>2026-03-24T10:20:34Z</time></trkpt><trkpt lat="45.53374820957981" lon="10.727122395024184"><ele>66.75</ele><time>2026-03-24T10:20:35Z</time></trkpt><trkpt lat="45.53360639470242" lon="10.726853317000758"><ele>66.5</ele><time>2026-03-24T10:20:38Z</time></trkpt><trkpt lat="45.53367494810024" lon="10.726833159654392"><ele>66.25</ele><time>2026-03-24T10:20:40Z</time></trkpt><trkpt lat="45.53374351840732" lon="10.726834527146265"><ele>66.0</ele><time>2026-03-24T10:20:42Z</time></trkpt><trkpt lat="45.53382989876172" lon="10.72685503016343"><ele>66.0</ele><time>2026-03-24T10:20:46Z</time></trkpt><trkpt lat="45.533982767728624" lon="10.7267777789953"><ele>66.0</ele><time>2026-03-24T10:20:49Z</time></trkpt><trkpt lat="45.53406675101614" lon="10.726783970118419"><ele>66.0</ele><time>2026-03-24T10:20:51Z</time></trkpt><trkpt lat="45.53415721056411" lon="10.726785519828915"><ele>66.0</ele><time>2026-03-24T10:20:53Z</time></trkpt><trkpt lat="45.53424045932223" lon="10.726794865365687"><ele>66.0</ele><time>2026-03-24T10:20:55Z</time></trkpt><trkpt lat="45.53431862202262" lon="10.726807055789136"><ele>66.0</ele><time>2026-03-24T10:20:58Z</time></trkpt><trkpt lat="45.53438545971629" lon="10.726855496561194"><ele>66.0</ele><time>2026-03-24T10:21:00Z</time></trkpt><trkpt lat="45.534485863574794" lon="10.726921515998127"><ele>66.0</ele><time>2026-03-24T10:21:02Z</time></trkpt><trkpt lat="45.53458159253623" lon="10.726916678041285"><ele>66.0</ele><time>2026-03-24T10:21:04.001Z</time></trkpt><trkpt lat="45.53468636697903" lon="10.726924223162618"><ele>66.0</ele><time>2026-03-24T10:21:06.001Z</time></trkpt><trkpt lat="45.53490570992807" lon="10.726835517988587"><ele>65.75</ele><time>2026-03-24T10:21:08.001Z</time></trkpt><trkpt lat="45.535070369279346" lon="10.72684042226506"><ele>65.5</ele><time>2026-03-24T10:21:11.001Z</time></trkpt><trkpt lat="45.535179247294806" lon="10.726843656169738"><ele>65.25</ele><time>2026-03-24T10:21:13.001Z</time></trkpt><trkpt lat="45.535304182696144" lon="10.726862893719497"><ele>65.0</ele><time>2026-03-24T10:21:16.001Z</time></trkpt><trkpt lat="45.53537791960647" lon="10.726881949279013"><ele>65.0</ele><time>2026-03-24T10:21:18.001Z</time></trkpt><trkpt lat="45.535482278845656" lon="10.726886160264531"><ele>65.0</ele><time>2026-03-24T10:21:20.001Z</time></trkpt><trkpt lat="45.535577274357266" lon="10.726889155666107"><ele>65.0</ele><time>2026-03-24T10:21:22.001Z</time></trkpt><trkpt lat="45.535646758783635" lon="10.726896138345403"><ele>65.0</ele><time>2026-03-24T10:21:23.001Z</time></trkpt><trkpt lat="45.53573538053956" lon="10.72692200764739"><ele>65.0</ele><time>2026-03-24T10:21:25.001Z</time></trkpt><trkpt lat="45.53581526173452" lon="10.726939426479902"><ele>65.0</ele><time>2026-03-24T10:21:27.001Z</time></trkpt><trkpt lat="45.535921206935264" lon="10.72694735574823"><ele>65.0</ele><time>2026-03-24T10:21:29.001Z</time></trkpt><trkpt lat="45.536004373958036" lon="10.726931756960234"><ele>65.0</ele><time>2026-03-24T10:21:31.001Z</time></trkpt><trkpt lat="45.53619243484784" lon="10.726880557500692"><ele>65.0</ele><time>2026-03-24T10:21:37.001Z</time></trkpt><trkpt lat="45.53625486420277" lon="10.726944214042433"><ele>65.0</ele><time>2026-03-24T10:21:40.001Z</time></trkpt><trkpt lat="45.536347439826095" lon="10.726923372262164"><ele>65.0</ele><time>2026-03-24T10:21:42.001Z</time></trkpt><trkpt lat="45.53644970163018" lon="10.726910542755052"><ele>65.5</ele><time>2026-03-24T10:21:44.001Z</time></trkpt><trkpt lat="45.53652575930078" lon="10.726953302179465"><ele>66.0</ele><time>2026-03-24T10:21:47.001Z</time></trkpt><trkpt lat="45.53659382771214" lon="10.726946696647506"><ele>66.5</ele><time>2026-03-24T10:21:49.001Z</time></trkpt><trkpt lat="45.536693229183726" lon="10.726954675177051"><ele>67.0</ele><time>2026-03-24T10:21:51.001Z</time></trkpt><trkpt lat="45.53680181729004" lon="10.726955837465699"><ele>67.5</ele><time>2026-03-24T10:21:53.001Z</time></trkpt><trkpt lat="45.53687966922876" lon="10.726964490373938"><ele>68.0</ele><time>2026-03-24T10:21:55.001Z</time></trkpt><trkpt lat="45.53696419986417" lon="10.726976957844377"><ele>68.0</ele><time>2026-03-24T10:21:57.001Z</time></trkpt><trkpt lat="45.53708079152752" lon="10.726925443859985"><ele>68.0</ele><time>2026-03-24T10:22:00.001Z</time></trkpt><trkpt lat="45.53715759665729" lon="10.72691797436023"><ele>68.0</ele><time>2026-03-24T10:22:01.001Z</time></trkpt><trkpt lat="45.53722808606017" lon="10.726908704670645"><ele>68.0</ele><time>2026-03-24T10:22:03.001Z</time></trkpt><trkpt lat="45.53730306497479" lon="10.726882161327442"><ele>68.0</ele><time>2026-03-24T10:22:05.001Z</time></trkpt><trkpt lat="45.53746647369986" lon="10.726666460135792"><ele>67.66666666666667</ele><time>2026-03-24T10:22:06.001Z</time></trkpt><trkpt lat="45.53752989879804" lon="10.726634805730692"><ele>67.33333333333334</ele><time>2026-03-24T10:22:08.001Z</time></trkpt><trkpt lat="45.53760276804767" lon="10.726629061088827"><ele>67.0</ele><time>2026-03-24T10:22:11.001Z</time></trkpt><trkpt lat="45.53766220420841" lon="10.726595662273125"><ele>66.66666666666667</ele><time>2026-03-24T10:22:12.001Z</time></trkpt><trkpt lat="45.53772777218387" lon="10.726561850523003"><ele>66.33333333333333</ele><time>2026-03-24T10:22:13.001Z</time></trkpt><trkpt lat="45.53787117468306" lon="10.726520943102807"><ele>66.0</ele><time>2026-03-24T10:22:15.001Z</time></trkpt><trkpt lat="45.537935784457645" lon="10.726502039062689"><ele>66.0</ele><time>2026-03-24T10:22:16.001Z</time></trkpt><trkpt lat="45.53801143137524" lon="10.726490346767633"><ele>66.0</ele><time>2026-03-24T10:22:17.001Z</time></trkpt><trkpt lat="45.53807596211177" lon="10.726478345691053"><ele>66.0</ele><time>2026-03-24T10:22:18.001Z</time></trkpt><trkpt lat="45.53810041492428" lon="10.726378393771965"><ele>66.0</ele><time>2026-03-24T10:22:19.001Z</time></trkpt><trkpt lat="45.53819158768958" lon="10.726337562891075"><ele>66.0</ele><time>2026-03-24T10:22:21Z</time></trkpt><trkpt lat="45.53829802780453" lon="10.726261477281922"><ele>66.0</ele><time>2026-03-24T10:22:23Z</time></trkpt><trkpt lat="45.53837630816048" lon="10.726202594891395"><ele>66.0</ele><time>2026-03-24T10:22:25Z</time></trkpt><trkpt lat="45.53844897852773" lon="10.72615333673759"><ele>66.0</ele><time>2026-03-24T10:22:27Z</time></trkpt><trkpt lat="45.53854918807726" lon="10.726102898974668"><ele>66.0</ele><time>2026-03-24T10:22:29Z</time></trkpt><trkpt lat="45.53863699814845" lon="10.726068614418914"><ele>66.0</ele><time>2026-03-24T10:22:32Z</time></trkpt><trkpt lat="45.538894792680004" lon="10.725992601639069"><ele>65.6</ele><time>2026-03-24T10:22:38Z</time></trkpt><trkpt lat="45.53900774631866" lon="10.725946502376901"><ele>65.19999999999999</ele><time>2026-03-24T10:22:41Z</time></trkpt><trkpt lat="45.539088134324345" lon="10.725920150540166"><ele>64.80000000000001</ele><time>2026-03-24T10:22:43Z</time></trkpt><trkpt lat="45.53917823532703" lon="10.725878521097101"><ele>64.4</ele><time>2026-03-24T10:22:45Z</time></trkpt><trkpt lat="45.53930544830537" lon="10.725860579721362"><ele>64.0</ele><time>2026-03-24T10:22:47Z</time></trkpt><trkpt lat="45.53940131692584" lon="10.725823083874726"><ele>63.99999999999999</ele><time>2026-03-24T10:22:49Z</time></trkpt><trkpt lat="45.53948165605028" lon="10.72580026735462"><ele>64.0</ele><time>2026-03-24T10:22:51Z</time></trkpt><trkpt lat="45.53955761691116" lon="10.725747939349908"><ele>64.0</ele><time>2026-03-24T10:22:53Z</time></trkpt><trkpt lat="45.53963669657278" lon="10.725695320844856"><ele>64.0</ele><time>2026-03-24T10:22:55Z</time></trkpt><trkpt lat="45.53972855012341" lon="10.725653904675042"><ele>63.99999999999999</ele><time>2026-03-24T10:22:57Z</time></trkpt><trkpt lat="45.539815420041506" lon="10.725603482778924"><ele>64.0</ele><time>2026-03-24T10:22:59Z</time></trkpt><trkpt lat="45.5399185188655" lon="10.725563497921913"><ele>64.16666666666666</ele><time>2026-03-24T10:23:01Z</time></trkpt><trkpt lat="45.54000976295793" lon="10.725527716855671"><ele>64.33333333333333</ele><time>2026-03-24T10:23:03Z</time></trkpt><trkpt lat="45.540093877049706" lon="10.725484632375656"><ele>64.5</ele><time>2026-03-24T10:23:05Z</time></trkpt><trkpt lat="45.54015626975443" lon="10.725460924677305"><ele>64.66666666666667</ele><time>2026-03-24T10:23:06Z</time></trkpt><trkpt lat="45.540232240140924" lon="10.725399291748202"><ele>64.83333333333334</ele><time>2026-03-24T10:23:08Z</time></trkpt><trkpt lat="45.54033462282816" lon="10.72539542018159"><ele>65.0</ele><time>2026-03-24T10:23:10Z</time></trkpt><trkpt lat="45.540412492191294" lon="10.725327005552382"><ele>65.16666666666667</ele><time>2026-03-24T10:23:12Z</time></trkpt><trkpt lat="45.54049663728834" lon="10.725278975314778"><ele>65.33333333333334</ele><time>2026-03-24T10:23:14Z</time></trkpt><trkpt lat="45.54057889075771" lon="10.725256790974118"><ele>65.5</ele><time>2026-03-24T10:23:16Z</time></trkpt><trkpt lat="45.54066626811448" lon="10.725208788248421"><ele>65.66666666666667</ele><time>2026-03-24T10:23:18Z</time></trkpt><trkpt lat="45.54074843923279" lon="10.725158788651111"><ele>65.83333333333333</ele><time>2026-03-24T10:23:20.001Z</time></trkpt><trkpt lat="45.54082548931635" lon="10.725109170982657"><ele>66.0</ele><time>2026-03-24T10:23:22.001Z</time></trkpt><trkpt lat="45.540894793441005" lon="10.725061005224813"><ele>66.0</ele><time>2026-03-24T10:23:24.001Z</time></trkpt><trkpt lat="45.540950739868286" lon="10.72500686970184"><ele>66.0</ele><time>2026-03-24T10:23:26.001Z</time></trkpt><trkpt lat="45.54102170311954" lon="10.724957138116613"><ele>66.0</ele><time>2026-03-24T10:23:28.001Z</time></trkpt><trkpt lat="45.5411131406608" lon="10.724893782313755"><ele>66.0</ele><time>2026-03-24T10:23:30.001Z</time></trkpt><trkpt lat="45.54120371777665" lon="10.724816354295053"><ele>66.0</ele><time>2026-03-24T10:23:32.001Z</time></trkpt><trkpt lat="45.54125890599732" lon="10.72475693045627"><ele>66.0</ele><time>2026-03-24T10:23:34.001Z</time></trkpt><trkpt lat="45.54133756694257" lon="10.724685568374351"><ele>65.6</ele><time>2026-03-24T10:23:36.001Z</time></trkpt><trkpt lat="45.541408959353305" lon="10.7246182238082"><ele>65.19999999999999</ele><time>2026-03-24T10:23:38.001Z</time></trkpt><trkpt lat="45.54146655802028" lon="10.724555728958832"><ele>64.80000000000001</ele><time>2026-03-24T10:23:40.001Z</time></trkpt><trkpt lat="45.54156690603565" lon="10.724477012669588"><ele>64.4</ele><time>2026-03-24T10:23:41.001Z</time></trkpt><trkpt lat="45.54165134387766" lon="10.724395819426947"><ele>64.0</ele><time>2026-03-24T10:23:43.001Z</time></trkpt><trkpt lat="45.54172245156298" lon="10.724300782856862"><ele>63.6</ele><time>2026-03-24T10:23:45.001Z</time></trkpt><trkpt lat="45.54181017440055" lon="10.72425938100729"><ele>63.2</ele><time>2026-03-24T10:23:47.001Z</time></trkpt><trkpt lat="45.541897483627196" lon="10.724185245263687"><ele>62.800000000000004</ele><time>2026-03-24T10:23:49.001Z</time></trkpt><trkpt lat="45.54198644077586" lon="10.724118951226458"><ele>62.400000000000006</ele><time>2026-03-24T10:23:51.001Z</time></trkpt><trkpt lat="45.54207848748815" lon="10.724047877259519"><ele>62.0</ele><time>2026-03-24T10:23:53.001Z</time></trkpt><trkpt lat="45.542165098004254" lon="10.723961064890263"><ele>63.0</ele><time>2026-03-24T10:23:55.001Z</time></trkpt><trkpt lat="45.54225123788039" lon="10.723875563451418"><ele>64.0</ele><time>2026-03-24T10:23:57.001Z</time></trkpt><trkpt lat="45.542338290078504" lon="10.723785149943968"><ele>65.0</ele><time>2026-03-24T10:23:59.001Z</time></trkpt><trkpt lat="45.542413189825304" lon="10.723705900196038"><ele>66.0</ele><time>2026-03-24T10:24:01.001Z</time></trkpt><trkpt lat="45.542476376074994" lon="10.723632912057585"><ele>67.0</ele><time>2026-03-24T10:24:03.001Z</time></trkpt><trkpt lat="45.54252366633609" lon="10.723523423811038"><ele>67.0</ele><time>2026-03-24T10:24:04.001Z</time></trkpt><trkpt lat="45.54257071913921" lon="10.723426259886633"><ele>67.0</ele><time>2026-03-24T10:24:07.001Z</time></trkpt><trkpt lat="45.54265325847051" lon="10.723283763403865"><ele>67.0</ele><time>2026-03-24T10:24:09.001Z</time></trkpt><trkpt lat="45.54270790851151" lon="10.723201932561556"><ele>67.0</ele><time>2026-03-24T10:24:10.001Z</time></trkpt><trkpt lat="45.542770806443144" lon="10.723118965691217"><ele>67.0</ele><time>2026-03-24T10:24:12.001Z</time></trkpt><trkpt lat="45.54283032087679" lon="10.723071603521928"><ele>67.0</ele><time>2026-03-24T10:24:14.001Z</time></trkpt><trkpt lat="45.54290508391385" lon="10.722996175516231"><ele>67.16666666666666</ele><time>2026-03-24T10:24:16.001Z</time></trkpt><trkpt lat="45.54299108518762" lon="10.722898411271105"><ele>67.33333333333333</ele><time>2026-03-24T10:24:18.001Z</time></trkpt><trkpt lat="45.543053190499116" lon="10.722787797912359"><ele>67.5</ele><time>2026-03-24T10:24:20.001Z</time></trkpt><trkpt lat="45.54311160503561" lon="10.722700671827667"><ele>67.66666666666667</ele><time>2026-03-24T10:24:22.001Z</time></trkpt><trkpt lat="45.54316985166576" lon="10.722629577272665"><ele>67.83333333333334</ele><time>2026-03-24T10:24:24.001Z</time></trkpt><trkpt lat="45.54322614659485" lon="10.722553649236758"><ele>68.0</ele><time>2026-03-24T10:24:26Z</time></trkpt><trkpt lat="45.543270785336254" lon="10.722417962749404"><ele>68.0</ele><time>2026-03-24T10:24:28Z</time></trkpt><trkpt lat="45.54332888139775" lon="10.722271889386452"><ele>68.0</ele><time>2026-03-24T10:24:31Z</time></trkpt><trkpt lat="45.54338178226807" lon="10.72220606257456"><ele>68.0</ele><time>2026-03-24T10:24:33Z</time></trkpt><trkpt lat="45.543407393589504" lon="10.722051497598157"><ele>68.0</ele><time>2026-03-24T10:24:34Z</time></trkpt><trkpt lat="45.54344992473125" lon="10.721927100250502"><ele>68.0</ele><time>2026-03-24T10:24:36Z</time></trkpt><trkpt lat="45.54348393345658" lon="10.721801542903021"><ele>68.0</ele><time>2026-03-24T10:24:38Z</time></trkpt><trkpt lat="45.54351574102246" lon="10.721671892479934"><ele>68.0</ele><time>2026-03-24T10:24:40Z</time></trkpt><trkpt lat="45.54353533376896" lon="10.721539809745485"><ele>68.0</ele><time>2026-03-24T10:24:42Z</time></trkpt><trkpt lat="45.54355360561451" lon="10.721411819431703"><ele>68.0</ele><time>2026-03-24T10:24:44Z</time></trkpt><trkpt lat="45.54356740747663" lon="10.721279992260106"><ele>68.0</ele><time>2026-03-24T10:24:46Z</time></trkpt><trkpt lat="45.5435899696484" lon="10.721161474127262"><ele>67.66666666666667</ele><time>2026-03-24T10:24:48Z</time></trkpt><trkpt lat="45.5435843820585" lon="10.721063427043962"><ele>67.33333333333334</ele><time>2026-03-24T10:24:50Z</time></trkpt><trkpt lat="45.543577194464405" lon="10.720920743928295"><ele>67.0</ele><time>2026-03-24T10:24:52Z</time></trkpt><trkpt lat="45.54356943432034" lon="10.720818907766569"><ele>66.66666666666667</ele><time>2026-03-24T10:24:54Z</time></trkpt><trkpt lat="45.54354772315003" lon="10.720701578782096"><ele>66.33333333333333</ele><time>2026-03-24T10:24:56Z</time></trkpt><trkpt lat="45.54355560193142" lon="10.720582239077675"><ele>66.0</ele><time>2026-03-24T10:24:58Z</time></trkpt><trkpt lat="45.54356658789801" lon="10.720463646506769"><ele>66.0</ele><time>2026-03-24T10:25:00Z</time></trkpt><trkpt lat="45.54358150539045" lon="10.720314088135202"><ele>66.0</ele><time>2026-03-24T10:25:02Z</time></trkpt><trkpt lat="45.543608532435044" lon="10.720180853080018"><ele>66.0</ele><time>2026-03-24T10:25:04Z</time></trkpt><trkpt lat="45.54363073957501" lon="10.720050108349474"><ele>66.0</ele><time>2026-03-24T10:25:06Z</time></trkpt><trkpt lat="45.54366613174911" lon="10.71994141092157"><ele>66.0</ele><time>2026-03-24T10:25:08Z</time></trkpt><trkpt lat="45.54372646558818" lon="10.719847573544094"><ele>65.8</ele><time>2026-03-24T10:25:10Z</time></trkpt><trkpt lat="45.54379074664112" lon="10.71979710973725"><ele>65.6</ele><time>2026-03-24T10:25:12Z</time></trkpt><trkpt lat="45.54385955095517" lon="10.71976218870322"><ele>65.4</ele><time>2026-03-24T10:25:15Z</time></trkpt><trkpt lat="45.5439417148591" lon="10.71966466164918"><ele>65.2</ele><time>2026-03-24T10:25:16Z</time></trkpt><trkpt lat="45.54404398066816" lon="10.719700601633246"><ele>65.0</ele><time>2026-03-24T10:25:18Z</time></trkpt><trkpt lat="45.54413859204055" lon="10.71978484737407"><ele>65.0</ele><time>2026-03-24T10:25:20Z</time></trkpt><trkpt lat="45.54423454666079" lon="10.719849562375114"><ele>65.0</ele><time>2026-03-24T10:25:22Z</time></trkpt><trkpt lat="45.54432233238379" lon="10.719924847954251"><ele>65.0</ele><time>2026-03-24T10:25:24Z</time></trkpt><trkpt lat="45.544406580063836" lon="10.719990922858486"><ele>65.0</ele><time>2026-03-24T10:25:26Z</time></trkpt><trkpt lat="45.54449526662806" lon="10.72005122702229"><ele>65.0</ele><time>2026-03-24T10:25:28Z</time></trkpt><trkpt lat="45.54457725470419" lon="10.720104643637235"><ele>64.6</ele><time>2026-03-24T10:25:30Z</time></trkpt><trkpt lat="45.54465472291119" lon="10.720156163947518"><ele>64.2</ele><time>2026-03-24T10:25:32Z</time></trkpt><trkpt lat="45.544713561140036" lon="10.720253845593886"><ele>63.8</ele><time>2026-03-24T10:25:34Z</time></trkpt><trkpt lat="45.54487474103079" lon="10.720236791796324"><ele>63.4</ele><time>2026-03-24T10:25:37Z</time></trkpt><trkpt lat="45.54493432404591" lon="10.720288277173868"><ele>63.0</ele><time>2026-03-24T10:25:41Z</time></trkpt><trkpt lat="45.54510299062869" lon="10.720261916548539"><ele>63.333333333333336</ele><time>2026-03-24T10:25:42Z</time></trkpt><trkpt lat="45.54518844714454" lon="10.720269283169028"><ele>63.66666666666667</ele><time>2026-03-24T10:25:44Z</time></trkpt><trkpt lat="45.54526679773698" lon="10.720262718538695"><ele>64.0</ele><time>2026-03-24T10:25:46.001Z</time></trkpt><trkpt lat="45.545339931522" lon="10.720246702583552"><ele>64.33333333333334</ele><time>2026-03-24T10:25:48.001Z</time></trkpt><trkpt lat="45.545424081818396" lon="10.720221931473132"><ele>64.66666666666667</ele><time>2026-03-24T10:25:50.001Z</time></trkpt><trkpt lat="45.54551022526532" lon="10.720172978045163"><ele>65.0</ele><time>2026-03-24T10:25:52.001Z</time></trkpt><trkpt lat="45.54559554627887" lon="10.720126441358408"><ele>65.0</ele><time>2026-03-24T10:25:54.001Z</time></trkpt><trkpt lat="45.54568227160686" lon="10.720076983079762"><ele>65.0</ele><time>2026-03-24T10:25:56.001Z</time></trkpt><trkpt lat="45.545759265502454" lon="10.720010195109863"><ele>65.0</ele><time>2026-03-24T10:25:58.001Z</time></trkpt><trkpt lat="45.545839008801096" lon="10.71998465090241"><ele>65.0</ele><time>2026-03-24T10:26:00.001Z</time></trkpt><trkpt lat="45.54591090202304" lon="10.719922594618419"><ele>65.0</ele><time>2026-03-24T10:26:02.001Z</time></trkpt><trkpt lat="45.54598993020863" lon="10.719856384148242"><ele>65.0</ele><time>2026-03-24T10:26:04.001Z</time></trkpt><trkpt lat="45.54603944794171" lon="10.719798304680046"><ele>65.0</ele><time>2026-03-24T10:26:06.001Z</time></trkpt><trkpt lat="45.546115006587364" lon="10.719750696650763"><ele>65.0</ele><time>2026-03-24T10:26:08.001Z</time></trkpt><trkpt lat="45.546180669625066" lon="10.719701691413839"><ele>65.0</ele><time>2026-03-24T10:26:10.001Z</time></trkpt><trkpt lat="45.546249587452074" lon="10.719680983329589"><ele>65.0</ele><time>2026-03-24T10:26:12.001Z</time></trkpt><trkpt lat="45.54631522226193" lon="10.719638131412625"><ele>65.0</ele><time>2026-03-24T10:26:15.001Z</time></trkpt><trkpt lat="45.54639064843299" lon="10.71968901450711"><ele>65.0</ele><time>2026-03-24T10:26:19.001Z</time></trkpt><trkpt lat="45.546471936030684" lon="10.719696995313765"><ele>65.33333333333334</ele><time>2026-03-24T10:26:22.001Z</time></trkpt><trkpt lat="45.54656096744641" lon="10.71965771042577"><ele>65.66666666666667</ele><time>2026-03-24T10:26:25.001Z</time></trkpt><trkpt lat="45.54662284591103" lon="10.719620498555434"><ele>66.0</ele><time>2026-03-24T10:26:27.001Z</time></trkpt><trkpt lat="45.54674245043635" lon="10.719570889577554"><ele>66.33333333333333</ele><time>2026-03-24T10:26:31Z</time></trkpt><trkpt lat="45.546800536267384" lon="10.719509723213113"><ele>66.66666666666666</ele><time>2026-03-24T10:26:33Z</time></trkpt><trkpt lat="45.546869599680484" lon="10.719464325891902"><ele>67.0</ele><time>2026-03-24T10:26:35Z</time></trkpt><trkpt lat="45.546938785915586" lon="10.719390887100891"><ele>67.0</ele><time>2026-03-24T10:26:38Z</time></trkpt><trkpt lat="45.547004729215516" lon="10.719336931251872"><ele>67.0</ele><time>2026-03-24T10:26:42Z</time></trkpt><trkpt lat="45.54707160908553" lon="10.719290135951814"><ele>67.0</ele><time>2026-03-24T10:26:46Z</time></trkpt><trkpt lat="45.5471551314972" lon="10.719212483330034"><ele>67.0</ele><time>2026-03-24T10:26:49Z</time></trkpt><trkpt lat="45.54721392433078" lon="10.719168129831937"><ele>67.0</ele><time>2026-03-24T10:26:51Z</time></trkpt><trkpt lat="45.54729046621326" lon="10.719086481890171"><ele>67.0</ele><time>2026-03-24T10:26:54Z</time></trkpt><trkpt lat="45.547337292235724" lon="10.719018510090313"><ele>67.0</ele><time>2026-03-24T10:26:56Z</time></trkpt><trkpt lat="45.547411305130844" lon="10.718926871743315"><ele>67.0</ele><time>2026-03-24T10:26:59Z</time></trkpt><trkpt lat="45.54746740921475" lon="10.718877604822705"><ele>67.0</ele><time>2026-03-24T10:27:01Z</time></trkpt><trkpt lat="45.54752630285522" lon="10.718816200565298"><ele>67.0</ele><time>2026-03-24T10:27:03Z</time></trkpt><trkpt lat="45.54759319631417" lon="10.718745437098406"><ele>67.0</ele><time>2026-03-24T10:27:05Z</time></trkpt><trkpt lat="45.54765982919052" lon="10.718673426752925"><ele>67.0</ele><time>2026-03-24T10:27:07Z</time></trkpt><trkpt lat="45.54773219223515" lon="10.718613737365883"><ele>66.83333333333333</ele><time>2026-03-24T10:27:09Z</time></trkpt><trkpt lat="45.547808678599814" lon="10.718557893096946"><ele>66.66666666666666</ele><time>2026-03-24T10:27:11Z</time></trkpt><trkpt lat="45.54788004499929" lon="10.718511083524122"><ele>66.5</ele><time>2026-03-24T10:27:13Z</time></trkpt><trkpt lat="45.54795376540023" lon="10.718448664329168"><ele>66.33333333333333</ele><time>2026-03-24T10:27:15Z</time></trkpt><trkpt lat="45.548014748684096" lon="10.718370332028817"><ele>66.16666666666667</ele><time>2026-03-24T10:27:17Z</time></trkpt><trkpt lat="45.54807627632496" lon="10.71829015024947"><ele>66.0</ele><time>2026-03-24T10:27:19Z</time></trkpt><trkpt lat="45.54814393252785" lon="10.718225340110562"><ele>66.0</ele><time>2026-03-24T10:27:21Z</time></trkpt><trkpt lat="45.54822171761417" lon="10.718185272208563"><ele>66.0</ele><time>2026-03-24T10:27:23Z</time></trkpt><trkpt lat="45.54830219230648" lon="10.718142337853362"><ele>66.0</ele><time>2026-03-24T10:27:25Z</time></trkpt><trkpt lat="45.54838034027615" lon="10.718092526397474"><ele>66.0</ele><time>2026-03-24T10:27:27Z</time></trkpt><trkpt lat="45.54845630966503" lon="10.718036186870046"><ele>66.0</ele><time>2026-03-24T10:27:29Z</time></trkpt><trkpt lat="45.54853151944405" lon="10.717976943367768"><ele>66.0</ele><time>2026-03-24T10:27:31Z</time></trkpt><trkpt lat="45.54859770736126" lon="10.717912827277583"><ele>66.0</ele><time>2026-03-24T10:27:33Z</time></trkpt><trkpt lat="45.54867545798212" lon="10.7178603314445"><ele>66.0</ele><time>2026-03-24T10:27:35Z</time></trkpt><trkpt lat="45.54874366936504" lon="10.71780311476501"><ele>66.0</ele><time>2026-03-24T10:27:37Z</time></trkpt><trkpt lat="45.54880883061198" lon="10.717751220984862"><ele>66.0</ele><time>2026-03-24T10:27:39Z</time></trkpt><trkpt lat="45.54886323275659" lon="10.71768817928876"><ele>66.0</ele><time>2026-03-24T10:27:42Z</time></trkpt><trkpt lat="45.5489289775771" lon="10.717625856969923"><ele>66.0</ele><time>2026-03-24T10:27:46Z</time></trkpt><trkpt lat="45.54897775502468" lon="10.717561467902721"><ele>66.0</ele><time>2026-03-24T10:27:48Z</time></trkpt><trkpt lat="45.54905206787659" lon="10.717469441868223"><ele>66.0</ele><time>2026-03-24T10:27:51Z</time></trkpt><trkpt lat="45.5491066868971" lon="10.717389328309556"><ele>66.0</ele><time>2026-03-24T10:27:53Z</time></trkpt><trkpt lat="45.54916563631098" lon="10.717309723537394"><ele>66.0</ele><time>2026-03-24T10:27:55Z</time></trkpt><trkpt lat="45.54920703642537" lon="10.717213590955074"><ele>66.0</ele><time>2026-03-24T10:27:57Z</time></trkpt><trkpt lat="45.5492377091349" lon="10.717108564361663"><ele>66.0</ele><time>2026-03-24T10:27:59Z</time></trkpt><trkpt lat="45.549265601096444" lon="10.716998999986211"><ele>65.5</ele><time>2026-03-24T10:28:01Z</time></trkpt><trkpt lat="45.54928003651878" lon="10.716880149926919"><ele>65.0</ele><time>2026-03-24T10:28:03Z</time></trkpt><trkpt lat="45.54928443225143" lon="10.716770370133064"><ele>64.5</ele><time>2026-03-24T10:28:05Z</time></trkpt><trkpt lat="45.54929768142519" lon="10.71665888425651"><ele>64.0</ele><time>2026-03-24T10:28:07Z</time></trkpt><trkpt lat="45.54931131687258" lon="10.716547251376904"><ele>63.5</ele><time>2026-03-24T10:28:09Z</time></trkpt><trkpt lat="45.5493166892759" lon="10.716438216045995"><ele>63.0</ele><time>2026-03-24T10:28:11Z</time></trkpt><trkpt lat="45.54932656280638" lon="10.716322519224908"><ele>63.0</ele><time>2026-03-24T10:28:13Z</time></trkpt><trkpt lat="45.54932776204015" lon="10.71620179847924"><ele>63.0</ele><time>2026-03-24T10:28:15.001Z</time></trkpt><trkpt lat="45.549330881241545" lon="10.716087030742324"><ele>63.0</ele><time>2026-03-24T10:28:17.001Z</time></trkpt><trkpt lat="45.54934212354952" lon="10.71597308407687"><ele>63.0</ele><time>2026-03-24T10:28:19.001Z</time></trkpt><trkpt lat="45.54935563879634" lon="10.715863569519707"><ele>63.0</ele><time>2026-03-24T10:28:21.001Z</time></trkpt><trkpt lat="45.54937229610526" lon="10.715751778296088"><ele>63.0</ele><time>2026-03-24T10:28:23.001Z</time></trkpt><trkpt lat="45.54937303515548" lon="10.715661848274653"><ele>63.166666666666664</ele><time>2026-03-24T10:28:25.001Z</time></trkpt><trkpt lat="45.54938418405073" lon="10.71556717709022"><ele>63.33333333333333</ele><time>2026-03-24T10:28:27.001Z</time></trkpt><trkpt lat="45.549385483933726" lon="10.71543481921005"><ele>63.5</ele><time>2026-03-24T10:28:30.001Z</time></trkpt><trkpt lat="45.54939830918256" lon="10.715314773527929"><ele>63.666666666666664</ele><time>2026-03-24T10:28:33.001Z</time></trkpt><trkpt lat="45.54941644207908" lon="10.715223212120033"><ele>63.83333333333333</ele><time>2026-03-24T10:28:36Z</time></trkpt><trkpt lat="45.54950438824486" lon="10.71520539079208"><ele>64.0</ele><time>2026-03-24T10:28:40Z</time></trkpt><trkpt lat="45.54958704656861" lon="10.715207229000585"><ele>63.71428571428571</ele><time>2026-03-24T10:28:43Z</time></trkpt><trkpt lat="45.549638298224885" lon="10.71526281455671"><ele>63.42857142857142</ele><time>2026-03-24T10:28:45Z</time></trkpt><trkpt lat="45.549659342830985" lon="10.715365802291606"><ele>63.14285714285714</ele><time>2026-03-24T10:28:47Z</time></trkpt><trkpt lat="45.54967698209276" lon="10.71546361652461"><ele>62.85714285714286</ele><time>2026-03-24T10:28:49Z</time></trkpt><trkpt lat="45.549696367216384" lon="10.715564087608044"><ele>62.57142857142858</ele><time>2026-03-24T10:28:51Z</time></trkpt><trkpt lat="45.549723312487174" lon="10.715667541997734"><ele>62.28571428571429</ele><time>2026-03-24T10:28:53Z</time></trkpt><trkpt lat="45.549752503295316" lon="10.715758102023043"><ele>62.0</ele><time>2026-03-24T10:28:55Z</time></trkpt><trkpt lat="45.54979244240069" lon="10.715849439032548"><ele>62.0</ele><time>2026-03-24T10:28:57Z</time></trkpt><trkpt lat="45.54982788543377" lon="10.715941131861726"><ele>62.00000000000001</ele><time>2026-03-24T10:28:59Z</time></trkpt><trkpt lat="45.54985952750513" lon="10.716041947854531"><ele>62.0</ele><time>2026-03-24T10:29:01Z</time></trkpt><trkpt lat="45.54989790640154" lon="10.716120322444311"><ele>62.0</ele><time>2026-03-24T10:29:03Z</time></trkpt><trkpt lat="45.54994654907956" lon="10.716228275735796"><ele>62.00000000000001</ele><time>2026-03-24T10:29:05Z</time></trkpt><trkpt lat="45.54999454717004" lon="10.716310806949092"><ele>62.0</ele><time>2026-03-24T10:29:07Z</time></trkpt><trkpt lat="45.55002666076168" lon="10.716393554174692"><ele>62.0</ele><time>2026-03-24T10:29:09Z</time></trkpt><trkpt lat="45.550075208503614" lon="10.716492046332494"><ele>62.5</ele><time>2026-03-24T10:29:11Z</time></trkpt><trkpt lat="45.550112312963996" lon="10.716607295885455"><ele>63.0</ele><time>2026-03-24T10:29:13Z</time></trkpt><trkpt lat="45.55011168125404" lon="10.716747336644227"><ele>63.5</ele><time>2026-03-24T10:29:15Z</time></trkpt><trkpt lat="45.55018583798097" lon="10.716850485643409"><ele>64.0</ele><time>2026-03-24T10:29:17Z</time></trkpt><trkpt lat="45.55026437258283" lon="10.717060450654015"><ele>64.0</ele><time>2026-03-24T10:29:20Z</time></trkpt><trkpt lat="45.55034150258044" lon="10.717187792420951"><ele>64.0</ele><time>2026-03-24T10:29:22Z</time></trkpt><trkpt lat="45.550398684207735" lon="10.717318700499737"><ele>64.0</ele><time>2026-03-24T10:29:24Z</time></trkpt><trkpt lat="45.550461839303885" lon="10.717445523036073"><ele>64.0</ele><time>2026-03-24T10:29:26Z</time></trkpt><trkpt lat="45.550524862221465" lon="10.717573301077278"><ele>64.0</ele><time>2026-03-24T10:29:28Z</time></trkpt><trkpt lat="45.550609404546734" lon="10.717683147913776"><ele>64.8</ele><time>2026-03-24T10:29:30Z</time></trkpt><trkpt lat="45.55070472505617" lon="10.717766106976413"><ele>65.60000000000001</ele><time>2026-03-24T10:29:32Z</time></trkpt><trkpt lat="45.55081270430136" lon="10.717772496215744"><ele>66.4</ele><time>2026-03-24T10:29:34Z</time></trkpt><trkpt lat="45.550896909451474" lon="10.717800373295711"><ele>67.2</ele><time>2026-03-24T10:29:36Z</time></trkpt><trkpt lat="45.55099921503215" lon="10.717835433767934"><ele>68.0</ele><time>2026-03-24T10:29:38.001Z</time></trkpt><trkpt lat="45.55111317233081" lon="10.717890746566109"><ele>68.0</ele><time>2026-03-24T10:29:39.001Z</time></trkpt><trkpt lat="45.551176887716366" lon="10.717914371784598"><ele>68.0</ele><time>2026-03-24T10:29:40.001Z</time></trkpt><trkpt lat="45.55124628725661" lon="10.717935591607445"><ele>68.0</ele><time>2026-03-24T10:29:41.001Z</time></trkpt><trkpt lat="45.5513672521097" lon="10.71798425252466"><ele>68.0</ele><time>2026-03-24T10:29:43.001Z</time></trkpt><trkpt lat="45.551482317244705" lon="10.71800651287548"><ele>68.0</ele><time>2026-03-24T10:29:45.001Z</time></trkpt><trkpt lat="45.55158738421787" lon="10.718035025006047"><ele>67.8</ele><time>2026-03-24T10:29:47.001Z</time></trkpt><trkpt lat="45.5516886186316" lon="10.71807133907185"><ele>67.6</ele><time>2026-03-24T10:29:49.001Z</time></trkpt><trkpt lat="45.55178023499178" lon="10.71811612342168"><ele>67.4</ele><time>2026-03-24T10:29:51.001Z</time></trkpt><trkpt lat="45.55181967444051" lon="10.718200034439604"><ele>67.2</ele><time>2026-03-24T10:29:54.001Z</time></trkpt><trkpt lat="45.551916043539514" lon="10.718277597606175"><ele>67.0</ele><time>2026-03-24T10:29:55.001Z</time></trkpt><trkpt lat="45.55191295082181" lon="10.718405533721413"><ele>67.0</ele><time>2026-03-24T10:29:57.001Z</time></trkpt><trkpt lat="45.551899773765925" lon="10.718547001971627"><ele>67.0</ele><time>2026-03-24T10:29:59.001Z</time></trkpt><trkpt lat="45.551927364988586" lon="10.718680529141896"><ele>67.0</ele><time>2026-03-24T10:30:01.001Z</time></trkpt><trkpt lat="45.5519403000385" lon="10.718783769165384"><ele>67.0</ele><time>2026-03-24T10:30:03.001Z</time></trkpt><trkpt lat="45.55194712592619" lon="10.718878924723217"><ele>67.0</ele><time>2026-03-24T10:30:05.001Z</time></trkpt><trkpt lat="45.55199007868273" lon="10.718963761563707"><ele>67.0</ele><time>2026-03-24T10:30:07.001Z</time></trkpt><trkpt lat="45.552050402528074" lon="10.719004906503715"><ele>67.5</ele><time>2026-03-24T10:30:09.001Z</time></trkpt><trkpt lat="45.552135073236656" lon="10.719028483303669"><ele>68.0</ele><time>2026-03-24T10:30:12.001Z</time></trkpt><trkpt lat="45.5522006557089" lon="10.719000184376121"><ele>68.5</ele><time>2026-03-24T10:30:14.001Z</time></trkpt><trkpt lat="45.55231781295174" lon="10.71889942114581"><ele>69.0</ele><time>2026-03-24T10:30:15.001Z</time></trkpt><trkpt lat="45.55238389138332" lon="10.71883928119731"><ele>69.5</ele><time>2026-03-24T10:30:18.001Z</time></trkpt><trkpt lat="45.5524586490343" lon="10.718824623300742"><ele>70.0</ele><time>2026-03-24T10:30:20.001Z</time></trkpt><trkpt lat="45.552532832333476" lon="10.718872009719016"><ele>70.0</ele><time>2026-03-24T10:30:22.001Z</time></trkpt><trkpt lat="45.55261949024713" lon="10.718813144633252"><ele>70.0</ele><time>2026-03-24T10:30:24.001Z</time></trkpt><trkpt lat="45.55272430087973" lon="10.718752428375792"><ele>70.0</ele><time>2026-03-24T10:30:26.001Z</time></trkpt><trkpt lat="45.55282346002064" lon="10.71868574387439"><ele>70.0</ele><time>2026-03-24T10:30:28.001Z</time></trkpt><trkpt lat="45.5529254322266" lon="10.718608248832997"><ele>70.0</ele><time>2026-03-24T10:30:30.001Z</time></trkpt><trkpt lat="45.553018527977464" lon="10.718536997946497"><ele>69.2</ele><time>2026-03-24T10:30:32.001Z</time></trkpt><trkpt lat="45.553114886259735" lon="10.718481669878637"><ele>68.4</ele><time>2026-03-24T10:30:34.001Z</time></trkpt><trkpt lat="45.55320177776836" lon="10.718418732327493"><ele>67.6</ele><time>2026-03-24T10:30:36.001Z</time></trkpt><trkpt lat="45.553284681599195" lon="10.718357367163158"><ele>66.8</ele><time>2026-03-24T10:30:38.001Z</time></trkpt><trkpt lat="45.55336497779129" lon="10.718306356013757"><ele>66.0</ele><time>2026-03-24T10:30:40.001Z</time></trkpt><trkpt lat="45.55343484888792" lon="10.718325448005292"><ele>66.0</ele><time>2026-03-24T10:30:43.001Z</time></trkpt><trkpt lat="45.55348884386221" lon="10.718278647830646"><ele>66.0</ele><time>2026-03-24T10:30:45.001Z</time></trkpt><trkpt lat="45.55357353654706" lon="10.718243727203655"><ele>66.0</ele><time>2026-03-24T10:30:48.001Z</time></trkpt><trkpt lat="45.553636767991634" lon="10.71820070975798"><ele>66.0</ele><time>2026-03-24T10:30:50.001Z</time></trkpt><trkpt lat="45.553695381189854" lon="10.718143042266972"><ele>66.0</ele><time>2026-03-24T10:30:52.001Z</time></trkpt><trkpt lat="45.55375930315977" lon="10.71813169736981"><ele>66.0</ele><time>2026-03-24T10:30:54.001Z</time></trkpt><trkpt lat="45.55405499027527" lon="10.717912270245884"><ele>66.0</ele><time>2026-03-24T10:30:57Z</time></trkpt><trkpt lat="45.5541598710705" lon="10.717872355010298"><ele>66.0</ele><time>2026-03-24T10:30:59Z</time></trkpt><trkpt lat="45.55425533014352" lon="10.717819452871543"><ele>66.0</ele><time>2026-03-24T10:31:01Z</time></trkpt><trkpt lat="45.55435120075155" lon="10.717772397089297"><ele>66.0</ele><time>2026-03-24T10:31:03Z</time></trkpt><trkpt lat="45.55444234162599" lon="10.717712535666642"><ele>66.0</ele><time>2026-03-24T10:31:05Z</time></trkpt><trkpt lat="45.554528191638035" lon="10.717660024775217"><ele>66.16666666666667</ele><time>2026-03-24T10:31:07Z</time></trkpt><trkpt lat="45.5546126137538" lon="10.717608237367328"><ele>66.33333333333333</ele><time>2026-03-24T10:31:09Z</time></trkpt><trkpt lat="45.55469704940635" lon="10.7175701035076"><ele>66.5</ele><time>2026-03-24T10:31:11Z</time></trkpt><trkpt lat="45.55477776045828" lon="10.717527113355775"><ele>66.66666666666666</ele><time>2026-03-24T10:31:13Z</time></trkpt><trkpt lat="45.55486200133432" lon="10.717482109976677"><ele>66.83333333333333</ele><time>2026-03-24T10:31:15Z</time></trkpt><trkpt lat="45.55494150539653" lon="10.71742686327501"><ele>67.0</ele><time>2026-03-24T10:31:17Z</time></trkpt><trkpt lat="45.55500053024743" lon="10.717393043272082"><ele>67.0</ele><time>2026-03-24T10:31:20Z</time></trkpt><trkpt lat="45.55506766200314" lon="10.717374165554814"><ele>67.0</ele><time>2026-03-24T10:31:22Z</time></trkpt><trkpt lat="45.55513111442849" lon="10.717345242514426"><ele>67.0</ele><time>2026-03-24T10:31:24Z</time></trkpt><trkpt lat="45.5553014039936" lon="10.71722978837076"><ele>67.0</ele><time>2026-03-24T10:31:26Z</time></trkpt><trkpt lat="45.55539063186847" lon="10.71718292969399"><ele>67.0</ele><time>2026-03-24T10:31:28Z</time></trkpt><trkpt lat="45.555472363731205" lon="10.717129050277755"><ele>66.6</ele><time>2026-03-24T10:31:30Z</time></trkpt><trkpt lat="45.5555672336534" lon="10.717070865609045"><ele>66.2</ele><time>2026-03-24T10:31:32Z</time></trkpt><trkpt lat="45.55568103077154" lon="10.717020411242602"><ele>65.8</ele><time>2026-03-24T10:31:34Z</time></trkpt><trkpt lat="45.55578463690509" lon="10.71696730213972"><ele>65.4</ele><time>2026-03-24T10:31:36Z</time></trkpt><trkpt lat="45.55587709038508" lon="10.716925603684398"><ele>65.0</ele><time>2026-03-24T10:31:38Z</time></trkpt><trkpt lat="45.55596342936253" lon="10.71687606456399"><ele>65.0</ele><time>2026-03-24T10:31:40Z</time></trkpt><trkpt lat="45.55605530781308" lon="10.716836530286761"><ele>65.0</ele><time>2026-03-24T10:31:42Z</time></trkpt><trkpt lat="45.55614849453036" lon="10.716785784792215"><ele>65.0</ele><time>2026-03-24T10:31:44Z</time></trkpt><trkpt lat="45.55623143272669" lon="10.7167497880584"><ele>65.0</ele><time>2026-03-24T10:31:46Z</time></trkpt><trkpt lat="45.55630996524005" lon="10.71672414561367"><ele>65.0</ele><time>2026-03-24T10:31:48Z</time></trkpt><trkpt lat="45.556389049849244" lon="10.716669625360016"><ele>65.83333333333334</ele><time>2026-03-24T10:31:50Z</time></trkpt><trkpt lat="45.55646857679479" lon="10.71663616298819"><ele>66.66666666666667</ele><time>2026-03-24T10:31:53.001Z</time></trkpt><trkpt lat="45.55654676970383" lon="10.716593095303336"><ele>67.5</ele><time>2026-03-24T10:31:56.001Z</time></trkpt><trkpt lat="45.55662802257184" lon="10.71654931203827"><ele>68.33333333333333</ele><time>2026-03-24T10:31:59.001Z</time></trkpt><trkpt lat="45.55669537170431" lon="10.716521718199997"><ele>69.16666666666666</ele><time>2026-03-24T10:32:02.001Z</time></trkpt><trkpt lat="45.55678342855754" lon="10.71646547363407"><ele>70.0</ele><time>2026-03-24T10:32:05.001Z</time></trkpt><trkpt lat="45.55685482278968" lon="10.716430341910053"><ele>70.0</ele><time>2026-03-24T10:32:07.001Z</time></trkpt><trkpt lat="45.556928169723605" lon="10.716386055244602"><ele>70.0</ele><time>2026-03-24T10:32:09.001Z</time></trkpt><trkpt lat="45.5570108600487" lon="10.7163563825918"><ele>70.0</ele><time>2026-03-24T10:32:11.001Z</time></trkpt><trkpt lat="45.55709061977748" lon="10.716333347078804"><ele>70.0</ele><time>2026-03-24T10:32:13.001Z</time></trkpt><trkpt lat="45.55716072507869" lon="10.716291777862379"><ele>70.0</ele><time>2026-03-24T10:32:15.001Z</time></trkpt><trkpt lat="45.55723786368269" lon="10.716245812896602"><ele>70.0</ele><time>2026-03-24T10:32:17.001Z</time></trkpt><trkpt lat="45.55730641883799" lon="10.716204373547527"><ele>70.6</ele><time>2026-03-24T10:32:19.001Z</time></trkpt><trkpt lat="45.55739336227939" lon="10.716143179390793"><ele>71.2</ele><time>2026-03-24T10:32:21.001Z</time></trkpt><trkpt lat="45.55746937638225" lon="10.716098163513179"><ele>71.8</ele><time>2026-03-24T10:32:23.001Z</time></trkpt><trkpt lat="45.557552861309574" lon="10.716050716509594"><ele>72.4</ele><time>2026-03-24T10:32:25.001Z</time></trkpt><trkpt lat="45.55762748008803" lon="10.715990118874332"><ele>73.0</ele><time>2026-03-24T10:32:27.001Z</time></trkpt><trkpt lat="45.55772004575834" lon="10.71594018093786"><ele>71.83333333333333</ele><time>2026-03-24T10:32:29.001Z</time></trkpt><trkpt lat="45.55780349810262" lon="10.715907780696005"><ele>70.66666666666666</ele><time>2026-03-24T10:32:31.001Z</time></trkpt><trkpt lat="45.55789454545043" lon="10.715863986550387"><ele>69.5</ele><time>2026-03-24T10:32:33.001Z</time></trkpt><trkpt lat="45.55796831143307" lon="10.71581058699226"><ele>68.33333333333333</ele><time>2026-03-24T10:32:35.001Z</time></trkpt><trkpt lat="45.55805170459443" lon="10.715764184236392"><ele>67.16666666666667</ele><time>2026-03-24T10:32:37.001Z</time></trkpt><trkpt lat="45.55811983447671" lon="10.71572124468166"><ele>66.0</ele><time>2026-03-24T10:32:39.001Z</time></trkpt><trkpt lat="45.55822856298724" lon="10.715709945240873"><ele>66.0</ele><time>2026-03-24T10:32:41.001Z</time></trkpt><trkpt lat="45.55831279831311" lon="10.715647072977749"><ele>66.0</ele><time>2026-03-24T10:32:43.001Z</time></trkpt><trkpt lat="45.558392509365994" lon="10.715590460293907"><ele>66.0</ele><time>2026-03-24T10:32:45.001Z</time></trkpt><trkpt lat="45.55847843379971" lon="10.71555020453654"><ele>66.0</ele><time>2026-03-24T10:32:47.001Z</time></trkpt><trkpt lat="45.558553603342475" lon="10.715495691235455"><ele>66.0</ele><time>2026-03-24T10:32:48.999Z</time></trkpt><trkpt lat="45.55862665247221" lon="10.71545437412323"><ele>66.0</ele><time>2026-03-24T10:32:50.999Z</time></trkpt><trkpt lat="45.5587214420326" lon="10.715403873056054"><ele>66.0</ele><time>2026-03-24T10:32:53.999Z</time></trkpt><trkpt lat="45.558801129608376" lon="10.71535510684756"><ele>66.0</ele><time>2026-03-24T10:32:55.999Z</time></trkpt><trkpt lat="45.55888050742572" lon="10.715317042310149"><ele>66.0</ele><time>2026-03-24T10:32:57.999Z</time></trkpt><trkpt lat="45.558955266380465" lon="10.71527882783171"><ele>66.0</ele><time>2026-03-24T10:32:59.999Z</time></trkpt><trkpt lat="45.559047632323896" lon="10.715226861191246"><ele>66.0</ele><time>2026-03-24T10:33:01.999Z</time></trkpt><trkpt lat="45.55911485832313" lon="10.715180395646076"><ele>66.0</ele><time>2026-03-24T10:33:03.999Z</time></trkpt><trkpt lat="45.55920027412027" lon="10.715151278343258"><ele>66.0</ele><time>2026-03-24T10:33:06Z</time></trkpt><trkpt lat="45.559284053087865" lon="10.715114484260853"><ele>66.0</ele><time>2026-03-24T10:33:08Z</time></trkpt><trkpt lat="45.559369400132134" lon="10.715086568023489"><ele>66.0</ele><time>2026-03-24T10:33:11Z</time></trkpt><trkpt lat="45.55945066514194" lon="10.715068026056988"><ele>66.0</ele><time>2026-03-24T10:33:13Z</time></trkpt><trkpt lat="45.55953309501208" lon="10.715016475181429"><ele>66.0</ele><time>2026-03-24T10:33:15Z</time></trkpt><trkpt lat="45.55958722213309" lon="10.714960641261461"><ele>66.0</ele><time>2026-03-24T10:33:18Z</time></trkpt><trkpt lat="45.55964366908159" lon="10.71491401218298"><ele>66.5</ele><time>2026-03-24T10:33:20Z</time></trkpt><trkpt lat="45.55973300290571" lon="10.714870126441985"><ele>67.0</ele><time>2026-03-24T10:33:22Z</time></trkpt><trkpt lat="45.55979890406273" lon="10.714827285576934"><ele>67.5</ele><time>2026-03-24T10:33:24Z</time></trkpt><trkpt lat="45.559967847378935" lon="10.714697382053833"><ele>68.0</ele><time>2026-03-24T10:33:26Z</time></trkpt><trkpt lat="45.560069318032745" lon="10.714642376149135"><ele>68.0</ele><time>2026-03-24T10:33:28Z</time></trkpt><trkpt lat="45.56016637963509" lon="10.71459175872698"><ele>68.0</ele><time>2026-03-24T10:33:30Z</time></trkpt><trkpt lat="45.56025975097202" lon="10.7145394208833"><ele>68.0</ele><time>2026-03-24T10:33:32Z</time></trkpt><trkpt lat="45.56033928658832" lon="10.714480851792779"><ele>68.0</ele><time>2026-03-24T10:33:34Z</time></trkpt><trkpt lat="45.56042825382461" lon="10.714410559815757"><ele>68.0</ele><time>2026-03-24T10:33:37Z</time></trkpt><trkpt lat="45.56049128705028" lon="10.714354263404251"><ele>68.2</ele><time>2026-03-24T10:33:39Z</time></trkpt><trkpt lat="45.5605518485356" lon="10.714287047108588"><ele>68.4</ele><time>2026-03-24T10:33:41Z</time></trkpt><trkpt lat="45.56063135313598" lon="10.714255704049746"><ele>68.60000000000001</ele><time>2026-03-24T10:33:43Z</time></trkpt><trkpt lat="45.56075950184713" lon="10.714247939478948"><ele>68.8</ele><time>2026-03-24T10:33:45Z</time></trkpt><trkpt lat="45.56078311056547" lon="10.714163309632555"><ele>69.0</ele><time>2026-03-24T10:33:49Z</time></trkpt><trkpt lat="45.560967647354374" lon="10.71409556184579"><ele>69.0</ele><time>2026-03-24T10:33:51Z</time></trkpt><trkpt lat="45.56102865703223" lon="10.714059344140075"><ele>69.0</ele><time>2026-03-24T10:33:54Z</time></trkpt><trkpt lat="45.5611084327322" lon="10.714021205524833"><ele>69.0</ele><time>2026-03-24T10:33:57Z</time></trkpt><trkpt lat="45.5612063191267" lon="10.713937949048749"><ele>69.0</ele><time>2026-03-24T10:33:59Z</time></trkpt><trkpt lat="45.56130705131774" lon="10.71388425565487"><ele>69.0</ele><time>2026-03-24T10:34:01Z</time></trkpt><trkpt lat="45.56137008719573" lon="10.713878690465341"><ele>69.0</ele><time>2026-03-24T10:34:02Z</time></trkpt><trkpt lat="45.561460700849736" lon="10.713802609595296"><ele>68.60000000000001</ele><time>2026-03-24T10:34:04Z</time></trkpt><trkpt lat="45.56154705187376" lon="10.713722063366914"><ele>68.2</ele><time>2026-03-24T10:34:06Z</time></trkpt><trkpt lat="45.561642324031524" lon="10.713640622086992"><ele>67.80000000000001</ele><time>2026-03-24T10:34:08Z</time></trkpt><trkpt lat="45.56172902300992" lon="10.713582474452869"><ele>67.4</ele><time>2026-03-24T10:34:10Z</time></trkpt><trkpt lat="45.56180933615409" lon="10.71351415333095"><ele>67.0</ele><time>2026-03-24T10:34:13Z</time></trkpt><trkpt lat="45.561931239316536" lon="10.713402758155187"><ele>67.0</ele><time>2026-03-24T10:34:15Z</time></trkpt><trkpt lat="45.5620234412975" lon="10.713358178510179"><ele>67.0</ele><time>2026-03-24T10:34:17Z</time></trkpt><trkpt lat="45.562112987793014" lon="10.713294536369151"><ele>67.0</ele><time>2026-03-24T10:34:19Z</time></trkpt><trkpt lat="45.56221182946122" lon="10.713201151165197"><ele>67.0</ele><time>2026-03-24T10:34:21Z</time></trkpt><trkpt lat="45.562318858723906" lon="10.713125195438826"><ele>67.0</ele><time>2026-03-24T10:34:23Z</time></trkpt><trkpt lat="45.562414572493246" lon="10.71304597686448"><ele>67.16666666666666</ele><time>2026-03-24T10:34:25Z</time></trkpt><trkpt lat="45.562492663610605" lon="10.712975566786938"><ele>67.33333333333333</ele><time>2026-03-24T10:34:27Z</time></trkpt><trkpt lat="45.56256742784467" lon="10.712921193513566"><ele>67.5</ele><time>2026-03-24T10:34:29Z</time></trkpt><trkpt lat="45.56263449422797" lon="10.712871704237367"><ele>67.66666666666667</ele><time>2026-03-24T10:34:31Z</time></trkpt><trkpt lat="45.56270263669386" lon="10.712872380406006"><ele>67.83333333333334</ele><time>2026-03-24T10:34:33Z</time></trkpt><trkpt lat="45.562755384375535" lon="10.71281646452374"><ele>68.0</ele><time>2026-03-24T10:34:36Z</time></trkpt><trkpt lat="45.562833528316936" lon="10.71275145009425"><ele>68.2</ele><time>2026-03-24T10:34:39Z</time></trkpt><trkpt lat="45.56290094195876" lon="10.712740177177988"><ele>68.4</ele><time>2026-03-24T10:34:41Z</time></trkpt><trkpt lat="45.563000405255195" lon="10.712643057133455"><ele>68.60000000000001</ele><time>2026-03-24T10:34:43Z</time></trkpt><trkpt lat="45.56308399869735" lon="10.712558996139618"><ele>68.8</ele><time>2026-03-24T10:34:45Z</time></trkpt><trkpt lat="45.56315291584055" lon="10.71248075683036"><ele>69.0</ele><time>2026-03-24T10:34:47Z</time></trkpt><trkpt lat="45.563214994971545" lon="10.712414275064955"><ele>68.5</ele><time>2026-03-24T10:34:49Z</time></trkpt><trkpt lat="45.56324111341282" lon="10.712299158334286"><ele>68.0</ele><time>2026-03-24T10:34:53Z</time></trkpt><trkpt lat="45.56330774366201" lon="10.712241538907277"><ele>67.5</ele><time>2026-03-24T10:34:54.999Z</time></trkpt><trkpt lat="45.563388655512725" lon="10.712159604181396"><ele>67.0</ele><time>2026-03-24T10:34:56.999Z</time></trkpt><trkpt lat="45.563464186459676" lon="10.7120861179171"><ele>66.5</ele><time>2026-03-24T10:34:58.999Z</time></trkpt><trkpt lat="45.563534815974855" lon="10.71201013737506"><ele>66.0</ele><time>2026-03-24T10:35:00.999Z</time></trkpt><trkpt lat="45.56367064998898" lon="10.711972865770827"><ele>66.33333333333333</ele><time>2026-03-24T10:35:02.999Z</time></trkpt><trkpt lat="45.56372881969521" lon="10.711903793525515"><ele>66.66666666666667</ele><time>2026-03-24T10:35:04.999Z</time></trkpt><trkpt lat="45.56379659811143" lon="10.711840397793903"><ele>67.0</ele><time>2026-03-24T10:35:06.999Z</time></trkpt><trkpt lat="45.56386374460062" lon="10.711759076963576"><ele>67.33333333333334</ele><time>2026-03-24T10:35:08.999Z</time></trkpt><trkpt lat="45.563916459076594" lon="10.711683863256455"><ele>67.66666666666667</ele><time>2026-03-24T10:35:10.999Z</time></trkpt><trkpt lat="45.56399253815631" lon="10.71161376278167"><ele>68.0</ele><time>2026-03-24T10:35:12.999Z</time></trkpt><trkpt lat="45.56405591379514" lon="10.711544235029054"><ele>68.0</ele><time>2026-03-24T10:35:14.999Z</time></trkpt><trkpt lat="45.564126263746736" lon="10.711467393359822"><ele>68.0</ele><time>2026-03-24T10:35:16.999Z</time></trkpt><trkpt lat="45.5641803651197" lon="10.711393000889052"><ele>68.0</ele><time>2026-03-24T10:35:18.999Z</time></trkpt><trkpt lat="45.56422551119763" lon="10.71133027330139"><ele>68.0</ele><time>2026-03-24T10:35:20.999Z</time></trkpt><trkpt lat="45.56428354686978" lon="10.71126760402641"><ele>68.0</ele><time>2026-03-24T10:35:24.999Z</time></trkpt><trkpt lat="45.564332758227074" lon="10.711182368113116"><ele>68.0</ele><time>2026-03-24T10:35:29.999Z</time></trkpt><trkpt lat="45.56441898158557" lon="10.711133272127128"><ele>68.0</ele><time>2026-03-24T10:35:32.999Z</time></trkpt><trkpt lat="45.564490577972244" lon="10.711133275158941"><ele>68.0</ele><time>2026-03-24T10:35:36Z</time></trkpt><trkpt lat="45.564554049091484" lon="10.711082571519592"><ele>68.0</ele><time>2026-03-24T10:35:39Z</time></trkpt><trkpt lat="45.56460836539975" lon="10.711035284271913"><ele>68.0</ele><time>2026-03-24T10:35:41Z</time></trkpt><trkpt lat="45.564677344816054" lon="10.710958473820593"><ele>68.0</ele><time>2026-03-24T10:35:44Z</time></trkpt><trkpt lat="45.5647693824349" lon="10.710883469805207"><ele>68.0</ele><time>2026-03-24T10:35:47Z</time></trkpt><trkpt lat="45.56485347268886" lon="10.71081957976881"><ele>68.4</ele><time>2026-03-24T10:35:50Z</time></trkpt><trkpt lat="45.56494378128217" lon="10.710773449585801"><ele>68.8</ele><time>2026-03-24T10:35:53Z</time></trkpt><trkpt lat="45.56503517369165" lon="10.710734209341524"><ele>69.2</ele><time>2026-03-24T10:35:56Z</time></trkpt><trkpt lat="45.56513387198974" lon="10.710694164055072"><ele>69.6</ele><time>2026-03-24T10:35:58Z</time></trkpt><trkpt lat="45.56521486056279" lon="10.710663648899022"><ele>70.0</ele><time>2026-03-24T10:36:00Z</time></trkpt><trkpt lat="45.565292587694074" lon="10.710612378023445"><ele>71.14285714285714</ele><time>2026-03-24T10:36:02Z</time></trkpt><trkpt lat="45.56536360979394" lon="10.710578764864007"><ele>72.28571428571428</ele><time>2026-03-24T10:36:04Z</time></trkpt><trkpt lat="45.56543539292946" lon="10.71055154480912"><ele>73.42857142857143</ele><time>2026-03-24T10:36:06Z</time></trkpt><trkpt lat="45.56550171463651" lon="10.71052013518353"><ele>74.57142857142857</ele><time>2026-03-24T10:36:08Z</time></trkpt><trkpt lat="45.56557158707839" lon="10.710466603452021"><ele>75.71428571428571</ele><time>2026-03-24T10:36:10Z</time></trkpt><trkpt lat="45.56563913591039" lon="10.71041412306204"><ele>76.85714285714286</ele><time>2026-03-24T10:36:12Z</time></trkpt><trkpt lat="45.565704839514176" lon="10.710395035822554"><ele>78.0</ele><time>2026-03-24T10:36:14Z</time></trkpt><trkpt lat="45.56579760777993" lon="10.710356966517908"><ele>78.0</ele><time>2026-03-24T10:36:16Z</time></trkpt><trkpt lat="45.565859584375225" lon="10.710294728814635"><ele>78.0</ele><time>2026-03-24T10:36:18Z</time></trkpt><trkpt lat="45.56595370081912" lon="10.710205117216386"><ele>78.0</ele><time>2026-03-24T10:36:20Z</time></trkpt><trkpt lat="45.566040337550696" lon="10.710168241593122"><ele>78.0</ele><time>2026-03-24T10:36:22Z</time></trkpt><trkpt lat="45.566132640129666" lon="10.710116956366582"><ele>78.0</ele><time>2026-03-24T10:36:24Z</time></trkpt><trkpt lat="45.566240274359856" lon="10.710072476855439"><ele>78.0</ele><time>2026-03-24T10:36:26Z</time></trkpt><trkpt lat="45.566333116656416" lon="10.710049030775558"><ele>78.0</ele><time>2026-03-24T10:36:28Z</time></trkpt><trkpt lat="45.56638898650817" lon="10.710006373793709"><ele>78.0</ele><time>2026-03-24T10:36:30Z</time></trkpt><trkpt lat="45.56646464759711" lon="10.709958570333018"><ele>78.0</ele><time>2026-03-24T10:36:32Z</time></trkpt><trkpt lat="45.56652505646404" lon="10.709922794992172"><ele>78.0</ele><time>2026-03-24T10:36:34Z</time></trkpt><trkpt lat="45.56659183070524" lon="10.709873572952985"><ele>78.0</ele><time>2026-03-24T10:36:36Z</time></trkpt><trkpt lat="45.56665756072613" lon="10.709815585483069"><ele>78.0</ele><time>2026-03-24T10:36:38Z</time></trkpt><trkpt lat="45.56671199129847" lon="10.709760176073196"><ele>78.0</ele><time>2026-03-24T10:36:40Z</time></trkpt><trkpt lat="45.56676835086403" lon="10.709717480356531"><ele>78.0</ele><time>2026-03-24T10:36:42Z</time></trkpt><trkpt lat="45.56684182054356" lon="10.709664222642019"><ele>78.0</ele><time>2026-03-24T10:36:45Z</time></trkpt><trkpt lat="45.56691289004146" lon="10.70959413367369"><ele>78.0</ele><time>2026-03-24T10:36:49Z</time></trkpt><trkpt lat="45.566963372356376" lon="10.70953730832723"><ele>78.0</ele><time>2026-03-24T10:36:52Z</time></trkpt><trkpt lat="45.56701878796483" lon="10.709474482608206"><ele>78.0</ele><time>2026-03-24T10:36:56Z</time></trkpt><trkpt lat="45.567071852744604" lon="10.709425097930374"><ele>77.5</ele><time>2026-03-24T10:36:59.999Z</time></trkpt><trkpt lat="45.56712690951698" lon="10.709376882742964"><ele>77.0</ele><time>2026-03-24T10:37:03.999Z</time></trkpt><trkpt lat="45.56720929209751" lon="10.709353643852545"><ele>76.5</ele><time>2026-03-24T10:37:08.999Z</time></trkpt><trkpt lat="45.56728400632972" lon="10.709290980185909"><ele>76.0</ele><time>2026-03-24T10:37:12.999Z</time></trkpt><trkpt lat="45.56736656242628" lon="10.70924980738972"><ele>75.5</ele><time>2026-03-24T10:37:16.999Z</time></trkpt><trkpt lat="45.567436579668254" lon="10.709203077711912"><ele>75.0</ele><time>2026-03-24T10:37:19.999Z</time></trkpt><trkpt lat="45.56751189112757" lon="10.709162939689655"><ele>74.99999999999999</ele><time>2026-03-24T10:37:22.999Z</time></trkpt><trkpt lat="45.56759598231307" lon="10.709119154835749"><ele>75.0</ele><time>2026-03-24T10:37:25.999Z</time></trkpt><trkpt lat="45.567667007889376" lon="10.70907334709453"><ele>75.0</ele><time>2026-03-24T10:37:28.999Z</time></trkpt><trkpt lat="45.56773016107494" lon="10.709039474872935"><ele>75.0</ele><time>2026-03-24T10:37:31.999Z</time></trkpt><trkpt lat="45.56779861279191" lon="10.709000036233334"><ele>75.0</ele><time>2026-03-24T10:37:34.999Z</time></trkpt><trkpt lat="45.567854366549945" lon="10.708957297390524"><ele>74.99999999999999</ele><time>2026-03-24T10:37:38Z</time></trkpt><trkpt lat="45.567924531030386" lon="10.70891646259087"><ele>75.0</ele><time>2026-03-24T10:37:42Z</time></trkpt><trkpt lat="45.56798837760126" lon="10.708886582580778"><ele>77.57142857142857</ele><time>2026-03-24T10:37:45Z</time></trkpt><trkpt lat="45.56805422578463" lon="10.708852247991306"><ele>80.14285714285714</ele><time>2026-03-24T10:37:49Z</time></trkpt><trkpt lat="45.568123582451335" lon="10.708819362236486"><ele>82.71428571428572</ele><time>2026-03-24T10:37:56Z</time></trkpt><trkpt lat="45.56818572027085" lon="10.708793307390817"><ele>85.28571428571428</ele><time>2026-03-24T10:37:59Z</time></trkpt><trkpt lat="45.56826525053207" lon="10.708763176563181"><ele>87.85714285714286</ele><time>2026-03-24T10:38:04Z</time></trkpt><trkpt lat="45.56833610129577" lon="10.708741256807622"><ele>90.42857142857143</ele><time>2026-03-24T10:38:07Z</time></trkpt><trkpt lat="45.56842013815641" lon="10.70871566889299"><ele>93.0</ele><time>2026-03-24T10:38:11Z</time></trkpt><trkpt lat="45.568497794968145" lon="10.708690380393865"><ele>93.0</ele><time>2026-03-24T10:38:15Z</time></trkpt><trkpt lat="45.56856235924959" lon="10.708667229394766"><ele>93.0</ele><time>2026-03-24T10:38:19Z</time></trkpt><trkpt lat="45.56863632610652" lon="10.70864615435914"><ele>93.0</ele><time>2026-03-24T10:38:22Z</time></trkpt><trkpt lat="45.56873737421809" lon="10.708624526961135"><ele>93.0</ele><time>2026-03-24T10:38:27Z</time></trkpt><trkpt lat="45.56880391350667" lon="10.708621285473248"><ele>93.0</ele><time>2026-03-24T10:38:29Z</time></trkpt><trkpt lat="45.56889125046003" lon="10.708600853819767"><ele>93.0</ele><time>2026-03-24T10:38:32Z</time></trkpt><trkpt lat="45.56895571892697" lon="10.708587738473419"><ele>95.16666666666667</ele><time>2026-03-24T10:38:34Z</time></trkpt><trkpt lat="45.56904526342682" lon="10.708579815182475"><ele>97.33333333333334</ele><time>2026-03-24T10:38:37Z</time></trkpt><trkpt lat="45.569115771971546" lon="10.70859149444508"><ele>99.5</ele><time>2026-03-24T10:38:39Z</time></trkpt><trkpt lat="45.56921027917711" lon="10.708590029030608"><ele>101.66666666666667</ele><time>2026-03-24T10:38:42Z</time></trkpt><trkpt lat="45.569305199692536" lon="10.708612776359299"><ele>103.83333333333334</ele><time>2026-03-24T10:38:45Z</time></trkpt><trkpt lat="45.56936973626037" lon="10.708635717001556"><ele>106.0</ele><time>2026-03-24T10:38:47Z</time></trkpt><trkpt lat="45.56943863582793" lon="10.708657981608821"><ele>106.00000000000001</ele><time>2026-03-24T10:38:49Z</time></trkpt><trkpt lat="45.56951076815513" lon="10.708686789566768"><ele>106.0</ele><time>2026-03-24T10:38:52Z</time></trkpt><trkpt lat="45.56958215043244" lon="10.708712361523073"><ele>106.0</ele><time>2026-03-24T10:38:55Z</time></trkpt><trkpt lat="45.569666846418784" lon="10.708741567467412"><ele>106.0</ele><time>2026-03-24T10:38:58Z</time></trkpt><trkpt lat="45.56973442856245" lon="10.708775698657183"><ele>106.00000000000001</ele><time>2026-03-24T10:39:00Z</time></trkpt><trkpt lat="45.56986349785325" lon="10.708792563021186"><ele>106.0</ele><time>2026-03-24T10:39:04Z</time></trkpt><trkpt lat="45.5699224240669" lon="10.708827220246324"><ele>104.28571428571429</ele><time>2026-03-24T10:39:06Z</time></trkpt><trkpt lat="45.57000472339493" lon="10.70886902010786"><ele>102.57142857142857</ele><time>2026-03-24T10:39:09Z</time></trkpt><trkpt lat="45.570073254881486" lon="10.708902469814678"><ele>100.85714285714286</ele><time>2026-03-24T10:39:12Z</time></trkpt><trkpt lat="45.57015186166804" lon="10.708921437112938"><ele>99.14285714285714</ele><time>2026-03-24T10:39:15Z</time></trkpt><trkpt lat="45.5702113220014" lon="10.70895243472473"><ele>97.42857142857142</ele><time>2026-03-24T10:39:18Z</time></trkpt><trkpt lat="45.570272718552005" lon="10.708981745541065"><ele>95.71428571428571</ele><time>2026-03-24T10:39:22Z</time></trkpt><trkpt lat="45.57034618487648" lon="10.708999284957155"><ele>94.0</ele><time>2026-03-24T10:39:30Z</time></trkpt><trkpt lat="45.570407396829" lon="10.709032422146429"><ele>90.0</ele><time>2026-03-24T10:39:33Z</time></trkpt><trkpt lat="45.57048500197292" lon="10.70907419550377"><ele>86.0</ele><time>2026-03-24T10:39:36Z</time></trkpt><trkpt lat="45.5705813053866" lon="10.709108607452931"><ele>82.0</ele><time>2026-03-24T10:39:39Z</time></trkpt><trkpt lat="45.57065392338062" lon="10.709160663330614"><ele>78.0</ele><time>2026-03-24T10:39:41Z</time></trkpt><trkpt lat="45.570725988836216" lon="10.70920692034344"><ele>74.0</ele><time>2026-03-24T10:39:43Z</time></trkpt><trkpt lat="45.57079453321062" lon="10.709249332200374"><ele>70.0</ele><time>2026-03-24T10:39:45Z</time></trkpt><trkpt lat="45.57086197206631" lon="10.709279314192846"><ele>70.0</ele><time>2026-03-24T10:39:47Z</time></trkpt><trkpt lat="45.570932293517416" lon="10.709313405766839"><ele>70.0</ele><time>2026-03-24T10:39:49Z</time></trkpt><trkpt lat="45.57099031896993" lon="10.709355650099932"><ele>70.0</ele><time>2026-03-24T10:39:51Z</time></trkpt><trkpt lat="45.57107586743647" lon="10.709386807360357"><ele>70.0</ele><time>2026-03-24T10:39:54Z</time></trkpt><trkpt lat="45.571143370109944" lon="10.70940844338729"><ele>70.0</ele><time>2026-03-24T10:39:56Z</time></trkpt><trkpt lat="45.57120785309556" lon="10.709428589321213"><ele>70.0</ele><time>2026-03-24T10:39:58Z</time></trkpt><trkpt lat="45.57128024900204" lon="10.709463095716346"><ele>70.0</ele><time>2026-03-24T10:40:00Z</time></trkpt><trkpt lat="45.5713617663214" lon="10.709506899128598"><ele>71.5</ele><time>2026-03-24T10:40:02Z</time></trkpt><trkpt lat="45.57144065610849" lon="10.709556617417546"><ele>73.0</ele><time>2026-03-24T10:40:04Z</time></trkpt><trkpt lat="45.57152250111869" lon="10.709604756855574"><ele>74.5</ele><time>2026-03-24T10:40:06Z</time></trkpt><trkpt lat="45.571615585032" lon="10.709609652282607"><ele>76.0</ele><time>2026-03-24T10:40:08Z</time></trkpt><trkpt lat="45.57169675441152" lon="10.709614171663146"><ele>77.5</ele><time>2026-03-24T10:40:10Z</time></trkpt><trkpt lat="45.57176829660515" lon="10.70962534720877"><ele>79.0</ele><time>2026-03-24T10:40:12.001Z</time></trkpt><trkpt lat="45.57183321729377" lon="10.709647012462305"><ele>79.0</ele><time>2026-03-24T10:40:14.001Z</time></trkpt><trkpt lat="45.571914484898244" lon="10.709668339926072"><ele>79.0</ele><time>2026-03-24T10:40:16.001Z</time></trkpt><trkpt lat="45.571988437180245" lon="10.709673895572635"><ele>79.0</ele><time>2026-03-24T10:40:18.001Z</time></trkpt><trkpt lat="45.57206426516963" lon="10.709673434339287"><ele>79.0</ele><time>2026-03-24T10:40:20.001Z</time></trkpt><trkpt lat="45.57225842039775" lon="10.709650917757012"><ele>79.0</ele><time>2026-03-24T10:40:25.001Z</time></trkpt><trkpt lat="45.57233621176329" lon="10.709632833748227"><ele>77.2</ele><time>2026-03-24T10:40:28.001Z</time></trkpt><trkpt lat="45.57240214347168" lon="10.709625813664706"><ele>75.4</ele><time>2026-03-24T10:40:29.001Z</time></trkpt><trkpt lat="45.57249172271071" lon="10.709630511599016"><ele>73.6</ele><time>2026-03-24T10:40:31.001Z</time></trkpt><trkpt lat="45.57268601876446" lon="10.709606985354961"><ele>71.8</ele><time>2026-03-24T10:40:36.001Z</time></trkpt><trkpt lat="45.57275327046177" lon="10.709627792816198"><ele>70.0</ele><time>2026-03-24T10:40:38.001Z</time></trkpt><trkpt lat="45.57280988108491" lon="10.70969203507391"><ele>70.0</ele><time>2026-03-24T10:40:40.001Z</time></trkpt><trkpt lat="45.572836928847146" lon="10.70979957380657"><ele>70.0</ele><time>2026-03-24T10:40:43.001Z</time></trkpt><trkpt lat="45.57289369883085" lon="10.70989279129908"><ele>70.0</ele><time>2026-03-24T10:40:45.001Z</time></trkpt><trkpt lat="45.572908354754745" lon="10.709988606217852"><ele>70.0</ele><time>2026-03-24T10:40:49.001Z</time></trkpt><trkpt lat="45.57291390287087" lon="10.710115828939532"><ele>70.0</ele><time>2026-03-24T10:40:52.001Z</time></trkpt><trkpt lat="45.572946116886456" lon="10.7102132835965"><ele>70.0</ele><time>2026-03-24T10:40:54.001Z</time></trkpt><trkpt lat="45.57297833268194" lon="10.710291080012183"><ele>70.0</ele><time>2026-03-24T10:40:56.001Z</time></trkpt><trkpt lat="45.5730232979965" lon="10.710370611272849"><ele>70.0</ele><time>2026-03-24T10:40:59.001Z</time></trkpt><trkpt lat="45.573098849874896" lon="10.710391187129568"><ele>70.0</ele><time>2026-03-24T10:41:03.001Z</time></trkpt><trkpt lat="45.57316790006925" lon="10.71035858281491"><ele>70.0</ele><time>2026-03-24T10:41:05.001Z</time></trkpt><trkpt lat="45.5732383653072" lon="10.71025997773974"><ele>70.0</ele><time>2026-03-24T10:41:07.001Z</time></trkpt><trkpt lat="45.57329724587712" lon="10.710185309363078"><ele>70.0</ele><time>2026-03-24T10:41:10.001Z</time></trkpt><trkpt lat="45.57335359639517" lon="10.710130241148539"><ele>70.0</ele><time>2026-03-24T10:41:13.001Z</time></trkpt><trkpt lat="45.573423431637835" lon="10.710054577700307"><ele>70.0</ele><time>2026-03-24T10:41:17.001Z</time></trkpt><trkpt lat="45.573483241154506" lon="10.70999747156632"><ele>70.0</ele><time>2026-03-24T10:41:19.001Z</time></trkpt><trkpt lat="45.573547690004325" lon="10.709962488329962"><ele>70.0</ele><time>2026-03-24T10:41:22.001Z</time></trkpt><trkpt lat="45.57361876126022" lon="10.709918760560107"><ele>70.0</ele><time>2026-03-24T10:41:24.001Z</time></trkpt><trkpt lat="45.57369811642631" lon="10.709872843037708"><ele>70.0</ele><time>2026-03-24T10:41:27.001Z</time></trkpt><trkpt lat="45.573774474312756" lon="10.709821578684409"><ele>69.85714285714286</ele><time>2026-03-24T10:41:30.001Z</time></trkpt><trkpt lat="45.57383723675388" lon="10.709763595785759"><ele>69.71428571428572</ele><time>2026-03-24T10:41:33.001Z</time></trkpt><trkpt lat="45.573886862402574" lon="10.70969612805973"><ele>69.57142857142857</ele><time>2026-03-24T10:41:36.001Z</time></trkpt><trkpt lat="45.573935277064095" lon="10.709623539822998"><ele>69.42857142857143</ele><time>2026-03-24T10:41:39.001Z</time></trkpt><trkpt lat="45.574003023632784" lon="10.709575363627108"><ele>69.28571428571429</ele><time>2026-03-24T10:41:42.001Z</time></trkpt><trkpt lat="45.57404558350823" lon="10.709505483082978"><ele>69.14285714285714</ele><time>2026-03-24T10:41:45.001Z</time></trkpt><trkpt lat="45.57408464025536" lon="10.709434024565237"><ele>69.0</ele><time>2026-03-24T10:41:48.001Z</time></trkpt><trkpt lat="45.57415149470035" lon="10.709380421749387"><ele>68.71428571428572</ele><time>2026-03-24T10:41:52.001Z</time></trkpt><trkpt lat="45.57417887492586" lon="10.709294077517749"><ele>68.42857142857143</ele><time>2026-03-24T10:41:56.001Z</time></trkpt><trkpt lat="45.5742404007236" lon="10.70924478351414"><ele>68.14285714285714</ele><time>2026-03-24T10:42:00.001Z</time></trkpt><trkpt lat="45.574297847027964" lon="10.709207414943004"><ele>67.85714285714286</ele><time>2026-03-24T10:42:02.001Z</time></trkpt><trkpt lat="45.57434206093303" lon="10.709143229249069"><ele>67.57142857142857</ele><time>2026-03-24T10:42:04.001Z</time></trkpt><trkpt lat="45.57440264425043" lon="10.709063464103103"><ele>67.28571428571429</ele><time>2026-03-24T10:42:07.001Z</time></trkpt><trkpt lat="45.574450159139595" lon="10.70900244628343"><ele>67.0</ele><time>2026-03-24T10:42:09.001Z</time></trkpt><trkpt lat="45.57452102038289" lon="10.708941834111508"><ele>67.16666666666666</ele><time>2026-03-24T10:42:12.001Z</time></trkpt><trkpt lat="45.57460277082756" lon="10.708885147628077"><ele>67.33333333333333</ele><time>2026-03-24T10:42:15.001Z</time></trkpt><trkpt lat="45.574684183477494" lon="10.708857688501508"><ele>67.5</ele><time>2026-03-24T10:42:18.001Z</time></trkpt><trkpt lat="45.574753383702905" lon="10.70881781707431"><ele>67.66666666666667</ele><time>2026-03-24T10:42:21.001Z</time></trkpt><trkpt lat="45.57482042448856" lon="10.708750596391068"><ele>67.83333333333334</ele><time>2026-03-24T10:42:24.001Z</time></trkpt><trkpt lat="45.57487562582596" lon="10.708694594045665"><ele>68.0</ele><time>2026-03-24T10:42:27.001Z</time></trkpt><trkpt lat="45.57492146269194" lon="10.708621852230822"><ele>67.99999999999999</ele><time>2026-03-24T10:42:31.001Z</time></trkpt><trkpt lat="45.57496846500181" lon="10.708551129106459"><ele>68.0</ele><time>2026-03-24T10:42:35.001Z</time></trkpt><trkpt lat="45.5750186964386" lon="10.708457032506818"><ele>68.0</ele><time>2026-03-24T10:42:38.001Z</time></trkpt><trkpt lat="45.57506476470596" lon="10.708376621190334"><ele>68.0</ele><time>2026-03-24T10:42:40.001Z</time></trkpt><trkpt lat="45.575111348609965" lon="10.708298002739324"><ele>68.0</ele><time>2026-03-24T10:42:42.001Z</time></trkpt><trkpt lat="45.57517458459037" lon="10.708225020397181"><ele>67.99999999999999</ele><time>2026-03-24T10:42:44.001Z</time></trkpt><trkpt lat="45.57521359777095" lon="10.70813932256147"><ele>68.0</ele><time>2026-03-24T10:42:46.001Z</time></trkpt><trkpt lat="45.57525705735388" lon="10.708036305985198"><ele>68.0</ele><time>2026-03-24T10:42:49.001Z</time></trkpt><trkpt lat="45.57520412699578" lon="10.70797070726077"><ele>68.0</ele><time>2026-03-24T10:42:53.001Z</time></trkpt><trkpt lat="45.57513077909041" lon="10.707898338494818"><ele>68.0</ele><time>2026-03-24T10:42:57.001Z</time></trkpt><trkpt lat="45.575073572952256" lon="10.70782990263526"><ele>68.0</ele><time>2026-03-24T10:43:01.001Z</time></trkpt><trkpt lat="45.57501604370683" lon="10.707790366151595"><ele>68.0</ele><time>2026-03-24T10:43:03.001Z</time></trkpt><trkpt lat="45.57493129875066" lon="10.707728723086724"><ele>68.0</ele><time>2026-03-24T10:43:06.001Z</time></trkpt><trkpt lat="45.57486695146245" lon="10.70768082490798"><ele>67.99999999999999</ele><time>2026-03-24T10:43:08.001Z</time></trkpt><trkpt lat="45.57480959145109" lon="10.707631796665423"><ele>68.0</ele><time>2026-03-24T10:43:10.001Z</time></trkpt><trkpt lat="45.5747292807874" lon="10.707586125898612"><ele>68.0</ele><time>2026-03-24T10:43:13.001Z</time></trkpt><trkpt lat="45.57466658339899" lon="10.707516104252848"><ele>68.0</ele><time>2026-03-24T10:43:16.001Z</time></trkpt><trkpt lat="45.57464445146319" lon="10.707426930037744"><ele>68.0</ele><time>2026-03-24T10:43:20.002Z</time></trkpt><trkpt lat="45.57469421857174" lon="10.70737119169969"><ele>67.99999999999999</ele><time>2026-03-24T10:43:25.002Z</time></trkpt><trkpt lat="45.57475425547702" lon="10.707325073151566"><ele>68.0</ele><time>2026-03-24T10:43:33.001Z</time></trkpt><trkpt lat="45.574807630196325" lon="10.707250841545424"><ele>67.99999999999999</ele><time>2026-03-24T10:43:39.001Z</time></trkpt><trkpt lat="45.574868518413425" lon="10.707197005975555"><ele>68.0</ele><time>2026-03-24T10:43:45.001Z</time></trkpt><trkpt lat="45.57492691251475" lon="10.707133802260643"><ele>68.0</ele><time>2026-03-24T10:43:51.001Z</time></trkpt><trkpt lat="45.57498570151454" lon="10.707074839577142"><ele>68.0</ele><time>2026-03-24T10:43:57.001Z</time></trkpt><trkpt lat="45.57504524644757" lon="10.707016163176325"><ele>68.0</ele><time>2026-03-24T10:44:03.001Z</time></trkpt><trkpt lat="45.57510300008565" lon="10.70696274643344"><ele>67.99999999999999</ele><time>2026-03-24T10:44:09.001Z</time></trkpt><trkpt lat="45.575131617672135" lon="10.706872926386673"><ele>68.0</ele><time>2026-03-24T10:45:10.001Z</time></trkpt><trkpt lat="45.57517599252974" lon="10.70680694529009"><ele>67.57142857142857</ele><time>2026-03-24T10:45:14.001Z</time></trkpt><trkpt lat="45.57523196422876" lon="10.706761719746552"><ele>67.14285714285714</ele><time>2026-03-24T10:45:18.001Z</time></trkpt><trkpt lat="45.57529498124614" lon="10.706706186596842"><ele>66.71428571428572</ele><time>2026-03-24T10:45:23.001Z</time></trkpt><trkpt lat="45.57534990934483" lon="10.70665052519693"><ele>66.28571428571428</ele><time>2026-03-24T10:45:28.001Z</time></trkpt><trkpt lat="45.575391105005515" lon="10.706562677045993"><ele>65.85714285714286</ele><time>2026-03-24T10:45:34.001Z</time></trkpt><trkpt lat="45.575449753206335" lon="10.706507213821968"><ele>65.42857142857143</ele><time>2026-03-24T10:45:40.001Z</time></trkpt><trkpt lat="45.57549886047965" lon="10.706439045696149"><ele>65.0</ele><time>2026-03-24T10:45:45.001Z</time></trkpt><trkpt lat="45.57554452829118" lon="10.706375981268266"><ele>65.42857142857143</ele><time>2026-03-24T10:45:50.001Z</time></trkpt><trkpt lat="45.575588779843" lon="10.70630437599152"><ele>65.85714285714286</ele><time>2026-03-24T10:45:55.001Z</time></trkpt><trkpt lat="45.57564426242084" lon="10.706229564748314"><ele>66.28571428571428</ele><time>2026-03-24T10:47:17.001Z</time></trkpt><trkpt lat="45.57567358751787" lon="10.706137175321222"><ele>66.71428571428572</ele><time>2026-03-24T10:47:20.001Z</time></trkpt><trkpt lat="45.575742688563814" lon="10.706112873752057"><ele>67.14285714285714</ele><time>2026-03-24T10:48:49Z</time></trkpt><trkpt lat="45.57580312092728" lon="10.706070829518072"><ele>67.57142857142857</ele><time>2026-03-24T10:48:52Z</time></trkpt><trkpt lat="45.57586190232312" lon="10.706029177241332"><ele>68.0</ele><time>2026-03-24T10:48:56Z</time></trkpt><trkpt lat="45.575920624453076" lon="10.70598264189333"><ele>67.99999999999999</ele><time>2026-03-24T10:49:07Z</time></trkpt><trkpt lat="45.576000509803904" lon="10.705937236383107"><ele>68.0</ele><time>2026-03-24T10:51:47.002Z</time></trkpt><trkpt lat="45.576067401558596" lon="10.705897666677187"><ele>68.0</ele><time>2026-03-24T10:51:50.002Z</time></trkpt><trkpt lat="45.576127620111315" lon="10.705844964971975"><ele>68.0</ele><time>2026-03-24T10:51:52.002Z</time></trkpt><trkpt lat="45.57618830651703" lon="10.705761184217655"><ele>68.0</ele><time>2026-03-24T10:51:55.001Z</time></trkpt><trkpt lat="45.57624157916306" lon="10.705705090649786"><ele>67.99999999999999</ele><time>2026-03-24T10:51:58.001Z</time></trkpt><trkpt lat="45.57630266005975" lon="10.705667783612437"><ele>68.0</ele><time>2026-03-24T10:52:00.001Z</time></trkpt><trkpt lat="45.576368486776275" lon="10.705614626845652"><ele>68.33333333333334</ele><time>2026-03-24T10:52:02.001Z</time></trkpt><trkpt lat="45.576429395475344" lon="10.705549234430324"><ele>68.66666666666667</ele><time>2026-03-24T10:52:04.001Z</time></trkpt><trkpt lat="45.57648890319846" lon="10.705477366907179"><ele>69.0</ele><time>2026-03-24T10:52:06.001Z</time></trkpt><trkpt lat="45.57654610663736" lon="10.705398914877623"><ele>69.33333333333333</ele><time>2026-03-24T10:52:08.001Z</time></trkpt><trkpt lat="45.576608679384826" lon="10.70533031416781"><ele>69.66666666666666</ele><time>2026-03-24T10:52:10.001Z</time></trkpt><trkpt lat="45.57667828778365" lon="10.705269732204092"><ele>70.0</ele><time>2026-03-24T10:52:12.001Z</time></trkpt><trkpt lat="45.57673762175507" lon="10.7051908814488"><ele>70.33333333333333</ele><time>2026-03-24T10:52:14.001Z</time></trkpt><trkpt lat="45.57679380856116" lon="10.705099948144008"><ele>70.66666666666666</ele><time>2026-03-24T10:52:16.001Z</time></trkpt><trkpt lat="45.576838020297586" lon="10.705000035927359"><ele>71.0</ele><time>2026-03-24T10:52:18.001Z</time></trkpt><trkpt lat="45.57688584407317" lon="10.704891911697748"><ele>71.33333333333333</ele><time>2026-03-24T10:52:20.001Z</time></trkpt><trkpt lat="45.576931092200915" lon="10.704795516932126"><ele>71.66666666666667</ele><time>2026-03-24T10:52:22.001Z</time></trkpt><trkpt lat="45.57697459912732" lon="10.704693399340302"><ele>72.0</ele><time>2026-03-24T10:52:24.001Z</time></trkpt><trkpt lat="45.57702023301923" lon="10.704609582342771"><ele>72.00000000000001</ele><time>2026-03-24T10:52:26.001Z</time></trkpt><trkpt lat="45.577060737912035" lon="10.704531654991566"><ele>72.0</ele><time>2026-03-24T10:52:28.001Z</time></trkpt><trkpt lat="45.57709870891375" lon="10.70445439799319"><ele>72.0</ele><time>2026-03-24T10:52:31.001Z</time></trkpt><trkpt lat="45.57716282918129" lon="10.704439835492861"><ele>72.0</ele><time>2026-03-24T10:52:34.001Z</time></trkpt><trkpt lat="45.5771704452535" lon="10.704546530292038"><ele>72.0</ele><time>2026-03-24T10:52:46Z</time></trkpt><trkpt lat="45.57711747615394" lon="10.704623039543023"><ele>72.00000000000001</ele><time>2026-03-24T10:52:49Z</time></trkpt><trkpt lat="45.57708538174723" lon="10.704716178275348"><ele>72.0</ele><time>2026-03-24T10:52:52Z</time></trkpt><trkpt lat="45.577052360941906" lon="10.704818446475173"><ele>71.66666666666667</ele><time>2026-03-24T10:52:55Z</time></trkpt><trkpt lat="45.57701905132356" lon="10.704932612181928"><ele>71.33333333333333</ele><time>2026-03-24T10:52:58Z</time></trkpt><trkpt lat="45.577005891255475" lon="10.70505245714402"><ele>71.0</ele><time>2026-03-24T10:53:01Z</time></trkpt><trkpt lat="45.57698832171129" lon="10.705172940546287"><ele>70.66666666666666</ele><time>2026-03-24T10:53:04Z</time></trkpt><trkpt lat="45.57699946214069" lon="10.705299549643408"><ele>70.33333333333333</ele><time>2026-03-24T10:53:07Z</time></trkpt><trkpt lat="45.57700252684937" lon="10.70541326424932"><ele>70.0</ele><time>2026-03-24T10:53:10Z</time></trkpt><trkpt lat="45.577035989116325" lon="10.70550043993997"><ele>70.0</ele><time>2026-03-24T10:53:12Z</time></trkpt><trkpt lat="45.577114404884085" lon="10.705573784526583"><ele>70.0</ele><time>2026-03-24T10:53:15Z</time></trkpt><trkpt lat="45.57719089875231" lon="10.705577074093386"><ele>70.0</ele><time>2026-03-24T10:53:18Z</time></trkpt><trkpt lat="45.57726297496437" lon="10.70556191818075"><ele>70.0</ele><time>2026-03-24T10:53:21Z</time></trkpt><trkpt lat="45.577345700370444" lon="10.705545868233443"><ele>70.0</ele><time>2026-03-24T10:53:25Z</time></trkpt><trkpt lat="45.57742932624619" lon="10.705532923331704"><ele>70.0</ele><time>2026-03-24T10:53:29Z</time></trkpt><trkpt lat="45.57749187089014" lon="10.70551496402717"><ele>70.0</ele><time>2026-03-24T10:53:32Z</time></trkpt><trkpt lat="45.57755493724841" lon="10.705509377730028"><ele>70.0</ele><time>2026-03-24T10:53:35Z</time></trkpt><trkpt lat="45.57763485216313" lon="10.705485336427543"><ele>70.0</ele><time>2026-03-24T10:53:39Z</time></trkpt><trkpt lat="45.57771565867442" lon="10.705485615212535"><ele>70.0</ele><time>2026-03-24T10:53:43Z</time></trkpt><trkpt lat="45.57779469341223" lon="10.705464137572609"><ele>70.0</ele><time>2026-03-24T10:53:47.002Z</time></trkpt><trkpt lat="45.57787207458102" lon="10.705446507357205"><ele>70.0</ele><time>2026-03-24T10:53:51.002Z</time></trkpt><trkpt lat="45.577951270570225" lon="10.705436828675232"><ele>71.16666666666666</ele><time>2026-03-24T10:53:55.001Z</time></trkpt><trkpt lat="45.57802284717238" lon="10.705413909159263"><ele>72.33333333333333</ele><time>2026-03-24T10:53:59.001Z</time></trkpt><trkpt lat="45.5780991052991" lon="10.705396953531507"><ele>73.5</ele><time>2026-03-24T10:54:03.001Z</time></trkpt><trkpt lat="45.578174496575926" lon="10.705378136195066"><ele>74.66666666666667</ele><time>2026-03-24T10:54:07.001Z</time></trkpt><trkpt lat="45.57825160889464" lon="10.705352423226289"><ele>75.83333333333334</ele><time>2026-03-24T10:54:11.001Z</time></trkpt><trkpt lat="45.578324432150836" lon="10.705359746362841"><ele>77.0</ele><time>2026-03-24T10:54:15.001Z</time></trkpt><trkpt lat="45.57839346906896" lon="10.705300659633288"><ele>77.0</ele><time>2026-03-24T10:54:19.001Z</time></trkpt><trkpt lat="45.57846807803189" lon="10.705264314856228"><ele>77.0</ele><time>2026-03-24T10:54:23.001Z</time></trkpt><trkpt lat="45.57853448566181" lon="10.705222252182006"><ele>77.0</ele><time>2026-03-24T10:54:27.001Z</time></trkpt><trkpt lat="45.578594976294475" lon="10.705185819726104"><ele>77.0</ele><time>2026-03-24T10:54:31Z</time></trkpt><trkpt lat="45.57866779306945" lon="10.705146099982434"><ele>77.0</ele><time>2026-03-24T10:54:36Z</time></trkpt><trkpt lat="45.57872673550335" lon="10.705107925973572"><ele>77.0</ele><time>2026-03-24T10:54:40Z</time></trkpt><trkpt lat="45.57879588558247" lon="10.705068590697476"><ele>77.0</ele><time>2026-03-24T10:54:45Z</time></trkpt><trkpt lat="45.57886363595423" lon="10.70501547337746"><ele>78.85714285714286</ele><time>2026-03-24T10:54:50Z</time></trkpt><trkpt lat="45.5789218831901" lon="10.704954741739394"><ele>80.71428571428572</ele><time>2026-03-24T10:54:55Z</time></trkpt><trkpt lat="45.57899050263908" lon="10.704916478549283"><ele>82.57142857142857</ele><time>2026-03-24T10:55:01Z</time></trkpt><trkpt lat="45.579059154668734" lon="10.704893801748735"><ele>84.42857142857143</ele><time>2026-03-24T10:55:07Z</time></trkpt><trkpt lat="45.57913447420326" lon="10.704886626619613"><ele>86.28571428571429</ele><time>2026-03-24T10:55:14Z</time></trkpt><trkpt lat="45.57920993555614" lon="10.704879355333487"><ele>88.14285714285714</ele><time>2026-03-24T10:55:20Z</time></trkpt><trkpt lat="45.579279831597866" lon="10.704864945955574"><ele>90.0</ele><time>2026-03-24T10:55:26Z</time></trkpt><trkpt lat="45.57935182211944" lon="10.704876934157571"><ele>90.0</ele><time>2026-03-24T10:55:33Z</time></trkpt><trkpt lat="45.57941225989347" lon="10.704915216208084"><ele>90.0</ele><time>2026-03-24T10:55:38Z</time></trkpt><trkpt lat="45.579478428027" lon="10.70494840912077"><ele>90.0</ele><time>2026-03-24T10:55:43Z</time></trkpt><trkpt lat="45.57953918732722" lon="10.70497487336128"><ele>90.0</ele><time>2026-03-24T10:55:48Z</time></trkpt><trkpt lat="45.57960228328359" lon="10.7049878664861"><ele>90.0</ele><time>2026-03-24T10:55:53.001Z</time></trkpt><trkpt lat="45.579673230077795" lon="10.704994064247046"><ele>90.0</ele><time>2026-03-24T10:55:59.001Z</time></trkpt><trkpt lat="45.57973894883895" lon="10.705010940251132"><ele>90.0</ele><time>2026-03-24T10:56:04.001Z</time></trkpt><trkpt lat="45.57980822923124" lon="10.704985955432857"><ele>92.14285714285714</ele><time>2026-03-24T10:56:10.001Z</time></trkpt><trkpt lat="45.579867974305486" lon="10.704924952155766"><ele>94.28571428571429</ele><time>2026-03-24T10:56:16.001Z</time></trkpt><trkpt lat="45.579922915134865" lon="10.704862940477906"><ele>96.42857142857143</ele><time>2026-03-24T10:56:22Z</time></trkpt><trkpt lat="45.57996952492832" lon="10.704802148433284"><ele>98.57142857142857</ele><time>2026-03-24T10:56:27Z</time></trkpt><trkpt lat="45.580002497766735" lon="10.704720302669552"><ele>100.71428571428572</ele><time>2026-03-24T10:56:32Z</time></trkpt><trkpt lat="45.58004913859074" lon="10.704644627745894"><ele>102.85714285714286</ele><time>2026-03-24T10:56:37Z</time></trkpt><trkpt lat="45.58009179310168" lon="10.70456621502885"><ele>105.0</ele><time>2026-03-24T10:56:42Z</time></trkpt><trkpt lat="45.58014039365662" lon="10.704490880780153"><ele>105.85714285714286</ele><time>2026-03-24T10:56:47Z</time></trkpt><trkpt lat="45.58016723397375" lon="10.704398537258626"><ele>106.71428571428572</ele><time>2026-03-24T10:56:52Z</time></trkpt><trkpt lat="45.5802112028094" lon="10.704327482577947"><ele>107.57142857142857</ele><time>2026-03-24T10:56:57Z</time></trkpt><trkpt lat="45.58026691363663" lon="10.704253111565063"><ele>108.42857142857143</ele><time>2026-03-24T10:57:04Z</time></trkpt><trkpt lat="45.58030890203674" lon="10.70417961712347"><ele>109.28571428571429</ele><time>2026-03-24T10:57:09Z</time></trkpt><trkpt lat="45.58033812573966" lon="10.704092994629688"><ele>110.14285714285714</ele><time>2026-03-24T10:57:14Z</time></trkpt><trkpt lat="45.58036165764855" lon="10.704002490402425"><ele>111.0</ele><time>2026-03-24T10:57:20Z</time></trkpt><trkpt lat="45.5804152072482" lon="10.703933904443277"><ele>111.42857142857142</ele><time>2026-03-24T10:57:24Z</time></trkpt><trkpt lat="45.58046267788335" lon="10.703851834341211"><ele>111.85714285714286</ele><time>2026-03-24T10:57:28.999Z</time></trkpt><trkpt lat="45.580509832350025" lon="10.703781189015567"><ele>112.28571428571428</ele><time>2026-03-24T10:57:33.999Z</time></trkpt><trkpt lat="45.58055366780662" lon="10.703701849348642"><ele>112.71428571428571</ele><time>2026-03-24T10:57:38.999Z</time></trkpt><trkpt lat="45.58059207101906" lon="10.70362301962062"><ele>113.14285714285714</ele><time>2026-03-24T10:57:43.999Z</time></trkpt><trkpt lat="45.58064171896423" lon="10.703566331135313"><ele>113.57142857142857</ele><time>2026-03-24T10:57:48.999Z</time></trkpt><trkpt lat="45.580682919738386" lon="10.703491957614764"><ele>114.0</ele><time>2026-03-24T10:57:53.999Z</time></trkpt><trkpt lat="45.58073641777801" lon="10.703433207777769"><ele>114.14285714285714</ele><time>2026-03-24T10:57:59.001Z</time></trkpt><trkpt lat="45.5807800916644" lon="10.703356369286999"><ele>114.28571428571428</ele><time>2026-03-24T10:58:04.001Z</time></trkpt><trkpt lat="45.58083118030476" lon="10.703292936464273"><ele>114.42857142857142</ele><time>2026-03-24T10:58:09.001Z</time></trkpt><trkpt lat="45.580880438032494" lon="10.703220697637622"><ele>114.57142857142856</ele><time>2026-03-24T10:58:14Z</time></trkpt><trkpt lat="45.580929713356355" lon="10.703154002534864"><ele>114.71428571428571</ele><time>2026-03-24T10:58:19Z</time></trkpt><trkpt lat="45.58098385613014" lon="10.703093410698147"><ele>114.85714285714283</ele><time>2026-03-24T10:58:24Z</time></trkpt><trkpt lat="45.581034824726146" lon="10.70302788823116"><ele>114.99999999999999</ele><time>2026-03-24T10:58:29Z</time></trkpt><trkpt lat="45.58109765800365" lon="10.702974223241556"><ele>114.99999999999999</ele><time>2026-03-24T10:58:34Z</time></trkpt><trkpt lat="45.58116429526531" lon="10.702918397030476"><ele>115.0</ele><time>2026-03-24T10:58:39Z</time></trkpt><trkpt lat="45.581228958117094" lon="10.702871892240923"><ele>114.99999999999999</ele><time>2026-03-24T10:58:44Z</time></trkpt><trkpt lat="45.58129185751128" lon="10.702823653617257"><ele>114.99999999999999</ele><time>2026-03-24T10:58:49Z</time></trkpt><trkpt lat="45.581354376273765" lon="10.702780633597664"><ele>115.0</ele><time>2026-03-24T10:58:54Z</time></trkpt><trkpt lat="45.581412402517195" lon="10.702730754166977"><ele>114.99999999999999</ele><time>2026-03-24T10:58:59Z</time></trkpt><trkpt lat="45.581471988908376" lon="10.702698415880846"><ele>114.99999999999999</ele><time>2026-03-24T10:59:03.999Z</time></trkpt><trkpt lat="45.58152821624147" lon="10.702652416847906"><ele>116.7142857142857</ele><time>2026-03-24T10:59:08.999Z</time></trkpt><trkpt lat="45.58158476257114" lon="10.702606078004155"><ele>118.42857142857142</ele><time>2026-03-24T10:59:13.999Z</time></trkpt><trkpt lat="45.58164057245107" lon="10.70255610890346"><ele>120.14285714285714</ele><time>2026-03-24T10:59:18.999Z</time></trkpt><trkpt lat="45.581705331181965" lon="10.702508604665496"><ele>121.85714285714285</ele><time>2026-03-24T10:59:23.999Z</time></trkpt><trkpt lat="45.58176348056258" lon="10.70245522154239"><ele>123.57142857142856</ele><time>2026-03-24T10:59:28.999Z</time></trkpt><trkpt lat="45.58182190689913" lon="10.702407072581456"><ele>125.28571428571429</ele><time>2026-03-24T10:59:33.999Z</time></trkpt><trkpt lat="45.58188122599463" lon="10.702355750665642"><ele>127.0</ele><time>2026-03-24T10:59:38.999Z</time></trkpt><trkpt lat="45.58193797129577" lon="10.702312176074704"><ele>127.0</ele><time>2026-03-24T10:59:43.999Z</time></trkpt><trkpt lat="45.581994305110584" lon="10.702256953769634"><ele>127.0</ele><time>2026-03-24T10:59:48.999Z</time></trkpt><trkpt lat="45.582057447680484" lon="10.702200732906379"><ele>127.0</ele><time>2026-03-24T10:59:54.999Z</time></trkpt><trkpt lat="45.58210468508317" lon="10.702131491681266"><ele>127.0</ele><time>2026-03-24T10:59:59.999Z</time></trkpt><trkpt lat="45.58215408049394" lon="10.702068563541603"><ele>127.0</ele><time>2026-03-24T11:00:05Z</time></trkpt><trkpt lat="45.582205121439934" lon="10.701992885207197"><ele>127.0</ele><time>2026-03-24T11:00:10Z</time></trkpt><trkpt lat="45.582249316686664" lon="10.701915616302095"><ele>127.0</ele><time>2026-03-24T11:00:15Z</time></trkpt><trkpt lat="45.582295763601266" lon="10.701851357939772"><ele>129.28571428571428</ele><time>2026-03-24T11:00:20Z</time></trkpt><trkpt lat="45.582339078659146" lon="10.701774511996621"><ele>131.57142857142856</ele><time>2026-03-24T11:00:25Z</time></trkpt><trkpt lat="45.58238398771573" lon="10.701703564993625"><ele>133.85714285714283</ele><time>2026-03-24T11:00:30Z</time></trkpt><trkpt lat="45.58242601213079" lon="10.701626910679028"><ele>136.14285714285714</ele><time>2026-03-24T11:00:35Z</time></trkpt><trkpt lat="45.5824842974813" lon="10.701565135091858"><ele>138.42857142857142</ele><time>2026-03-24T11:00:40Z</time></trkpt><trkpt lat="45.58253771575441" lon="10.701497210553011"><ele>140.7142857142857</ele><time>2026-03-24T11:00:45Z</time></trkpt><trkpt lat="45.58259375433426" lon="10.701439386905855"><ele>143.0</ele><time>2026-03-24T11:00:50Z</time></trkpt><trkpt lat="45.582648667383076" lon="10.701385322819045"><ele>142.99999999999997</ele><time>2026-03-24T11:00:54.999Z</time></trkpt><trkpt lat="45.58270648095047" lon="10.701345046147496"><ele>143.0</ele><time>2026-03-24T11:00:59.999Z</time></trkpt><trkpt lat="45.58277467182782" lon="10.70129756982635"><ele>143.0</ele><time>2026-03-24T11:01:04.999Z</time></trkpt><trkpt lat="45.58284715263003" lon="10.701257034908771"><ele>143.0</ele><time>2026-03-24T11:01:09.999Z</time></trkpt><trkpt lat="45.582918390351054" lon="10.701213406024628"><ele>143.0</ele><time>2026-03-24T11:01:14.999Z</time></trkpt><trkpt lat="45.58299208601616" lon="10.70118230543855"><ele>142.99999999999997</ele><time>2026-03-24T11:01:19.999Z</time></trkpt><trkpt lat="45.58304954153142" lon="10.701144179393504"><ele>143.0</ele><time>2026-03-24T11:01:23.999Z</time></trkpt><trkpt lat="45.5831209566223" lon="10.701125709184147"><ele>143.99999999999997</ele><time>2026-03-24T11:01:28.999Z</time></trkpt><trkpt lat="45.583193254161245" lon="10.70111346459817"><ele>145.0</ele><time>2026-03-24T11:01:33.999Z</time></trkpt><trkpt lat="45.583257642735504" lon="10.701100760016413"><ele>146.0</ele><time>2026-03-24T11:01:37.999Z</time></trkpt><trkpt lat="45.58332133633416" lon="10.701084115938595"><ele>147.0</ele><time>2026-03-24T11:01:41.999Z</time></trkpt><trkpt lat="45.5833912032985" lon="10.701089789754691"><ele>148.0</ele><time>2026-03-24T11:01:47.999Z</time></trkpt><trkpt lat="45.58346587159139" lon="10.701073327049375"><ele>148.99999999999997</ele><time>2026-03-24T11:01:52.999Z</time></trkpt><trkpt lat="45.583532309862896" lon="10.701051005220306"><ele>150.0</ele><time>2026-03-24T11:01:56.999Z</time></trkpt><trkpt lat="45.58359555931262" lon="10.701036824756782"><ele>149.99999999999997</ele><time>2026-03-24T11:02:00.998Z</time></trkpt><trkpt lat="45.58366824444741" lon="10.70100326841508"><ele>150.0</ele><time>2026-03-24T11:02:05.998Z</time></trkpt><trkpt lat="45.58373694071724" lon="10.700975853017688"><ele>150.0</ele><time>2026-03-24T11:02:09.998Z</time></trkpt><trkpt lat="45.58381178934494" lon="10.700964291623048"><ele>150.0</ele><time>2026-03-24T11:02:15Z</time></trkpt><trkpt lat="45.58387393530815" lon="10.700931134485863"><ele>150.0</ele><time>2026-03-24T11:02:20Z</time></trkpt><trkpt lat="45.58393779144354" lon="10.700915460086723"><ele>149.99999999999997</ele><time>2026-03-24T11:02:25Z</time></trkpt><trkpt lat="45.58401375141547" lon="10.700892853634219"><ele>150.0</ele><time>2026-03-24T11:02:30Z</time></trkpt><trkpt lat="45.5840888065439" lon="10.700883556166751"><ele>151.14285714285714</ele><time>2026-03-24T11:02:35Z</time></trkpt><trkpt lat="45.58415192518829" lon="10.700885311150465"><ele>152.28571428571428</ele><time>2026-03-24T11:02:39Z</time></trkpt><trkpt lat="45.58421604831514" lon="10.700873473137992"><ele>153.42857142857144</ele><time>2026-03-24T11:02:43Z</time></trkpt><trkpt lat="45.58429375483313" lon="10.700865732221844"><ele>154.57142857142856</ele><time>2026-03-24T11:02:48Z</time></trkpt><trkpt lat="45.58436556138829" lon="10.700870526361848"><ele>155.71428571428572</ele><time>2026-03-24T11:02:52.999Z</time></trkpt><trkpt lat="45.5844338192838" lon="10.700868162821452"><ele>156.85714285714286</ele><time>2026-03-24T11:02:57.999Z</time></trkpt><trkpt lat="45.58451255725426" lon="10.700859367824846"><ele>158.0</ele><time>2026-03-24T11:03:03.999Z</time></trkpt><trkpt lat="45.58457782588879" lon="10.70085448732145"><ele>159.85714285714286</ele><time>2026-03-24T11:03:08.999Z</time></trkpt><trkpt lat="45.58464917753776" lon="10.70082116734522"><ele>161.71428571428572</ele><time>2026-03-24T11:03:14.999Z</time></trkpt><trkpt lat="45.58471564790025" lon="10.700794761415477"><ele>163.57142857142856</ele><time>2026-03-24T11:03:20.999Z</time></trkpt><trkpt lat="45.58478617301488" lon="10.700786207106757"><ele>165.42857142857144</ele><time>2026-03-24T11:03:26.999Z</time></trkpt><trkpt lat="45.58485681362827" lon="10.7007679614798"><ele>167.28571428571428</ele><time>2026-03-24T11:03:32.999Z</time></trkpt><trkpt lat="45.584927780914924" lon="10.700758461926565"><ele>169.14285714285714</ele><time>2026-03-24T11:03:38.999Z</time></trkpt><trkpt lat="45.58500091520262" lon="10.700746158191775"><ele>171.0</ele><time>2026-03-24T11:03:44.999Z</time></trkpt><trkpt lat="45.585069927176335" lon="10.700727550413534"><ele>170.99999999999997</ele><time>2026-03-24T11:03:50.999Z</time></trkpt><trkpt lat="45.58513950276733" lon="10.700697574324083"><ele>171.0</ele><time>2026-03-24T11:03:57.998Z</time></trkpt><trkpt lat="45.58520398408316" lon="10.700666743949242"><ele>171.0</ele><time>2026-03-24T11:04:03.998Z</time></trkpt><trkpt lat="45.585268737495504" lon="10.700635111964537"><ele>171.0</ele><time>2026-03-24T11:04:09.998Z</time></trkpt><trkpt lat="45.58533487465552" lon="10.700606344594476"><ele>171.0</ele><time>2026-03-24T11:04:15.998Z</time></trkpt><trkpt lat="45.58539595110201" lon="10.7005769248017"><ele>170.99999999999997</ele><time>2026-03-24T11:04:22Z</time></trkpt><trkpt lat="45.585464803384355" lon="10.700551758157186"><ele>171.0</ele><time>2026-03-24T11:04:29Z</time></trkpt><trkpt lat="45.585532209794586" lon="10.700527610963746"><ele>172.14285714285714</ele><time>2026-03-24T11:04:36Z</time></trkpt><trkpt lat="45.585597278520915" lon="10.70050459251261"><ele>173.28571428571428</ele><time>2026-03-24T11:04:43Z</time></trkpt><trkpt lat="45.58565975804261" lon="10.700476045484468"><ele>174.42857142857144</ele><time>2026-03-24T11:04:48.999Z</time></trkpt><trkpt lat="45.585721795712004" lon="10.700447210450495"><ele>175.57142857142856</ele><time>2026-03-24T11:04:54.999Z</time></trkpt><trkpt lat="45.58578847776721" lon="10.700415884776799"><ele>176.71428571428572</ele><time>2026-03-24T11:05:00.999Z</time></trkpt><trkpt lat="45.58585043086173" lon="10.700381132764528"><ele>177.85714285714286</ele><time>2026-03-24T11:05:06.999Z</time></trkpt><trkpt lat="45.58591853071928" lon="10.700353473435118"><ele>179.0</ele><time>2026-03-24T11:05:12.999Z</time></trkpt><trkpt lat="45.58598160683393" lon="10.700340369596827"><ele>179.00000000000003</ele><time>2026-03-24T11:05:18.999Z</time></trkpt><trkpt lat="45.58605110491415" lon="10.700292837651844"><ele>179.0</ele><time>2026-03-24T11:05:24.999Z</time></trkpt><trkpt lat="45.586114686561494" lon="10.700248816828923"><ele>179.0</ele><time>2026-03-24T11:05:31.999Z</time></trkpt><trkpt lat="45.58616996075285" lon="10.700197958815336"><ele>179.0</ele><time>2026-03-24T11:05:37.999Z</time></trkpt><trkpt lat="45.58623323599511" lon="10.700142463043413"><ele>179.0</ele><time>2026-03-24T11:05:43.999Z</time></trkpt><trkpt lat="45.58629661494704" lon="10.70009082624659"><ele>179.00000000000003</ele><time>2026-03-24T11:05:50.998Z</time></trkpt><trkpt lat="45.58635649876285" lon="10.700037945293426"><ele>179.0</ele><time>2026-03-24T11:05:56.998Z</time></trkpt><trkpt lat="45.58642010187722" lon="10.699988072885905"><ele>181.42857142857144</ele><time>2026-03-24T11:06:02.998Z</time></trkpt><trkpt lat="45.586485023412955" lon="10.69994862469065"><ele>183.85714285714286</ele><time>2026-03-24T11:06:08.998Z</time></trkpt><trkpt lat="45.58654510703955" lon="10.699901194950556"><ele>186.28571428571428</ele><time>2026-03-24T11:06:14.998Z</time></trkpt><trkpt lat="45.586613045239716" lon="10.699872741673488"><ele>188.71428571428572</ele><time>2026-03-24T11:06:21.998Z</time></trkpt><trkpt lat="45.58668572362938" lon="10.699844189104772"><ele>191.14285714285714</ele><time>2026-03-24T11:06:28Z</time></trkpt><trkpt lat="45.58675248384105" lon="10.699812109055154"><ele>193.57142857142858</ele><time>2026-03-24T11:06:34Z</time></trkpt><trkpt lat="45.58680462509336" lon="10.69975743035248"><ele>196.0</ele><time>2026-03-24T11:06:40Z</time></trkpt><trkpt lat="45.58686260936093" lon="10.699722081407193"><ele>196.0</ele><time>2026-03-24T11:06:47Z</time></trkpt><trkpt lat="45.58693098395311" lon="10.699706476041436"><ele>196.0</ele><time>2026-03-24T11:06:54.999Z</time></trkpt><trkpt lat="45.58699619694314" lon="10.699690271338769"><ele>196.0</ele><time>2026-03-24T11:07:00.999Z</time></trkpt><trkpt lat="45.58705733877555" lon="10.699660028905654"><ele>196.0</ele><time>2026-03-24T11:07:07.999Z</time></trkpt><trkpt lat="45.58712338971493" lon="10.699620582594783"><ele>196.0</ele><time>2026-03-24T11:07:13.999Z</time></trkpt><trkpt lat="45.58718615959008" lon="10.699578180970029"><ele>196.0</ele><time>2026-03-24T11:07:18.999Z</time></trkpt><trkpt lat="45.58725315787324" lon="10.699540364850373"><ele>196.0</ele><time>2026-03-24T11:07:24.999Z</time></trkpt><trkpt lat="45.58731258440041" lon="10.699479761933562"><ele>196.85714285714286</ele><time>2026-03-24T11:07:31.999Z</time></trkpt><trkpt lat="45.58737724962372" lon="10.699441827776637"><ele>197.71428571428572</ele><time>2026-03-24T11:07:37.999Z</time></trkpt><trkpt lat="45.58744080963726" lon="10.69939746294153"><ele>198.57142857142856</ele><time>2026-03-24T11:07:42.999Z</time></trkpt><trkpt lat="45.58750231405409" lon="10.699327095694208"><ele>199.42857142857144</ele><time>2026-03-24T11:07:48.999Z</time></trkpt><trkpt lat="45.58755927556713" lon="10.699272069969396"><ele>200.28571428571428</ele><time>2026-03-24T11:07:53.998Z</time></trkpt><trkpt lat="45.587615779823" lon="10.699229991219596"><ele>201.14285714285714</ele><time>2026-03-24T11:07:58.998Z</time></trkpt><trkpt lat="45.587686037116924" lon="10.699201952275144"><ele>202.0</ele><time>2026-03-24T11:08:04.998Z</time></trkpt><trkpt lat="45.58775157831641" lon="10.699187028190888"><ele>202.85714285714286</ele><time>2026-03-24T11:08:10.998Z</time></trkpt><trkpt lat="45.58781303777457" lon="10.69914454160414"><ele>203.71428571428572</ele><time>2026-03-24T11:08:17.998Z</time></trkpt><trkpt lat="45.58789344608841" lon="10.699144514601885"><ele>204.57142857142856</ele><time>2026-03-24T11:08:43Z</time></trkpt><trkpt lat="45.58795901488863" lon="10.699103146984704"><ele>205.42857142857144</ele><time>2026-03-24T11:08:51Z</time></trkpt><trkpt lat="45.58802981685652" lon="10.699115316337261"><ele>206.2857142857143</ele><time>2026-03-24T11:08:57.999Z</time></trkpt><trkpt lat="45.588097802652996" lon="10.699097694109872"><ele>207.14285714285714</ele><time>2026-03-24T11:09:05.999Z</time></trkpt><trkpt lat="45.588167180387245" lon="10.699084271145836"><ele>208.0</ele><time>2026-03-24T11:09:12.999Z</time></trkpt><trkpt lat="45.58823326933904" lon="10.699069324283595"><ele>208.28571428571428</ele><time>2026-03-24T11:09:19.999Z</time></trkpt><trkpt lat="45.5883070881828" lon="10.69905383785855"><ele>208.57142857142858</ele><time>2026-03-24T11:09:24.999Z</time></trkpt><trkpt lat="45.58837362748512" lon="10.699040640142584"><ele>208.85714285714286</ele><time>2026-03-24T11:09:29.999Z</time></trkpt><trkpt lat="45.588445319733765" lon="10.699016944227989"><ele>209.14285714285714</ele><time>2026-03-24T11:09:34.999Z</time></trkpt><trkpt lat="45.58851847955271" lon="10.699019379054253"><ele>209.42857142857144</ele><time>2026-03-24T11:09:40.999Z</time></trkpt><trkpt lat="45.588590598253816" lon="10.69902626362707"><ele>209.71428571428572</ele><time>2026-03-24T11:09:46.999Z</time></trkpt><trkpt lat="45.58865478912565" lon="10.69900082401012"><ele>210.0</ele><time>2026-03-24T11:09:51.999Z</time></trkpt><trkpt lat="45.588723373356764" lon="10.698979834670686"><ele>211.28571428571428</ele><time>2026-03-24T11:09:57.998Z</time></trkpt><trkpt lat="45.5887858386657" lon="10.69895734907366"><ele>212.57142857142856</ele><time>2026-03-24T11:10:03.998Z</time></trkpt><trkpt lat="45.5888476500421" lon="10.698932820174933"><ele>213.85714285714286</ele><time>2026-03-24T11:10:10.998Z</time></trkpt><trkpt lat="45.58890644256611" lon="10.698899950159468"><ele>215.14285714285714</ele><time>2026-03-24T11:10:17.998Z</time></trkpt><trkpt lat="45.58896492801379" lon="10.698849324722119"><ele>216.42857142857142</ele><time>2026-03-24T11:10:24.998Z</time></trkpt><trkpt lat="45.58901545288339" lon="10.698789246955691"><ele>217.71428571428572</ele><time>2026-03-24T11:10:30.998Z</time></trkpt><trkpt lat="45.58906125959929" lon="10.698718286764766"><ele>219.0</ele><time>2026-03-24T11:10:39Z</time></trkpt><trkpt lat="45.5891284921252" lon="10.698706274592714"><ele>219.0</ele><time>2026-03-24T11:10:47Z</time></trkpt><trkpt lat="45.58917573213253" lon="10.69864048317862"><ele>219.0</ele><time>2026-03-24T11:10:54Z</time></trkpt><trkpt lat="45.589227568982864" lon="10.698580656478953"><ele>219.0</ele><time>2026-03-24T11:11:00.999Z</time></trkpt><trkpt lat="45.58928153899153" lon="10.698520800649064"><ele>219.0</ele><time>2026-03-24T11:11:07.999Z</time></trkpt><trkpt lat="45.589339835177896" lon="10.698475612153466"><ele>219.0</ele><time>2026-03-24T11:11:15.999Z</time></trkpt><trkpt lat="45.58940037540367" lon="10.69842094134552"><ele>219.0</ele><time>2026-03-24T11:11:22.999Z</time></trkpt><trkpt lat="45.58946240633269" lon="10.698379860214255"><ele>219.0</ele><time>2026-03-24T11:11:29.999Z</time></trkpt><trkpt lat="45.58952004925187" lon="10.69833348244372"><ele>220.28571428571428</ele><time>2026-03-24T11:11:35.999Z</time></trkpt><trkpt lat="45.58958434952924" lon="10.698287658327892"><ele>221.57142857142856</ele><time>2026-03-24T11:11:43.999Z</time></trkpt><trkpt lat="45.5896487802284" lon="10.698278464163"><ele>222.85714285714283</ele><time>2026-03-24T11:11:50.999Z</time></trkpt><trkpt lat="45.58970753890175" lon="10.698237501027139"><ele>224.14285714285714</ele><time>2026-03-24T11:11:56.999Z</time></trkpt><trkpt lat="45.589769960398996" lon="10.698190151941052"><ele>225.4285714285714</ele><time>2026-03-24T11:12:03.998Z</time></trkpt><trkpt lat="45.58983713635045" lon="10.6981869208476"><ele>226.7142857142857</ele><time>2026-03-24T11:12:10.998Z</time></trkpt><trkpt lat="45.58990197484501" lon="10.698152300323793"><ele>228.0</ele><time>2026-03-24T11:12:17.998Z</time></trkpt><trkpt lat="45.5899638635191" lon="10.69812372921678"><ele>228.0</ele><time>2026-03-24T11:12:23.998Z</time></trkpt><trkpt lat="45.59003719632498" lon="10.698093644426152"><ele>227.99999999999997</ele><time>2026-03-24T11:12:30.998Z</time></trkpt><trkpt lat="45.5901020406442" lon="10.698065629079721"><ele>228.0</ele><time>2026-03-24T11:12:37.998Z</time></trkpt><trkpt lat="45.5901603594286" lon="10.698030543185723"><ele>228.0</ele><time>2026-03-24T11:12:45Z</time></trkpt><trkpt lat="45.59021915454369" lon="10.697996547201216"><ele>227.99999999999997</ele><time>2026-03-24T11:12:53Z</time></trkpt><trkpt lat="45.590292252777985" lon="10.697950117820007"><ele>228.0</ele><time>2026-03-24T11:13:02Z</time></trkpt><trkpt lat="45.59035830765326" lon="10.697948638857337"><ele>228.0</ele><time>2026-03-24T11:13:08.999Z</time></trkpt><trkpt lat="45.59042931948238" lon="10.697924358736461"><ele>229.0</ele><time>2026-03-24T11:13:16.999Z</time></trkpt><trkpt lat="45.59049343440335" lon="10.697902405785946"><ele>229.99999999999997</ele><time>2026-03-24T11:13:22.999Z</time></trkpt><trkpt lat="45.590556700859004" lon="10.697890468423694"><ele>231.0</ele><time>2026-03-24T11:13:29.999Z</time></trkpt><trkpt lat="45.590618310976446" lon="10.697858766268709"><ele>232.0</ele><time>2026-03-24T11:13:37.999Z</time></trkpt><trkpt lat="45.590678212040636" lon="10.697830261103022"><ele>232.99999999999997</ele><time>2026-03-24T11:13:43.999Z</time></trkpt><trkpt lat="45.59074345278072" lon="10.697805198161657"><ele>234.0</ele><time>2026-03-24T11:13:49.999Z</time></trkpt><trkpt lat="45.590812742054105" lon="10.697797845264336"><ele>235.0</ele><time>2026-03-24T11:13:55.999Z</time></trkpt><trkpt lat="45.59087628202204" lon="10.697775647917512"><ele>235.0</ele><time>2026-03-24T11:14:01.999Z</time></trkpt><trkpt lat="45.590941044236715" lon="10.697752898654645"><ele>234.99999999999997</ele><time>2026-03-24T11:14:08.998Z</time></trkpt><trkpt lat="45.591004675750604" lon="10.697755028227196"><ele>235.0</ele><time>2026-03-24T11:14:15.998Z</time></trkpt><trkpt lat="45.591068409952136" lon="10.697736183775723"><ele>235.0</ele><time>2026-03-24T11:14:21.998Z</time></trkpt><trkpt lat="45.591134771787814" lon="10.697725623229944"><ele>234.99999999999997</ele><time>2026-03-24T11:14:28.998Z</time></trkpt><trkpt lat="45.59120332433515" lon="10.697722887976123"><ele>235.0</ele><time>2026-03-24T11:14:36.998Z</time></trkpt><trkpt lat="45.591272644955716" lon="10.69773443323996"><ele>235.0</ele><time>2026-03-24T11:14:45.998Z</time></trkpt><trkpt lat="45.591339565520975" lon="10.697707704152885"><ele>237.57142857142856</ele><time>2026-03-24T11:14:54Z</time></trkpt><trkpt lat="45.59140441843862" lon="10.69772123149044"><ele>240.1428571428571</ele><time>2026-03-24T11:15:02Z</time></trkpt><trkpt lat="45.59147327444377" lon="10.697723540242283"><ele>242.71428571428572</ele><time>2026-03-24T11:15:09.999Z</time></trkpt><trkpt lat="45.59154051183777" lon="10.697726782352335"><ele>245.28571428571428</ele><time>2026-03-24T11:15:16.999Z</time></trkpt><trkpt lat="45.59161489948126" lon="10.697731921361173"><ele>247.85714285714286</ele><time>2026-03-24T11:15:23.999Z</time></trkpt><trkpt lat="45.5916832921632" lon="10.69773690662702"><ele>250.42857142857144</ele><time>2026-03-24T11:15:30.999Z</time></trkpt><trkpt lat="45.5917480750096" lon="10.697727290776166"><ele>253.00000000000003</ele><time>2026-03-24T11:15:36.999Z</time></trkpt><trkpt lat="45.59181378396281" lon="10.697749679191135"><ele>253.14285714285717</ele><time>2026-03-24T11:15:43.999Z</time></trkpt><trkpt lat="45.591878784870616" lon="10.697760271118513"><ele>253.28571428571428</ele><time>2026-03-24T11:15:50.999Z</time></trkpt><trkpt lat="45.591942593726806" lon="10.69776565560328"><ele>253.42857142857144</ele><time>2026-03-24T11:15:57.999Z</time></trkpt><trkpt lat="45.59200696666949" lon="10.697774234936022"><ele>253.57142857142858</ele><time>2026-03-24T11:16:03.999Z</time></trkpt><trkpt lat="45.592072722317695" lon="10.697803474317567"><ele>253.71428571428572</ele><time>2026-03-24T11:16:11.998Z</time></trkpt><trkpt lat="45.59213627662792" lon="10.697786469831435"><ele>253.85714285714286</ele><time>2026-03-24T11:16:18.998Z</time></trkpt><trkpt lat="45.592200583533405" lon="10.697814839861033"><ele>254.0</ele><time>2026-03-24T11:16:25.998Z</time></trkpt><trkpt lat="45.5922657860944" lon="10.697849513682417"><ele>254.0</ele><time>2026-03-24T11:16:33.998Z</time></trkpt><trkpt lat="45.59232833684641" lon="10.69787456655119"><ele>254.0</ele><time>2026-03-24T11:16:40.998Z</time></trkpt><trkpt lat="45.59239287886807" lon="10.697894049017558"><ele>254.0</ele><time>2026-03-24T11:16:47.998Z</time></trkpt><trkpt lat="45.59245575171103" lon="10.697918740419581"><ele>254.0</ele><time>2026-03-24T11:16:55Z</time></trkpt><trkpt lat="45.59251350608166" lon="10.69796217589688"><ele>254.0</ele><time>2026-03-24T11:17:00Z</time></trkpt><trkpt lat="45.59258172958731" lon="10.698010924708411"><ele>254.0</ele><time>2026-03-24T11:17:07Z</time></trkpt><trkpt lat="45.59265146883117" lon="10.69803203333696"><ele>254.0</ele><time>2026-03-24T11:17:12.999Z</time></trkpt><trkpt lat="45.59274866686118" lon="10.69807797075604"><ele>254.0</ele><time>2026-03-24T11:20:23.998Z</time></trkpt><trkpt lat="45.592804178132" lon="10.698135582138175"><ele>254.0</ele><time>2026-03-24T11:20:29.998Z</time></trkpt><trkpt lat="45.592878747658276" lon="10.698165536036955"><ele>254.0</ele><time>2026-03-24T11:20:35.998Z</time></trkpt><trkpt lat="45.59295157327191" lon="10.698204493251444"><ele>254.0</ele><time>2026-03-24T11:20:40.998Z</time></trkpt><trkpt lat="45.59301367573409" lon="10.698225169568273"><ele>254.0</ele><time>2026-03-24T11:20:44.998Z</time></trkpt><trkpt lat="45.59308692486421" lon="10.698250631205035"><ele>254.0</ele><time>2026-03-24T11:20:50.998Z</time></trkpt><trkpt lat="45.59316051838108" lon="10.69826595921438"><ele>254.0</ele><time>2026-03-24T11:20:54.998Z</time></trkpt><trkpt lat="45.59321796601659" lon="10.698307884413959"><ele>255.0</ele><time>2026-03-24T11:20:58.998Z</time></trkpt><trkpt lat="45.5932798810596" lon="10.698344235002432"><ele>256.0</ele><time>2026-03-24T11:21:03.999Z</time></trkpt><trkpt lat="45.59334724260935" lon="10.698386769571028"><ele>257.0</ele><time>2026-03-24T11:21:08.999Z</time></trkpt><trkpt lat="45.59340933936936" lon="10.698411479090266"><ele>258.0</ele><time>2026-03-24T11:21:13.999Z</time></trkpt><trkpt lat="45.59347670155996" lon="10.69842148242653"><ele>259.0</ele><time>2026-03-24T11:21:18.999Z</time></trkpt><trkpt lat="45.593539819593225" lon="10.698457229663255"><ele>260.0</ele><time>2026-03-24T11:21:22.999Z</time></trkpt><trkpt lat="45.5936100463797" lon="10.698489501106893"><ele>261.0</ele><time>2026-03-24T11:21:27.999Z</time></trkpt><trkpt lat="45.59368260251796" lon="10.698522538789526"><ele>261.6666666666667</ele><time>2026-03-24T11:21:32.999Z</time></trkpt><trkpt lat="45.593756755563504" lon="10.698554352726955"><ele>262.3333333333333</ele><time>2026-03-24T11:21:37.999Z</time></trkpt><trkpt lat="45.59382692162428" lon="10.698597625011665"><ele>263.0</ele><time>2026-03-24T11:21:42.999Z</time></trkpt><trkpt lat="45.59389566259504" lon="10.698639024395629"><ele>263.66666666666663</ele><time>2026-03-24T11:21:47.999Z</time></trkpt><trkpt lat="45.593967669252756" lon="10.698676407768367"><ele>264.3333333333333</ele><time>2026-03-24T11:21:52.999Z</time></trkpt><trkpt lat="45.59403650224473" lon="10.698724478525147"><ele>265.0</ele><time>2026-03-24T11:21:57.999Z</time></trkpt><trkpt lat="45.59410120230241" lon="10.698763111339487"><ele>264.99999999999994</ele><time>2026-03-24T11:22:01.999Z</time></trkpt><trkpt lat="45.59415944056434" lon="10.698814253971875"><ele>265.0</ele><time>2026-03-24T11:22:05.999Z</time></trkpt><trkpt lat="45.59421745243436" lon="10.698865296453246"><ele>265.0</ele><time>2026-03-24T11:22:09.999Z</time></trkpt><trkpt lat="45.594281701374314" lon="10.698915254429163"><ele>265.0</ele><time>2026-03-24T11:22:14.999Z</time></trkpt><trkpt lat="45.59433589476643" lon="10.698964835321677"><ele>265.0</ele><time>2026-03-24T11:22:18.998Z</time></trkpt><trkpt lat="45.59440342558135" lon="10.699010938960233"><ele>264.99999999999994</ele><time>2026-03-24T11:22:22.998Z</time></trkpt><trkpt lat="45.594460973657256" lon="10.69906247568721"><ele>265.0</ele><time>2026-03-24T11:22:26.998Z</time></trkpt><trkpt lat="45.59451742835004" lon="10.699125769056762"><ele>265.85714285714283</ele><time>2026-03-24T11:22:31.998Z</time></trkpt><trkpt lat="45.594589753723675" lon="10.699177735239335"><ele>266.7142857142857</ele><time>2026-03-24T11:22:36.998Z</time></trkpt><trkpt lat="45.59465657090298" lon="10.699238278112349"><ele>267.57142857142856</ele><time>2026-03-24T11:22:40.998Z</time></trkpt><trkpt lat="45.594715498120685" lon="10.699292145329597"><ele>268.42857142857144</ele><time>2026-03-24T11:22:44.998Z</time></trkpt><trkpt lat="45.59477416029665" lon="10.699339136857775"><ele>269.2857142857143</ele><time>2026-03-24T11:22:48.998Z</time></trkpt><trkpt lat="45.59483662072351" lon="10.699366765971826"><ele>270.1428571428571</ele><time>2026-03-24T11:22:52.998Z</time></trkpt><trkpt lat="45.59490190996787" lon="10.699394016742755"><ele>271.0</ele><time>2026-03-24T11:22:56.998Z</time></trkpt><trkpt lat="45.594971442335776" lon="10.69943733713157"><ele>271.0</ele><time>2026-03-24T11:23:01.998Z</time></trkpt><trkpt lat="45.59503444425272" lon="10.699468792781778"><ele>271.0</ele><time>2026-03-24T11:23:05.998Z</time></trkpt><trkpt lat="45.59510954878405" lon="10.699506999421128"><ele>271.0</ele><time>2026-03-24T11:23:09.999Z</time></trkpt><trkpt lat="45.59517809113776" lon="10.699544603585192"><ele>271.0</ele><time>2026-03-24T11:23:13.999Z</time></trkpt><trkpt lat="45.595263886168446" lon="10.699583569764457"><ele>271.0</ele><time>2026-03-24T11:23:17.999Z</time></trkpt><trkpt lat="45.595334335377366" lon="10.699622838674818"><ele>271.0</ele><time>2026-03-24T11:23:20.999Z</time></trkpt><trkpt lat="45.595407429617104" lon="10.699661967782166"><ele>271.3333333333333</ele><time>2026-03-24T11:23:23.999Z</time></trkpt><trkpt lat="45.595492461225284" lon="10.699706735591926"><ele>271.66666666666663</ele><time>2026-03-24T11:23:26.999Z</time></trkpt><trkpt lat="45.59557287559217" lon="10.699764632761847"><ele>272.0</ele><time>2026-03-24T11:23:29.999Z</time></trkpt><trkpt lat="45.595656785460655" lon="10.6998016568657"><ele>272.3333333333333</ele><time>2026-03-24T11:23:32.999Z</time></trkpt><trkpt lat="45.59573549609094" lon="10.699860200156428"><ele>272.6666666666667</ele><time>2026-03-24T11:23:35.999Z</time></trkpt><trkpt lat="45.59580059695202" lon="10.699886739324569"><ele>273.0</ele><time>2026-03-24T11:23:37.999Z</time></trkpt><trkpt lat="45.59585817294059" lon="10.699937884320844"><ele>273.0</ele><time>2026-03-24T11:23:39.999Z</time></trkpt><trkpt lat="45.59594214434518" lon="10.699996678872212"><ele>273.0</ele><time>2026-03-24T11:23:41.999Z</time></trkpt><trkpt lat="45.59601274537638" lon="10.700046746213296"><ele>273.0</ele><time>2026-03-24T11:23:43.999Z</time></trkpt><trkpt lat="45.59607678044898" lon="10.700097250566625"><ele>273.0</ele><time>2026-03-24T11:23:45.999Z</time></trkpt><trkpt lat="45.59614445091" lon="10.700131421668033"><ele>273.0</ele><time>2026-03-24T11:23:47.999Z</time></trkpt><trkpt lat="45.59621250660475" lon="10.700173743208335"><ele>273.0</ele><time>2026-03-24T11:23:49.999Z</time></trkpt><trkpt lat="45.59628318092222" lon="10.700213922435116"><ele>273.14285714285717</ele><time>2026-03-24T11:23:51.999Z</time></trkpt><trkpt lat="45.59635099040833" lon="10.700234298355337"><ele>273.2857142857143</ele><time>2026-03-24T11:23:53.999Z</time></trkpt><trkpt lat="45.59641855152613" lon="10.700249806185017"><ele>273.42857142857144</ele><time>2026-03-24T11:23:55.999Z</time></trkpt><trkpt lat="45.59649526822145" lon="10.700261323958673"><ele>273.57142857142856</ele><time>2026-03-24T11:23:58.999Z</time></trkpt><trkpt lat="45.59657152673731" lon="10.700259726042395"><ele>273.7142857142857</ele><time>2026-03-24T11:24:01.999Z</time></trkpt><trkpt lat="45.59664772113721" lon="10.700265499278867"><ele>273.8571428571429</ele><time>2026-03-24T11:24:04.999Z</time></trkpt><trkpt lat="45.596727391988495" lon="10.700269563733283"><ele>274.0</ele><time>2026-03-24T11:24:07.999Z</time></trkpt><trkpt lat="45.59679131651883" lon="10.700273766547813"><ele>274.14285714285717</ele><time>2026-03-24T11:24:10.999Z</time></trkpt><trkpt lat="45.59685475434769" lon="10.700272939265085"><ele>274.2857142857143</ele><time>2026-03-24T11:24:13.999Z</time></trkpt><trkpt lat="45.5969205781396" lon="10.700271101278389"><ele>274.42857142857144</ele><time>2026-03-24T11:24:16.999Z</time></trkpt><trkpt lat="45.59700322483986" lon="10.700275358281608"><ele>274.57142857142856</ele><time>2026-03-24T11:24:20.999Z</time></trkpt><trkpt lat="45.59708727141823" lon="10.700264722168768"><ele>274.7142857142857</ele><time>2026-03-24T11:24:24.999Z</time></trkpt><trkpt lat="45.59715188317803" lon="10.700257515204973"><ele>274.8571428571429</ele><time>2026-03-24T11:24:27.998Z</time></trkpt><trkpt lat="45.597233757610276" lon="10.700240254729513"><ele>275.0</ele><time>2026-03-24T11:24:31.998Z</time></trkpt><trkpt lat="45.597314858712274" lon="10.700230771405138"><ele>275.0</ele><time>2026-03-24T11:24:35.998Z</time></trkpt><trkpt lat="45.597394213070395" lon="10.70022372612929"><ele>275.0</ele><time>2026-03-24T11:24:39.998Z</time></trkpt><trkpt lat="45.597469913335615" lon="10.700231557648307"><ele>275.0</ele><time>2026-03-24T11:24:43.998Z</time></trkpt><trkpt lat="45.597537480876014" lon="10.700235533683548"><ele>275.0</ele><time>2026-03-24T11:24:47.998Z</time></trkpt><trkpt lat="45.59760872296127" lon="10.700241929043457"><ele>275.0</ele><time>2026-03-24T11:24:51.998Z</time></trkpt><trkpt lat="45.59768024361064" lon="10.700245760081952"><ele>275.0</ele><time>2026-03-24T11:24:55.998Z</time></trkpt><trkpt lat="45.59775113140304" lon="10.700249271707698"><ele>275.0</ele><time>2026-03-24T11:24:59.998Z</time></trkpt><trkpt lat="45.59782328073787" lon="10.700246509315654"><ele>276.0</ele><time>2026-03-24T11:25:03.998Z</time></trkpt><trkpt lat="45.59789507818761" lon="10.700248393909407"><ele>277.0</ele><time>2026-03-24T11:25:07.998Z</time></trkpt><trkpt lat="45.59796644654548" lon="10.700259846480249"><ele>278.0</ele><time>2026-03-24T11:25:11.998Z</time></trkpt><trkpt lat="45.59804605141361" lon="10.700251500153117"><ele>279.0</ele><time>2026-03-24T11:25:16Z</time></trkpt><trkpt lat="45.59811899515571" lon="10.70024071333384"><ele>280.0</ele><time>2026-03-24T11:25:20Z</time></trkpt><trkpt lat="45.598194692878316" lon="10.700228763148706"><ele>281.0</ele><time>2026-03-24T11:25:24Z</time></trkpt><trkpt lat="45.598263639998926" lon="10.700205166615376"><ele>282.0</ele><time>2026-03-24T11:25:28Z</time></trkpt><trkpt lat="45.598340137875475" lon="10.70018954685893"><ele>282.0</ele><time>2026-03-24T11:25:32Z</time></trkpt><trkpt lat="45.59842617342651" lon="10.70019203320664"><ele>282.0</ele><time>2026-03-24T11:25:35.999Z</time></trkpt><trkpt lat="45.598504048415386" lon="10.700201665246562"><ele>282.0</ele><time>2026-03-24T11:25:39.999Z</time></trkpt><trkpt lat="45.5985826523703" lon="10.700218598158651"><ele>282.0</ele><time>2026-03-24T11:25:43.999Z</time></trkpt><trkpt lat="45.59865745290964" lon="10.7001964011777"><ele>282.0</ele><time>2026-03-24T11:25:47.999Z</time></trkpt><trkpt lat="45.598721662646625" lon="10.700181675087224"><ele>282.0</ele><time>2026-03-24T11:25:50.999Z</time></trkpt><trkpt lat="45.59880274543937" lon="10.700168908878997"><ele>282.5</ele><time>2026-03-24T11:25:54.999Z</time></trkpt><trkpt lat="45.59888212568641" lon="10.700154816849908"><ele>283.0</ele><time>2026-03-24T11:25:58.999Z</time></trkpt><trkpt lat="45.598945909478736" lon="10.700152734644034"><ele>283.5</ele><time>2026-03-24T11:26:01.999Z</time></trkpt><trkpt lat="45.59902354871187" lon="10.700148851740591"><ele>284.0</ele><time>2026-03-24T11:26:04.999Z</time></trkpt><trkpt lat="45.59909960408004" lon="10.700159206425166"><ele>284.5</ele><time>2026-03-24T11:26:07.999Z</time></trkpt><trkpt lat="45.599182762523505" lon="10.700156007986163"><ele>285.0</ele><time>2026-03-24T11:26:10.999Z</time></trkpt><trkpt lat="45.59926362423192" lon="10.700159009966889"><ele>285.0</ele><time>2026-03-24T11:26:13.999Z</time></trkpt><trkpt lat="45.59934000642356" lon="10.700146809918275"><ele>285.0</ele><time>2026-03-24T11:26:16.999Z</time></trkpt><trkpt lat="45.59941486738937" lon="10.700153718481879"><ele>285.0</ele><time>2026-03-24T11:26:19.999Z</time></trkpt><trkpt lat="45.599493866798255" lon="10.700143216780608"><ele>285.0</ele><time>2026-03-24T11:26:22.999Z</time></trkpt><trkpt lat="45.599572653944406" lon="10.700146348297332"><ele>285.0</ele><time>2026-03-24T11:26:25.999Z</time></trkpt><trkpt lat="45.59965376090905" lon="10.700153943257641"><ele>285.0</ele><time>2026-03-24T11:26:28.999Z</time></trkpt><trkpt lat="45.599734938469794" lon="10.700143798309076"><ele>285.3333333333333</ele><time>2026-03-24T11:26:31.999Z</time></trkpt><trkpt lat="45.599818148124804" lon="10.700146449734866"><ele>285.6666666666667</ele><time>2026-03-24T11:26:34.998Z</time></trkpt><trkpt lat="45.59990233327046" lon="10.700130490832757"><ele>286.0</ele><time>2026-03-24T11:26:37.998Z</time></trkpt><trkpt lat="45.59999368962999" lon="10.700133373383277"><ele>286.33333333333337</ele><time>2026-03-24T11:26:40.998Z</time></trkpt><trkpt lat="45.600083776008574" lon="10.700137965285075"><ele>286.6666666666667</ele><time>2026-03-24T11:26:43.998Z</time></trkpt><trkpt lat="45.60016693735864" lon="10.700142141401175"><ele>287.0</ele><time>2026-03-24T11:26:46.998Z</time></trkpt><trkpt lat="45.600245616285264" lon="10.70015810588939"><ele>287.0</ele><time>2026-03-24T11:26:49.998Z</time></trkpt><trkpt lat="45.60033106740474" lon="10.700187143446973"><ele>287.0</ele><time>2026-03-24T11:26:52.998Z</time></trkpt><trkpt lat="45.60041982032754" lon="10.700211052949877"><ele>287.0</ele><time>2026-03-24T11:26:55.998Z</time></trkpt><trkpt lat="45.60051438947018" lon="10.70022761340876"><ele>287.0</ele><time>2026-03-24T11:26:58.998Z</time></trkpt><trkpt lat="45.60058149725473" lon="10.700226062020286"><ele>287.0</ele><time>2026-03-24T11:27:00.998Z</time></trkpt><trkpt lat="45.60065207074499" lon="10.700224568774376"><ele>287.0</ele><time>2026-03-24T11:27:02.998Z</time></trkpt><trkpt lat="45.60074224507487" lon="10.700219438458419"><ele>286.2</ele><time>2026-03-24T11:27:05.998Z</time></trkpt><trkpt lat="45.6009206603724" lon="10.700181909556154"><ele>285.4</ele><time>2026-03-24T11:27:07.998Z</time></trkpt><trkpt lat="45.6010060774302" lon="10.70017309142551"><ele>284.6</ele><time>2026-03-24T11:27:09.998Z</time></trkpt><trkpt lat="45.60109195570018" lon="10.700157412880117"><ele>283.8</ele><time>2026-03-24T11:27:11.998Z</time></trkpt><trkpt lat="45.60118268721278" lon="10.700148073920683"><ele>283.0</ele><time>2026-03-24T11:27:13.998Z</time></trkpt><trkpt lat="45.60127748690413" lon="10.700141216245342"><ele>283.0</ele><time>2026-03-24T11:27:15.998Z</time></trkpt><trkpt lat="45.601357798829895" lon="10.700120459345456"><ele>283.0</ele><time>2026-03-24T11:27:17.998Z</time></trkpt><trkpt lat="45.60142740265773" lon="10.700108033470977"><ele>283.0</ele><time>2026-03-24T11:27:19.998Z</time></trkpt><trkpt lat="45.601499777679635" lon="10.700117769281489"><ele>283.0</ele><time>2026-03-24T11:27:22Z</time></trkpt><trkpt lat="45.601589270139975" lon="10.700116257125725"><ele>283.0</ele><time>2026-03-24T11:27:24Z</time></trkpt><trkpt lat="45.60168355874977" lon="10.700102440502796"><ele>283.0</ele><time>2026-03-24T11:27:26Z</time></trkpt><trkpt lat="45.601775385535895" lon="10.700107346219257"><ele>283.0</ele><time>2026-03-24T11:27:28Z</time></trkpt><trkpt lat="45.60185337091307" lon="10.700104248164974"><ele>283.0</ele><time>2026-03-24T11:27:30Z</time></trkpt><trkpt lat="45.60193901935003" lon="10.700100046708746"><ele>283.0</ele><time>2026-03-24T11:27:32Z</time></trkpt><trkpt lat="45.60203905351933" lon="10.700083180398686"><ele>283.0</ele><time>2026-03-24T11:27:34Z</time></trkpt><trkpt lat="45.6021302769628" lon="10.700081562993583"><ele>283.0</ele><time>2026-03-24T11:27:36Z</time></trkpt><trkpt lat="45.602213099561105" lon="10.700064200109862"><ele>283.0</ele><time>2026-03-24T11:27:38Z</time></trkpt><trkpt lat="45.60231115811611" lon="10.70005731806362"><ele>283.2</ele><time>2026-03-24T11:27:39.999Z</time></trkpt><trkpt lat="45.602409161909364" lon="10.70005803647911"><ele>283.4</ele><time>2026-03-24T11:27:41.999Z</time></trkpt><trkpt lat="45.602513939113734" lon="10.700040922462144"><ele>283.59999999999997</ele><time>2026-03-24T11:27:43.999Z</time></trkpt><trkpt lat="45.60260225455924" lon="10.700035461278288"><ele>283.8</ele><time>2026-03-24T11:27:45.999Z</time></trkpt><trkpt lat="45.60268358170911" lon="10.70002423756751"><ele>284.0</ele><time>2026-03-24T11:27:47.999Z</time></trkpt><trkpt lat="45.60276839645627" lon="10.70001704862791"><ele>284.5</ele><time>2026-03-24T11:27:49.999Z</time></trkpt><trkpt lat="45.602854840586645" lon="10.70001142606032"><ele>285.0</ele><time>2026-03-24T11:27:51.999Z</time></trkpt><trkpt lat="45.60294336533118" lon="10.699993472657814"><ele>285.5</ele><time>2026-03-24T11:27:53.999Z</time></trkpt><trkpt lat="45.60301936074118" lon="10.699996691946712"><ele>286.0</ele><time>2026-03-24T11:27:55.999Z</time></trkpt><trkpt lat="45.60308796256398" lon="10.699991622216283"><ele>286.5</ele><time>2026-03-24T11:27:57.999Z</time></trkpt><trkpt lat="45.60316998541923" lon="10.699986221080785"><ele>287.0</ele><time>2026-03-24T11:28:00.999Z</time></trkpt><trkpt lat="45.603234731782415" lon="10.699979394310933"><ele>287.0</ele><time>2026-03-24T11:28:02.999Z</time></trkpt><trkpt lat="45.60329942582497" lon="10.699970605693508"><ele>287.0</ele><time>2026-03-24T11:28:05.999Z</time></trkpt><trkpt lat="45.60337642272657" lon="10.699962750553654"><ele>287.0</ele><time>2026-03-24T11:28:08.999Z</time></trkpt><trkpt lat="45.6034950987955" lon="10.699948165577704"><ele>287.0</ele><time>2026-03-24T11:28:11.999Z</time></trkpt><trkpt lat="45.60357753981352" lon="10.69994741817697"><ele>287.0</ele><time>2026-03-24T11:28:14.999Z</time></trkpt><trkpt lat="45.6036578037977" lon="10.699941014159377"><ele>287.0</ele><time>2026-03-24T11:28:17.999Z</time></trkpt><trkpt lat="45.60374991417514" lon="10.699936348711383"><ele>287.1666666666667</ele><time>2026-03-24T11:28:20.999Z</time></trkpt><trkpt lat="45.603831184712554" lon="10.699932834386924"><ele>287.33333333333337</ele><time>2026-03-24T11:28:23.999Z</time></trkpt><trkpt lat="45.60390401034403" lon="10.69992465063686"><ele>287.5</ele><time>2026-03-24T11:28:26.999Z</time></trkpt><trkpt lat="45.60398226359463" lon="10.699915599606197"><ele>287.6666666666667</ele><time>2026-03-24T11:28:30.999Z</time></trkpt><trkpt lat="45.60405359057297" lon="10.699896933808132"><ele>287.8333333333333</ele><time>2026-03-24T11:28:34.999Z</time></trkpt><trkpt lat="45.60412288180745" lon="10.699902173955552"><ele>288.0</ele><time>2026-03-24T11:28:38.999Z</time></trkpt><trkpt lat="45.60421362789801" lon="10.699874041162943"><ele>288.00000000000006</ele><time>2026-03-24T11:28:42.998Z</time></trkpt><trkpt lat="45.604281472573426" lon="10.699826137528582"><ele>288.0</ele><time>2026-03-24T11:28:46.999Z</time></trkpt><trkpt lat="45.60434750196892" lon="10.699800375842951"><ele>288.0</ele><time>2026-03-24T11:28:50.999Z</time></trkpt><trkpt lat="45.60441867544686" lon="10.699763654476474"><ele>288.0</ele><time>2026-03-24T11:28:54.999Z</time></trkpt><trkpt lat="45.604491397932605" lon="10.699747823275874"><ele>288.0</ele><time>2026-03-24T11:28:58.999Z</time></trkpt><trkpt lat="45.604560285008" lon="10.69973682198412"><ele>288.00000000000006</ele><time>2026-03-24T11:29:02.999Z</time></trkpt><trkpt lat="45.60463977184409" lon="10.699728773356727"><ele>288.0</ele><time>2026-03-24T11:29:06.999Z</time></trkpt><trkpt lat="45.604719946072" lon="10.69971612257882"><ele>288.6666666666667</ele><time>2026-03-24T11:29:10.999Z</time></trkpt><trkpt lat="45.60479928514449" lon="10.699702514472579"><ele>289.3333333333333</ele><time>2026-03-24T11:29:14.999Z</time></trkpt><trkpt lat="45.604877157716395" lon="10.699695140913814"><ele>290.0</ele><time>2026-03-24T11:29:18.999Z</time></trkpt><trkpt lat="45.60495805596115" lon="10.69968012466723"><ele>290.66666666666663</ele><time>2026-03-24T11:29:22.999Z</time></trkpt><trkpt lat="45.605029555668764" lon="10.699672138564416"><ele>291.3333333333333</ele><time>2026-03-24T11:29:26.999Z</time></trkpt><trkpt lat="45.60510844916396" lon="10.699679682733096"><ele>292.0</ele><time>2026-03-24T11:29:31.001Z</time></trkpt><trkpt lat="45.60518532365658" lon="10.699699936101016"><ele>292.0</ele><time>2026-03-24T11:29:35.001Z</time></trkpt><trkpt lat="45.605247898593845" lon="10.699721296469084"><ele>292.0</ele><time>2026-03-24T11:29:38.001Z</time></trkpt><trkpt lat="45.60531058243967" lon="10.699756570547626"><ele>292.0</ele><time>2026-03-24T11:29:41.001Z</time></trkpt><trkpt lat="45.60538638567074" lon="10.699805432647269"><ele>292.0</ele><time>2026-03-24T11:29:44.001Z</time></trkpt><trkpt lat="45.60546309364292" lon="10.699858479369126"><ele>292.0</ele><time>2026-03-24T11:29:47Z</time></trkpt><trkpt lat="45.60552777827929" lon="10.699914843455"><ele>292.0</ele><time>2026-03-24T11:29:50Z</time></trkpt><trkpt lat="45.605603490000775" lon="10.699972700140995"><ele>292.5</ele><time>2026-03-24T11:29:53Z</time></trkpt><trkpt lat="45.605671934647226" lon="10.700027520787451"><ele>293.0</ele><time>2026-03-24T11:29:56Z</time></trkpt><trkpt lat="45.60573538654446" lon="10.700083539057006"><ele>293.5</ele><time>2026-03-24T11:29:59Z</time></trkpt><trkpt lat="45.60582174493306" lon="10.700147647754521"><ele>294.0</ele><time>2026-03-24T11:30:03Z</time></trkpt><trkpt lat="45.60590479395549" lon="10.700209142886377"><ele>294.5</ele><time>2026-03-24T11:30:06Z</time></trkpt><trkpt lat="45.605975776581325" lon="10.700244094570017"><ele>295.0</ele><time>2026-03-24T11:30:08Z</time></trkpt><trkpt lat="45.60603966482204" lon="10.700280401001502"><ele>295.5</ele><time>2026-03-24T11:30:10Z</time></trkpt><trkpt lat="45.606127215009394" lon="10.700336356843302"><ele>296.0</ele><time>2026-03-24T11:30:12Z</time></trkpt><trkpt lat="45.60620071387229" lon="10.700382607983414"><ele>296.5</ele><time>2026-03-24T11:30:14Z</time></trkpt><trkpt lat="45.606300206852" lon="10.7004020157056"><ele>297.0</ele><time>2026-03-24T11:30:17Z</time></trkpt><trkpt lat="45.606371298512805" lon="10.700418319246642"><ele>297.5</ele><time>2026-03-24T11:30:19Z</time></trkpt><trkpt lat="45.60645451704754" lon="10.700431641775905"><ele>298.0</ele><time>2026-03-24T11:30:22Z</time></trkpt><trkpt lat="45.60651821188586" lon="10.700453969970058"><ele>298.8333333333333</ele><time>2026-03-24T11:30:24Z</time></trkpt><trkpt lat="45.60661154970758" lon="10.700497315001487"><ele>299.66666666666663</ele><time>2026-03-24T11:30:27Z</time></trkpt><trkpt lat="45.60667791468504" lon="10.700519481825497"><ele>300.5</ele><time>2026-03-24T11:30:29Z</time></trkpt><trkpt lat="45.6067655741346" lon="10.700540298770674"><ele>301.3333333333333</ele><time>2026-03-24T11:30:32Z</time></trkpt><trkpt lat="45.60684762081053" lon="10.700576565323926"><ele>302.1666666666667</ele><time>2026-03-24T11:30:35Z</time></trkpt><trkpt lat="45.60691828064195" lon="10.70060086665593"><ele>303.0</ele><time>2026-03-24T11:30:38Z</time></trkpt><trkpt lat="45.60699395584523" lon="10.700621623440192"><ele>303.14285714285717</ele><time>2026-03-24T11:30:42Z</time></trkpt><trkpt lat="45.60705718045219" lon="10.700634181230384"><ele>303.2857142857143</ele><time>2026-03-24T11:30:46Z</time></trkpt><trkpt lat="45.607129940191975" lon="10.70064137780528"><ele>303.42857142857144</ele><time>2026-03-24T11:30:50.999Z</time></trkpt><trkpt lat="45.60720099991518" lon="10.700631834382525"><ele>303.57142857142856</ele><time>2026-03-24T11:30:55.999Z</time></trkpt><trkpt lat="45.60727150572427" lon="10.700658110541482"><ele>303.7142857142857</ele><time>2026-03-24T11:31:00.999Z</time></trkpt><trkpt lat="45.607340252743406" lon="10.700685357846949"><ele>303.85714285714283</ele><time>2026-03-24T11:31:04.999Z</time></trkpt><trkpt lat="45.607406629359545" lon="10.70069087279377"><ele>304.0</ele><time>2026-03-24T11:31:08.999Z</time></trkpt><trkpt lat="45.607481164766405" lon="10.7006916611028"><ele>304.0</ele><time>2026-03-24T11:31:12.999Z</time></trkpt><trkpt lat="45.607555989370645" lon="10.700698387530565"><ele>304.0</ele><time>2026-03-24T11:31:16.999Z</time></trkpt><trkpt lat="45.60762928550771" lon="10.700705861350059"><ele>304.0</ele><time>2026-03-24T11:31:20.999Z</time></trkpt><trkpt lat="45.60769890927997" lon="10.700726722146438"><ele>304.0</ele><time>2026-03-24T11:31:24.999Z</time></trkpt><trkpt lat="45.60776423386833" lon="10.700743483927262"><ele>304.0</ele><time>2026-03-24T11:31:28.999Z</time></trkpt><trkpt lat="45.60783456484996" lon="10.700760726665585"><ele>304.0</ele><time>2026-03-24T11:31:32.999Z</time></trkpt><trkpt lat="45.60790514760628" lon="10.700786113367952"><ele>304.0</ele><time>2026-03-24T11:31:37.001Z</time></trkpt><trkpt lat="45.60796991443388" lon="10.70082429538433"><ele>303.57142857142856</ele><time>2026-03-24T11:31:41.001Z</time></trkpt><trkpt lat="45.60803641709827" lon="10.700852166208865"><ele>303.14285714285717</ele><time>2026-03-24T11:31:45.001Z</time></trkpt><trkpt lat="45.60810491399575" lon="10.700884235302885"><ele>302.7142857142857</ele><time>2026-03-24T11:31:49.001Z</time></trkpt><trkpt lat="45.60817505947014" lon="10.700914383755403"><ele>302.2857142857143</ele><time>2026-03-24T11:31:53Z</time></trkpt><trkpt lat="45.60824205306209" lon="10.700949112381643"><ele>301.8571428571429</ele><time>2026-03-24T11:31:57Z</time></trkpt><trkpt lat="45.60831231330159" lon="10.700981496593643"><ele>301.42857142857144</ele><time>2026-03-24T11:32:01Z</time></trkpt><trkpt lat="45.608389538245895" lon="10.701002509603258"><ele>301.0</ele><time>2026-03-24T11:32:05Z</time></trkpt><trkpt lat="45.60846433335905" lon="10.701020383660287"><ele>301.0</ele><time>2026-03-24T11:32:09Z</time></trkpt><trkpt lat="45.60854170595624" lon="10.701046153506248"><ele>301.0</ele><time>2026-03-24T11:32:13Z</time></trkpt><trkpt lat="45.60862096319822" lon="10.70106337338242"><ele>301.0</ele><time>2026-03-24T11:32:17Z</time></trkpt><trkpt lat="45.60868629185227" lon="10.701074722770052"><ele>301.0</ele><time>2026-03-24T11:32:20Z</time></trkpt><trkpt lat="45.608761962370274" lon="10.701086774458837"><ele>301.0</ele><time>2026-03-24T11:32:24Z</time></trkpt><trkpt lat="45.60884016475531" lon="10.70109806039706"><ele>301.0</ele><time>2026-03-24T11:32:28Z</time></trkpt><trkpt lat="45.60891420214813" lon="10.70111376293014"><ele>301.7142857142857</ele><time>2026-03-24T11:32:32Z</time></trkpt><trkpt lat="45.608978825783694" lon="10.701131540613176"><ele>302.42857142857144</ele><time>2026-03-24T11:32:36Z</time></trkpt><trkpt lat="45.60904553889574" lon="10.7011576810188"><ele>303.1428571428571</ele><time>2026-03-24T11:32:40Z</time></trkpt><trkpt lat="45.609125178702186" lon="10.701189641608368"><ele>303.8571428571429</ele><time>2026-03-24T11:32:44Z</time></trkpt><trkpt lat="45.60920505736112" lon="10.701216584289005"><ele>304.57142857142856</ele><time>2026-03-24T11:32:48Z</time></trkpt><trkpt lat="45.60926713734137" lon="10.70124859857371"><ele>305.2857142857143</ele><time>2026-03-24T11:32:50.999Z</time></trkpt><trkpt lat="45.60933102455304" lon="10.701272880644895"><ele>306.0</ele><time>2026-03-24T11:32:53.999Z</time></trkpt><trkpt lat="45.60940877243514" lon="10.701284726171593"><ele>305.8333333333333</ele><time>2026-03-24T11:32:57.999Z</time></trkpt><trkpt lat="45.609493461979824" lon="10.70130692224316"><ele>305.6666666666667</ele><time>2026-03-24T11:33:01.999Z</time></trkpt><trkpt lat="45.609562753370234" lon="10.701331941259925"><ele>305.5</ele><time>2026-03-24T11:33:04.999Z</time></trkpt><trkpt lat="45.60962508730328" lon="10.701353161117177"><ele>305.33333333333337</ele><time>2026-03-24T11:33:07.999Z</time></trkpt><trkpt lat="45.60968259652724" lon="10.70140131089268"><ele>305.1666666666667</ele><time>2026-03-24T11:33:10.999Z</time></trkpt><trkpt lat="45.60976533749536" lon="10.701430250590965"><ele>305.0</ele><time>2026-03-24T11:33:14.999Z</time></trkpt><trkpt lat="45.60983084491673" lon="10.70149642712993"><ele>305.0</ele><time>2026-03-24T11:33:18.999Z</time></trkpt><trkpt lat="45.6098924057799" lon="10.701542953519473"><ele>305.0</ele><time>2026-03-24T11:33:22.999Z</time></trkpt><trkpt lat="45.60997356711747" lon="10.701591965821562"><ele>305.0</ele><time>2026-03-24T11:33:26.999Z</time></trkpt><trkpt lat="45.610049120586694" lon="10.70164204553136"><ele>305.0</ele><time>2026-03-24T11:33:30.999Z</time></trkpt><trkpt lat="45.61012941380597" lon="10.701692382585854"><ele>305.0</ele><time>2026-03-24T11:33:33.999Z</time></trkpt><trkpt lat="45.61020019788811" lon="10.7017197732806"><ele>305.0</ele><time>2026-03-24T11:33:36.999Z</time></trkpt><trkpt lat="45.610260687265296" lon="10.701764034276431"><ele>305.33333333333337</ele><time>2026-03-24T11:33:38.999Z</time></trkpt><trkpt lat="45.6103376844065" lon="10.701810282887953"><ele>305.6666666666667</ele><time>2026-03-24T11:33:42.001Z</time></trkpt><trkpt lat="45.610423242824304" lon="10.70186405106434"><ele>306.0</ele><time>2026-03-24T11:33:45.001Z</time></trkpt><trkpt lat="45.610488503542015" lon="10.701908001361508"><ele>306.3333333333333</ele><time>2026-03-24T11:33:47.001Z</time></trkpt><trkpt lat="45.61055833437376" lon="10.701945339888994"><ele>306.66666666666663</ele><time>2026-03-24T11:33:49.001Z</time></trkpt><trkpt lat="45.61062462248772" lon="10.70198329863853"><ele>307.0</ele><time>2026-03-24T11:33:51.001Z</time></trkpt><trkpt lat="45.61068832792277" lon="10.702003904006073"><ele>306.99999999999994</ele><time>2026-03-24T11:33:53.001Z</time></trkpt><trkpt lat="45.610776014942005" lon="10.702016964586292"><ele>307.0</ele><time>2026-03-24T11:33:56Z</time></trkpt><trkpt lat="45.610865053365856" lon="10.702021585386458"><ele>307.0</ele><time>2026-03-24T11:33:59Z</time></trkpt><trkpt lat="45.61093160147495" lon="10.70202296237688"><ele>307.0</ele><time>2026-03-24T11:34:01Z</time></trkpt><trkpt lat="45.611001241137075" lon="10.702020400086464"><ele>307.0</ele><time>2026-03-24T11:34:03Z</time></trkpt><trkpt lat="45.61106727774505" lon="10.701988704772301"><ele>306.99999999999994</ele><time>2026-03-24T11:34:05Z</time></trkpt><trkpt lat="45.61113062048943" lon="10.701981929345559"><ele>307.0</ele><time>2026-03-24T11:34:07Z</time></trkpt><trkpt lat="45.611225502996405" lon="10.701980914959647"><ele>307.2857142857143</ele><time>2026-03-24T11:34:10Z</time></trkpt><trkpt lat="45.611300508075146" lon="10.701974070214455"><ele>307.57142857142856</ele><time>2026-03-24T11:34:13Z</time></trkpt><trkpt lat="45.61136703305944" lon="10.701971595102705"><ele>307.8571428571429</ele><time>2026-03-24T11:34:17Z</time></trkpt><trkpt lat="45.611438666627286" lon="10.701996960119692"><ele>308.1428571428571</ele><time>2026-03-24T11:34:21Z</time></trkpt><trkpt lat="45.61146254015901" lon="10.702082456234383"><ele>308.42857142857144</ele><time>2026-03-24T11:34:25Z</time></trkpt><trkpt lat="45.611518910056006" lon="10.702150940977955"><ele>308.7142857142857</ele><time>2026-03-24T11:34:29Z</time></trkpt><trkpt lat="45.611587621436264" lon="10.70220734085402"><ele>309.0</ele><time>2026-03-24T11:34:33Z</time></trkpt><trkpt lat="45.611648858337986" lon="10.702243305269015"><ele>309.00000000000006</ele><time>2026-03-24T11:34:37Z</time></trkpt><trkpt lat="45.611714332513735" lon="10.702246038941498"><ele>309.0</ele><time>2026-03-24T11:34:42Z</time></trkpt><trkpt lat="45.611769493642804" lon="10.702178831003199"><ele>309.0</ele><time>2026-03-24T11:34:48Z</time></trkpt><trkpt lat="45.611845687526774" lon="10.70214894958292"><ele>309.0</ele><time>2026-03-24T11:34:52.999Z</time></trkpt><trkpt lat="45.61190361051978" lon="10.70209690144363"><ele>309.0</ele><time>2026-03-24T11:34:57.999Z</time></trkpt><trkpt lat="45.611928506498735" lon="10.701991377834654"><ele>309.00000000000006</ele><time>2026-03-24T11:35:02.999Z</time></trkpt><trkpt lat="45.61194063936485" lon="10.701886647530582"><ele>309.0</ele><time>2026-03-24T11:35:08.999Z</time></trkpt><trkpt lat="45.61195372155949" lon="10.701784526133912"><ele>300.0</ele><time>2026-03-24T11:35:14.999Z</time></trkpt><trkpt lat="45.61190688947581" lon="10.701695036385152"><ele>300.0</ele><time>2026-03-24T11:35:22.999Z</time></trkpt><trkpt lat="45.61184697505501" lon="10.701655409947307"><ele>300.0</ele><time>2026-03-24T11:35:29.999Z</time></trkpt></trkseg><trkseg><trkpt lat="45.61184072503914" lon="10.701709725918288"><ele>300.0</ele><time>2026-03-24T11:51:36Z</time></trkpt><trkpt lat="45.61190115033228" lon="10.701771403540652"><ele>300.0</ele><time>2026-03-24T11:51:39Z</time></trkpt><trkpt lat="45.61193294652268" lon="10.701867319709484"><ele>300.0</ele><time>2026-03-24T11:51:43Z</time></trkpt><trkpt lat="45.61188997843548" lon="10.7019695480021"><ele>300.0</ele><time>2026-03-24T11:51:46.999Z</time></trkpt><trkpt lat="45.61193622245132" lon="10.702052442172873"><ele>300.0</ele><time>2026-03-24T11:51:48.999Z</time></trkpt><trkpt lat="45.612008662859665" lon="10.702080228381261"><ele>300.0</ele><time>2026-03-24T11:51:50.999Z</time></trkpt><trkpt lat="45.61208900061729" lon="10.702096025494242"><ele>301.2857142857143</ele><time>2026-03-24T11:51:52.999Z</time></trkpt><trkpt lat="45.61215388271299" lon="10.70210979872421"><ele>302.57142857142856</ele><time>2026-03-24T11:51:54.999Z</time></trkpt><trkpt lat="45.61222039062985" lon="10.702142050481573"><ele>303.8571428571429</ele><time>2026-03-24T11:51:57.999Z</time></trkpt><trkpt lat="45.612287059410946" lon="10.70214077875443"><ele>305.1428571428571</ele><time>2026-03-24T11:51:59.999Z</time></trkpt><trkpt lat="45.61236516760299" lon="10.702207771700094"><ele>306.42857142857144</ele><time>2026-03-24T11:52:02.999Z</time></trkpt><trkpt lat="45.61244148487826" lon="10.702246861831028"><ele>307.7142857142857</ele><time>2026-03-24T11:52:05.999Z</time></trkpt><trkpt lat="45.61250585925538" lon="10.702268875362074"><ele>309.0</ele><time>2026-03-24T11:52:07.999Z</time></trkpt><trkpt lat="45.612571694647606" lon="10.702306355831627"><ele>309.00000000000006</ele><time>2026-03-24T11:52:10.999Z</time></trkpt><trkpt lat="45.61264962083881" lon="10.702344415351394"><ele>309.0</ele><time>2026-03-24T11:52:13.999Z</time></trkpt><trkpt lat="45.612725296551694" lon="10.702382729991525"><ele>309.0</ele><time>2026-03-24T11:52:16.999Z</time></trkpt><trkpt lat="45.61278737503872" lon="10.70240588594049"><ele>309.0</ele><time>2026-03-24T11:52:18.999Z</time></trkpt><trkpt lat="45.612851071279685" lon="10.702414688028764"><ele>309.0</ele><time>2026-03-24T11:52:20.999Z</time></trkpt><trkpt lat="45.61293015447765" lon="10.702423172919065"><ele>309.00000000000006</ele><time>2026-03-24T11:52:24Z</time></trkpt><trkpt lat="45.61300218305056" lon="10.702452046328698"><ele>309.0</ele><time>2026-03-24T11:52:26Z</time></trkpt><trkpt lat="45.61307318276555" lon="10.70249335801876"><ele>309.00000000000006</ele><time>2026-03-24T11:52:28Z</time></trkpt><trkpt lat="45.6131387386717" lon="10.702520609388857"><ele>309.0</ele><time>2026-03-24T11:52:30Z</time></trkpt><trkpt lat="45.613203151518945" lon="10.702547648145714"><ele>309.0</ele><time>2026-03-24T11:52:32Z</time></trkpt><trkpt lat="45.61326522453727" lon="10.702572610931485"><ele>309.0</ele><time>2026-03-24T11:52:34Z</time></trkpt><trkpt lat="45.613329378523815" lon="10.702599009273461"><ele>309.0</ele><time>2026-03-24T11:52:36Z</time></trkpt><trkpt lat="45.613390765868594" lon="10.70262434293389"><ele>309.00000000000006</ele><time>2026-03-24T11:52:38Z</time></trkpt><trkpt lat="45.61348739513096" lon="10.702647255460525"><ele>309.0</ele><time>2026-03-24T11:52:41Z</time></trkpt><trkpt lat="45.613573136558976" lon="10.702674457630321"><ele>309.0</ele><time>2026-03-24T11:52:44Z</time></trkpt><trkpt lat="45.613659212173786" lon="10.702697169502509"><ele>309.0</ele><time>2026-03-24T11:52:47Z</time></trkpt><trkpt lat="45.61372271131223" lon="10.70273059290018"><ele>309.0</ele><time>2026-03-24T11:52:49Z</time></trkpt><trkpt lat="45.61380534340467" lon="10.702750029834453"><ele>309.0</ele><time>2026-03-24T11:52:52Z</time></trkpt><trkpt lat="45.613883791986865" lon="10.702760359409261"><ele>309.0</ele><time>2026-03-24T11:52:55Z</time></trkpt><trkpt lat="45.61396837361202" lon="10.702796077784253"><ele>309.0</ele><time>2026-03-24T11:52:58Z</time></trkpt><trkpt lat="45.614057635515046" lon="10.70282816276572"><ele>309.6666666666667</ele><time>2026-03-24T11:53:01Z</time></trkpt><trkpt lat="45.61411942062248" lon="10.702847735624726"><ele>310.3333333333333</ele><time>2026-03-24T11:53:03Z</time></trkpt><trkpt lat="45.61418527730799" lon="10.702880562280292"><ele>311.0</ele><time>2026-03-24T11:53:05Z</time></trkpt><trkpt lat="45.61427288553431" lon="10.70292038825126"><ele>311.66666666666663</ele><time>2026-03-24T11:53:07Z</time></trkpt><trkpt lat="45.614350967392376" lon="10.702954891246394"><ele>312.3333333333333</ele><time>2026-03-24T11:53:09Z</time></trkpt><trkpt lat="45.61442221553505" lon="10.702984966103454"><ele>313.0</ele><time>2026-03-24T11:53:11Z</time></trkpt><trkpt lat="45.614496347386996" lon="10.703015136933164"><ele>313.66666666666663</ele><time>2026-03-24T11:53:13Z</time></trkpt><trkpt lat="45.614568388722766" lon="10.703055209542969"><ele>314.3333333333333</ele><time>2026-03-24T11:53:15Z</time></trkpt><trkpt lat="45.61463694131892" lon="10.703105312994023"><ele>315.0</ele><time>2026-03-24T11:53:17Z</time></trkpt><trkpt lat="45.61469528575878" lon="10.70316692003451"><ele>315.6666666666667</ele><time>2026-03-24T11:53:19Z</time></trkpt><trkpt lat="45.6147497811615" lon="10.703225978195363"><ele>316.33333333333337</ele><time>2026-03-24T11:53:21Z</time></trkpt><trkpt lat="45.61482288323073" lon="10.703294287489214"><ele>317.0</ele><time>2026-03-24T11:53:24Z</time></trkpt><trkpt lat="45.61489009008916" lon="10.70336205562918"><ele>317.0</ele><time>2026-03-24T11:53:27Z</time></trkpt><trkpt lat="45.614954933971276" lon="10.703416080466479"><ele>317.0</ele><time>2026-03-24T11:53:30Z</time></trkpt><trkpt lat="45.61502136656168" lon="10.70348148511601"><ele>317.0</ele><time>2026-03-24T11:53:33Z</time></trkpt><trkpt lat="45.61509250834104" lon="10.703549416954585"><ele>317.0</ele><time>2026-03-24T11:53:37Z</time></trkpt><trkpt lat="45.61514473200388" lon="10.703610034462228"><ele>317.0</ele><time>2026-03-24T11:53:40Z</time></trkpt><trkpt lat="45.615202736903335" lon="10.703668635071239"><ele>317.0</ele><time>2026-03-24T11:53:43Z</time></trkpt><trkpt lat="45.61525718735302" lon="10.70372855866169"><ele>317.0</ele><time>2026-03-24T11:53:46Z</time></trkpt><trkpt lat="45.61531399220441" lon="10.703793841944057"><ele>317.7142857142857</ele><time>2026-03-24T11:53:49Z</time></trkpt><trkpt lat="45.61537214096153" lon="10.703853277756936"><ele>318.42857142857144</ele><time>2026-03-24T11:53:52Z</time></trkpt><trkpt lat="45.61542580800673" lon="10.703906274078564"><ele>319.1428571428571</ele><time>2026-03-24T11:53:55Z</time></trkpt><trkpt lat="45.61547541741895" lon="10.703962122678384"><ele>319.8571428571429</ele><time>2026-03-24T11:53:57.999Z</time></trkpt><trkpt lat="45.61554107339792" lon="10.704025838100973"><ele>320.57142857142856</ele><time>2026-03-24T11:54:01.999Z</time></trkpt><trkpt lat="45.615601504835" lon="10.704087633724104"><ele>321.2857142857143</ele><time>2026-03-24T11:54:05.999Z</time></trkpt><trkpt lat="45.615658220585274" lon="10.704166909419893"><ele>322.0</ele><time>2026-03-24T11:54:09.999Z</time></trkpt><trkpt lat="45.61572400441716" lon="10.704231925051255"><ele>322.0</ele><time>2026-03-24T11:54:13.999Z</time></trkpt><trkpt lat="45.615786803427625" lon="10.704312731151036"><ele>322.0</ele><time>2026-03-24T11:54:17.999Z</time></trkpt><trkpt lat="45.6158383977733" lon="10.7043670001265"><ele>322.0</ele><time>2026-03-24T11:54:20.999Z</time></trkpt><trkpt lat="45.6159035678267" lon="10.704438534099415"><ele>322.0</ele><time>2026-03-24T11:54:24.999Z</time></trkpt><trkpt lat="45.61596492050272" lon="10.704506101897683"><ele>322.0</ele><time>2026-03-24T11:54:29.001Z</time></trkpt><trkpt lat="45.61602743393613" lon="10.704580283409253"><ele>322.0</ele><time>2026-03-24T11:54:33.001Z</time></trkpt><trkpt lat="45.61608756855495" lon="10.70464661040375"><ele>323.85714285714283</ele><time>2026-03-24T11:54:37.001Z</time></trkpt><trkpt lat="45.6161423437294" lon="10.704691328125378"><ele>325.7142857142857</ele><time>2026-03-24T11:54:40.001Z</time></trkpt><trkpt lat="45.61620540938221" lon="10.704752470974068"><ele>327.57142857142856</ele><time>2026-03-24T11:54:44.001Z</time></trkpt><trkpt lat="45.6162614526322" lon="10.704814727801942"><ele>329.42857142857144</ele><time>2026-03-24T11:54:48.001Z</time></trkpt><trkpt lat="45.616336630450526" lon="10.704861274643681"><ele>331.2857142857143</ele><time>2026-03-24T11:54:52Z</time></trkpt><trkpt lat="45.61640947464162" lon="10.704877732680144"><ele>333.1428571428571</ele><time>2026-03-24T11:54:56Z</time></trkpt><trkpt lat="45.61649243784027" lon="10.704891008306305"><ele>335.0</ele><time>2026-03-24T11:55:00Z</time></trkpt><trkpt lat="45.616570154682314" lon="10.704880711247851"><ele>335.0</ele><time>2026-03-24T11:55:04Z</time></trkpt><trkpt lat="45.61663534873791" lon="10.704876591145162"><ele>335.0</ele><time>2026-03-24T11:55:07Z</time></trkpt><trkpt lat="45.61671302346805" lon="10.704870319624563"><ele>335.0</ele><time>2026-03-24T11:55:11Z</time></trkpt><trkpt lat="45.61679140181796" lon="10.704863979014787"><ele>335.0</ele><time>2026-03-24T11:55:15Z</time></trkpt><trkpt lat="45.61686160817312" lon="10.704858431924704"><ele>335.0</ele><time>2026-03-24T11:55:19Z</time></trkpt><trkpt lat="45.616940398009405" lon="10.704847985612204"><ele>335.0</ele><time>2026-03-24T11:55:23Z</time></trkpt><trkpt lat="45.61702101851549" lon="10.704835707949098"><ele>335.2857142857143</ele><time>2026-03-24T11:55:27Z</time></trkpt><trkpt lat="45.61709874353029" lon="10.704819604988105"><ele>335.57142857142856</ele><time>2026-03-24T11:55:31Z</time></trkpt><trkpt lat="45.61716954649235" lon="10.704814707444338"><ele>335.8571428571429</ele><time>2026-03-24T11:55:35Z</time></trkpt><trkpt lat="45.61724445539245" lon="10.704807466775929"><ele>336.1428571428571</ele><time>2026-03-24T11:55:39Z</time></trkpt><trkpt lat="45.61731431832655" lon="10.704830293145871"><ele>336.42857142857144</ele><time>2026-03-24T11:55:42Z</time></trkpt><trkpt lat="45.61738755052564" lon="10.704808533510596"><ele>336.7142857142857</ele><time>2026-03-24T11:55:46Z</time></trkpt><trkpt lat="45.61745776834881" lon="10.7047875371142"><ele>337.0</ele><time>2026-03-24T11:55:50Z</time></trkpt><trkpt lat="45.61752351661271" lon="10.704794009734686"><ele>337.00000000000006</ele><time>2026-03-24T11:55:54Z</time></trkpt><trkpt lat="45.617580991537096" lon="10.704845582545598"><ele>337.0</ele><time>2026-03-24T11:55:57Z</time></trkpt><trkpt lat="45.61763749783901" lon="10.704891140716882"><ele>337.0</ele><time>2026-03-24T11:56:00Z</time></trkpt><trkpt lat="45.61769531640432" lon="10.704938887874892"><ele>337.0</ele><time>2026-03-24T11:56:03Z</time></trkpt><trkpt lat="45.617748180518845" lon="10.704991557180106"><ele>337.0</ele><time>2026-03-24T11:56:06Z</time></trkpt><trkpt lat="45.617808571879976" lon="10.705051641558587"><ele>337.00000000000006</ele><time>2026-03-24T11:56:09.999Z</time></trkpt><trkpt lat="45.61788025090553" lon="10.705122124945163"><ele>337.0</ele><time>2026-03-24T11:56:13.999Z</time></trkpt><trkpt lat="45.617941803866294" lon="10.70517994053966"><ele>336.28571428571433</ele><time>2026-03-24T11:56:17.999Z</time></trkpt><trkpt lat="45.61799634361836" lon="10.705239612422544"><ele>335.57142857142856</ele><time>2026-03-24T11:56:20.999Z</time></trkpt><trkpt lat="45.61804895897702" lon="10.70529965860879"><ele>334.8571428571429</ele><time>2026-03-24T11:56:24.999Z</time></trkpt><trkpt lat="45.618103148681165" lon="10.705357910972559"><ele>334.14285714285717</ele><time>2026-03-24T11:56:27.999Z</time></trkpt><trkpt lat="45.618158875615684" lon="10.705414484074332"><ele>333.42857142857144</ele><time>2026-03-24T11:56:31.999Z</time></trkpt><trkpt lat="45.618217743276155" lon="10.705482976078933"><ele>332.7142857142857</ele><time>2026-03-24T11:56:36.001Z</time></trkpt><trkpt lat="45.61827089395332" lon="10.705552126234974"><ele>332.0</ele><time>2026-03-24T11:56:40.001Z</time></trkpt><trkpt lat="45.618329747745555" lon="10.705606647378124"><ele>333.33333333333337</ele><time>2026-03-24T11:56:44.001Z</time></trkpt><trkpt lat="45.618391743274" lon="10.705656749631782"><ele>334.6666666666667</ele><time>2026-03-24T11:56:48.001Z</time></trkpt><trkpt lat="45.61845190216969" lon="10.705718523018946"><ele>336.0</ele><time>2026-03-24T11:56:52.001Z</time></trkpt><trkpt lat="45.618519072575225" lon="10.7057747784642"><ele>337.3333333333333</ele><time>2026-03-24T11:56:56.001Z</time></trkpt><trkpt lat="45.61857382325888" lon="10.705844339089802"><ele>338.66666666666663</ele><time>2026-03-24T11:57:00.001Z</time></trkpt><trkpt lat="45.6186350749085" lon="10.70591524807403"><ele>340.0</ele><time>2026-03-24T11:57:04Z</time></trkpt><trkpt lat="45.61870002322228" lon="10.705983741556333"><ele>340.0</ele><time>2026-03-24T11:57:08Z</time></trkpt><trkpt lat="45.618762350982166" lon="10.70606233619675"><ele>340.0</ele><time>2026-03-24T11:57:12Z</time></trkpt><trkpt lat="45.61881989296583" lon="10.706140398010454"><ele>340.0</ele><time>2026-03-24T11:57:16Z</time></trkpt><trkpt lat="45.618881960633956" lon="10.706207628658257"><ele>340.0</ele><time>2026-03-24T11:57:20Z</time></trkpt><trkpt lat="45.61894098774162" lon="10.706271447891734"><ele>340.0</ele><time>2026-03-24T11:57:24Z</time></trkpt><trkpt lat="45.6190047304588" lon="10.706334714510467"><ele>340.0</ele><time>2026-03-24T11:57:28Z</time></trkpt><trkpt lat="45.619055301851304" lon="10.706418563869706"><ele>341.2857142857143</ele><time>2026-03-24T11:57:32Z</time></trkpt><trkpt lat="45.619112418543" lon="10.70646066478863"><ele>342.57142857142856</ele><time>2026-03-24T11:57:35Z</time></trkpt><trkpt lat="45.61915981318909" lon="10.706535900570131"><ele>343.85714285714283</ele><time>2026-03-24T11:57:39Z</time></trkpt><trkpt lat="45.61920663439289" lon="10.706616097313132"><ele>345.1428571428571</ele><time>2026-03-24T11:57:43Z</time></trkpt><trkpt lat="45.61925200018899" lon="10.70669213050138"><ele>346.42857142857144</ele><time>2026-03-24T11:57:47Z</time></trkpt><trkpt lat="45.61927952746514" lon="10.70677870950616"><ele>347.71428571428567</ele><time>2026-03-24T11:57:51Z</time></trkpt><trkpt lat="45.619308701362826" lon="10.706860304994445"><ele>349.0</ele><time>2026-03-24T11:57:55Z</time></trkpt><trkpt lat="45.61934683065641" lon="10.706961677173414"><ele>349.99999999999994</ele><time>2026-03-24T11:57:59Z</time></trkpt><trkpt lat="45.61936685134546" lon="10.707075607552476"><ele>351.0</ele><time>2026-03-24T11:58:03Z</time></trkpt><trkpt lat="45.619366996923574" lon="10.707168010545812"><ele>352.0</ele><time>2026-03-24T11:58:06Z</time></trkpt><trkpt lat="45.619369494056144" lon="10.707258124677645"><ele>353.0</ele><time>2026-03-24T11:58:09Z</time></trkpt><trkpt lat="45.61936315964114" lon="10.707374820479112"><ele>354.0</ele><time>2026-03-24T11:58:12.999Z</time></trkpt><trkpt lat="45.619360202392045" lon="10.707476343729969"><ele>354.99999999999994</ele><time>2026-03-24T11:58:15.999Z</time></trkpt><trkpt lat="45.619374779592086" lon="10.707580520000446"><ele>356.0</ele><time>2026-03-24T11:58:18.999Z</time></trkpt><trkpt lat="45.61940960289648" lon="10.70767065345102"><ele>357.71428571428567</ele><time>2026-03-24T11:58:21.999Z</time></trkpt><trkpt lat="45.61945945645785" lon="10.707743869967109"><ele>359.42857142857144</ele><time>2026-03-24T11:58:24.999Z</time></trkpt><trkpt lat="45.61952357109423" lon="10.707793183520566"><ele>361.1428571428571</ele><time>2026-03-24T11:58:27.999Z</time></trkpt><trkpt lat="45.61959134999758" lon="10.70782973060819"><ele>362.85714285714283</ele><time>2026-03-24T11:58:30.999Z</time></trkpt><trkpt lat="45.61965486933826" lon="10.707869078828478"><ele>364.57142857142856</ele><time>2026-03-24T11:58:33.999Z</time></trkpt><trkpt lat="45.619722503934454" lon="10.707892416049269"><ele>366.2857142857143</ele><time>2026-03-24T11:58:35.999Z</time></trkpt><trkpt lat="45.61978710614903" lon="10.707923844204881"><ele>368.0</ele><time>2026-03-24T11:58:38.999Z</time></trkpt><trkpt lat="45.61985216129704" lon="10.707941469703671"><ele>368.0</ele><time>2026-03-24T11:58:42.001Z</time></trkpt><trkpt lat="45.61991594338408" lon="10.707969338035626"><ele>368.0</ele><time>2026-03-24T11:58:45.001Z</time></trkpt><trkpt lat="45.619997159921326" lon="10.707991995572598"><ele>368.0</ele><time>2026-03-24T11:58:49.001Z</time></trkpt><trkpt lat="45.62006138848906" lon="10.70800927455222"><ele>368.0</ele><time>2026-03-24T11:58:52.001Z</time></trkpt><trkpt lat="45.620124373787824" lon="10.708036000115449"><ele>368.0</ele><time>2026-03-24T11:58:55.001Z</time></trkpt><trkpt lat="45.62018760875716" lon="10.708060046324189"><ele>368.0</ele><time>2026-03-24T11:58:58.001Z</time></trkpt><trkpt lat="45.62025656067543" lon="10.708080909332496"><ele>368.0</ele><time>2026-03-24T11:59:01.001Z</time></trkpt><trkpt lat="45.620339281954706" lon="10.708110022564805"><ele>368.0</ele><time>2026-03-24T11:59:05.001Z</time></trkpt><trkpt lat="45.62040581205554" lon="10.708141977274327"><ele>368.0</ele><time>2026-03-24T11:59:08Z</time></trkpt><trkpt lat="45.62047266362227" lon="10.708167562433104"><ele>368.0</ele><time>2026-03-24T11:59:11Z</time></trkpt><trkpt lat="45.62054935008684" lon="10.708196358400386"><ele>368.0</ele><time>2026-03-24T11:59:15Z</time></trkpt><trkpt lat="45.620499708847525" lon="10.708256686739983"><ele>368.0</ele><time>2026-03-24T11:59:22Z</time></trkpt><trkpt lat="45.62043783633993" lon="10.70822291932115"><ele>368.0</ele><time>2026-03-24T11:59:28Z</time></trkpt><trkpt lat="45.620361151300045" lon="10.708216494720261"><ele>368.0</ele><time>2026-03-24T11:59:32Z</time></trkpt><trkpt lat="45.62028292753802" lon="10.708213014049681"><ele>368.0</ele><time>2026-03-24T11:59:36Z</time></trkpt><trkpt lat="45.62020793876039" lon="10.708232833418533"><ele>368.0</ele><time>2026-03-24T11:59:40Z</time></trkpt><trkpt lat="45.62012874605232" lon="10.708260704847287"><ele>368.0</ele><time>2026-03-24T11:59:44Z</time></trkpt><trkpt lat="45.62006439560447" lon="10.708277922312886"><ele>368.0</ele><time>2026-03-24T11:59:47Z</time></trkpt><trkpt lat="45.61999870756426" lon="10.70829816981368"><ele>368.0</ele><time>2026-03-24T11:59:50Z</time></trkpt><trkpt lat="45.619929849417204" lon="10.708314189666034"><ele>368.0</ele><time>2026-03-24T11:59:53Z</time></trkpt><trkpt lat="45.619863631784014" lon="10.708335097766376"><ele>368.0</ele><time>2026-03-24T11:59:56Z</time></trkpt><trkpt lat="45.61979999839189" lon="10.708353745223159"><ele>368.0</ele><time>2026-03-24T12:00:00Z</time></trkpt><trkpt lat="45.619738501077585" lon="10.708373179091803"><ele>368.0</ele><time>2026-03-24T12:00:03Z</time></trkpt><trkpt lat="45.6196692693652" lon="10.708396530531108"><ele>368.0</ele><time>2026-03-24T12:00:06Z</time></trkpt><trkpt lat="45.61960441484057" lon="10.708426752153475"><ele>368.0</ele><time>2026-03-24T12:00:09Z</time></trkpt><trkpt lat="45.61954177005361" lon="10.708444830162492"><ele>368.0</ele><time>2026-03-24T12:00:12Z</time></trkpt><trkpt lat="45.619461141282464" lon="10.708476150580527"><ele>368.0</ele><time>2026-03-24T12:00:15.999Z</time></trkpt><trkpt lat="45.61938431775573" lon="10.708464883540856"><ele>368.0</ele><time>2026-03-24T12:00:19.999Z</time></trkpt><trkpt lat="45.61932131897334" lon="10.708462164937606"><ele>368.14285714285717</ele><time>2026-03-24T12:00:22.999Z</time></trkpt><trkpt lat="45.619237843856105" lon="10.708441359184635"><ele>368.2857142857143</ele><time>2026-03-24T12:00:26.999Z</time></trkpt><trkpt lat="45.61917311395429" lon="10.708425038063645"><ele>368.42857142857144</ele><time>2026-03-24T12:00:29.999Z</time></trkpt><trkpt lat="45.61911121250727" lon="10.708384115069837"><ele>368.57142857142856</ele><time>2026-03-24T12:00:32.999Z</time></trkpt><trkpt lat="45.61903722782496" lon="10.70834526683781"><ele>368.71428571428567</ele><time>2026-03-24T12:00:36.999Z</time></trkpt><trkpt lat="45.6189723551994" lon="10.708303879217024"><ele>368.85714285714283</ele><time>2026-03-24T12:00:39.999Z</time></trkpt><trkpt lat="45.618912547859786" lon="10.708260502257268"><ele>369.0</ele><time>2026-03-24T12:00:42.999Z</time></trkpt><trkpt lat="45.61885644926999" lon="10.708206981046075"><ele>369.0</ele><time>2026-03-24T12:00:46.001Z</time></trkpt><trkpt lat="45.61880432042126" lon="10.708144534729216"><ele>369.0</ele><time>2026-03-24T12:00:49.001Z</time></trkpt><trkpt lat="45.618752311388164" lon="10.708073848598671"><ele>369.0</ele><time>2026-03-24T12:00:52.001Z</time></trkpt><trkpt lat="45.61870875321029" lon="10.70799638082904"><ele>369.0</ele><time>2026-03-24T12:00:55.001Z</time></trkpt><trkpt lat="45.618665269878555" lon="10.707916818475658"><ele>369.0</ele><time>2026-03-24T12:00:58.001Z</time></trkpt><trkpt lat="45.61863072553754" lon="10.70783152456696"><ele>369.0</ele><time>2026-03-24T12:01:01.001Z</time></trkpt><trkpt lat="45.61860654070006" lon="10.70771719340801"><ele>369.0</ele><time>2026-03-24T12:01:05.001Z</time></trkpt><trkpt lat="45.61858695164254" lon="10.707614306676641"><ele>370.0</ele><time>2026-03-24T12:01:09Z</time></trkpt><trkpt lat="45.61856206862255" lon="10.70751576188057"><ele>371.0</ele><time>2026-03-24T12:01:13Z</time></trkpt><trkpt lat="45.618522444782535" lon="10.707403345779923"><ele>372.0</ele><time>2026-03-24T12:01:17Z</time></trkpt><trkpt lat="45.61844967972506" lon="10.707405999530703"><ele>373.0</ele><time>2026-03-24T12:01:21Z</time></trkpt><trkpt lat="45.6183950156395" lon="10.707475583660887"><ele>374.0</ele><time>2026-03-24T12:01:25Z</time></trkpt><trkpt lat="45.61838043021303" lon="10.70757081775884"><ele>375.0</ele><time>2026-03-24T12:01:30Z</time></trkpt><trkpt lat="45.618359777799796" lon="10.707673917161797"><ele>375.8571428571429</ele><time>2026-03-24T12:01:35Z</time></trkpt><trkpt lat="45.61835218082863" lon="10.707780326190091"><ele>376.71428571428567</ele><time>2026-03-24T12:01:39Z</time></trkpt><trkpt lat="45.61834869430048" lon="10.707871120686303"><ele>377.57142857142856</ele><time>2026-03-24T12:01:43Z</time></trkpt><trkpt lat="45.61836165407281" lon="10.707972161456267"><ele>378.42857142857144</ele><time>2026-03-24T12:01:47Z</time></trkpt><trkpt lat="45.61838151681145" lon="10.708063203281677"><ele>379.28571428571433</ele><time>2026-03-24T12:01:50Z</time></trkpt><trkpt lat="45.61841392840052" lon="10.70817202326129"><ele>380.1428571428571</ele><time>2026-03-24T12:01:54Z</time></trkpt><trkpt lat="45.61843861641343" lon="10.708276495772282"><ele>381.0</ele><time>2026-03-24T12:01:58Z</time></trkpt><trkpt lat="45.618470045842166" lon="10.70838113521494"><ele>381.0</ele><time>2026-03-24T12:02:02Z</time></trkpt><trkpt lat="45.61849521699247" lon="10.708463723154745"><ele>381.0</ele><time>2026-03-24T12:02:05Z</time></trkpt><trkpt lat="45.61853075609549" lon="10.70856576909013"><ele>381.0</ele><time>2026-03-24T12:02:09Z</time></trkpt><trkpt lat="45.61856650254681" lon="10.708670495739478"><ele>381.0</ele><time>2026-03-24T12:02:12.999Z</time></trkpt><trkpt lat="45.618609024549414" lon="10.708763244192754"><ele>381.0</ele><time>2026-03-24T12:02:16.999Z</time></trkpt><trkpt lat="45.61865907646711" lon="10.708855680539841"><ele>381.0</ele><time>2026-03-24T12:02:20.999Z</time></trkpt><trkpt lat="45.61869854716416" lon="10.708946256313158"><ele>381.0</ele><time>2026-03-24T12:02:24.999Z</time></trkpt><trkpt lat="45.618737145294986" lon="10.709038896960527"><ele>381.0</ele><time>2026-03-24T12:02:28.999Z</time></trkpt><trkpt lat="45.61877589008349" lon="10.70913683954342"><ele>381.0</ele><time>2026-03-24T12:02:32.999Z</time></trkpt><trkpt lat="45.618818765872646" lon="10.709226524333806"><ele>381.0</ele><time>2026-03-24T12:02:36.999Z</time></trkpt><trkpt lat="45.618857027501356" lon="10.709312728366928"><ele>381.0</ele><time>2026-03-24T12:02:40.999Z</time></trkpt><trkpt lat="45.61889916163105" lon="10.709393100018067"><ele>381.0</ele><time>2026-03-24T12:02:44.999Z</time></trkpt><trkpt lat="45.61894068632403" lon="10.709474386103356"><ele>381.0</ele><time>2026-03-24T12:02:48.999Z</time></trkpt><trkpt lat="45.61897006545136" lon="10.709566973348565"><ele>381.85714285714283</ele><time>2026-03-24T12:02:53.001Z</time></trkpt><trkpt lat="45.619004294381114" lon="10.709650099231864"><ele>382.7142857142857</ele><time>2026-03-24T12:02:57.001Z</time></trkpt><trkpt lat="45.61902485786615" lon="10.709737538442393"><ele>383.57142857142856</ele><time>2026-03-24T12:03:01.001Z</time></trkpt><trkpt lat="45.61904927337383" lon="10.709824854035725"><ele>384.42857142857144</ele><time>2026-03-24T12:03:05.001Z</time></trkpt><trkpt lat="45.61905917861335" lon="10.709929971284883"><ele>385.28571428571433</ele><time>2026-03-24T12:03:10Z</time></trkpt><trkpt lat="45.619058712164744" lon="10.710034164635411"><ele>386.14285714285717</ele><time>2026-03-24T12:03:15Z</time></trkpt><trkpt lat="45.6190433060324" lon="10.710123454969883"><ele>387.0</ele><time>2026-03-24T12:03:19Z</time></trkpt><trkpt lat="45.61900609772009" lon="10.710218499979055"><ele>388.42857142857144</ele><time>2026-03-24T12:03:24Z</time></trkpt><trkpt lat="45.61897519458314" lon="10.710300133910065"><ele>389.8571428571429</ele><time>2026-03-24T12:03:29Z</time></trkpt><trkpt lat="45.6189370105605" lon="10.710387212009744"><ele>391.2857142857143</ele><time>2026-03-24T12:03:34Z</time></trkpt><trkpt lat="45.618895542958626" lon="10.710454984404937"><ele>392.7142857142857</ele><time>2026-03-24T12:03:38Z</time></trkpt><trkpt lat="45.618847418394864" lon="10.710536108531004"><ele>394.1428571428571</ele><time>2026-03-24T12:03:43Z</time></trkpt><trkpt lat="45.61879054032338" lon="10.71061197486318"><ele>395.57142857142856</ele><time>2026-03-24T12:03:48Z</time></trkpt><trkpt lat="45.61873537390156" lon="10.710689746527777"><ele>397.0</ele><time>2026-03-24T12:03:53Z</time></trkpt><trkpt lat="45.61866730122567" lon="10.710741725310506"><ele>395.85714285714283</ele><time>2026-03-24T12:03:58Z</time></trkpt><trkpt lat="45.61860825538207" lon="10.710774330386773"><ele>394.71428571428567</ele><time>2026-03-24T12:04:02Z</time></trkpt><trkpt lat="45.618546931854894" lon="10.710806899321184"><ele>393.57142857142856</ele><time>2026-03-24T12:04:06Z</time></trkpt><trkpt lat="45.61848626943899" lon="10.710834700320115"><ele>392.42857142857144</ele><time>2026-03-24T12:04:09.999Z</time></trkpt><trkpt lat="45.618424921322415" lon="10.710860505067222"><ele>391.2857142857143</ele><time>2026-03-24T12:04:13.999Z</time></trkpt><trkpt lat="45.618354866442196" lon="10.710910514538089"><ele>390.14285714285717</ele><time>2026-03-24T12:04:18.999Z</time></trkpt><trkpt lat="45.61829060154715" lon="10.71092552493677"><ele>389.0</ele><time>2026-03-24T12:04:22.999Z</time></trkpt><trkpt lat="45.61821398858274" lon="10.710935958184324"><ele>389.0</ele><time>2026-03-24T12:04:27.999Z</time></trkpt><trkpt lat="45.61814222674074" lon="10.710969591913237"><ele>389.0</ele><time>2026-03-24T12:04:32.999Z</time></trkpt><trkpt lat="45.618073885659875" lon="10.71097113626018"><ele>389.0</ele><time>2026-03-24T12:04:36.999Z</time></trkpt><trkpt lat="45.61800743736848" lon="10.71098570596863"><ele>389.0</ele><time>2026-03-24T12:04:40.999Z</time></trkpt><trkpt lat="45.617933689218006" lon="10.710985732746908"><ele>389.0</ele><time>2026-03-24T12:04:45.999Z</time></trkpt><trkpt lat="45.61785565117714" lon="10.710999475208386"><ele>389.0</ele><time>2026-03-24T12:04:50.999Z</time></trkpt><trkpt lat="45.61779244557736" lon="10.711027039413281"><ele>389.0</ele><time>2026-03-24T12:04:54.999Z</time></trkpt><trkpt lat="45.61774952558015" lon="10.711103826638418"><ele>390.2857142857143</ele><time>2026-03-24T12:04:59Z</time></trkpt><trkpt lat="45.61777718710326" lon="10.71120915422448"><ele>391.57142857142856</ele><time>2026-03-24T12:05:04Z</time></trkpt><trkpt lat="45.617820295954196" lon="10.711283774629006"><ele>392.85714285714283</ele><time>2026-03-24T12:05:08Z</time></trkpt><trkpt lat="45.617875952725555" lon="10.711326993547248"><ele>394.1428571428571</ele><time>2026-03-24T12:05:12Z</time></trkpt><trkpt lat="45.61793680179292" lon="10.711360235724548"><ele>395.42857142857144</ele><time>2026-03-24T12:05:16Z</time></trkpt><trkpt lat="45.618006891580066" lon="10.71136682877726"><ele>396.71428571428567</ele><time>2026-03-24T12:05:21Z</time></trkpt><trkpt lat="45.61808505176278" lon="10.711364711509932"><ele>398.0</ele><time>2026-03-24T12:05:26Z</time></trkpt><trkpt lat="45.61815033019584" lon="10.711359024856172"><ele>398.2857142857143</ele><time>2026-03-24T12:05:30Z</time></trkpt><trkpt lat="45.6182149218888" lon="10.71135744153776"><ele>398.57142857142856</ele><time>2026-03-24T12:05:34Z</time></trkpt><trkpt lat="45.6182920166852" lon="10.711335921209432"><ele>398.8571428571429</ele><time>2026-03-24T12:05:39Z</time></trkpt><trkpt lat="45.61836675407982" lon="10.711326790018802"><ele>399.1428571428571</ele><time>2026-03-24T12:05:44Z</time></trkpt><trkpt lat="45.61843733258148" lon="10.711347632430353"><ele>399.42857142857144</ele><time>2026-03-24T12:05:49Z</time></trkpt><trkpt lat="45.618506662834456" lon="10.711364034139264"><ele>399.7142857142857</ele><time>2026-03-24T12:05:54Z</time></trkpt><trkpt lat="45.618568557181966" lon="10.711411034347142"><ele>400.0</ele><time>2026-03-24T12:05:59Z</time></trkpt><trkpt lat="45.6186391559296" lon="10.711455798956807"><ele>401.00000000000006</ele><time>2026-03-24T12:06:04Z</time></trkpt><trkpt lat="45.61869893381332" lon="10.711513909408792"><ele>402.0</ele><time>2026-03-24T12:06:08.999Z</time></trkpt><trkpt lat="45.618751031788946" lon="10.711569368737878"><ele>403.0</ele><time>2026-03-24T12:06:12.999Z</time></trkpt><trkpt lat="45.61879570727143" lon="10.711657692195047"><ele>404.0</ele><time>2026-03-24T12:06:17.999Z</time></trkpt><trkpt lat="45.61882881432786" lon="10.71174452849736"><ele>405.0</ele><time>2026-03-24T12:06:22.999Z</time></trkpt><trkpt lat="45.618818894148575" lon="10.71184118806185"><ele>406.00000000000006</ele><time>2026-03-24T12:06:27.999Z</time></trkpt><trkpt lat="45.618794601473034" lon="10.711941464740297"><ele>407.0</ele><time>2026-03-24T12:06:32.999Z</time></trkpt><trkpt lat="45.61875788218729" lon="10.712019611646285"><ele>407.14285714285717</ele><time>2026-03-24T12:06:37.999Z</time></trkpt><trkpt lat="45.61870892029498" lon="10.712100567968886"><ele>407.2857142857143</ele><time>2026-03-24T12:06:42.999Z</time></trkpt><trkpt lat="45.61864872559866" lon="10.712155598775265"><ele>407.42857142857144</ele><time>2026-03-24T12:06:47.999Z</time></trkpt><trkpt lat="45.61857832952399" lon="10.712207158422633"><ele>407.57142857142856</ele><time>2026-03-24T12:06:52.999Z</time></trkpt><trkpt lat="45.618509048814225" lon="10.712251168743917"><ele>407.7142857142857</ele><time>2026-03-24T12:06:57.999Z</time></trkpt><trkpt lat="45.61845591258068" lon="10.7123128503385"><ele>407.8571428571429</ele><time>2026-03-24T12:07:01.999Z</time></trkpt><trkpt lat="45.618400102579" lon="10.712367972813954"><ele>408.0</ele><time>2026-03-24T12:07:06Z</time></trkpt><trkpt lat="45.61833529097932" lon="10.712395630592093"><ele>408.0</ele><time>2026-03-24T12:07:10Z</time></trkpt><trkpt lat="45.618274552183735" lon="10.712433915160073"><ele>408.0</ele><time>2026-03-24T12:07:14Z</time></trkpt><trkpt lat="45.618204205281906" lon="10.71248509808275"><ele>408.0</ele><time>2026-03-24T12:07:19Z</time></trkpt><trkpt lat="45.618142811707756" lon="10.7125434272017"><ele>408.0</ele><time>2026-03-24T12:07:23Z</time></trkpt><trkpt lat="45.61807292818771" lon="10.712597330920099"><ele>408.0</ele><time>2026-03-24T12:07:27Z</time></trkpt><trkpt lat="45.61800226916961" lon="10.71264644036664"><ele>408.0</ele><time>2026-03-24T12:07:31Z</time></trkpt><trkpt lat="45.617933115741494" lon="10.7126999423155"><ele>408.8333333333333</ele><time>2026-03-24T12:07:35Z</time></trkpt><trkpt lat="45.61787995801111" lon="10.712751171574565"><ele>409.66666666666663</ele><time>2026-03-24T12:07:38Z</time></trkpt><trkpt lat="45.61781072861757" lon="10.712800599527622"><ele>410.5</ele><time>2026-03-24T12:07:42Z</time></trkpt><trkpt lat="45.61773940631541" lon="10.712852830432615"><ele>411.3333333333333</ele><time>2026-03-24T12:07:46Z</time></trkpt><trkpt lat="45.61766833156115" lon="10.712898781746851"><ele>412.16666666666663</ele><time>2026-03-24T12:07:50Z</time></trkpt><trkpt lat="45.61760396634602" lon="10.712969113391503"><ele>413.0</ele><time>2026-03-24T12:07:54Z</time></trkpt><trkpt lat="45.61753595366627" lon="10.713019356199727"><ele>412.99999999999994</ele><time>2026-03-24T12:07:58Z</time></trkpt><trkpt lat="45.6174667989382" lon="10.713076469234172"><ele>413.0</ele><time>2026-03-24T12:08:02Z</time></trkpt><trkpt lat="45.61739840818329" lon="10.713124570897515"><ele>413.0</ele><time>2026-03-24T12:08:06Z</time></trkpt><trkpt lat="45.617332584056705" lon="10.7131659937388"><ele>413.0</ele><time>2026-03-24T12:08:09.999Z</time></trkpt><trkpt lat="45.617278574965695" lon="10.713231552171285"><ele>412.99999999999994</ele><time>2026-03-24T12:08:13.999Z</time></trkpt><trkpt lat="45.617255618586405" lon="10.713343157959741"><ele>413.0</ele><time>2026-03-24T12:08:17.999Z</time></trkpt><trkpt lat="45.61727317515757" lon="10.71345501535655"><ele>413.0</ele><time>2026-03-24T12:08:21.999Z</time></trkpt><trkpt lat="45.617330181496584" lon="10.713514668788546"><ele>413.0</ele><time>2026-03-24T12:08:25.999Z</time></trkpt><trkpt lat="45.61740213600832" lon="10.713538766343872"><ele>413.0</ele><time>2026-03-24T12:08:29.999Z</time></trkpt><trkpt lat="45.6174772385454" lon="10.713535499600743"><ele>413.0</ele><time>2026-03-24T12:08:33.999Z</time></trkpt><trkpt lat="45.61754736349793" lon="10.71352113534113"><ele>413.0</ele><time>2026-03-24T12:08:37.999Z</time></trkpt><trkpt lat="45.61761609683085" lon="10.71351902061272"><ele>413.0</ele><time>2026-03-24T12:08:41.999Z</time></trkpt><trkpt lat="45.617682602773684" lon="10.713506205081892"><ele>413.0</ele><time>2026-03-24T12:08:45.999Z</time></trkpt><trkpt lat="45.617756733293625" lon="10.71348136610219"><ele>414.0</ele><time>2026-03-24T12:08:49.999Z</time></trkpt><trkpt lat="45.61782235540363" lon="10.713469017177403"><ele>415.0</ele><time>2026-03-24T12:08:53.999Z</time></trkpt><trkpt lat="45.61788500620873" lon="10.713446369380039"><ele>416.0</ele><time>2026-03-24T12:08:57.999Z</time></trkpt><trkpt lat="45.617952476735184" lon="10.71343375224925"><ele>417.0</ele><time>2026-03-24T12:09:01.999Z</time></trkpt><trkpt lat="45.61802083587336" lon="10.713409066621749"><ele>418.0</ele><time>2026-03-24T12:09:06.999Z</time></trkpt><trkpt lat="45.6180805829135" lon="10.713368933496232"><ele>419.0</ele><time>2026-03-24T12:09:12Z</time></trkpt><trkpt lat="45.61815072004741" lon="10.713362161866772"><ele>420.0</ele><time>2026-03-24T12:09:19Z</time></trkpt><trkpt lat="45.618214373549435" lon="10.713320595132839"><ele>420.0</ele><time>2026-03-24T12:09:24Z</time></trkpt><trkpt lat="45.61827752913375" lon="10.713308242222313"><ele>420.0</ele><time>2026-03-24T12:09:29Z</time></trkpt><trkpt lat="45.61835094219344" lon="10.713280992158543"><ele>420.0</ele><time>2026-03-24T12:09:35Z</time></trkpt><trkpt lat="45.61841842382415" lon="10.713247553370623"><ele>420.0</ele><time>2026-03-24T12:09:40Z</time></trkpt><trkpt lat="45.618485789402634" lon="10.713235930516678"><ele>420.0</ele><time>2026-03-24T12:09:44Z</time></trkpt><trkpt lat="45.6185577213377" lon="10.713224745141964"><ele>420.0</ele><time>2026-03-24T12:09:49Z</time></trkpt><trkpt lat="45.618631199480845" lon="10.71321840449302"><ele>420.0</ele><time>2026-03-24T12:09:54Z</time></trkpt><trkpt lat="45.61869078050643" lon="10.713187318917617"><ele>420.0</ele><time>2026-03-24T12:09:58Z</time></trkpt><trkpt lat="45.61876473549347" lon="10.713172734541422"><ele>420.0</ele><time>2026-03-24T12:10:03Z</time></trkpt><trkpt lat="45.61883214621254" lon="10.71313935097318"><ele>420.0</ele><time>2026-03-24T12:10:09Z</time></trkpt><trkpt lat="45.618895683645654" lon="10.713143944693739"><ele>420.0</ele><time>2026-03-24T12:10:16.999Z</time></trkpt><trkpt lat="45.61884907729917" lon="10.71322309560168"><ele>420.0</ele><time>2026-03-24T12:10:25.999Z</time></trkpt><trkpt lat="45.618779342869495" lon="10.713250461850125"><ele>420.0</ele><time>2026-03-24T12:10:32.999Z</time></trkpt><trkpt lat="45.618706150342874" lon="10.713271905275954"><ele>420.0</ele><time>2026-03-24T12:10:39.999Z</time></trkpt><trkpt lat="45.618646136202784" lon="10.713310191347544"><ele>420.0</ele><time>2026-03-24T12:10:45.999Z</time></trkpt><trkpt lat="45.61858013690111" lon="10.713344723280095"><ele>420.0</ele><time>2026-03-24T12:10:51.999Z</time></trkpt><trkpt lat="45.61852071277117" lon="10.713394460363622"><ele>420.0</ele><time>2026-03-24T12:10:57.999Z</time></trkpt><trkpt lat="45.61846775346655" lon="10.713455672952875"><ele>420.0</ele><time>2026-03-24T12:11:03.999Z</time></trkpt><trkpt lat="45.618419854253105" lon="10.713525805074287"><ele>420.0</ele><time>2026-03-24T12:11:09.999Z</time></trkpt><trkpt lat="45.61838695787639" lon="10.713621628594455"><ele>420.0</ele><time>2026-03-24T12:11:16Z</time></trkpt><trkpt lat="45.6183597698674" lon="10.713721774949493"><ele>420.0</ele><time>2026-03-24T12:11:22Z</time></trkpt><trkpt lat="45.61834193332165" lon="10.713826071102943"><ele>421.57142857142856</ele><time>2026-03-24T12:11:28Z</time></trkpt><trkpt lat="45.6183142178423" lon="10.713919623053899"><ele>423.1428571428571</ele><time>2026-03-24T12:11:34Z</time></trkpt><trkpt lat="45.61829459134751" lon="10.71401622394342"><ele>424.7142857142857</ele><time>2026-03-24T12:11:40Z</time></trkpt><trkpt lat="45.61827104806057" lon="10.714108644058129"><ele>426.2857142857143</ele><time>2026-03-24T12:11:46Z</time></trkpt><trkpt lat="45.618250520872174" lon="10.714199117640906"><ele>427.85714285714283</ele><time>2026-03-24T12:11:51Z</time></trkpt><trkpt lat="45.61823161234925" lon="10.714301507966319"><ele>429.42857142857144</ele><time>2026-03-24T12:11:57Z</time></trkpt><trkpt lat="45.61821336091286" lon="10.714407140263626"><ele>431.0</ele><time>2026-03-24T12:12:03Z</time></trkpt><trkpt lat="45.618201598715636" lon="10.714503075602268"><ele>432.42857142857144</ele><time>2026-03-24T12:12:08Z</time></trkpt><trkpt lat="45.618181624219936" lon="10.714595661510408"><ele>433.85714285714283</ele><time>2026-03-24T12:12:14Z</time></trkpt><trkpt lat="45.61815445458193" lon="10.714685126751235"><ele>435.2857142857143</ele><time>2026-03-24T12:12:20.999Z</time></trkpt><trkpt lat="45.61813748526046" lon="10.714774724859701"><ele>436.7142857142857</ele><time>2026-03-24T12:12:26.999Z</time></trkpt><trkpt lat="45.61811995198288" lon="10.714871371283555"><ele>438.1428571428571</ele><time>2026-03-24T12:12:32.999Z</time></trkpt><trkpt lat="45.61809337775113" lon="10.714966635797232"><ele>439.57142857142856</ele><time>2026-03-24T12:12:39.999Z</time></trkpt><trkpt lat="45.61807152121906" lon="10.715064216809276"><ele>441.0</ele><time>2026-03-24T12:12:45.999Z</time></trkpt><trkpt lat="45.61804394504233" lon="10.71516705486866"><ele>442.42857142857144</ele><time>2026-03-24T12:12:51.999Z</time></trkpt><trkpt lat="45.618028780699746" lon="10.715261472453706"><ele>443.8571428571429</ele><time>2026-03-24T12:12:56.999Z</time></trkpt><trkpt lat="45.61802986353507" lon="10.715365936748636"><ele>445.2857142857143</ele><time>2026-03-24T12:13:02.999Z</time></trkpt><trkpt lat="45.61800956804568" lon="10.715460219712552"><ele>446.7142857142857</ele><time>2026-03-24T12:13:08.999Z</time></trkpt><trkpt lat="45.617982201989854" lon="10.715549278642788"><ele>448.14285714285717</ele><time>2026-03-24T12:13:14.999Z</time></trkpt><trkpt lat="45.617959677826015" lon="10.715646588067044"><ele>449.57142857142856</ele><time>2026-03-24T12:13:22Z</time></trkpt><trkpt lat="45.61794715450748" lon="10.715744362738123"><ele>451.0</ele><time>2026-03-24T12:13:28Z</time></trkpt><trkpt lat="45.617917780320276" lon="10.715840489086231"><ele>451.0</ele><time>2026-03-24T12:13:35Z</time></trkpt><trkpt lat="45.617904239079124" lon="10.715939596825447"><ele>451.0</ele><time>2026-03-24T12:13:41Z</time></trkpt><trkpt lat="45.617895967293286" lon="10.716042722464714"><ele>451.0</ele><time>2026-03-24T12:13:47Z</time></trkpt><trkpt lat="45.61786752986606" lon="10.71613783294564"><ele>451.0</ele><time>2026-03-24T12:13:52Z</time></trkpt><trkpt lat="45.61783348121093" lon="10.716224346436068"><ele>451.0</ele><time>2026-03-24T12:13:58Z</time></trkpt><trkpt lat="45.617798090023996" lon="10.716313967374047"><ele>451.0</ele><time>2026-03-24T12:14:03Z</time></trkpt><trkpt lat="45.61777303042875" lon="10.716410759259153"><ele>451.0</ele><time>2026-03-24T12:14:07Z</time></trkpt><trkpt lat="45.61774792364172" lon="10.716519680791029"><ele>449.33333333333337</ele><time>2026-03-24T12:14:11Z</time></trkpt><trkpt lat="45.617739549614896" lon="10.716620704119066"><ele>447.6666666666667</ele><time>2026-03-24T12:14:15Z</time></trkpt><trkpt lat="45.61771677014498" lon="10.716711864738365"><ele>446.0</ele><time>2026-03-24T12:14:19.999Z</time></trkpt><trkpt lat="45.61771153263353" lon="10.716854398465806"><ele>444.33333333333337</ele><time>2026-03-24T12:14:22.999Z</time></trkpt><trkpt lat="45.61768737409063" lon="10.716953434125209"><ele>442.6666666666667</ele><time>2026-03-24T12:14:24.999Z</time></trkpt><trkpt lat="45.617627968231425" lon="10.717064675557484"><ele>441.0</ele><time>2026-03-24T12:14:26.999Z</time></trkpt><trkpt lat="45.61756334735428" lon="10.71721142795753"><ele>441.0</ele><time>2026-03-24T12:14:28.999Z</time></trkpt><trkpt lat="45.617527514950154" lon="10.71729929885818"><ele>441.0</ele><time>2026-03-24T12:14:29.999Z</time></trkpt><trkpt lat="45.61749278728436" lon="10.717393078115526"><ele>441.0</ele><time>2026-03-24T12:14:30.999Z</time></trkpt><trkpt lat="45.61745859965393" lon="10.717479864581534"><ele>441.0</ele><time>2026-03-24T12:14:31.999Z</time></trkpt><trkpt lat="45.6174174601069" lon="10.717566281469999"><ele>441.0</ele><time>2026-03-24T12:14:32.999Z</time></trkpt><trkpt lat="45.61738108245407" lon="10.717658580857382"><ele>441.0</ele><time>2026-03-24T12:14:33.999Z</time></trkpt><trkpt lat="45.61734370039" lon="10.717752933986995"><ele>441.0</ele><time>2026-03-24T12:14:34.999Z</time></trkpt><trkpt lat="45.617306732543824" lon="10.717844432452155"><ele>441.8333333333333</ele><time>2026-03-24T12:14:35.999Z</time></trkpt><trkpt lat="45.617268537760346" lon="10.71794271673394"><ele>442.66666666666663</ele><time>2026-03-24T12:14:36.999Z</time></trkpt><trkpt lat="45.61724098715201" lon="10.7180454496604"><ele>443.5</ele><time>2026-03-24T12:14:37.999Z</time></trkpt><trkpt lat="45.617216864541426" lon="10.718149362492872"><ele>444.3333333333333</ele><time>2026-03-24T12:14:38.999Z</time></trkpt><trkpt lat="45.61719656784464" lon="10.718255995050077"><ele>445.16666666666663</ele><time>2026-03-24T12:14:39.999Z</time></trkpt><trkpt lat="45.61717846699782" lon="10.71836723927661"><ele>446.0</ele><time>2026-03-24T12:14:40.999Z</time></trkpt><trkpt lat="45.61715563503252" lon="10.718478694907034"><ele>446.49999999999994</ele><time>2026-03-24T12:14:41.999Z</time></trkpt><trkpt lat="45.61713847756628" lon="10.718591038091148"><ele>447.0</ele><time>2026-03-24T12:14:42.999Z</time></trkpt><trkpt lat="45.617118992187024" lon="10.718701525822786"><ele>447.5</ele><time>2026-03-24T12:14:43.999Z</time></trkpt><trkpt lat="45.61707612084737" lon="10.718800454899956"><ele>448.0</ele><time>2026-03-24T12:14:44.999Z</time></trkpt><trkpt lat="45.61703146915111" lon="10.718905926891749"><ele>448.49999999999994</ele><time>2026-03-24T12:14:45.999Z</time></trkpt><trkpt lat="45.616979053983506" lon="10.718996852696508"><ele>449.0</ele><time>2026-03-24T12:14:46.999Z</time></trkpt><trkpt lat="45.61691382479442" lon="10.719081034224487"><ele>445.66666666666663</ele><time>2026-03-24T12:14:47.999Z</time></trkpt><trkpt lat="45.616856979033976" lon="10.71916751552916"><ele>442.3333333333333</ele><time>2026-03-24T12:14:48.999Z</time></trkpt><trkpt lat="45.61679591687905" lon="10.71925252182751"><ele>439.0</ele><time>2026-03-24T12:14:49.999Z</time></trkpt><trkpt lat="45.61673204845346" lon="10.719338600485829"><ele>435.66666666666663</ele><time>2026-03-24T12:14:50.999Z</time></trkpt><trkpt lat="45.616672165254194" lon="10.719425984290439"><ele>432.3333333333333</ele><time>2026-03-24T12:14:51.999Z</time></trkpt><trkpt lat="45.61661513243062" lon="10.719515264581155"><ele>429.0</ele><time>2026-03-24T12:14:52.999Z</time></trkpt><trkpt lat="45.61655200061355" lon="10.7196008744738"><ele>429.0</ele><time>2026-03-24T12:14:53.999Z</time></trkpt><trkpt lat="45.61649179716778" lon="10.719687916399595"><ele>429.0</ele><time>2026-03-24T12:14:54.999Z</time></trkpt><trkpt lat="45.61643266931128" lon="10.719780903891417"><ele>429.0</ele><time>2026-03-24T12:14:55.999Z</time></trkpt><trkpt lat="45.616366290840034" lon="10.719879262475365"><ele>429.0</ele><time>2026-03-24T12:14:56.999Z</time></trkpt><trkpt lat="45.616305733032256" lon="10.719953774433872"><ele>429.0</ele><time>2026-03-24T12:14:57.999Z</time></trkpt><trkpt lat="45.61624408448125" lon="10.720048245119791"><ele>429.0</ele><time>2026-03-24T12:14:58.999Z</time></trkpt><trkpt lat="45.616183786788355" lon="10.720138522779083"><ele>427.2</ele><time>2026-03-24T12:14:59.999Z</time></trkpt><trkpt lat="45.61611960189173" lon="10.720228071030576"><ele>425.4</ele><time>2026-03-24T12:15:00.999Z</time></trkpt><trkpt lat="45.616054600885974" lon="10.720320533259256"><ele>423.6</ele><time>2026-03-24T12:15:01.999Z</time></trkpt><trkpt lat="45.6159977954261" lon="10.720421882721624"><ele>421.8</ele><time>2026-03-24T12:15:02.999Z</time></trkpt><trkpt lat="45.6159345220964" lon="10.720517337022798"><ele>420.0</ele><time>2026-03-24T12:15:03.999Z</time></trkpt><trkpt lat="45.61586681460419" lon="10.720605794354036"><ele>420.0</ele><time>2026-03-24T12:15:04.999Z</time></trkpt><trkpt lat="45.61580087131505" lon="10.720681194503383"><ele>420.0</ele><time>2026-03-24T12:15:05.999Z</time></trkpt><trkpt lat="45.61573266781019" lon="10.72076045391678"><ele>420.0</ele><time>2026-03-24T12:15:06.999Z</time></trkpt><trkpt lat="45.61565967970631" lon="10.720845997329473"><ele>420.0</ele><time>2026-03-24T12:15:07.999Z</time></trkpt><trkpt lat="45.615596128091255" lon="10.720933048852658"><ele>420.0</ele><time>2026-03-24T12:15:08.999Z</time></trkpt><trkpt lat="45.615531847842256" lon="10.721021031003305"><ele>420.0</ele><time>2026-03-24T12:15:09.999Z</time></trkpt><trkpt lat="45.61546374258355" lon="10.721109359219781"><ele>418.2</ele><time>2026-03-24T12:15:10.999Z</time></trkpt><trkpt lat="45.615402811623014" lon="10.72120474593535"><ele>416.4</ele><time>2026-03-24T12:15:11.999Z</time></trkpt><trkpt lat="45.6153341402642" lon="10.721290784974194"><ele>414.6</ele><time>2026-03-24T12:15:12.999Z</time></trkpt><trkpt lat="45.615266350931684" lon="10.72137402388331"><ele>412.8</ele><time>2026-03-24T12:15:13.999Z</time></trkpt><trkpt lat="45.61519985641522" lon="10.721463839043356"><ele>411.0</ele><time>2026-03-24T12:15:14.999Z</time></trkpt><trkpt lat="45.61513502759668" lon="10.721552032873534"><ele>411.0</ele><time>2026-03-24T12:15:15.999Z</time></trkpt><trkpt lat="45.615069811557134" lon="10.721640063642665"><ele>411.0</ele><time>2026-03-24T12:15:16.999Z</time></trkpt><trkpt lat="45.61500467541859" lon="10.721726066104575"><ele>411.0</ele><time>2026-03-24T12:15:17.999Z</time></trkpt><trkpt lat="45.61494148769967" lon="10.72181496215204"><ele>411.0</ele><time>2026-03-24T12:15:18.999Z</time></trkpt><trkpt lat="45.61488564055181" lon="10.721914171225155"><ele>411.0</ele><time>2026-03-24T12:15:19.999Z</time></trkpt><trkpt lat="45.61483471128342" lon="10.722013795144617"><ele>411.0</ele><time>2026-03-24T12:15:20.999Z</time></trkpt><trkpt lat="45.61478653950085" lon="10.722119348688713"><ele>411.5</ele><time>2026-03-24T12:15:21.999Z</time></trkpt><trkpt lat="45.614751261148804" lon="10.722235322586704"><ele>412.0</ele><time>2026-03-24T12:15:22.999Z</time></trkpt><trkpt lat="45.61472475837174" lon="10.722349267973398"><ele>412.5</ele><time>2026-03-24T12:15:23.998Z</time></trkpt><trkpt lat="45.614714038254945" lon="10.722475003449413"><ele>413.0</ele><time>2026-03-24T12:15:24.998Z</time></trkpt><trkpt lat="45.61470266568635" lon="10.722602000315439"><ele>413.5</ele><time>2026-03-24T12:15:26Z</time></trkpt><trkpt lat="45.61468920114137" lon="10.722721831269324"><ele>414.0</ele><time>2026-03-24T12:15:27Z</time></trkpt><trkpt lat="45.61468367932517" lon="10.72281998005548"><ele>414.0</ele><time>2026-03-24T12:15:28Z</time></trkpt><trkpt lat="45.61463865169253" lon="10.722933862127746"><ele>414.0</ele><time>2026-03-24T12:15:30Z</time></trkpt><trkpt lat="45.61454522493616" lon="10.722844068867204"><ele>414.0</ele><time>2026-03-24T12:15:32Z</time></trkpt><trkpt lat="45.61455004730658" lon="10.722748425226886"><ele>414.0</ele><time>2026-03-24T12:15:33Z</time></trkpt><trkpt lat="45.6145892722906" lon="10.72267498297653"><ele>414.0</ele><time>2026-03-24T12:15:34Z</time></trkpt><trkpt lat="45.614621344034866" lon="10.722521433198365"><ele>414.0</ele><time>2026-03-24T12:15:36Z</time></trkpt><trkpt lat="45.614644500807245" lon="10.72234023841707"><ele>414.00000000000006</ele><time>2026-03-24T12:15:38Z</time></trkpt><trkpt lat="45.614656570246495" lon="10.722243720551864"><ele>414.0</ele><time>2026-03-24T12:15:39Z</time></trkpt><trkpt lat="45.614676755289175" lon="10.722138900928531"><ele>414.0</ele><time>2026-03-24T12:15:40Z</time></trkpt><trkpt lat="45.61469109890451" lon="10.722029572503965"><ele>414.0</ele><time>2026-03-24T12:15:41Z</time></trkpt><trkpt lat="45.61471079289181" lon="10.721934211474261"><ele>414.0</ele><time>2026-03-24T12:15:42Z</time></trkpt><trkpt lat="45.61472250972573" lon="10.72182561897024"><ele>414.00000000000006</ele><time>2026-03-24T12:15:43Z</time></trkpt><trkpt lat="45.614729525245856" lon="10.721715953011476"><ele>414.0</ele><time>2026-03-24T12:15:44Z</time></trkpt><trkpt lat="45.614738694665206" lon="10.721614564244495"><ele>413.5</ele><time>2026-03-24T12:15:45Z</time></trkpt><trkpt lat="45.61475771792439" lon="10.721511961059978"><ele>413.0</ele><time>2026-03-24T12:15:46Z</time></trkpt><trkpt lat="45.614777816332015" lon="10.721407233743717"><ele>412.5</ele><time>2026-03-24T12:15:47Z</time></trkpt><trkpt lat="45.61479127337444" lon="10.721302868189195"><ele>412.0</ele><time>2026-03-24T12:15:48Z</time></trkpt><trkpt lat="45.6148160811268" lon="10.721197276184718"><ele>411.5</ele><time>2026-03-24T12:15:49Z</time></trkpt><trkpt lat="45.614847189046515" lon="10.721097394084806"><ele>411.0</ele><time>2026-03-24T12:15:50Z</time></trkpt><trkpt lat="45.61488708413087" lon="10.721003039014734"><ele>408.8333333333333</ele><time>2026-03-24T12:15:51Z</time></trkpt><trkpt lat="45.61493792996691" lon="10.720914562241575"><ele>406.66666666666663</ele><time>2026-03-24T12:15:52Z</time></trkpt><trkpt lat="45.614998978971364" lon="10.72083175866688"><ele>404.5</ele><time>2026-03-24T12:15:53Z</time></trkpt><trkpt lat="45.61506047742959" lon="10.720754273810128"><ele>402.3333333333333</ele><time>2026-03-24T12:15:54Z</time></trkpt><trkpt lat="45.61512063894356" lon="10.720673693907234"><ele>400.16666666666663</ele><time>2026-03-24T12:15:55Z</time></trkpt><trkpt lat="45.61518329263727" lon="10.720599452355575"><ele>398.0</ele><time>2026-03-24T12:15:56Z</time></trkpt><trkpt lat="45.615242883170325" lon="10.720528487551165"><ele>398.0</ele><time>2026-03-24T12:15:57Z</time></trkpt><trkpt lat="45.615280942405086" lon="10.720448634244539"><ele>398.0</ele><time>2026-03-24T12:15:58Z</time></trkpt><trkpt lat="45.61523968086621" lon="10.720277407332773"><ele>398.0</ele><time>2026-03-24T12:16:00Z</time></trkpt><trkpt lat="45.61517899987589" lon="10.720215324997442"><ele>398.0</ele><time>2026-03-24T12:16:01Z</time></trkpt><trkpt lat="45.61508410651506" lon="10.720266539898997"><ele>398.0</ele><time>2026-03-24T12:16:02Z</time></trkpt><trkpt lat="45.61504334433427" lon="10.720386904559195"><ele>397.99999999999994</ele><time>2026-03-24T12:16:03Z</time></trkpt><trkpt lat="45.61498915810765" lon="10.720443725761212"><ele>398.0</ele><time>2026-03-24T12:16:04Z</time></trkpt><trkpt lat="45.61494273377068" lon="10.720509391531753"><ele>398.0</ele><time>2026-03-24T12:16:05Z</time></trkpt><trkpt lat="45.61489633961904" lon="10.720575014722103"><ele>398.0</ele><time>2026-03-24T12:16:06Z</time></trkpt><trkpt lat="45.61484620050236" lon="10.720645934929443"><ele>398.0</ele><time>2026-03-24T12:16:07Z</time></trkpt><trkpt lat="45.61479827233174" lon="10.72071325077263"><ele>397.99999999999994</ele><time>2026-03-24T12:16:08Z</time></trkpt><trkpt lat="45.61474931331328" lon="10.720781288471404"><ele>398.0</ele><time>2026-03-24T12:16:09Z</time></trkpt><trkpt lat="45.614698194990325" lon="10.720852326936175"><ele>397.99999999999994</ele><time>2026-03-24T12:16:10Z</time></trkpt><trkpt lat="45.61464771841829" lon="10.720922473687935"><ele>398.0</ele><time>2026-03-24T12:16:11Z</time></trkpt><trkpt lat="45.61459590592729" lon="10.720992308622979"><ele>398.0</ele><time>2026-03-24T12:16:12Z</time></trkpt><trkpt lat="45.614541645194876" lon="10.72106189357953"><ele>398.0</ele><time>2026-03-24T12:16:13Z</time></trkpt><trkpt lat="45.61448586092151" lon="10.721127869942364"><ele>398.0</ele><time>2026-03-24T12:16:14Z</time></trkpt><trkpt lat="45.61443700448995" lon="10.721202417097519"><ele>397.99999999999994</ele><time>2026-03-24T12:16:15Z</time></trkpt><trkpt lat="45.614370297663456" lon="10.721263076956607"><ele>398.0</ele><time>2026-03-24T12:16:16Z</time></trkpt><trkpt lat="45.614303942953036" lon="10.721312039138523"><ele>395.66666666666663</ele><time>2026-03-24T12:16:17Z</time></trkpt><trkpt lat="45.614236470215715" lon="10.72136783245602"><ele>393.3333333333333</ele><time>2026-03-24T12:16:18Z</time></trkpt><trkpt lat="45.61416820066973" lon="10.721419227804665"><ele>391.0</ele><time>2026-03-24T12:16:19Z</time></trkpt><trkpt lat="45.614102128283164" lon="10.721483977390644"><ele>388.66666666666663</ele><time>2026-03-24T12:16:20Z</time></trkpt><trkpt lat="45.614049010856775" lon="10.721571164335225"><ele>386.3333333333333</ele><time>2026-03-24T12:16:21Z</time></trkpt><trkpt lat="45.614018068412484" lon="10.721676678292836"><ele>384.0</ele><time>2026-03-24T12:16:22Z</time></trkpt><trkpt lat="45.613997394624434" lon="10.721791164419965"><ele>384.5</ele><time>2026-03-24T12:16:23Z</time></trkpt><trkpt lat="45.613984256986875" lon="10.721910820926704"><ele>385.0</ele><time>2026-03-24T12:16:23.999Z</time></trkpt><trkpt lat="45.61397212396121" lon="10.72203126658382"><ele>385.5</ele><time>2026-03-24T12:16:24.999Z</time></trkpt><trkpt lat="45.61395298365048" lon="10.722153414684511"><ele>386.0</ele><time>2026-03-24T12:16:25.999Z</time></trkpt><trkpt lat="45.613936409274416" lon="10.72227715504624"><ele>386.5</ele><time>2026-03-24T12:16:26.999Z</time></trkpt><trkpt lat="45.61391289307346" lon="10.722402691929146"><ele>387.0</ele><time>2026-03-24T12:16:27.999Z</time></trkpt><trkpt lat="45.61388326932034" lon="10.722527544359766"><ele>387.0</ele><time>2026-03-24T12:16:28.999Z</time></trkpt><trkpt lat="45.61383731251764" lon="10.722642051164291"><ele>387.0</ele><time>2026-03-24T12:16:29.999Z</time></trkpt><trkpt lat="45.613795396224496" lon="10.72276062896498"><ele>387.0</ele><time>2026-03-24T12:16:30.999Z</time></trkpt><trkpt lat="45.61374413427817" lon="10.722866411202004"><ele>387.0</ele><time>2026-03-24T12:16:31.999Z</time></trkpt><trkpt lat="45.61368229479953" lon="10.722964511658196"><ele>387.0</ele><time>2026-03-24T12:16:32.999Z</time></trkpt><trkpt lat="45.61361684193689" lon="10.723055525732656"><ele>383.6</ele><time>2026-03-24T12:16:33.999Z</time></trkpt><trkpt lat="45.61354316300053" lon="10.72313112132725"><ele>380.20000000000005</ele><time>2026-03-24T12:16:34.999Z</time></trkpt><trkpt lat="45.61346897172116" lon="10.72320846414927"><ele>376.8</ele><time>2026-03-24T12:16:35.999Z</time></trkpt><trkpt lat="45.613395838913576" lon="10.72328371298604"><ele>373.4</ele><time>2026-03-24T12:16:36.999Z</time></trkpt><trkpt lat="45.61332212218047" lon="10.723364760187081"><ele>370.0</ele><time>2026-03-24T12:16:37.999Z</time></trkpt><trkpt lat="45.613247568233156" lon="10.72344069777614"><ele>370.0</ele><time>2026-03-24T12:16:38.999Z</time></trkpt><trkpt lat="45.613170696447106" lon="10.723518616494959"><ele>370.0</ele><time>2026-03-24T12:16:39.999Z</time></trkpt><trkpt lat="45.61309567115932" lon="10.72359770871115"><ele>370.0</ele><time>2026-03-24T12:16:40.999Z</time></trkpt><trkpt lat="45.61301458003541" lon="10.723668407645524"><ele>370.0</ele><time>2026-03-24T12:16:41.999Z</time></trkpt><trkpt lat="45.612928449190086" lon="10.723735733291864"><ele>370.0</ele><time>2026-03-24T12:16:42.999Z</time></trkpt><trkpt lat="45.61284524345571" lon="10.723798509891775"><ele>368.2</ele><time>2026-03-24T12:16:43.999Z</time></trkpt><trkpt lat="45.61276171909074" lon="10.723863263771165"><ele>366.4</ele><time>2026-03-24T12:16:44.999Z</time></trkpt><trkpt lat="45.61268035136874" lon="10.723923988457418"><ele>364.6</ele><time>2026-03-24T12:16:45.999Z</time></trkpt><trkpt lat="45.612599870511566" lon="10.723982757464329"><ele>362.8</ele><time>2026-03-24T12:16:46.999Z</time></trkpt><trkpt lat="45.61252121345273" lon="10.724042758564995"><ele>361.0</ele><time>2026-03-24T12:16:47.999Z</time></trkpt><trkpt lat="45.61244406790321" lon="10.724102272508793"><ele>361.0</ele><time>2026-03-24T12:16:48.999Z</time></trkpt><trkpt lat="45.61236489343816" lon="10.724151823400257"><ele>361.0</ele><time>2026-03-24T12:16:49.999Z</time></trkpt><trkpt lat="45.612286213522204" lon="10.724201240180243"><ele>361.0</ele><time>2026-03-24T12:16:50.999Z</time></trkpt><trkpt lat="45.61221141622756" lon="10.724257404954683"><ele>361.0</ele><time>2026-03-24T12:16:51.999Z</time></trkpt><trkpt lat="45.61213849740677" lon="10.724314637858674"><ele>361.0</ele><time>2026-03-24T12:16:52.999Z</time></trkpt><trkpt lat="45.612065216733335" lon="10.724367095909997"><ele>361.0</ele><time>2026-03-24T12:16:53.999Z</time></trkpt><trkpt lat="45.61199228991642" lon="10.724420897023256"><ele>360.16666666666663</ele><time>2026-03-24T12:16:54.999Z</time></trkpt><trkpt lat="45.61192079987256" lon="10.724476902746401"><ele>359.3333333333333</ele><time>2026-03-24T12:16:55.999Z</time></trkpt><trkpt lat="45.61184887514957" lon="10.724530578263252"><ele>358.5</ele><time>2026-03-24T12:16:56.999Z</time></trkpt><trkpt lat="45.6117762621543" lon="10.724586702437861"><ele>357.6666666666667</ele><time>2026-03-24T12:16:57.999Z</time></trkpt><trkpt lat="45.611704288672954" lon="10.72464545367179"><ele>356.83333333333337</ele><time>2026-03-24T12:16:58.999Z</time></trkpt><trkpt lat="45.61162915402976" lon="10.724704635247514"><ele>356.0</ele><time>2026-03-24T12:16:59.999Z</time></trkpt><trkpt lat="45.61155338877769" lon="10.724756828467454"><ele>356.0</ele><time>2026-03-24T12:17:00.999Z</time></trkpt><trkpt lat="45.6114776454171" lon="10.724812684147397"><ele>356.0</ele><time>2026-03-24T12:17:01.999Z</time></trkpt><trkpt lat="45.61140140507814" lon="10.72486696516488"><ele>356.0</ele><time>2026-03-24T12:17:02.999Z</time></trkpt><trkpt lat="45.611323667491796" lon="10.724920352751923"><ele>356.0</ele><time>2026-03-24T12:17:03.999Z</time></trkpt><trkpt lat="45.61124820006442" lon="10.724975903944285"><ele>356.0</ele><time>2026-03-24T12:17:04.999Z</time></trkpt><trkpt lat="45.611170999714915" lon="10.725027007818149"><ele>356.0</ele><time>2026-03-24T12:17:05.999Z</time></trkpt><trkpt lat="45.61109334313017" lon="10.725082268189126"><ele>354.8</ele><time>2026-03-24T12:17:06.999Z</time></trkpt><trkpt lat="45.61101079859808" lon="10.725129791258487"><ele>353.6</ele><time>2026-03-24T12:17:07.999Z</time></trkpt><trkpt lat="45.61092210834438" lon="10.725167627003287"><ele>352.4</ele><time>2026-03-24T12:17:08.999Z</time></trkpt><trkpt lat="45.610831703407314" lon="10.72519162240204"><ele>351.2</ele><time>2026-03-24T12:17:09.999Z</time></trkpt><trkpt lat="45.61073711569833" lon="10.7251971755711"><ele>350.0</ele><time>2026-03-24T12:17:10.999Z</time></trkpt><trkpt lat="45.610640731727806" lon="10.72519254045192"><ele>350.0</ele><time>2026-03-24T12:17:11.999Z</time></trkpt><trkpt lat="45.61054275826076" lon="10.725179687487119"><ele>350.0</ele><time>2026-03-24T12:17:12.999Z</time></trkpt><trkpt lat="45.61044462358167" lon="10.725163291165712"><ele>350.0</ele><time>2026-03-24T12:17:13.999Z</time></trkpt><trkpt lat="45.61034307811423" lon="10.725146469455861"><ele>350.0</ele><time>2026-03-24T12:17:14.999Z</time></trkpt><trkpt lat="45.61024407594941" lon="10.725125039225949"><ele>350.0</ele><time>2026-03-24T12:17:15.999Z</time></trkpt><trkpt lat="45.61014164593798" lon="10.725104742863499"><ele>348.6</ele><time>2026-03-24T12:17:16.999Z</time></trkpt><trkpt lat="45.61003883881757" lon="10.72509314899084"><ele>347.2</ele><time>2026-03-24T12:17:17.999Z</time></trkpt><trkpt lat="45.60993711017458" lon="10.725088385832267"><ele>345.79999999999995</ele><time>2026-03-24T12:17:18.999Z</time></trkpt><trkpt lat="45.60983387434477" lon="10.72509186502886"><ele>344.4</ele><time>2026-03-24T12:17:19.999Z</time></trkpt><trkpt lat="45.609735150777105" lon="10.725098739665707"><ele>343.0</ele><time>2026-03-24T12:17:20.999Z</time></trkpt><trkpt lat="45.60963398894323" lon="10.725099296714983"><ele>343.0</ele><time>2026-03-24T12:17:21.999Z</time></trkpt><trkpt lat="45.60953131711378" lon="10.725128671643333"><ele>343.0</ele><time>2026-03-24T12:17:22.999Z</time></trkpt><trkpt lat="45.609428931411" lon="10.725124311443256"><ele>343.0</ele><time>2026-03-24T12:17:23.999Z</time></trkpt><trkpt lat="45.60932985919611" lon="10.725138900384227"><ele>343.0</ele><time>2026-03-24T12:17:24.999Z</time></trkpt><trkpt lat="45.609227680916575" lon="10.725153946719994"><ele>343.0</ele><time>2026-03-24T12:17:25.999Z</time></trkpt><trkpt lat="45.60912724724215" lon="10.725168302413033"><ele>341.79999999999995</ele><time>2026-03-24T12:17:26.999Z</time></trkpt><trkpt lat="45.60902718495577" lon="10.725202800877598"><ele>340.6</ele><time>2026-03-24T12:17:27.998Z</time></trkpt><trkpt lat="45.60892186966228" lon="10.725196506959973"><ele>339.4</ele><time>2026-03-24T12:17:28.998Z</time></trkpt><trkpt lat="45.60881933318858" lon="10.725210588324355"><ele>338.20000000000005</ele><time>2026-03-24T12:17:29.998Z</time></trkpt><trkpt lat="45.60872007768339" lon="10.725239174892506"><ele>337.0</ele><time>2026-03-24T12:17:30.998Z</time></trkpt><trkpt lat="45.6086199082321" lon="10.725250992398923"><ele>335.8</ele><time>2026-03-24T12:17:32Z</time></trkpt><trkpt lat="45.608524745567564" lon="10.725291425942807"><ele>334.6</ele><time>2026-03-24T12:17:33Z</time></trkpt><trkpt lat="45.60844643657262" lon="10.725353413879072"><ele>333.40000000000003</ele><time>2026-03-24T12:17:34Z</time></trkpt><trkpt lat="45.60840264155908" lon="10.725462415412649"><ele>332.20000000000005</ele><time>2026-03-24T12:17:35Z</time></trkpt><trkpt lat="45.60842827032966" lon="10.725604592829916"><ele>331.0</ele><time>2026-03-24T12:17:36Z</time></trkpt><trkpt lat="45.608451429311756" lon="10.725724216850384"><ele>331.0</ele><time>2026-03-24T12:17:37Z</time></trkpt><trkpt lat="45.60853984513733" lon="10.725793779717808"><ele>331.0</ele><time>2026-03-24T12:17:38Z</time></trkpt><trkpt lat="45.60862060487709" lon="10.725827924745392"><ele>331.0</ele><time>2026-03-24T12:17:39Z</time></trkpt><trkpt lat="45.60870433570423" lon="10.725799882525337"><ele>331.0</ele><time>2026-03-24T12:17:40Z</time></trkpt><trkpt lat="45.608775807406104" lon="10.725740885214398"><ele>331.0</ele><time>2026-03-24T12:17:41Z</time></trkpt><trkpt lat="45.60883753666981" lon="10.725670914327514"><ele>331.0</ele><time>2026-03-24T12:17:42Z</time></trkpt><trkpt lat="45.60889851261483" lon="10.725617697336643"><ele>331.6</ele><time>2026-03-24T12:17:43Z</time></trkpt><trkpt lat="45.60899266349963" lon="10.72562829246059"><ele>332.20000000000005</ele><time>2026-03-24T12:17:45Z</time></trkpt><trkpt lat="45.6089750092534" lon="10.725783405495653"><ele>332.79999999999995</ele><time>2026-03-24T12:17:47Z</time></trkpt><trkpt lat="45.608917026224375" lon="10.725819416406296"><ele>333.4</ele><time>2026-03-24T12:17:48Z</time></trkpt><trkpt lat="45.608795078195435" lon="10.72585171582676"><ele>334.0</ele><time>2026-03-24T12:17:50Z</time></trkpt><trkpt lat="45.608734613754855" lon="10.725884234549003"><ele>334.0</ele><time>2026-03-24T12:17:51Z</time></trkpt><trkpt lat="45.608673791580024" lon="10.725925500379805"><ele>334.0</ele><time>2026-03-24T12:17:52Z</time></trkpt><trkpt lat="45.60861037127862" lon="10.725968151417772"><ele>334.0</ele><time>2026-03-24T12:17:53Z</time></trkpt><trkpt lat="45.608536659063475" lon="10.725986917228626"><ele>334.0</ele><time>2026-03-24T12:17:54Z</time></trkpt><trkpt lat="45.608471744422225" lon="10.726050513083615"><ele>334.0</ele><time>2026-03-24T12:17:55Z</time></trkpt><trkpt lat="45.60839088917769" lon="10.726092611739732"><ele>334.0</ele><time>2026-03-24T12:17:56Z</time></trkpt><trkpt lat="45.60831408610287" lon="10.72612735361391"><ele>332.16666666666663</ele><time>2026-03-24T12:17:57Z</time></trkpt><trkpt lat="45.60823564625102" lon="10.726163150181154"><ele>330.3333333333333</ele><time>2026-03-24T12:17:58Z</time></trkpt><trkpt lat="45.608153177744825" lon="10.726199564320913"><ele>328.5</ele><time>2026-03-24T12:17:59Z</time></trkpt><trkpt lat="45.60807126377375" lon="10.7262380389393"><ele>326.6666666666667</ele><time>2026-03-24T12:18:00Z</time></trkpt><trkpt lat="45.6079862825464" lon="10.726259872073106"><ele>324.83333333333337</ele><time>2026-03-24T12:18:01Z</time></trkpt><trkpt lat="45.607897936954906" lon="10.726271588417337"><ele>323.0</ele><time>2026-03-24T12:18:02Z</time></trkpt><trkpt lat="45.60781185350208" lon="10.72627352000986"><ele>322.33333333333337</ele><time>2026-03-24T12:18:03Z</time></trkpt><trkpt lat="45.607723174801876" lon="10.726276552494454"><ele>321.6666666666667</ele><time>2026-03-24T12:18:04Z</time></trkpt><trkpt lat="45.60763461067615" lon="10.72628331044664"><ele>321.0</ele><time>2026-03-24T12:18:05Z</time></trkpt><trkpt lat="45.607545851174784" lon="10.726290526073406"><ele>320.3333333333333</ele><time>2026-03-24T12:18:06Z</time></trkpt><trkpt lat="45.60745722331959" lon="10.726293310605655"><ele>319.66666666666663</ele><time>2026-03-24T12:18:07Z</time></trkpt><trkpt lat="45.60736737997524" lon="10.726295046697372"><ele>319.0</ele><time>2026-03-24T12:18:08Z</time></trkpt><trkpt lat="45.60727721368958" lon="10.726303941371942"><ele>319.0</ele><time>2026-03-24T12:18:09Z</time></trkpt><trkpt lat="45.60718927110243" lon="10.72632392399716"><ele>319.0</ele><time>2026-03-24T12:18:10Z</time></trkpt><trkpt lat="45.60711441916009" lon="10.726352166511864"><ele>319.0</ele><time>2026-03-24T12:18:11Z</time></trkpt><trkpt lat="45.60703275016945" lon="10.726374452427814"><ele>319.0</ele><time>2026-03-24T12:18:12Z</time></trkpt><trkpt lat="45.60695508841273" lon="10.726422710688578"><ele>319.0</ele><time>2026-03-24T12:18:13Z</time></trkpt><trkpt lat="45.60687725716997" lon="10.726486579426947"><ele>319.0</ele><time>2026-03-24T12:18:14Z</time></trkpt><trkpt lat="45.60681340953493" lon="10.726562164987437"><ele>318.59999999999997</ele><time>2026-03-24T12:18:15Z</time></trkpt><trkpt lat="45.60672118252205" lon="10.726687939845231"><ele>318.2</ele><time>2026-03-24T12:18:17Z</time></trkpt><trkpt lat="45.60668050047259" lon="10.726787963617896"><ele>317.79999999999995</ele><time>2026-03-24T12:18:18Z</time></trkpt><trkpt lat="45.60665547746172" lon="10.72690013225094"><ele>317.4</ele><time>2026-03-24T12:18:19Z</time></trkpt><trkpt lat="45.60662950118248" lon="10.727006701794686"><ele>317.0</ele><time>2026-03-24T12:18:20Z</time></trkpt><trkpt lat="45.606608275370554" lon="10.727117375335137"><ele>316.83333333333337</ele><time>2026-03-24T12:18:21Z</time></trkpt><trkpt lat="45.60659196690625" lon="10.72723632468227"><ele>316.6666666666667</ele><time>2026-03-24T12:18:22Z</time></trkpt><trkpt lat="45.606583453480056" lon="10.727345875797154"><ele>316.5</ele><time>2026-03-24T12:18:23Z</time></trkpt><trkpt lat="45.606546243854" lon="10.727452962526336"><ele>316.3333333333333</ele><time>2026-03-24T12:18:24Z</time></trkpt><trkpt lat="45.60651159056604" lon="10.727558788682515"><ele>316.16666666666663</ele><time>2026-03-24T12:18:25Z</time></trkpt><trkpt lat="45.60648567261887" lon="10.727667553946363"><ele>316.0</ele><time>2026-03-24T12:18:26Z</time></trkpt><trkpt lat="45.606456730147094" lon="10.72777464731663"><ele>315.0</ele><time>2026-03-24T12:18:27Z</time></trkpt><trkpt lat="45.606418854866" lon="10.727883016625302"><ele>314.0</ele><time>2026-03-24T12:18:28Z</time></trkpt><trkpt lat="45.60638142429732" lon="10.727986751775449"><ele>313.0</ele><time>2026-03-24T12:18:29Z</time></trkpt><trkpt lat="45.606346316988365" lon="10.728089717335642"><ele>312.0</ele><time>2026-03-24T12:18:30Z</time></trkpt><trkpt lat="45.6063246576754" lon="10.728198763241124"><ele>311.0</ele><time>2026-03-24T12:18:30.999Z</time></trkpt><trkpt lat="45.60630132582008" lon="10.72828576114009"><ele>310.0</ele><time>2026-03-24T12:18:31.999Z</time></trkpt><trkpt lat="45.60629334822629" lon="10.728411438348626"><ele>310.0</ele><time>2026-03-24T12:18:33.999Z</time></trkpt><trkpt lat="45.606355590682405" lon="10.728530277522724"><ele>310.0</ele><time>2026-03-24T12:18:35.999Z</time></trkpt><trkpt lat="45.606387915849815" lon="10.728622599489013"><ele>310.0</ele><time>2026-03-24T12:18:36.999Z</time></trkpt><trkpt lat="45.60642327796915" lon="10.728718044783236"><ele>310.0</ele><time>2026-03-24T12:18:37.999Z</time></trkpt><trkpt lat="45.60645829246568" lon="10.728808807726633"><ele>310.0</ele><time>2026-03-24T12:18:38.999Z</time></trkpt><trkpt lat="45.606491355775475" lon="10.728904594891244"><ele>310.0</ele><time>2026-03-24T12:18:39.999Z</time></trkpt><trkpt lat="45.60654211627316" lon="10.72899805068739"><ele>309.66666666666663</ele><time>2026-03-24T12:18:40.999Z</time></trkpt><trkpt lat="45.606579224481465" lon="10.729093998425077"><ele>309.3333333333333</ele><time>2026-03-24T12:18:41.999Z</time></trkpt><trkpt lat="45.606615367406526" lon="10.729187312140102"><ele>309.0</ele><time>2026-03-24T12:18:42.999Z</time></trkpt><trkpt lat="45.606652016189365" lon="10.729293154174982"><ele>308.6666666666667</ele><time>2026-03-24T12:18:43.999Z</time></trkpt><trkpt lat="45.60668123644436" lon="10.729404017017718"><ele>308.33333333333337</ele><time>2026-03-24T12:18:44.999Z</time></trkpt><trkpt lat="45.60670209580783" lon="10.729516261064411"><ele>308.0</ele><time>2026-03-24T12:18:45.999Z</time></trkpt><trkpt lat="45.60670772266917" lon="10.729641581636109"><ele>307.1666666666667</ele><time>2026-03-24T12:18:46.999Z</time></trkpt><trkpt lat="45.606701841651336" lon="10.729765958034305"><ele>306.33333333333337</ele><time>2026-03-24T12:18:47.999Z</time></trkpt><trkpt lat="45.60669742551244" lon="10.72989072858301"><ele>305.5</ele><time>2026-03-24T12:18:48.999Z</time></trkpt><trkpt lat="45.6066978632143" lon="10.730009704317458"><ele>304.6666666666667</ele><time>2026-03-24T12:18:49.999Z</time></trkpt><trkpt lat="45.60669883144831" lon="10.730127982570554"><ele>303.8333333333333</ele><time>2026-03-24T12:18:50.999Z</time></trkpt><trkpt lat="45.606700869972066" lon="10.730243844281457"><ele>303.0</ele><time>2026-03-24T12:18:51.999Z</time></trkpt><trkpt lat="45.606702920328594" lon="10.730360378486067"><ele>302.1666666666667</ele><time>2026-03-24T12:18:52.999Z</time></trkpt><trkpt lat="45.60670499792456" lon="10.730478461512382"><ele>301.3333333333333</ele><time>2026-03-24T12:18:53.999Z</time></trkpt><trkpt lat="45.606707088182326" lon="10.730597263537472"><ele>300.5</ele><time>2026-03-24T12:18:54.999Z</time></trkpt><trkpt lat="45.60670914393261" lon="10.730714104870012"><ele>299.66666666666663</ele><time>2026-03-24T12:18:55.999Z</time></trkpt><trkpt lat="45.60671121574995" lon="10.730828127087783"><ele>298.8333333333333</ele><time>2026-03-24T12:18:56.999Z</time></trkpt><trkpt lat="45.606713274274874" lon="10.730934896144543"><ele>298.0</ele><time>2026-03-24T12:18:57.999Z</time></trkpt><trkpt lat="45.60671644388984" lon="10.731099293934967"><ele>297.25</ele><time>2026-03-24T12:18:59.999Z</time></trkpt><trkpt lat="45.60670961708126" lon="10.731262206186802"><ele>296.5</ele><time>2026-03-24T12:19:01.999Z</time></trkpt><trkpt lat="45.60671194958599" lon="10.731433924933663"><ele>295.75</ele><time>2026-03-24T12:19:03.999Z</time></trkpt><trkpt lat="45.6067200404853" lon="10.73160090174733"><ele>295.0</ele><time>2026-03-24T12:19:05.999Z</time></trkpt><trkpt lat="45.606724219114284" lon="10.731767284855954"><ele>295.0</ele><time>2026-03-24T12:19:07.999Z</time></trkpt><trkpt lat="45.60672400135279" lon="10.731933576104005"><ele>295.0</ele><time>2026-03-24T12:19:09.999Z</time></trkpt><trkpt lat="45.60670791658982" lon="10.732112409972046"><ele>295.0</ele><time>2026-03-24T12:19:11.999Z</time></trkpt><trkpt lat="45.606684564165676" lon="10.73220393966593"><ele>295.0</ele><time>2026-03-24T12:19:12.999Z</time></trkpt><trkpt lat="45.606667266359544" lon="10.732298867846096"><ele>295.0</ele><time>2026-03-24T12:19:13.999Z</time></trkpt><trkpt lat="45.60664270040356" lon="10.732386355421168"><ele>295.0</ele><time>2026-03-24T12:19:14.999Z</time></trkpt><trkpt lat="45.60662812079807" lon="10.732485827495523"><ele>295.00000000000006</ele><time>2026-03-24T12:19:15.999Z</time></trkpt><trkpt lat="45.60658308160603" lon="10.73256554578902"><ele>295.0</ele><time>2026-03-24T12:19:16.999Z</time></trkpt><trkpt lat="45.60655789625242" lon="10.732663058192552"><ele>295.0</ele><time>2026-03-24T12:19:17.999Z</time></trkpt><trkpt lat="45.60649989502703" lon="10.732727477214743"><ele>295.0</ele><time>2026-03-24T12:19:18.999Z</time></trkpt><trkpt lat="45.606451160855514" lon="10.732794790506151"><ele>295.0</ele><time>2026-03-24T12:19:19.999Z</time></trkpt><trkpt lat="45.60639917618301" lon="10.732855938851788"><ele>295.00000000000006</ele><time>2026-03-24T12:19:20.999Z</time></trkpt><trkpt lat="45.60634836685559" lon="10.73292072761214"><ele>295.0</ele><time>2026-03-24T12:19:21.999Z</time></trkpt><trkpt lat="45.60629533161016" lon="10.732972739961077"><ele>295.8571428571429</ele><time>2026-03-24T12:19:22.999Z</time></trkpt><trkpt lat="45.606242831504304" lon="10.733030287035968"><ele>296.7142857142857</ele><time>2026-03-24T12:19:23.999Z</time></trkpt><trkpt lat="45.606188486446925" lon="10.73308969498004"><ele>297.57142857142856</ele><time>2026-03-24T12:19:24.999Z</time></trkpt><trkpt lat="45.60613133923897" lon="10.733155817545615"><ele>298.42857142857144</ele><time>2026-03-24T12:19:25.999Z</time></trkpt><trkpt lat="45.606074671714" lon="10.7332123421978"><ele>299.2857142857143</ele><time>2026-03-24T12:19:26.999Z</time></trkpt><trkpt lat="45.60601881385396" lon="10.73326925717851"><ele>300.14285714285717</ele><time>2026-03-24T12:19:27.999Z</time></trkpt><trkpt lat="45.60596013240573" lon="10.733328118488213"><ele>301.0</ele><time>2026-03-24T12:19:28.999Z</time></trkpt><trkpt lat="45.605902536794645" lon="10.733387034009588"><ele>300.3333333333333</ele><time>2026-03-24T12:19:29.999Z</time></trkpt><trkpt lat="45.605849073105674" lon="10.733445542725832"><ele>299.66666666666663</ele><time>2026-03-24T12:19:30.999Z</time></trkpt><trkpt lat="45.605795086893096" lon="10.733504356441832"><ele>299.0</ele><time>2026-03-24T12:19:31.999Z</time></trkpt><trkpt lat="45.60573818445788" lon="10.733555985405534"><ele>298.3333333333333</ele><time>2026-03-24T12:19:32.999Z</time></trkpt><trkpt lat="45.60564411742869" lon="10.733668885314138"><ele>297.6666666666667</ele><time>2026-03-24T12:19:34.998Z</time></trkpt><trkpt lat="45.605595033522384" lon="10.733726171711838"><ele>297.0</ele><time>2026-03-24T12:19:35.998Z</time></trkpt><trkpt lat="45.60549720279041" lon="10.733833787677161"><ele>297.0</ele><time>2026-03-24T12:19:38Z</time></trkpt><trkpt lat="45.60539844553802" lon="10.733941572413773"><ele>297.0</ele><time>2026-03-24T12:19:40Z</time></trkpt><trkpt lat="45.605297947328864" lon="10.734050882700494"><ele>297.0</ele><time>2026-03-24T12:19:42Z</time></trkpt><trkpt lat="45.60524381115306" lon="10.734105435216241"><ele>297.0</ele><time>2026-03-24T12:19:43Z</time></trkpt><trkpt lat="45.6051902687966" lon="10.734163453308401"><ele>297.0</ele><time>2026-03-24T12:19:44Z</time></trkpt><trkpt lat="45.60513601927178" lon="10.734225314232711"><ele>296.2857142857143</ele><time>2026-03-24T12:19:45Z</time></trkpt><trkpt lat="45.60507887723146" lon="10.73428274317276"><ele>295.5714285714286</ele><time>2026-03-24T12:19:46Z</time></trkpt><trkpt lat="45.60501962343394" lon="10.734343960844273"><ele>294.8571428571429</ele><time>2026-03-24T12:19:47Z</time></trkpt><trkpt lat="45.6049622025201" lon="10.7344114740726"><ele>294.14285714285717</ele><time>2026-03-24T12:19:48Z</time></trkpt><trkpt lat="45.60490438041224" lon="10.73447237977599"><ele>293.42857142857144</ele><time>2026-03-24T12:19:49Z</time></trkpt><trkpt lat="45.604848158552585" lon="10.734533313475547"><ele>292.7142857142857</ele><time>2026-03-24T12:19:50Z</time></trkpt><trkpt lat="45.60479226147709" lon="10.734593997828938"><ele>292.0</ele><time>2026-03-24T12:19:51Z</time></trkpt><trkpt lat="45.604736785244626" lon="10.734656058403264"><ele>292.0</ele><time>2026-03-24T12:19:52Z</time></trkpt><trkpt lat="45.604684658741746" lon="10.734713194966925"><ele>292.0</ele><time>2026-03-24T12:19:53Z</time></trkpt><trkpt lat="45.604627893633534" lon="10.734767618309707"><ele>292.0</ele><time>2026-03-24T12:19:54Z</time></trkpt><trkpt lat="45.6045711094113" lon="10.734830120278152"><ele>292.0</ele><time>2026-03-24T12:19:55Z</time></trkpt><trkpt lat="45.60451838372274" lon="10.73488619793209"><ele>292.0</ele><time>2026-03-24T12:19:56Z</time></trkpt><trkpt lat="45.60446843988029" lon="10.73494181387712"><ele>292.0</ele><time>2026-03-24T12:19:57Z</time></trkpt><trkpt lat="45.60441669695732" lon="10.734999276829399"><ele>292.0</ele><time>2026-03-24T12:19:58Z</time></trkpt><trkpt lat="45.60436117930499" lon="10.735054269987204"><ele>291.6</ele><time>2026-03-24T12:19:59Z</time></trkpt><trkpt lat="45.604310250354594" lon="10.735110790299279"><ele>291.2</ele><time>2026-03-24T12:20:00Z</time></trkpt><trkpt lat="45.604215509748165" lon="10.73522183360094"><ele>290.8</ele><time>2026-03-24T12:20:02Z</time></trkpt><trkpt lat="45.6041211608341" lon="10.735331659510255"><ele>290.4</ele><time>2026-03-24T12:20:04Z</time></trkpt><trkpt lat="45.604024557115196" lon="10.73542834861577"><ele>290.0</ele><time>2026-03-24T12:20:06Z</time></trkpt><trkpt lat="45.60393068620786" lon="10.735527243629782"><ele>290.0</ele><time>2026-03-24T12:20:08Z</time></trkpt><trkpt lat="45.60383374166724" lon="10.73562213321274"><ele>290.0</ele><time>2026-03-24T12:20:10Z</time></trkpt><trkpt lat="45.60373285399871" lon="10.735725255953225"><ele>290.0</ele><time>2026-03-24T12:20:12Z</time></trkpt><trkpt lat="45.603680255475986" lon="10.73577834106935"><ele>290.0</ele><time>2026-03-24T12:20:13Z</time></trkpt><trkpt lat="45.603571241662294" lon="10.735878140779281"><ele>290.0</ele><time>2026-03-24T12:20:15Z</time></trkpt><trkpt lat="45.60351563878859" lon="10.735930293106664"><ele>289.7142857142857</ele><time>2026-03-24T12:20:16Z</time></trkpt><trkpt lat="45.60346417749898" lon="10.735983218925792"><ele>289.42857142857144</ele><time>2026-03-24T12:20:17Z</time></trkpt><trkpt lat="45.60341125462251" lon="10.736034306126644"><ele>289.14285714285717</ele><time>2026-03-24T12:20:18Z</time></trkpt><trkpt lat="45.6033554257319" lon="10.736086240927154"><ele>288.8571428571429</ele><time>2026-03-24T12:20:19Z</time></trkpt><trkpt lat="45.60330108701932" lon="10.736141402352027"><ele>288.57142857142856</ele><time>2026-03-24T12:20:20Z</time></trkpt><trkpt lat="45.603247057379306" lon="10.736194466102363"><ele>288.28571428571433</ele><time>2026-03-24T12:20:21Z</time></trkpt><trkpt lat="45.603194467609505" lon="10.736251024239925"><ele>288.0</ele><time>2026-03-24T12:20:22Z</time></trkpt><trkpt lat="45.60314054906889" lon="10.73631003493511"><ele>288.00000000000006</ele><time>2026-03-24T12:20:23Z</time></trkpt><trkpt lat="45.603087026975956" lon="10.736367825930625"><ele>288.0</ele><time>2026-03-24T12:20:24Z</time></trkpt><trkpt lat="45.60303277361944" lon="10.736420614305828"><ele>288.0</ele><time>2026-03-24T12:20:25Z</time></trkpt><trkpt lat="45.60297580364741" lon="10.73646869062202"><ele>288.0</ele><time>2026-03-24T12:20:26Z</time></trkpt><trkpt lat="45.602920154003385" lon="10.736521643004457"><ele>288.0</ele><time>2026-03-24T12:20:27Z</time></trkpt><trkpt lat="45.60286891345847" lon="10.736583739996858"><ele>288.00000000000006</ele><time>2026-03-24T12:20:28Z</time></trkpt><trkpt lat="45.60280800239421" lon="10.736640288716423"><ele>288.0</ele><time>2026-03-24T12:20:29Z</time></trkpt><trkpt lat="45.60274955060027" lon="10.73669586149097"><ele>287.5714285714286</ele><time>2026-03-24T12:20:30Z</time></trkpt><trkpt lat="45.60269228058528" lon="10.736745736412082"><ele>287.14285714285717</ele><time>2026-03-24T12:20:31Z</time></trkpt><trkpt lat="45.602628151645966" lon="10.736790838250013"><ele>286.7142857142857</ele><time>2026-03-24T12:20:32Z</time></trkpt><trkpt lat="45.60256223514974" lon="10.736842765620729"><ele>286.28571428571433</ele><time>2026-03-24T12:20:33Z</time></trkpt><trkpt lat="45.60250209217522" lon="10.736889195176508"><ele>285.8571428571429</ele><time>2026-03-24T12:20:34Z</time></trkpt><trkpt lat="45.6024404443541" lon="10.736933406847493"><ele>285.42857142857144</ele><time>2026-03-24T12:20:35Z</time></trkpt><trkpt lat="45.60237396833425" lon="10.736981518311952"><ele>285.0</ele><time>2026-03-24T12:20:36Z</time></trkpt><trkpt lat="45.60231121011042" lon="10.737035547946777"><ele>285.0</ele><time>2026-03-24T12:20:36.999Z</time></trkpt><trkpt lat="45.602247690960255" lon="10.737081786295974"><ele>285.0</ele><time>2026-03-24T12:20:37.999Z</time></trkpt><trkpt lat="45.60218234109031" lon="10.73712843756768"><ele>285.0</ele><time>2026-03-24T12:20:38.999Z</time></trkpt><trkpt lat="45.60212312029743" lon="10.737177159482458"><ele>285.0</ele><time>2026-03-24T12:20:39.999Z</time></trkpt><trkpt lat="45.60206165415522" lon="10.73722914432071"><ele>285.0</ele><time>2026-03-24T12:20:40.999Z</time></trkpt><trkpt lat="45.6020010249214" lon="10.73728559908166"><ele>285.0</ele><time>2026-03-24T12:20:41.999Z</time></trkpt><trkpt lat="45.60193567376877" lon="10.737335453809777"><ele>285.0</ele><time>2026-03-24T12:20:42.999Z</time></trkpt><trkpt lat="45.60186934382786" lon="10.737380140325044"><ele>283.3333333333333</ele><time>2026-03-24T12:20:43.999Z</time></trkpt><trkpt lat="45.60180254880977" lon="10.737432868740674"><ele>281.6666666666667</ele><time>2026-03-24T12:20:44.999Z</time></trkpt><trkpt lat="45.60173531190432" lon="10.737488834602589"><ele>280.0</ele><time>2026-03-24T12:20:45.999Z</time></trkpt><trkpt lat="45.601669908568226" lon="10.737544771130253"><ele>278.33333333333337</ele><time>2026-03-24T12:20:46.999Z</time></trkpt><trkpt lat="45.601602145941605" lon="10.737596538479348"><ele>276.6666666666667</ele><time>2026-03-24T12:20:47.999Z</time></trkpt><trkpt lat="45.601532823129666" lon="10.73764796608053"><ele>275.0</ele><time>2026-03-24T12:20:48.999Z</time></trkpt><trkpt lat="45.601463777761026" lon="10.737700724175529"><ele>275.1666666666667</ele><time>2026-03-24T12:20:49.999Z</time></trkpt><trkpt lat="45.60139408294633" lon="10.73775210064433"><ele>275.33333333333337</ele><time>2026-03-24T12:20:50.999Z</time></trkpt><trkpt lat="45.60132432859759" lon="10.737803229416915"><ele>275.5</ele><time>2026-03-24T12:20:51.999Z</time></trkpt><trkpt lat="45.60125794951503" lon="10.737854385634629"><ele>275.6666666666667</ele><time>2026-03-24T12:20:52.999Z</time></trkpt><trkpt lat="45.60118816665558" lon="10.737899842735972"><ele>275.8333333333333</ele><time>2026-03-24T12:20:53.999Z</time></trkpt><trkpt lat="45.60111646624542" lon="10.737933634823312"><ele>276.0</ele><time>2026-03-24T12:20:54.999Z</time></trkpt><trkpt lat="45.60104254086842" lon="10.737957967415026"><ele>275.0</ele><time>2026-03-24T12:20:55.999Z</time></trkpt><trkpt lat="45.60097193685094" lon="10.737975972804646"><ele>274.0</ele><time>2026-03-24T12:20:56.999Z</time></trkpt><trkpt lat="45.60089997902897" lon="10.737994712003513"><ele>273.0</ele><time>2026-03-24T12:20:57.999Z</time></trkpt><trkpt lat="45.6008331640552" lon="10.738001731713233"><ele>272.0</ele><time>2026-03-24T12:20:58.999Z</time></trkpt><trkpt lat="45.60076205327496" lon="10.738001629964414"><ele>271.0</ele><time>2026-03-24T12:20:59.999Z</time></trkpt><trkpt lat="45.60069372758845" lon="10.737995204982859"><ele>270.0</ele><time>2026-03-24T12:21:00.999Z</time></trkpt><trkpt lat="45.60062484098051" lon="10.737989548797158"><ele>269.0</ele><time>2026-03-24T12:21:01.999Z</time></trkpt><trkpt lat="45.60054466092181" lon="10.738065231882091"><ele>269.0</ele><time>2026-03-24T12:21:03.999Z</time></trkpt><trkpt lat="45.60056305783509" lon="10.738236167786496"><ele>269.0</ele><time>2026-03-24T12:21:05.999Z</time></trkpt><trkpt lat="45.600651100206555" lon="10.738322663465839"><ele>269.0</ele><time>2026-03-24T12:21:07.999Z</time></trkpt><trkpt lat="45.60072168508241" lon="10.738402686854931"><ele>269.0</ele><time>2026-03-24T12:21:09.999Z</time></trkpt><trkpt lat="45.60078942549736" lon="10.73848830495294"><ele>269.0</ele><time>2026-03-24T12:21:11.999Z</time></trkpt><trkpt lat="45.60085534286717" lon="10.738578652702301"><ele>269.1666666666667</ele><time>2026-03-24T12:21:13.999Z</time></trkpt><trkpt lat="45.60091322915171" lon="10.738666360130262"><ele>269.33333333333337</ele><time>2026-03-24T12:21:15.999Z</time></trkpt><trkpt lat="45.60097645875084" lon="10.738759592916939"><ele>269.5</ele><time>2026-03-24T12:21:17.999Z</time></trkpt><trkpt lat="45.60103254373731" lon="10.738840318754772"><ele>269.6666666666667</ele><time>2026-03-24T12:21:19.999Z</time></trkpt><trkpt lat="45.60107984189406" lon="10.73890560444159"><ele>269.8333333333333</ele><time>2026-03-24T12:21:21.999Z</time></trkpt><trkpt lat="45.601134286286694" lon="10.738972839464031"><ele>270.0</ele><time>2026-03-24T12:21:24.999Z</time></trkpt><trkpt lat="45.60120537184485" lon="10.739071368014645"><ele>271.0</ele><time>2026-03-24T12:21:25.999Z</time></trkpt><trkpt lat="45.601253213184926" lon="10.739141448036921"><ele>272.0</ele><time>2026-03-24T12:21:27.999Z</time></trkpt><trkpt lat="45.60126044310258" lon="10.73925770939628"><ele>273.0</ele><time>2026-03-24T12:21:30.999Z</time></trkpt><trkpt lat="45.60122190165764" lon="10.739328973210041"><ele>274.0</ele><time>2026-03-24T12:21:32.999Z</time></trkpt><trkpt lat="45.60117610829171" lon="10.739397104033893"><ele>275.0</ele><time>2026-03-24T12:21:34.999Z</time></trkpt><trkpt lat="45.60112373267818" lon="10.73946190373195"><ele>276.0</ele><time>2026-03-24T12:21:36.999Z</time></trkpt><trkpt lat="45.60106098154171" lon="10.739539649701738"><ele>277.0</ele><time>2026-03-24T12:21:38.999Z</time></trkpt><trkpt lat="45.60098373066035" lon="10.739617241863256"><ele>277.0</ele><time>2026-03-24T12:21:40.998Z</time></trkpt><trkpt lat="45.60088817135779" lon="10.739723565919846"><ele>277.0</ele><time>2026-03-24T12:21:42.998Z</time></trkpt><trkpt lat="45.60077897965078" lon="10.739806103788085"><ele>277.0</ele><time>2026-03-24T12:21:45Z</time></trkpt><trkpt lat="45.60071893127305" lon="10.739861614497459"><ele>277.0</ele><time>2026-03-24T12:21:46Z</time></trkpt><trkpt lat="45.60064162960488" lon="10.739927448652615"><ele>277.0</ele><time>2026-03-24T12:21:47Z</time></trkpt><trkpt lat="45.6005799166342" lon="10.739987007994882"><ele>277.0</ele><time>2026-03-24T12:21:48Z</time></trkpt><trkpt lat="45.60052249101128" lon="10.740058299805037"><ele>277.0</ele><time>2026-03-24T12:21:49Z</time></trkpt><trkpt lat="45.600453598560414" lon="10.740118006226737"><ele>277.0</ele><time>2026-03-24T12:21:50Z</time></trkpt><trkpt lat="45.60038347182175" lon="10.74017681239697"><ele>277.0</ele><time>2026-03-24T12:21:51Z</time></trkpt><trkpt lat="45.6003168598501" lon="10.740241575407575"><ele>277.0</ele><time>2026-03-24T12:21:52Z</time></trkpt><trkpt lat="45.60024869348295" lon="10.740307351408475"><ele>277.0</ele><time>2026-03-24T12:21:53Z</time></trkpt><trkpt lat="45.60017966169153" lon="10.740370349837368"><ele>275.5</ele><time>2026-03-24T12:21:54Z</time></trkpt><trkpt lat="45.60011175442376" lon="10.74043624925512"><ele>274.0</ele><time>2026-03-24T12:21:55Z</time></trkpt><trkpt lat="45.600043560142474" lon="10.740502153487217"><ele>272.5</ele><time>2026-03-24T12:21:56Z</time></trkpt><trkpt lat="45.599964331666385" lon="10.740542502751135"><ele>271.0</ele><time>2026-03-24T12:21:57Z</time></trkpt><trkpt lat="45.59989525179628" lon="10.740605150287697"><ele>269.5</ele><time>2026-03-24T12:21:58Z</time></trkpt><trkpt lat="45.59982669380679" lon="10.740667324621203"><ele>268.0</ele><time>2026-03-24T12:21:59Z</time></trkpt><trkpt lat="45.59975850477547" lon="10.740729164354512"><ele>268.0</ele><time>2026-03-24T12:22:00Z</time></trkpt><trkpt lat="45.5996898178248" lon="10.7407914554446"><ele>268.0</ele><time>2026-03-24T12:22:01Z</time></trkpt><trkpt lat="45.599621960231474" lon="10.740852994725758"><ele>268.0</ele><time>2026-03-24T12:22:02Z</time></trkpt><trkpt lat="45.59955462377109" lon="10.740914061135387"><ele>268.0</ele><time>2026-03-24T12:22:03Z</time></trkpt><trkpt lat="45.599486898153856" lon="10.740975480601941"><ele>268.0</ele><time>2026-03-24T12:22:04Z</time></trkpt><trkpt lat="45.59941872348317" lon="10.741036455746999"><ele>268.0</ele><time>2026-03-24T12:22:05Z</time></trkpt><trkpt lat="45.59935056579464" lon="10.741096647000449"><ele>267.3333333333333</ele><time>2026-03-24T12:22:06Z</time></trkpt><trkpt lat="45.599281861308434" lon="10.74115608652839"><ele>266.66666666666663</ele><time>2026-03-24T12:22:07Z</time></trkpt><trkpt lat="45.5992121236367" lon="10.74121617185964"><ele>266.0</ele><time>2026-03-24T12:22:08Z</time></trkpt><trkpt lat="45.599143535600334" lon="10.741276642714263"><ele>265.3333333333333</ele><time>2026-03-24T12:22:09Z</time></trkpt><trkpt lat="45.59907522504596" lon="10.74133885148558"><ele>264.6666666666667</ele><time>2026-03-24T12:22:10Z</time></trkpt><trkpt lat="45.59901263803709" lon="10.741423361081333"><ele>264.0</ele><time>2026-03-24T12:22:11Z</time></trkpt><trkpt lat="45.59896951510329" lon="10.741528745173408"><ele>264.0</ele><time>2026-03-24T12:22:12Z</time></trkpt><trkpt lat="45.598950712865815" lon="10.741632043905163"><ele>264.0</ele><time>2026-03-24T12:22:13Z</time></trkpt><trkpt lat="45.59890158238682" lon="10.741713716067515"><ele>264.0</ele><time>2026-03-24T12:22:14Z</time></trkpt><trkpt lat="45.59886889897123" lon="10.741800069700531"><ele>264.0</ele><time>2026-03-24T12:22:15Z</time></trkpt><trkpt lat="45.59883678241756" lon="10.741884925419788"><ele>264.0</ele><time>2026-03-24T12:22:16Z</time></trkpt><trkpt lat="45.59880495792701" lon="10.74197103974075"><ele>264.0</ele><time>2026-03-24T12:22:17Z</time></trkpt><trkpt lat="45.598772909203575" lon="10.742057956928372"><ele>264.0</ele><time>2026-03-24T12:22:18Z</time></trkpt><trkpt lat="45.59871461322147" lon="10.742216057811877"><ele>263.6666666666667</ele><time>2026-03-24T12:22:20Z</time></trkpt><trkpt lat="45.59869931649737" lon="10.742304659133348"><ele>263.3333333333333</ele><time>2026-03-24T12:22:21Z</time></trkpt><trkpt lat="45.598666407211205" lon="10.742381661464963"><ele>263.0</ele><time>2026-03-24T12:22:22Z</time></trkpt><trkpt lat="45.598640534997706" lon="10.742463798130593"><ele>262.66666666666663</ele><time>2026-03-24T12:22:23Z</time></trkpt><trkpt lat="45.598570180975365" lon="10.74260888066003"><ele>262.3333333333333</ele><time>2026-03-24T12:22:25Z</time></trkpt><trkpt lat="45.59851714901144" lon="10.742768378234823"><ele>262.0</ele><time>2026-03-24T12:22:27Z</time></trkpt><trkpt lat="45.5984841172452" lon="10.742846587063275"><ele>262.0</ele><time>2026-03-24T12:22:28Z</time></trkpt><trkpt lat="45.598409560721706" lon="10.74298535429008"><ele>262.0</ele><time>2026-03-24T12:22:30Z</time></trkpt><trkpt lat="45.598322244894604" lon="10.743107871518244"><ele>262.0</ele><time>2026-03-24T12:22:32Z</time></trkpt><trkpt lat="45.59829981947569" lon="10.743192407938535"><ele>262.0</ele><time>2026-03-24T12:22:33Z</time></trkpt><trkpt lat="45.598229843179865" lon="10.743330508217952"><ele>262.0</ele><time>2026-03-24T12:22:35Z</time></trkpt><trkpt lat="45.598157497843104" lon="10.743468247439004"><ele>262.2</ele><time>2026-03-24T12:22:37Z</time></trkpt><trkpt lat="45.59808218493342" lon="10.743579621724049"><ele>262.4</ele><time>2026-03-24T12:22:39Z</time></trkpt><trkpt lat="45.59800911348661" lon="10.743693003630318"><ele>262.6</ele><time>2026-03-24T12:22:41Z</time></trkpt><trkpt lat="45.59796079787668" lon="10.743829113377798"><ele>262.8</ele><time>2026-03-24T12:22:42.999Z</time></trkpt><trkpt lat="45.597941610557704" lon="10.743980102597536"><ele>263.0</ele><time>2026-03-24T12:22:44.999Z</time></trkpt><trkpt lat="45.59797090966366" lon="10.744147721401166"><ele>263.0</ele><time>2026-03-24T12:22:46.999Z</time></trkpt><trkpt lat="45.59799939238668" lon="10.74423683560793"><ele>263.0</ele><time>2026-03-24T12:22:47.999Z</time></trkpt><trkpt lat="45.598032759131094" lon="10.74432037845128"><ele>263.0</ele><time>2026-03-24T12:22:48.999Z</time></trkpt><trkpt lat="45.59807228914763" lon="10.744401025065784"><ele>263.0</ele><time>2026-03-24T12:22:49.999Z</time></trkpt><trkpt lat="45.59811420517767" lon="10.74447686492737"><ele>263.0</ele><time>2026-03-24T12:22:50.999Z</time></trkpt><trkpt lat="45.59816437802762" lon="10.744545170034083"><ele>263.0</ele><time>2026-03-24T12:22:51.999Z</time></trkpt><trkpt lat="45.59821352646018" lon="10.744613309789612"><ele>263.0</ele><time>2026-03-24T12:22:52.999Z</time></trkpt><trkpt lat="45.59826419108861" lon="10.74468141965618"><ele>262.2857142857143</ele><time>2026-03-24T12:22:53.999Z</time></trkpt><trkpt lat="45.59831256549206" lon="10.744744067881394"><ele>261.57142857142856</ele><time>2026-03-24T12:22:54.999Z</time></trkpt><trkpt lat="45.59836264990773" lon="10.744807196639327"><ele>260.85714285714283</ele><time>2026-03-24T12:22:55.999Z</time></trkpt><trkpt lat="45.59841064883932" lon="10.744869805921947"><ele>260.1428571428571</ele><time>2026-03-24T12:22:56.999Z</time></trkpt><trkpt lat="45.59845502565771" lon="10.744937021319299"><ele>259.42857142857144</ele><time>2026-03-24T12:22:57.999Z</time></trkpt><trkpt lat="45.59850143804169" lon="10.744999030322347"><ele>258.71428571428567</ele><time>2026-03-24T12:22:58.999Z</time></trkpt><trkpt lat="45.59860050899738" lon="10.745105898338954"><ele>258.0</ele><time>2026-03-24T12:23:00.999Z</time></trkpt><trkpt lat="45.59867869319908" lon="10.74523088346588"><ele>258.0</ele><time>2026-03-24T12:23:02.999Z</time></trkpt><trkpt lat="45.59876098716073" lon="10.745346003211752"><ele>258.0</ele><time>2026-03-24T12:23:04.999Z</time></trkpt><trkpt lat="45.59883963635879" lon="10.74547922866533"><ele>258.0</ele><time>2026-03-24T12:23:06.999Z</time></trkpt><trkpt lat="45.59890935373301" lon="10.745614403042852"><ele>258.0</ele><time>2026-03-24T12:23:08.999Z</time></trkpt><trkpt lat="45.5989671606985" lon="10.745759607401745"><ele>258.0</ele><time>2026-03-24T12:23:10.999Z</time></trkpt><trkpt lat="45.59900280959213" lon="10.745921349901696"><ele>258.0</ele><time>2026-03-24T12:23:12.999Z</time></trkpt><trkpt lat="45.59903275960621" lon="10.74608149462851"><ele>258.0</ele><time>2026-03-24T12:23:14.999Z</time></trkpt><trkpt lat="45.5990299065581" lon="10.746239500876362"><ele>258.0</ele><time>2026-03-24T12:23:16.999Z</time></trkpt><trkpt lat="45.59905635535031" lon="10.746390780209449"><ele>258.3333333333333</ele><time>2026-03-24T12:23:18.999Z</time></trkpt><trkpt lat="45.59905857611523" lon="10.746538064580244"><ele>258.6666666666667</ele><time>2026-03-24T12:23:20.999Z</time></trkpt><trkpt lat="45.59906364541165" lon="10.746676499750485"><ele>259.0</ele><time>2026-03-24T12:23:22.999Z</time></trkpt><trkpt lat="45.59908712029765" lon="10.746812416564199"><ele>259.33333333333337</ele><time>2026-03-24T12:23:24.999Z</time></trkpt><trkpt lat="45.59909350606915" lon="10.746936493826592"><ele>259.6666666666667</ele><time>2026-03-24T12:23:26.999Z</time></trkpt><trkpt lat="45.599095350739674" lon="10.747027832915261"><ele>260.0</ele><time>2026-03-24T12:23:28.999Z</time></trkpt><trkpt lat="45.59909861733309" lon="10.747130289866167"><ele>260.0</ele><time>2026-03-24T12:23:30.999Z</time></trkpt><trkpt lat="45.59911059129719" lon="10.747260891898483"><ele>260.0</ele><time>2026-03-24T12:23:33.999Z</time></trkpt><trkpt lat="45.59912075484513" lon="10.747397013683612"><ele>260.0</ele><time>2026-03-24T12:23:36.999Z</time></trkpt><trkpt lat="45.59910399465299" lon="10.747622591974041"><ele>260.0</ele><time>2026-03-24T12:23:38.999Z</time></trkpt><trkpt lat="45.599117837587976" lon="10.747721355361715"><ele>260.0</ele><time>2026-03-24T12:23:40.999Z</time></trkpt><trkpt lat="45.59912987035797" lon="10.747815807881338"><ele>260.28571428571433</ele><time>2026-03-24T12:23:42.999Z</time></trkpt><trkpt lat="45.59913157563368" lon="10.747911730712552"><ele>260.57142857142856</ele><time>2026-03-24T12:23:44.998Z</time></trkpt><trkpt lat="45.5991368362748" lon="10.748003282196311"><ele>260.8571428571429</ele><time>2026-03-24T12:23:46.998Z</time></trkpt><trkpt lat="45.59916205048139" lon="10.748088429711208"><ele>261.14285714285717</ele><time>2026-03-24T12:23:50Z</time></trkpt><trkpt lat="45.59916558987269" lon="10.748184424695724"><ele>261.42857142857144</ele><time>2026-03-24T12:23:53Z</time></trkpt><trkpt lat="45.5991833095896" lon="10.748326513641663"><ele>261.7142857142857</ele><time>2026-03-24T12:23:57Z</time></trkpt><trkpt lat="45.59919425514743" lon="10.748420393385327"><ele>262.0</ele><time>2026-03-24T12:24:00Z</time></trkpt><trkpt lat="45.59919170641734" lon="10.748513837438075"><ele>262.3333333333333</ele><time>2026-03-24T12:24:02Z</time></trkpt><trkpt lat="45.5992005970333" lon="10.748607933628865"><ele>262.66666666666663</ele><time>2026-03-24T12:24:04Z</time></trkpt><trkpt lat="45.59921037448261" lon="10.74869740743811"><ele>263.0</ele><time>2026-03-24T12:24:06Z</time></trkpt><trkpt lat="45.599217481393524" lon="10.748818011861099"><ele>263.3333333333333</ele><time>2026-03-24T12:24:09Z</time></trkpt><trkpt lat="45.59923668787633" lon="10.748933479491184"><ele>263.6666666666667</ele><time>2026-03-24T12:24:12Z</time></trkpt><trkpt lat="45.59924693107046" lon="10.749047525876284"><ele>264.0</ele><time>2026-03-24T12:24:15Z</time></trkpt><trkpt lat="45.59926831127384" lon="10.749153816644146"><ele>264.0</ele><time>2026-03-24T12:24:18Z</time></trkpt><trkpt lat="45.59927915247597" lon="10.749265461964422"><ele>264.0</ele><time>2026-03-24T12:24:21Z</time></trkpt><trkpt lat="45.5992855354078" lon="10.749370747010028"><ele>264.0</ele><time>2026-03-24T12:24:24Z</time></trkpt><trkpt lat="45.59929807870881" lon="10.749465927556002"><ele>264.0</ele><time>2026-03-24T12:24:27Z</time></trkpt><trkpt lat="45.59930196227614" lon="10.749570790848562"><ele>264.0</ele><time>2026-03-24T12:24:30Z</time></trkpt><trkpt lat="45.599311260480896" lon="10.749704971052543"><ele>264.0</ele><time>2026-03-24T12:24:33Z</time></trkpt><trkpt lat="45.59931997290611" lon="10.749826757380239"><ele>264.0</ele><time>2026-03-24T12:24:35Z</time></trkpt><trkpt lat="45.59931253604807" lon="10.749955866755535"><ele>264.0</ele><time>2026-03-24T12:24:37Z</time></trkpt><trkpt lat="45.59930144620648" lon="10.750097663057177"><ele>264.0</ele><time>2026-03-24T12:24:39Z</time></trkpt><trkpt lat="45.59930844869682" lon="10.750244698805917"><ele>264.0</ele><time>2026-03-24T12:24:41Z</time></trkpt><trkpt lat="45.599306601488" lon="10.750407252288534"><ele>264.0</ele><time>2026-03-24T12:24:43Z</time></trkpt><trkpt lat="45.59930899513216" lon="10.750578296080365"><ele>263.59999999999997</ele><time>2026-03-24T12:24:45Z</time></trkpt><trkpt lat="45.59924549727671" lon="10.750722048940395"><ele>263.2</ele><time>2026-03-24T12:24:47Z</time></trkpt><trkpt lat="45.5992064921927" lon="10.75079930373186"><ele>262.79999999999995</ele><time>2026-03-24T12:24:47.999Z</time></trkpt><trkpt lat="45.599175322388035" lon="10.750880070990807"><ele>262.4</ele><time>2026-03-24T12:24:48.999Z</time></trkpt><trkpt lat="45.599077353784594" lon="10.75101259338037"><ele>262.0</ele><time>2026-03-24T12:24:50.999Z</time></trkpt><trkpt lat="45.59904697057897" lon="10.75110879928954"><ele>261.42857142857144</ele><time>2026-03-24T12:24:51.999Z</time></trkpt><trkpt lat="45.59904198091543" lon="10.7512197065719"><ele>260.8571428571429</ele><time>2026-03-24T12:24:52.999Z</time></trkpt><trkpt lat="45.59905226890961" lon="10.751329442802078"><ele>260.2857142857143</ele><time>2026-03-24T12:24:53.999Z</time></trkpt><trkpt lat="45.59905840437545" lon="10.751432046578472"><ele>259.7142857142857</ele><time>2026-03-24T12:24:54.999Z</time></trkpt><trkpt lat="45.59907885623649" lon="10.751528274720659"><ele>259.1428571428571</ele><time>2026-03-24T12:24:55.999Z</time></trkpt><trkpt lat="45.599080581748666" lon="10.751626861237362"><ele>258.57142857142856</ele><time>2026-03-24T12:24:56.999Z</time></trkpt><trkpt lat="45.59908419239084" lon="10.751724050437357"><ele>258.0</ele><time>2026-03-24T12:24:57.999Z</time></trkpt><trkpt lat="45.59908753260283" lon="10.751818334215102"><ele>258.1666666666667</ele><time>2026-03-24T12:24:58.999Z</time></trkpt><trkpt lat="45.59909078184621" lon="10.751911697231696"><ele>258.3333333333333</ele><time>2026-03-24T12:24:59.999Z</time></trkpt><trkpt lat="45.59908254129922" lon="10.75200967790878"><ele>258.5</ele><time>2026-03-24T12:25:00.999Z</time></trkpt><trkpt lat="45.59906625121563" lon="10.752101721474707"><ele>258.66666666666663</ele><time>2026-03-24T12:25:01.999Z</time></trkpt><trkpt lat="45.59904608705118" lon="10.75219014900827"><ele>258.8333333333333</ele><time>2026-03-24T12:25:02.999Z</time></trkpt><trkpt lat="45.59902621432364" lon="10.75227677969011"><ele>259.0</ele><time>2026-03-24T12:25:03.999Z</time></trkpt><trkpt lat="45.59899301310873" lon="10.752443164075368"><ele>259.0</ele><time>2026-03-24T12:25:05.999Z</time></trkpt><trkpt lat="45.59897511267967" lon="10.752602390502124"><ele>259.0</ele><time>2026-03-24T12:25:07.999Z</time></trkpt><trkpt lat="45.598970181848195" lon="10.752758353139376"><ele>259.0</ele><time>2026-03-24T12:25:09.999Z</time></trkpt><trkpt lat="45.59895157341358" lon="10.752919780926348"><ele>259.0</ele><time>2026-03-24T12:25:11.999Z</time></trkpt><trkpt lat="45.59894755606959" lon="10.753078171701322"><ele>259.0</ele><time>2026-03-24T12:25:13.999Z</time></trkpt><trkpt lat="45.59894568267206" lon="10.75322469841667"><ele>258.59999999999997</ele><time>2026-03-24T12:25:15.999Z</time></trkpt><trkpt lat="45.598946935078494" lon="10.753382042284539"><ele>258.2</ele><time>2026-03-24T12:25:17.999Z</time></trkpt><trkpt lat="45.59895038811492" lon="10.753534697125454"><ele>257.79999999999995</ele><time>2026-03-24T12:25:19.999Z</time></trkpt><trkpt lat="45.59895669832167" lon="10.753690390173558"><ele>257.4</ele><time>2026-03-24T12:25:21.999Z</time></trkpt><trkpt lat="45.5989631248797" lon="10.75384502014368"><ele>257.0</ele><time>2026-03-24T12:25:23.999Z</time></trkpt><trkpt lat="45.59896821679854" lon="10.753994024419821"><ele>256.6</ele><time>2026-03-24T12:25:25.999Z</time></trkpt><trkpt lat="45.5989699555112" lon="10.75414197662601"><ele>256.2</ele><time>2026-03-24T12:25:27.999Z</time></trkpt><trkpt lat="45.59898138590969" lon="10.754288384433664"><ele>255.8</ele><time>2026-03-24T12:25:29.999Z</time></trkpt><trkpt lat="45.59897050054376" lon="10.754443321918707"><ele>255.4</ele><time>2026-03-24T12:25:31.999Z</time></trkpt><trkpt lat="45.598967731949415" lon="10.754594405528367"><ele>255.0</ele><time>2026-03-24T12:25:33.999Z</time></trkpt><trkpt lat="45.59896689842803" lon="10.754743627295381"><ele>255.0</ele><time>2026-03-24T12:25:35.999Z</time></trkpt><trkpt lat="45.59896970855937" lon="10.754842835309594"><ele>255.0</ele><time>2026-03-24T12:25:37.999Z</time></trkpt><trkpt lat="45.59898088252635" lon="10.754957171117951"><ele>255.0</ele><time>2026-03-24T12:25:39.999Z</time></trkpt><trkpt lat="45.59900509301547" lon="10.755068439855247"><ele>255.0</ele><time>2026-03-24T12:25:41.999Z</time></trkpt><trkpt lat="45.59901281504829" lon="10.755179147259492"><ele>255.0</ele><time>2026-03-24T12:25:43.999Z</time></trkpt><trkpt lat="45.599023322105936" lon="10.755287326902723"><ele>255.0</ele><time>2026-03-24T12:25:45.999Z</time></trkpt><trkpt lat="45.59904990432419" lon="10.755383319303725"><ele>255.0</ele><time>2026-03-24T12:25:47.999Z</time></trkpt><trkpt lat="45.599068825774" lon="10.755476869567795"><ele>255.0</ele><time>2026-03-24T12:25:49.998Z</time></trkpt><trkpt lat="45.59908865319403" lon="10.755587103265395"><ele>255.0</ele><time>2026-03-24T12:25:52.998Z</time></trkpt><trkpt lat="45.599114150922425" lon="10.75571083825975"><ele>255.0</ele><time>2026-03-24T12:25:56Z</time></trkpt><trkpt lat="45.59912716883899" lon="10.755819191812634"><ele>255.0</ele><time>2026-03-24T12:25:58Z</time></trkpt><trkpt lat="45.59913223947183" lon="10.755921717606709"><ele>255.0</ele><time>2026-03-24T12:25:59Z</time></trkpt><trkpt lat="45.59914188965927" lon="10.75601518857134"><ele>254.66666666666666</ele><time>2026-03-24T12:26:01Z</time></trkpt><trkpt lat="45.59916613902861" lon="10.75610823988802"><ele>254.33333333333331</ele><time>2026-03-24T12:26:03Z</time></trkpt><trkpt lat="45.59918780116872" lon="10.756195719544607"><ele>254.0</ele><time>2026-03-24T12:26:05Z</time></trkpt><trkpt lat="45.59920518894635" lon="10.756286187792321"><ele>253.66666666666666</ele><time>2026-03-24T12:26:07Z</time></trkpt><trkpt lat="45.59922757827634" lon="10.756395263756389"><ele>253.33333333333331</ele><time>2026-03-24T12:26:09Z</time></trkpt><trkpt lat="45.599258625220685" lon="10.756533832476073"><ele>253.0</ele><time>2026-03-24T12:26:11Z</time></trkpt><trkpt lat="45.599286479187775" lon="10.756679794123087"><ele>253.0</ele><time>2026-03-24T12:26:13Z</time></trkpt><trkpt lat="45.59931801084287" lon="10.756821290898959"><ele>253.0</ele><time>2026-03-24T12:26:15Z</time></trkpt><trkpt lat="45.59935270212087" lon="10.756946712987492"><ele>253.0</ele><time>2026-03-24T12:26:17Z</time></trkpt><trkpt lat="45.59939946014242" lon="10.757091266651063"><ele>253.0</ele><time>2026-03-24T12:26:19Z</time></trkpt><trkpt lat="45.59942796496107" lon="10.757220319927846"><ele>253.0</ele><time>2026-03-24T12:26:21Z</time></trkpt><trkpt lat="45.59946387785939" lon="10.75734206202084"><ele>252.33333333333331</ele><time>2026-03-24T12:26:23Z</time></trkpt><trkpt lat="45.599496787508656" lon="10.757465635642964"><ele>251.66666666666666</ele><time>2026-03-24T12:26:25Z</time></trkpt><trkpt lat="45.59953773858843" lon="10.757580267987505"><ele>251.0</ele><time>2026-03-24T12:26:27Z</time></trkpt><trkpt lat="45.59956189464868" lon="10.757706089214032"><ele>250.33333333333331</ele><time>2026-03-24T12:26:29Z</time></trkpt><trkpt lat="45.599593046176174" lon="10.757819660387865"><ele>249.66666666666666</ele><time>2026-03-24T12:26:31Z</time></trkpt><trkpt lat="45.59962102328836" lon="10.757935887986973"><ele>249.0</ele><time>2026-03-24T12:26:33Z</time></trkpt><trkpt lat="45.59964318664554" lon="10.75806144309694"><ele>250.33333333333334</ele><time>2026-03-24T12:26:35Z</time></trkpt><trkpt lat="45.599678661016405" lon="10.758177992417124"><ele>251.66666666666669</ele><time>2026-03-24T12:26:37Z</time></trkpt><trkpt lat="45.59971575521777" lon="10.75829722825129"><ele>253.0</ele><time>2026-03-24T12:26:39Z</time></trkpt><trkpt lat="45.59974390807068" lon="10.758420201496877"><ele>254.33333333333334</ele><time>2026-03-24T12:26:41Z</time></trkpt><trkpt lat="45.59977436333713" lon="10.758539547378035"><ele>255.66666666666669</ele><time>2026-03-24T12:26:43Z</time></trkpt><trkpt lat="45.59980225818696" lon="10.758655247251214"><ele>257.0</ele><time>2026-03-24T12:26:45Z</time></trkpt><trkpt lat="45.5998254131564" lon="10.758785088854971"><ele>257.0</ele><time>2026-03-24T12:26:47Z</time></trkpt><trkpt lat="45.59986083236925" lon="10.758900160054537"><ele>257.0</ele><time>2026-03-24T12:26:49Z</time></trkpt><trkpt lat="45.59989689425231" lon="10.759020521142817"><ele>257.0</ele><time>2026-03-24T12:26:50.999Z</time></trkpt><trkpt lat="45.59993059419651" lon="10.759136900617996"><ele>257.0</ele><time>2026-03-24T12:26:52.999Z</time></trkpt><trkpt lat="45.599963759017356" lon="10.75925511417177"><ele>257.0</ele><time>2026-03-24T12:26:54.999Z</time></trkpt><trkpt lat="45.59999552024439" lon="10.759371177928985"><ele>257.0</ele><time>2026-03-24T12:26:56.999Z</time></trkpt><trkpt lat="45.60002697272175" lon="10.759487857477579"><ele>256.2</ele><time>2026-03-24T12:26:58.999Z</time></trkpt><trkpt lat="45.60006304164042" lon="10.759598551851445"><ele>255.39999999999998</ele><time>2026-03-24T12:27:00.999Z</time></trkpt><trkpt lat="45.60009181798573" lon="10.759719079410205"><ele>254.60000000000002</ele><time>2026-03-24T12:27:02.999Z</time></trkpt><trkpt lat="45.60012419457761" lon="10.75988377476339"><ele>253.8</ele><time>2026-03-24T12:27:05.999Z</time></trkpt><trkpt lat="45.60015434854437" lon="10.760005852531553"><ele>253.0</ele><time>2026-03-24T12:27:07.999Z</time></trkpt><trkpt lat="45.6001884862663" lon="10.760124861903275"><ele>252.8</ele><time>2026-03-24T12:27:09.999Z</time></trkpt><trkpt lat="45.60022168590836" lon="10.760242153021576"><ele>252.60000000000002</ele><time>2026-03-24T12:27:11.999Z</time></trkpt><trkpt lat="45.600249817491054" lon="10.760362118807471"><ele>252.39999999999998</ele><time>2026-03-24T12:27:13.999Z</time></trkpt><trkpt lat="45.60027807916517" lon="10.760488222028329"><ele>252.2</ele><time>2026-03-24T12:27:15.999Z</time></trkpt><trkpt lat="45.60030555344904" lon="10.76061068767557"><ele>252.0</ele><time>2026-03-24T12:27:17.999Z</time></trkpt><trkpt lat="45.600336598895645" lon="10.760733278198115"><ele>252.8</ele><time>2026-03-24T12:27:19.999Z</time></trkpt><trkpt lat="45.60035909209488" lon="10.76086313943273"><ele>253.6</ele><time>2026-03-24T12:27:21.999Z</time></trkpt><trkpt lat="45.60038055598535" lon="10.760989323940231"><ele>254.40000000000003</ele><time>2026-03-24T12:27:23.999Z</time></trkpt><trkpt lat="45.60041472921838" lon="10.761147480783155"><ele>255.20000000000002</ele><time>2026-03-24T12:27:25.999Z</time></trkpt><trkpt lat="45.600439653677235" lon="10.761294204548546"><ele>256.0</ele><time>2026-03-24T12:27:27.999Z</time></trkpt><trkpt lat="45.60046914115949" lon="10.76143892379644"><ele>256.0</ele><time>2026-03-24T12:27:29.999Z</time></trkpt><trkpt lat="45.60048598184096" lon="10.761596206485335"><ele>256.0</ele><time>2026-03-24T12:27:31.999Z</time></trkpt><trkpt lat="45.60050809233777" lon="10.761754746588688"><ele>256.0</ele><time>2026-03-24T12:27:33.999Z</time></trkpt><trkpt lat="45.60052603463458" lon="10.761923009496874"><ele>256.0</ele><time>2026-03-24T12:27:35.999Z</time></trkpt><trkpt lat="45.60054745983483" lon="10.762087272657435"><ele>255.60000000000002</ele><time>2026-03-24T12:27:37.999Z</time></trkpt><trkpt lat="45.60056971479013" lon="10.762249761294"><ele>255.20000000000002</ele><time>2026-03-24T12:27:39.999Z</time></trkpt><trkpt lat="45.6005808193748" lon="10.762407285465262"><ele>254.79999999999998</ele><time>2026-03-24T12:27:41.999Z</time></trkpt><trkpt lat="45.600595333772496" lon="10.762563107484079"><ele>254.39999999999998</ele><time>2026-03-24T12:27:43.999Z</time></trkpt><trkpt lat="45.60059857233633" lon="10.762719633560133"><ele>254.0</ele><time>2026-03-24T12:27:45.999Z</time></trkpt><trkpt lat="45.60060355872978" lon="10.762873280068279"><ele>254.0</ele><time>2026-03-24T12:27:47.999Z</time></trkpt><trkpt lat="45.60060992433494" lon="10.763023419943217"><ele>253.99999999999997</ele><time>2026-03-24T12:27:49.999Z</time></trkpt><trkpt lat="45.60061076513156" lon="10.763166287340278"><ele>253.99999999999997</ele><time>2026-03-24T12:27:51.998Z</time></trkpt><trkpt lat="45.6006139644474" lon="10.763303518762722"><ele>254.0</ele><time>2026-03-24T12:27:53.998Z</time></trkpt><trkpt lat="45.60062244155266" lon="10.763437314367236"><ele>254.0</ele><time>2026-03-24T12:27:55.998Z</time></trkpt><trkpt lat="45.60062440662323" lon="10.76356966496186"><ele>253.83333333333334</ele><time>2026-03-24T12:27:57.998Z</time></trkpt><trkpt lat="45.600623481407716" lon="10.763700038109116"><ele>253.66666666666669</ele><time>2026-03-24T12:28:00Z</time></trkpt><trkpt lat="45.60062517662601" lon="10.763824460758043"><ele>253.5</ele><time>2026-03-24T12:28:02Z</time></trkpt><trkpt lat="45.60062835473323" lon="10.763947418950542"><ele>253.33333333333331</ele><time>2026-03-24T12:28:04Z</time></trkpt><trkpt lat="45.60063036887079" lon="10.764058638740401"><ele>253.16666666666666</ele><time>2026-03-24T12:28:06Z</time></trkpt><trkpt lat="45.60063185390541" lon="10.764166656467898"><ele>253.0</ele><time>2026-03-24T12:28:08Z</time></trkpt><trkpt lat="45.60063937677577" lon="10.76426807944152"><ele>252.49999999999997</ele><time>2026-03-24T12:28:10Z</time></trkpt><trkpt lat="45.600653896439084" lon="10.76438242890659"><ele>252.0</ele><time>2026-03-24T12:28:12Z</time></trkpt><trkpt lat="45.60067055569263" lon="10.764501076953337"><ele>251.5</ele><time>2026-03-24T12:28:14Z</time></trkpt><trkpt lat="45.60068889542778" lon="10.76462824271318"><ele>251.0</ele><time>2026-03-24T12:28:16Z</time></trkpt><trkpt lat="45.6007164923716" lon="10.76474886485258"><ele>250.49999999999997</ele><time>2026-03-24T12:28:18Z</time></trkpt><trkpt lat="45.60074333016875" lon="10.764881386019796"><ele>250.0</ele><time>2026-03-24T12:28:20Z</time></trkpt><trkpt lat="45.60076871888796" lon="10.765009993261382"><ele>250.0</ele><time>2026-03-24T12:28:22Z</time></trkpt><trkpt lat="45.60079641159046" lon="10.765137565630758"><ele>250.0</ele><time>2026-03-24T12:28:24Z</time></trkpt><trkpt lat="45.600823266275725" lon="10.765264078316887"><ele>250.0</ele><time>2026-03-24T12:28:26Z</time></trkpt><trkpt lat="45.60084900563479" lon="10.765388218027812"><ele>250.0</ele><time>2026-03-24T12:28:28Z</time></trkpt><trkpt lat="45.600869286409726" lon="10.765512252799988"><ele>250.0</ele><time>2026-03-24T12:28:30Z</time></trkpt><trkpt lat="45.600896782382506" lon="10.765632244779956"><ele>249.6</ele><time>2026-03-24T12:28:32Z</time></trkpt><trkpt lat="45.600922303087486" lon="10.765747950413704"><ele>249.2</ele><time>2026-03-24T12:28:34Z</time></trkpt><trkpt lat="45.60094625121401" lon="10.765862868679344"><ele>248.8</ele><time>2026-03-24T12:28:36Z</time></trkpt><trkpt lat="45.600968732324546" lon="10.76598766466081"><ele>248.4</ele><time>2026-03-24T12:28:38Z</time></trkpt><trkpt lat="45.600992843024734" lon="10.766119913450916"><ele>248.0</ele><time>2026-03-24T12:28:40Z</time></trkpt><trkpt lat="45.60101151275409" lon="10.766258626431023"><ele>247.60000000000002</ele><time>2026-03-24T12:28:42Z</time></trkpt><trkpt lat="45.601028461879864" lon="10.766404203797833"><ele>247.20000000000002</ele><time>2026-03-24T12:28:44Z</time></trkpt><trkpt lat="45.601053109070634" lon="10.76655641534318"><ele>246.8</ele><time>2026-03-24T12:28:46Z</time></trkpt><trkpt lat="45.60107466508953" lon="10.766717600336268"><ele>246.4</ele><time>2026-03-24T12:28:48Z</time></trkpt><trkpt lat="45.60109238161375" lon="10.76687690801871"><ele>246.0</ele><time>2026-03-24T12:28:50Z</time></trkpt><trkpt lat="45.60110712753585" lon="10.767040018004089"><ele>246.0</ele><time>2026-03-24T12:28:52Z</time></trkpt><trkpt lat="45.60112729217987" lon="10.767205075293173"><ele>246.0</ele><time>2026-03-24T12:28:53.999Z</time></trkpt><trkpt lat="45.601146780807326" lon="10.767374950061809"><ele>246.0</ele><time>2026-03-24T12:28:55.999Z</time></trkpt><trkpt lat="45.60116393777768" lon="10.767543197274442"><ele>246.0</ele><time>2026-03-24T12:28:57.999Z</time></trkpt><trkpt lat="45.601181938008565" lon="10.76771865199198"><ele>246.71428571428575</ele><time>2026-03-24T12:28:59.999Z</time></trkpt><trkpt lat="45.60118839321555" lon="10.76781011007249"><ele>247.42857142857144</ele><time>2026-03-24T12:29:00.999Z</time></trkpt><trkpt lat="45.60119800239077" lon="10.767901217335817"><ele>248.14285714285714</ele><time>2026-03-24T12:29:01.999Z</time></trkpt><trkpt lat="45.60121006847647" lon="10.767995887664519"><ele>248.85714285714286</ele><time>2026-03-24T12:29:02.999Z</time></trkpt><trkpt lat="45.601220515703766" lon="10.768085119259379"><ele>249.57142857142856</ele><time>2026-03-24T12:29:03.999Z</time></trkpt><trkpt lat="45.601229753168255" lon="10.768180948889016"><ele>250.28571428571425</ele><time>2026-03-24T12:29:04.999Z</time></trkpt><trkpt lat="45.60123651613369" lon="10.768275891414678"><ele>250.99999999999997</ele><time>2026-03-24T12:29:05.999Z</time></trkpt><trkpt lat="45.601247718898236" lon="10.768372408445638"><ele>250.99999999999997</ele><time>2026-03-24T12:29:06.999Z</time></trkpt><trkpt lat="45.60125826171237" lon="10.768467125359953"><ele>251.0</ele><time>2026-03-24T12:29:07.999Z</time></trkpt><trkpt lat="45.601270260129105" lon="10.768560552112863"><ele>250.99999999999997</ele><time>2026-03-24T12:29:08.999Z</time></trkpt><trkpt lat="45.60128281214611" lon="10.768655844006455"><ele>250.99999999999997</ele><time>2026-03-24T12:29:09.999Z</time></trkpt><trkpt lat="45.60128911527062" lon="10.768752140743045"><ele>251.0</ele><time>2026-03-24T12:29:10.999Z</time></trkpt><trkpt lat="45.601294967151695" lon="10.768848340959295"><ele>250.99999999999997</ele><time>2026-03-24T12:29:11.999Z</time></trkpt><trkpt lat="45.60130581558022" lon="10.768943618536438"><ele>250.99999999999997</ele><time>2026-03-24T12:29:12.999Z</time></trkpt><trkpt lat="45.60131855138417" lon="10.769038449879167"><ele>250.57142857142856</ele><time>2026-03-24T12:29:13.999Z</time></trkpt><trkpt lat="45.601326871900326" lon="10.769133898598891"><ele>250.14285714285714</ele><time>2026-03-24T12:29:14.999Z</time></trkpt><trkpt lat="45.601336324981716" lon="10.769226949520654"><ele>249.71428571428572</ele><time>2026-03-24T12:29:15.999Z</time></trkpt><trkpt lat="45.601345565302424" lon="10.769322530475"><ele>249.28571428571428</ele><time>2026-03-24T12:29:16.999Z</time></trkpt><trkpt lat="45.601362547765916" lon="10.76942021958426"><ele>248.8571428571429</ele><time>2026-03-24T12:29:17.999Z</time></trkpt><trkpt lat="45.60138269959929" lon="10.769515953430798"><ele>248.42857142857144</ele><time>2026-03-24T12:29:18.999Z</time></trkpt><trkpt lat="45.6014019237101" lon="10.769606739150563"><ele>248.0</ele><time>2026-03-24T12:29:19.999Z</time></trkpt><trkpt lat="45.601423310906426" lon="10.769697784137714"><ele>247.60000000000002</ele><time>2026-03-24T12:29:20.999Z</time></trkpt><trkpt lat="45.60146233072107" lon="10.769860599328476"><ele>247.20000000000002</ele><time>2026-03-24T12:29:22.999Z</time></trkpt><trkpt lat="45.60150653145664" lon="10.770013476242008"><ele>246.8</ele><time>2026-03-24T12:29:24.999Z</time></trkpt><trkpt lat="45.601545945637845" lon="10.770150033114628"><ele>246.4</ele><time>2026-03-24T12:29:26.999Z</time></trkpt><trkpt lat="45.60158445478783" lon="10.770277235602034"><ele>246.0</ele><time>2026-03-24T12:29:28.999Z</time></trkpt><trkpt lat="45.60162293708392" lon="10.770388307781758"><ele>245.83333333333334</ele><time>2026-03-24T12:29:30.999Z</time></trkpt><trkpt lat="45.6016560809261" lon="10.770491271302856"><ele>245.66666666666669</ele><time>2026-03-24T12:29:32.999Z</time></trkpt><trkpt lat="45.601681275155" lon="10.770579732732184"><ele>245.5</ele><time>2026-03-24T12:29:35.999Z</time></trkpt><trkpt lat="45.601704026317385" lon="10.770664065908448"><ele>245.33333333333334</ele><time>2026-03-24T12:29:37.999Z</time></trkpt><trkpt lat="45.601745760740734" lon="10.770786052322308"><ele>245.16666666666669</ele><time>2026-03-24T12:29:40.999Z</time></trkpt><trkpt lat="45.60178732005704" lon="10.770881679160679"><ele>245.0</ele><time>2026-03-24T12:29:43.999Z</time></trkpt><trkpt lat="45.60182336227953" lon="10.770967410919852"><ele>245.14285714285714</ele><time>2026-03-24T12:29:46.999Z</time></trkpt><trkpt lat="45.601861002069825" lon="10.771047220543823"><ele>245.28571428571428</ele><time>2026-03-24T12:29:49.999Z</time></trkpt><trkpt lat="45.60189601765831" lon="10.771138039325995"><ele>245.42857142857144</ele><time>2026-03-24T12:29:52.999Z</time></trkpt><trkpt lat="45.60193728330575" lon="10.771213080324546"><ele>245.57142857142858</ele><time>2026-03-24T12:29:55.998Z</time></trkpt><trkpt lat="45.60197727221389" lon="10.771296875840058"><ele>245.71428571428572</ele><time>2026-03-24T12:29:58.998Z</time></trkpt><trkpt lat="45.60201210260291" lon="10.771381488868675"><ele>245.8571428571429</ele><time>2026-03-24T12:30:01.998Z</time></trkpt><trkpt lat="45.6020587090073" lon="10.771455831038397"><ele>246.00000000000003</ele><time>2026-03-24T12:30:05Z</time></trkpt><trkpt lat="45.60211044081084" lon="10.77152906061062"><ele>246.83333333333334</ele><time>2026-03-24T12:30:08Z</time></trkpt><trkpt lat="45.602157581001464" lon="10.771603779033958"><ele>247.66666666666669</ele><time>2026-03-24T12:30:11Z</time></trkpt><trkpt lat="45.60221694532076" lon="10.771682136058837"><ele>248.5</ele><time>2026-03-24T12:30:14Z</time></trkpt><trkpt lat="45.60226856627257" lon="10.771765386148608"><ele>249.33333333333334</ele><time>2026-03-24T12:30:17Z</time></trkpt><trkpt lat="45.6023293280812" lon="10.771842747735738"><ele>250.16666666666669</ele><time>2026-03-24T12:30:20Z</time></trkpt><trkpt lat="45.60238390498748" lon="10.771928038515673"><ele>251.0</ele><time>2026-03-24T12:30:23Z</time></trkpt><trkpt lat="45.60243615639014" lon="10.772024961554058"><ele>251.33333333333334</ele><time>2026-03-24T12:30:26Z</time></trkpt><trkpt lat="45.60248697125049" lon="10.772107908295489"><ele>251.66666666666669</ele><time>2026-03-24T12:30:29Z</time></trkpt><trkpt lat="45.602539656336326" lon="10.772184663084616"><ele>252.0</ele><time>2026-03-24T12:30:32Z</time></trkpt><trkpt lat="45.602581338381746" lon="10.772281944593654"><ele>252.33333333333331</ele><time>2026-03-24T12:30:35Z</time></trkpt><trkpt lat="45.602624184566224" lon="10.772368461291114"><ele>252.66666666666666</ele><time>2026-03-24T12:30:38Z</time></trkpt><trkpt lat="45.60265876385207" lon="10.77246490965644"><ele>253.0</ele><time>2026-03-24T12:30:41Z</time></trkpt><trkpt lat="45.602696522501475" lon="10.772558609243458"><ele>253.00000000000003</ele><time>2026-03-24T12:30:44Z</time></trkpt><trkpt lat="45.60272153214787" lon="10.772657805265597"><ele>253.0</ele><time>2026-03-24T12:30:47Z</time></trkpt><trkpt lat="45.60274000498753" lon="10.772756312055598"><ele>253.00000000000003</ele><time>2026-03-24T12:30:50Z</time></trkpt><trkpt lat="45.60275778273736" lon="10.772859279043702"><ele>253.00000000000003</ele><time>2026-03-24T12:30:53Z</time></trkpt><trkpt lat="45.60276769069324" lon="10.772960689986396"><ele>253.0</ele><time>2026-03-24T12:30:56Z</time></trkpt><trkpt lat="45.60275331226018" lon="10.773078253626707"><ele>253.00000000000003</ele><time>2026-03-24T12:30:58.999Z</time></trkpt><trkpt lat="45.602752744381526" lon="10.773168853868624"><ele>253.00000000000003</ele><time>2026-03-24T12:31:00.999Z</time></trkpt><trkpt lat="45.60273997734373" lon="10.773297761235659"><ele>253.42857142857144</ele><time>2026-03-24T12:31:03.999Z</time></trkpt><trkpt lat="45.60273623780486" lon="10.773387967062472"><ele>253.85714285714286</ele><time>2026-03-24T12:31:05.999Z</time></trkpt><trkpt lat="45.60272803969292" lon="10.773487751145517"><ele>254.28571428571428</ele><time>2026-03-24T12:31:07.999Z</time></trkpt><trkpt lat="45.60271986238245" lon="10.773589192019303"><ele>254.71428571428572</ele><time>2026-03-24T12:31:09.999Z</time></trkpt><trkpt lat="45.60271093950519" lon="10.773687857584456"><ele>255.1428571428571</ele><time>2026-03-24T12:31:11.999Z</time></trkpt><trkpt lat="45.60269941795071" lon="10.773791978281428"><ele>255.57142857142856</ele><time>2026-03-24T12:31:13.999Z</time></trkpt><trkpt lat="45.60268922680232" lon="10.773889320252687"><ele>256.0</ele><time>2026-03-24T12:31:15.999Z</time></trkpt><trkpt lat="45.602684060917596" lon="10.773991621116542"><ele>255.99999999999997</ele><time>2026-03-24T12:31:17.999Z</time></trkpt><trkpt lat="45.60267780424936" lon="10.774093197628376"><ele>256.0</ele><time>2026-03-24T12:31:19.999Z</time></trkpt><trkpt lat="45.60266126311877" lon="10.77421003946483"><ele>256.0</ele><time>2026-03-24T12:31:22.999Z</time></trkpt><trkpt lat="45.602655260817286" lon="10.774309417698106"><ele>256.0</ele><time>2026-03-24T12:31:24.999Z</time></trkpt><trkpt lat="45.602652645779635" lon="10.774406862834788"><ele>255.99999999999997</ele><time>2026-03-24T12:31:26.999Z</time></trkpt><trkpt lat="45.602638400982286" lon="10.774553945052084"><ele>256.0</ele><time>2026-03-24T12:31:29.999Z</time></trkpt><trkpt lat="45.60262674594787" lon="10.774684931329134"><ele>255.33333333333331</ele><time>2026-03-24T12:31:31.999Z</time></trkpt><trkpt lat="45.602594470020684" lon="10.774821073163444"><ele>254.66666666666666</ele><time>2026-03-24T12:31:32.999Z</time></trkpt><trkpt lat="45.602585336780464" lon="10.774983079096222"><ele>254.0</ele><time>2026-03-24T12:31:34.999Z</time></trkpt><trkpt lat="45.602580085061255" lon="10.775079351969827"><ele>253.33333333333331</ele><time>2026-03-24T12:31:35.999Z</time></trkpt><trkpt lat="45.60257106901653" lon="10.77517183902233"><ele>252.66666666666666</ele><time>2026-03-24T12:31:36.999Z</time></trkpt><trkpt lat="45.60256870015357" lon="10.775265909752358"><ele>252.0</ele><time>2026-03-24T12:31:37.999Z</time></trkpt><trkpt lat="45.60256437329321" lon="10.775364223965253"><ele>251.57142857142856</ele><time>2026-03-24T12:31:38.999Z</time></trkpt><trkpt lat="45.6025509678964" lon="10.775461008215078"><ele>251.14285714285714</ele><time>2026-03-24T12:31:39.999Z</time></trkpt><trkpt lat="45.60254124714582" lon="10.775565974501246"><ele>250.71428571428572</ele><time>2026-03-24T12:31:40.999Z</time></trkpt><trkpt lat="45.60253488861228" lon="10.775671071295864"><ele>250.28571428571428</ele><time>2026-03-24T12:31:41.999Z</time></trkpt><trkpt lat="45.60252882501619" lon="10.775772590180583"><ele>249.85714285714283</ele><time>2026-03-24T12:31:42.999Z</time></trkpt><trkpt lat="45.6025215796758" lon="10.775873897852726"><ele>249.42857142857142</ele><time>2026-03-24T12:31:43.999Z</time></trkpt><trkpt lat="45.602512648571604" lon="10.7759728344555"><ele>249.0</ele><time>2026-03-24T12:31:44.999Z</time></trkpt><trkpt lat="45.602504648490324" lon="10.776070929205611"><ele>248.66666666666666</ele><time>2026-03-24T12:31:45.999Z</time></trkpt><trkpt lat="45.60249754146889" lon="10.776166173318911"><ele>248.33333333333331</ele><time>2026-03-24T12:31:46.999Z</time></trkpt><trkpt lat="45.60249384504868" lon="10.776257054071918"><ele>248.0</ele><time>2026-03-24T12:31:47.999Z</time></trkpt><trkpt lat="45.602498520542284" lon="10.776348288674551"><ele>247.66666666666666</ele><time>2026-03-24T12:31:48.999Z</time></trkpt><trkpt lat="45.60251847931719" lon="10.776518343806702"><ele>247.33333333333331</ele><time>2026-03-24T12:31:50.999Z</time></trkpt><trkpt lat="45.60256616590719" lon="10.7766903185188"><ele>247.0</ele><time>2026-03-24T12:31:52.999Z</time></trkpt><trkpt lat="45.60261951397493" lon="10.776810269670019"><ele>246.6</ele><time>2026-03-24T12:31:54.999Z</time></trkpt><trkpt lat="45.602673571635215" lon="10.776933144300623"><ele>246.2</ele><time>2026-03-24T12:31:56.999Z</time></trkpt><trkpt lat="45.60271553461098" lon="10.777057399511673"><ele>245.8</ele><time>2026-03-24T12:31:58.999Z</time></trkpt><trkpt lat="45.60276351191447" lon="10.77718946280284"><ele>245.4</ele><time>2026-03-24T12:32:00.998Z</time></trkpt><trkpt lat="45.60280906349564" lon="10.777328897948365"><ele>245.0</ele><time>2026-03-24T12:32:02.998Z</time></trkpt><trkpt lat="45.60286598735153" lon="10.777473803886746"><ele>246.2</ele><time>2026-03-24T12:32:04.998Z</time></trkpt><trkpt lat="45.602920184710236" lon="10.777615146185179"><ele>247.4</ele><time>2026-03-24T12:32:06.998Z</time></trkpt><trkpt lat="45.602967955235926" lon="10.777749253752141"><ele>248.60000000000002</ele><time>2026-03-24T12:32:08.998Z</time></trkpt><trkpt lat="45.603021340848684" lon="10.777884709788164"><ele>249.8</ele><time>2026-03-24T12:32:11Z</time></trkpt><trkpt lat="45.603062681936386" lon="10.778013260939847"><ele>251.0</ele><time>2026-03-24T12:32:13Z</time></trkpt><trkpt lat="45.60309447612589" lon="10.778098005218474"><ele>251.0</ele><time>2026-03-24T12:32:15Z</time></trkpt><trkpt lat="45.60313477258449" lon="10.778249871648645"><ele>251.00000000000003</ele><time>2026-03-24T12:32:17Z</time></trkpt><trkpt lat="45.60317654539703" lon="10.778379160851786"><ele>251.00000000000003</ele><time>2026-03-24T12:32:19Z</time></trkpt><trkpt lat="45.603212000119996" lon="10.778500627047132"><ele>251.0</ele><time>2026-03-24T12:32:21Z</time></trkpt><trkpt lat="45.60324756478551" lon="10.778620527378871"><ele>251.0</ele><time>2026-03-24T12:32:23Z</time></trkpt><trkpt lat="45.603280988614905" lon="10.778750482184584"><ele>250.4</ele><time>2026-03-24T12:32:25Z</time></trkpt><trkpt lat="45.603317845202994" lon="10.778881759209703"><ele>249.8</ele><time>2026-03-24T12:32:27Z</time></trkpt><trkpt lat="45.6033550121465" lon="10.779013566601057"><ele>249.20000000000002</ele><time>2026-03-24T12:32:29Z</time></trkpt><trkpt lat="45.60339922282575" lon="10.779140043852083"><ele>248.60000000000002</ele><time>2026-03-24T12:32:31Z</time></trkpt><trkpt lat="45.60342065775099" lon="10.77926885552624"><ele>248.0</ele><time>2026-03-24T12:32:33Z</time></trkpt><trkpt lat="45.60344453177362" lon="10.779397891227337"><ele>247.4</ele><time>2026-03-24T12:32:35Z</time></trkpt><trkpt lat="45.60346692262963" lon="10.779486941949504"><ele>246.8</ele><time>2026-03-24T12:32:36Z</time></trkpt><trkpt lat="45.603501332759826" lon="10.779620932588097"><ele>246.2</ele><time>2026-03-24T12:32:38Z</time></trkpt><trkpt lat="45.603521585480316" lon="10.779764757783818"><ele>245.6</ele><time>2026-03-24T12:32:40Z</time></trkpt><trkpt lat="45.60354439484694" lon="10.779908413097974"><ele>245.0</ele><time>2026-03-24T12:32:42Z</time></trkpt><trkpt lat="45.60356719835487" lon="10.780059144637459"><ele>245.0</ele><time>2026-03-24T12:32:44Z</time></trkpt><trkpt lat="45.60359009687331" lon="10.780212053856078"><ele>245.0</ele><time>2026-03-24T12:32:46Z</time></trkpt><trkpt lat="45.60361113100944" lon="10.780369885796054"><ele>245.0</ele><time>2026-03-24T12:32:48Z</time></trkpt><trkpt lat="45.603636554740476" lon="10.780516753362807"><ele>245.0</ele><time>2026-03-24T12:32:50Z</time></trkpt><trkpt lat="45.60365785255987" lon="10.78066671741063"><ele>245.0</ele><time>2026-03-24T12:32:52Z</time></trkpt><trkpt lat="45.60367587629247" lon="10.780816953813087"><ele>246.8</ele><time>2026-03-24T12:32:54Z</time></trkpt><trkpt lat="45.603701170918285" lon="10.780961133873953"><ele>248.6</ele><time>2026-03-24T12:32:56Z</time></trkpt><trkpt lat="45.6037261884578" lon="10.781107475401539"><ele>250.39999999999998</ele><time>2026-03-24T12:32:58Z</time></trkpt><trkpt lat="45.60374870736602" lon="10.781260170253901"><ele>252.2</ele><time>2026-03-24T12:33:00Z</time></trkpt><trkpt lat="45.60377007704518" lon="10.78137549307759"><ele>254.0</ele><time>2026-03-24T12:33:01.999Z</time></trkpt><trkpt lat="45.60378109546023" lon="10.781526089058568"><ele>254.16666666666669</ele><time>2026-03-24T12:33:03.999Z</time></trkpt><trkpt lat="45.60379278491865" lon="10.781663161421953"><ele>254.33333333333334</ele><time>2026-03-24T12:33:05.999Z</time></trkpt><trkpt lat="45.60380706907951" lon="10.781787659331735"><ele>254.5</ele><time>2026-03-24T12:33:07.999Z</time></trkpt><trkpt lat="45.60382778670597" lon="10.781895894666421"><ele>254.66666666666669</ele><time>2026-03-24T12:33:09.999Z</time></trkpt><trkpt lat="45.60383728185804" lon="10.782001603832647"><ele>254.83333333333334</ele><time>2026-03-24T12:33:11.999Z</time></trkpt><trkpt lat="45.603855865463046" lon="10.78210895053056"><ele>255.0</ele><time>2026-03-24T12:33:14.999Z</time></trkpt><trkpt lat="45.60386689568855" lon="10.782226952007314"><ele>255.83333333333334</ele><time>2026-03-24T12:33:17.999Z</time></trkpt><trkpt lat="45.603888377617814" lon="10.782335904242357"><ele>256.6666666666667</ele><time>2026-03-24T12:33:20.999Z</time></trkpt><trkpt lat="45.60391031899826" lon="10.78244429373035"><ele>257.5</ele><time>2026-03-24T12:33:23.999Z</time></trkpt><trkpt lat="45.6039232016789" lon="10.782556861156934"><ele>258.33333333333337</ele><time>2026-03-24T12:33:26.999Z</time></trkpt><trkpt lat="45.60393389335384" lon="10.78267370803702"><ele>259.1666666666667</ele><time>2026-03-24T12:33:29.999Z</time></trkpt><trkpt lat="45.60393359351851" lon="10.782763949728855"><ele>260.0</ele><time>2026-03-24T12:33:31.999Z</time></trkpt><trkpt lat="45.60394512412453" lon="10.782880106678531"><ele>260.0</ele><time>2026-03-24T12:33:34.999Z</time></trkpt><trkpt lat="45.60395935140215" lon="10.783009669318117"><ele>260.0</ele><time>2026-03-24T12:33:37.999Z</time></trkpt><trkpt lat="45.60396457783358" lon="10.783103664335218"><ele>260.0</ele><time>2026-03-24T12:33:39.999Z</time></trkpt><trkpt lat="45.60397023131517" lon="10.783195574694565"><ele>260.0</ele><time>2026-03-24T12:33:41.999Z</time></trkpt><trkpt lat="45.603980482359034" lon="10.7832886130357"><ele>260.0</ele><time>2026-03-24T12:33:43.999Z</time></trkpt><trkpt lat="45.60399388491441" lon="10.783420812443449"><ele>260.0</ele><time>2026-03-24T12:33:46.999Z</time></trkpt><trkpt lat="45.60400354679508" lon="10.783549325135464"><ele>259.5714285714286</ele><time>2026-03-24T12:33:49.999Z</time></trkpt><trkpt lat="45.6040180130803" lon="10.783642242605794"><ele>259.14285714285717</ele><time>2026-03-24T12:33:51.999Z</time></trkpt><trkpt lat="45.6040224398591" lon="10.783736753701074"><ele>258.7142857142857</ele><time>2026-03-24T12:33:53.999Z</time></trkpt><trkpt lat="45.604034107510195" lon="10.78383482108523"><ele>258.28571428571433</ele><time>2026-03-24T12:33:55.999Z</time></trkpt><trkpt lat="45.6040379075022" lon="10.783927981070974"><ele>257.8571428571429</ele><time>2026-03-24T12:33:57.999Z</time></trkpt><trkpt lat="45.604044786412935" lon="10.78402209971048"><ele>257.42857142857144</ele><time>2026-03-24T12:33:59.999Z</time></trkpt><trkpt lat="45.60405677947418" lon="10.784113800457392"><ele>257.0</ele><time>2026-03-24T12:34:01.998Z</time></trkpt><trkpt lat="45.60406580567877" lon="10.784205954032352"><ele>257.0</ele><time>2026-03-24T12:34:03.998Z</time></trkpt><trkpt lat="45.60408431428959" lon="10.784295258009992"><ele>257.0</ele><time>2026-03-24T12:34:05.998Z</time></trkpt><trkpt lat="45.60409682319911" lon="10.784387792294456"><ele>257.0</ele><time>2026-03-24T12:34:07.998Z</time></trkpt><trkpt lat="45.604092764244314" lon="10.78448154106797"><ele>257.0</ele><time>2026-03-24T12:34:09.998Z</time></trkpt><trkpt lat="45.60410308098143" lon="10.78457608574507"><ele>257.0</ele><time>2026-03-24T12:34:11.998Z</time></trkpt><trkpt lat="45.60411012962534" lon="10.784709314959446"><ele>257.0</ele><time>2026-03-24T12:34:14.998Z</time></trkpt><trkpt lat="45.60412772041789" lon="10.784800006205957"><ele>257.0</ele><time>2026-03-24T12:34:17Z</time></trkpt><trkpt lat="45.604131362545125" lon="10.784896227474535"><ele>256.83333333333337</ele><time>2026-03-24T12:34:19Z</time></trkpt><trkpt lat="45.60414405334841" lon="10.784987553515123"><ele>256.6666666666667</ele><time>2026-03-24T12:34:21Z</time></trkpt><trkpt lat="45.604158630418446" lon="10.785119956529906"><ele>256.5</ele><time>2026-03-24T12:34:24Z</time></trkpt><trkpt lat="45.604156474455074" lon="10.785212091276382"><ele>256.3333333333333</ele><time>2026-03-24T12:34:26Z</time></trkpt><trkpt lat="45.60417198705699" lon="10.785330967749168"><ele>256.16666666666663</ele><time>2026-03-24T12:34:29Z</time></trkpt><trkpt lat="45.604182899412315" lon="10.78546648875367"><ele>256.0</ele><time>2026-03-24T12:34:32Z</time></trkpt><trkpt lat="45.60419996877311" lon="10.785564515022084"><ele>256.2857142857143</ele><time>2026-03-24T12:34:34Z</time></trkpt><trkpt lat="45.60421731742229" lon="10.785657935621538"><ele>256.57142857142856</ele><time>2026-03-24T12:34:36Z</time></trkpt><trkpt lat="45.60422596484687" lon="10.785756902624177"><ele>256.85714285714283</ele><time>2026-03-24T12:34:38Z</time></trkpt><trkpt lat="45.60424047010221" lon="10.78584774496516"><ele>257.1428571428571</ele><time>2026-03-24T12:34:40Z</time></trkpt><trkpt lat="45.6042542707614" lon="10.78594033575964"><ele>257.42857142857144</ele><time>2026-03-24T12:34:42Z</time></trkpt><trkpt lat="45.60427103518918" lon="10.786028214245311"><ele>257.71428571428567</ele><time>2026-03-24T12:34:44Z</time></trkpt><trkpt lat="45.6042949308316" lon="10.786158812559803"><ele>258.0</ele><time>2026-03-24T12:34:47Z</time></trkpt><trkpt lat="45.60430267227441" lon="10.786254725318837"><ele>258.0</ele><time>2026-03-24T12:34:49Z</time></trkpt><trkpt lat="45.60432489620283" lon="10.78637194683401"><ele>258.0</ele><time>2026-03-24T12:34:53Z</time></trkpt><trkpt lat="45.60433004566892" lon="10.786479428568422"><ele>258.0</ele><time>2026-03-24T12:34:56Z</time></trkpt><trkpt lat="45.60435803437293" lon="10.78661073421208"><ele>258.0</ele><time>2026-03-24T12:34:59Z</time></trkpt><trkpt lat="45.604379652230186" lon="10.786721136959642"><ele>258.0</ele><time>2026-03-24T12:35:02Z</time></trkpt><trkpt lat="45.60439570845156" lon="10.78685580721776"><ele>258.0</ele><time>2026-03-24T12:35:05Z</time></trkpt><trkpt lat="45.60442621976235" lon="10.786969669068231"><ele>257.8333333333333</ele><time>2026-03-24T12:35:07.999Z</time></trkpt><trkpt lat="45.60444634313922" lon="10.787055936379302"><ele>257.6666666666667</ele><time>2026-03-24T12:35:09.999Z</time></trkpt><trkpt lat="45.604465944612066" lon="10.78717486469854"><ele>257.5</ele><time>2026-03-24T12:35:12.999Z</time></trkpt><trkpt lat="45.6044708075986" lon="10.7872908760655"><ele>257.33333333333337</ele><time>2026-03-24T12:35:15.999Z</time></trkpt><trkpt lat="45.60446860567983" lon="10.787402042716822"><ele>257.1666666666667</ele><time>2026-03-24T12:35:18.999Z</time></trkpt><trkpt lat="45.60447875149817" lon="10.787515314880881"><ele>257.0</ele><time>2026-03-24T12:35:21.999Z</time></trkpt><trkpt lat="45.60449084327967" lon="10.787630486414482"><ele>258.7142857142857</ele><time>2026-03-24T12:35:24.999Z</time></trkpt><trkpt lat="45.60449900030131" lon="10.787720156721011"><ele>260.42857142857144</ele><time>2026-03-24T12:35:25.999Z</time></trkpt><trkpt lat="45.60450110229119" lon="10.78781011905484"><ele>262.14285714285717</ele><time>2026-03-24T12:35:27.999Z</time></trkpt><trkpt lat="45.604517506856446" lon="10.787925259491944"><ele>263.8571428571429</ele><time>2026-03-24T12:35:30.999Z</time></trkpt><trkpt lat="45.60452001665662" lon="10.788043291768874"><ele>265.5714285714286</ele><time>2026-03-24T12:35:33.999Z</time></trkpt><trkpt lat="45.60453715095034" lon="10.788139972438344"><ele>267.2857142857143</ele><time>2026-03-24T12:35:36.999Z</time></trkpt><trkpt lat="45.604537944545456" lon="10.788239224745897"><ele>269.0</ele><time>2026-03-24T12:35:38.999Z</time></trkpt><trkpt lat="45.60455243140052" lon="10.788329306104316"><ele>269.0</ele><time>2026-03-24T12:35:40.999Z</time></trkpt><trkpt lat="45.60456655899885" lon="10.788460183608546"><ele>269.0</ele><time>2026-03-24T12:35:43.999Z</time></trkpt><trkpt lat="45.604584647820545" lon="10.78858458445116"><ele>269.0</ele><time>2026-03-24T12:35:46.999Z</time></trkpt><trkpt lat="45.60460082128568" lon="10.788712034538799"><ele>269.0</ele><time>2026-03-24T12:35:49.999Z</time></trkpt><trkpt lat="45.60461531033747" lon="10.788824639998069"><ele>269.0</ele><time>2026-03-24T12:35:52.999Z</time></trkpt><trkpt lat="45.604640129859085" lon="10.78892915771558"><ele>269.0</ele><time>2026-03-24T12:35:55.999Z</time></trkpt><trkpt lat="45.604644293364665" lon="10.789027841173613"><ele>268.5</ele><time>2026-03-24T12:35:57.999Z</time></trkpt><trkpt lat="45.604661612491086" lon="10.789160690263289"><ele>268.0</ele><time>2026-03-24T12:36:00.999Z</time></trkpt><trkpt lat="45.60467559731514" lon="10.789254298600978"><ele>267.5</ele><time>2026-03-24T12:36:02.999Z</time></trkpt><trkpt lat="45.60469114371478" lon="10.789346261917174"><ele>267.0</ele><time>2026-03-24T12:36:04.999Z</time></trkpt><trkpt lat="45.6047111698589" lon="10.789479374942143"><ele>266.5</ele><time>2026-03-24T12:36:07.998Z</time></trkpt><trkpt lat="45.60472664730733" lon="10.78957032387844"><ele>266.0</ele><time>2026-03-24T12:36:09.998Z</time></trkpt><trkpt lat="45.60474112466986" lon="10.789690681754367"><ele>265.6666666666667</ele><time>2026-03-24T12:36:12.998Z</time></trkpt><trkpt lat="45.604774161845114" lon="10.789783235840895"><ele>265.33333333333337</ele><time>2026-03-24T12:36:15.998Z</time></trkpt><trkpt lat="45.60480840195351" lon="10.78991292236224"><ele>265.0</ele><time>2026-03-24T12:36:18.998Z</time></trkpt><trkpt lat="45.60483735420843" lon="10.790005468804118"><ele>264.6666666666667</ele><time>2026-03-24T12:36:20.998Z</time></trkpt><trkpt lat="45.604871408901936" lon="10.790095820372727"><ele>264.3333333333333</ele><time>2026-03-24T12:36:23Z</time></trkpt><trkpt lat="45.60490578195279" lon="10.790185901968474"><ele>264.0</ele><time>2026-03-24T12:36:25Z</time></trkpt><trkpt lat="45.60493152316959" lon="10.790279973489644"><ele>263.42857142857144</ele><time>2026-03-24T12:36:27Z</time></trkpt><trkpt lat="45.604978428015656" lon="10.79035866719265"><ele>262.8571428571429</ele><time>2026-03-24T12:36:29Z</time></trkpt><trkpt lat="45.6050214201171" lon="10.790443873676075"><ele>262.28571428571433</ele><time>2026-03-24T12:36:31Z</time></trkpt><trkpt lat="45.60507062083491" lon="10.790513338289603"><ele>261.7142857142857</ele><time>2026-03-24T12:36:33Z</time></trkpt><trkpt lat="45.605131508807084" lon="10.790568755525438"><ele>261.14285714285717</ele><time>2026-03-24T12:36:35Z</time></trkpt><trkpt lat="45.60517772088088" lon="10.790647146655248"><ele>260.5714285714286</ele><time>2026-03-24T12:36:37Z</time></trkpt><trkpt lat="45.6052407444207" lon="10.79071689110674"><ele>260.0</ele><time>2026-03-24T12:36:39Z</time></trkpt><trkpt lat="45.60528932775151" lon="10.790784298570095"><ele>260.83333333333337</ele><time>2026-03-24T12:36:41Z</time></trkpt><trkpt lat="45.60534473498599" lon="10.790872274484919"><ele>261.6666666666667</ele><time>2026-03-24T12:36:44Z</time></trkpt><trkpt lat="45.60540734838974" lon="10.790953331862642"><ele>262.5</ele><time>2026-03-24T12:36:47Z</time></trkpt><trkpt lat="45.60546950341095" lon="10.791021666220805"><ele>263.3333333333333</ele><time>2026-03-24T12:36:50Z</time></trkpt><trkpt lat="45.60551927938442" lon="10.79108643057227"><ele>264.16666666666663</ele><time>2026-03-24T12:36:52Z</time></trkpt><trkpt lat="45.605556826340575" lon="10.791161742030523"><ele>265.0</ele><time>2026-03-24T12:36:54Z</time></trkpt><trkpt lat="45.60561425136133" lon="10.791248976218679"><ele>265.0</ele><time>2026-03-24T12:36:57Z</time></trkpt><trkpt lat="45.6056471199575" lon="10.791326739433464"><ele>265.0</ele><time>2026-03-24T12:37:00Z</time></trkpt><trkpt lat="45.605669901407296" lon="10.791460874217012"><ele>265.0</ele><time>2026-03-24T12:37:03Z</time></trkpt><trkpt lat="45.60570364416839" lon="10.791550609184792"><ele>265.0</ele><time>2026-03-24T12:37:05Z</time></trkpt><trkpt lat="45.605726769078615" lon="10.791639554046025"><ele>265.0</ele><time>2026-03-24T12:37:07Z</time></trkpt><trkpt lat="45.60574811164949" lon="10.791746069064828"><ele>265.0</ele><time>2026-03-24T12:37:09.999Z</time></trkpt><trkpt lat="45.60576687243588" lon="10.791855479689469"><ele>264.8333333333333</ele><time>2026-03-24T12:37:12.999Z</time></trkpt><trkpt lat="45.60577819568824" lon="10.791954351137768"><ele>264.66666666666663</ele><time>2026-03-24T12:37:14.999Z</time></trkpt><trkpt lat="45.60578750500045" lon="10.792054071137677"><ele>264.5</ele><time>2026-03-24T12:37:16.999Z</time></trkpt><trkpt lat="45.60579953449278" lon="10.792154123081062"><ele>264.3333333333333</ele><time>2026-03-24T12:37:18.999Z</time></trkpt><trkpt lat="45.60582544881436" lon="10.792291069211275"><ele>264.1666666666667</ele><time>2026-03-24T12:37:21.999Z</time></trkpt><trkpt lat="45.60583627796826" lon="10.792397971476333"><ele>264.0</ele><time>2026-03-24T12:37:23.999Z</time></trkpt><trkpt lat="45.605851292626554" lon="10.792502204351493"><ele>264.0</ele><time>2026-03-24T12:37:25.999Z</time></trkpt><trkpt lat="45.605846966361895" lon="10.792609024986021"><ele>264.0</ele><time>2026-03-24T12:37:27.999Z</time></trkpt><trkpt lat="45.6058666950474" lon="10.79272035952338"><ele>264.0</ele><time>2026-03-24T12:37:29.999Z</time></trkpt><trkpt lat="45.60587153890135" lon="10.792843360105653"><ele>264.0</ele><time>2026-03-24T12:37:31.999Z</time></trkpt><trkpt lat="45.60588694606733" lon="10.79297440135408"><ele>264.0</ele><time>2026-03-24T12:37:33.999Z</time></trkpt><trkpt lat="45.605898243182686" lon="10.79311001345243"><ele>264.0</ele><time>2026-03-24T12:37:35.999Z</time></trkpt><trkpt lat="45.60590786832788" lon="10.793226931412976"><ele>263.25</ele><time>2026-03-24T12:37:37.999Z</time></trkpt><trkpt lat="45.60592469532123" lon="10.793391681953041"><ele>262.5</ele><time>2026-03-24T12:37:39.999Z</time></trkpt><trkpt lat="45.60595435687334" lon="10.793551180551635"><ele>261.75</ele><time>2026-03-24T12:37:41.999Z</time></trkpt><trkpt lat="45.60597861731549" lon="10.793713098680636"><ele>261.0</ele><time>2026-03-24T12:37:43.999Z</time></trkpt><trkpt lat="45.60601675160831" lon="10.793879556885319"><ele>260.8</ele><time>2026-03-24T12:37:45.999Z</time></trkpt><trkpt lat="45.60600490024894" lon="10.794001952768486"><ele>260.6</ele><time>2026-03-24T12:37:47.999Z</time></trkpt><trkpt lat="45.60591657595692" lon="10.794031356879875"><ele>260.4</ele><time>2026-03-24T12:37:49.999Z</time></trkpt><trkpt lat="45.60581157371727" lon="10.794037418366738"><ele>260.2</ele><time>2026-03-24T12:37:51.999Z</time></trkpt><trkpt lat="45.60571604391137" lon="10.794042144628081"><ele>260.0</ele><time>2026-03-24T12:37:53.999Z</time></trkpt><trkpt lat="45.605620622904034" lon="10.79404000067817"><ele>260.0</ele><time>2026-03-24T12:37:55.999Z</time></trkpt><trkpt lat="45.60551886402139" lon="10.79405477387966"><ele>260.0</ele><time>2026-03-24T12:37:57.999Z</time></trkpt><trkpt lat="45.60541902437598" lon="10.794071526560165"><ele>260.0</ele><time>2026-03-24T12:37:59.999Z</time></trkpt><trkpt lat="45.605334443309154" lon="10.7941286694995"><ele>260.0</ele><time>2026-03-24T12:38:01.999Z</time></trkpt><trkpt lat="45.6052829525642" lon="10.794240364605015"><ele>260.0</ele><time>2026-03-24T12:38:03.999Z</time></trkpt><trkpt lat="45.60527327446256" lon="10.794333589661987"><ele>259.83333333333337</ele><time>2026-03-24T12:38:05.999Z</time></trkpt><trkpt lat="45.60532137989058" lon="10.794416776583502"><ele>259.6666666666667</ele><time>2026-03-24T12:38:18.998Z</time></trkpt><trkpt lat="45.60536892177389" lon="10.794518360372361"><ele>259.5</ele><time>2026-03-24T12:38:21.998Z</time></trkpt><trkpt lat="45.605433468672786" lon="10.79455197772642"><ele>259.3333333333333</ele><time>2026-03-24T12:38:23.998Z</time></trkpt><trkpt lat="45.605446338180606" lon="10.794699775560805"><ele>259.16666666666663</ele><time>2026-03-24T12:38:26.998Z</time></trkpt><trkpt lat="45.60547141688826" lon="10.79480165809893"><ele>259.0</ele><time>2026-03-24T12:38:29Z</time></trkpt><trkpt lat="45.60553078942258" lon="10.79487929987677"><ele>259.0</ele><time>2026-03-24T12:38:31Z</time></trkpt><trkpt lat="45.6056128201454" lon="10.79490952178365"><ele>259.0</ele><time>2026-03-24T12:38:33Z</time></trkpt><trkpt lat="45.60570203738835" lon="10.79490459948275"><ele>259.0</ele><time>2026-03-24T12:38:35Z</time></trkpt><trkpt lat="45.6057770999452" lon="10.794917825474675"><ele>259.0</ele><time>2026-03-24T12:38:37Z</time></trkpt><trkpt lat="45.605872850306" lon="10.79493997239179"><ele>259.0</ele><time>2026-03-24T12:38:39Z</time></trkpt><trkpt lat="45.6059370504426" lon="10.794935109639912"><ele>259.0</ele><time>2026-03-24T12:38:41Z</time></trkpt><trkpt lat="45.606048848354476" lon="10.794957123133125"><ele>259.0</ele><time>2026-03-24T12:38:44Z</time></trkpt><trkpt lat="45.60611174539934" lon="10.794972217384204"><ele>259.0</ele><time>2026-03-24T12:38:47Z</time></trkpt><trkpt lat="45.60618456278004" lon="10.79498344141528"><ele>259.0</ele><time>2026-03-24T12:38:51Z</time></trkpt><trkpt lat="45.60623869352988" lon="10.795038753424894"><ele>259.0</ele><time>2026-03-24T12:38:56Z</time></trkpt><trkpt lat="45.60628943008491" lon="10.795114983523098"><ele>259.0</ele><time>2026-03-24T12:39:01Z</time></trkpt><trkpt lat="45.60633272247159" lon="10.795189162663108"><ele>259.0</ele><time>2026-03-24T12:39:06Z</time></trkpt><trkpt lat="45.60636466142763" lon="10.795276019465465"><ele>259.0</ele><time>2026-03-24T12:39:11Z</time></trkpt><trkpt lat="45.60638841038242" lon="10.795372556906345"><ele>259.7142857142857</ele><time>2026-03-24T12:39:15.999Z</time></trkpt><trkpt lat="45.606376823239906" lon="10.795470066944874"><ele>260.42857142857144</ele><time>2026-03-24T12:39:20.999Z</time></trkpt><trkpt lat="45.60639238387054" lon="10.795567987648708"><ele>261.1428571428571</ele><time>2026-03-24T12:39:27.999Z</time></trkpt><trkpt lat="45.60640650302696" lon="10.795667323878568"><ele>261.8571428571429</ele><time>2026-03-24T12:39:32.999Z</time></trkpt><trkpt lat="45.60640238343605" lon="10.795757586757462"><ele>262.57142857142856</ele><time>2026-03-24T12:39:42.999Z</time></trkpt><trkpt lat="45.60641666583891" lon="10.795859787418427"><ele>263.2857142857143</ele><time>2026-03-24T12:39:47.999Z</time></trkpt><trkpt lat="45.606420167481765" lon="10.79596732107767"><ele>264.0</ele><time>2026-03-24T12:39:53.999Z</time></trkpt><trkpt lat="45.606437358436544" lon="10.796062857539404"><ele>264.1428571428571</ele><time>2026-03-24T12:39:58.999Z</time></trkpt><trkpt lat="45.6064548696827" lon="10.79617126220149"><ele>264.2857142857143</ele><time>2026-03-24T12:40:03.999Z</time></trkpt><trkpt lat="45.60646618877548" lon="10.796271687455537"><ele>264.42857142857144</ele><time>2026-03-24T12:40:08.999Z</time></trkpt><trkpt lat="45.606479685982684" lon="10.796365398220688"><ele>264.57142857142856</ele><time>2026-03-24T12:40:13.999Z</time></trkpt><trkpt lat="45.60647894473523" lon="10.796467777630564"><ele>264.7142857142857</ele><time>2026-03-24T12:40:18.998Z</time></trkpt><trkpt lat="45.60649567455907" lon="10.796568292657813"><ele>264.85714285714283</ele><time>2026-03-24T12:40:22.998Z</time></trkpt><trkpt lat="45.606514945310515" lon="10.796664889008817"><ele>265.0</ele><time>2026-03-24T12:40:25.998Z</time></trkpt><trkpt lat="45.606534185421005" lon="10.796776008204702"><ele>265.2857142857143</ele><time>2026-03-24T12:40:29.998Z</time></trkpt><trkpt lat="45.60654693396975" lon="10.796883599978042"><ele>265.57142857142856</ele><time>2026-03-24T12:40:34Z</time></trkpt><trkpt lat="45.6065378660859" lon="10.796982289475723"><ele>265.8571428571429</ele><time>2026-03-24T12:40:38Z</time></trkpt><trkpt lat="45.60654934728488" lon="10.797090479209121"><ele>266.1428571428571</ele><time>2026-03-24T12:40:43Z</time></trkpt><trkpt lat="45.60657054140744" lon="10.797193400453002"><ele>266.42857142857144</ele><time>2026-03-24T12:40:47Z</time></trkpt><trkpt lat="45.60657174924853" lon="10.797302982419364"><ele>266.7142857142857</ele><time>2026-03-24T12:40:51Z</time></trkpt><trkpt lat="45.606576141017676" lon="10.797394691182216"><ele>267.0</ele><time>2026-03-24T12:40:55Z</time></trkpt><trkpt lat="45.60659232748142" lon="10.797501020603576"><ele>267.00000000000006</ele><time>2026-03-24T12:40:59Z</time></trkpt><trkpt lat="45.606617484533224" lon="10.797600641067788"><ele>267.0</ele><time>2026-03-24T12:41:03Z</time></trkpt><trkpt lat="45.60663298854371" lon="10.797693608308363"><ele>267.0</ele><time>2026-03-24T12:41:07Z</time></trkpt><trkpt lat="45.60664402655753" lon="10.797783025926789"><ele>267.0</ele><time>2026-03-24T12:41:11Z</time></trkpt><trkpt lat="45.60666238190879" lon="10.797873610671974"><ele>267.0</ele><time>2026-03-24T12:41:15Z</time></trkpt><trkpt lat="45.606676740672704" lon="10.797965965702987"><ele>267.00000000000006</ele><time>2026-03-24T12:41:20Z</time></trkpt><trkpt lat="45.60668675858087" lon="10.798061057325954"><ele>267.0</ele><time>2026-03-24T12:41:24.999Z</time></trkpt><trkpt lat="45.60670869058611" lon="10.798145997177414"><ele>267.5714285714286</ele><time>2026-03-24T12:41:29.999Z</time></trkpt><trkpt lat="45.606723974902316" lon="10.79824448121862"><ele>268.14285714285717</ele><time>2026-03-24T12:41:34.999Z</time></trkpt><trkpt lat="45.60673362784628" lon="10.798337558451044"><ele>268.7142857142857</ele><time>2026-03-24T12:41:41.999Z</time></trkpt><trkpt lat="45.60675604050794" lon="10.798433735580618"><ele>269.28571428571433</ele><time>2026-03-24T12:41:46.999Z</time></trkpt><trkpt lat="45.60676615660999" lon="10.798527969568475"><ele>269.8571428571429</ele><time>2026-03-24T12:41:51.999Z</time></trkpt><trkpt lat="45.60679961592983" lon="10.798629847458345"><ele>270.42857142857144</ele><time>2026-03-24T12:41:57.999Z</time></trkpt><trkpt lat="45.60678080451736" lon="10.798737000400688"><ele>271.0</ele><time>2026-03-24T12:42:03.999Z</time></trkpt><trkpt lat="45.60679265271968" lon="10.798839775668702"><ele>271.2857142857143</ele><time>2026-03-24T12:42:10.999Z</time></trkpt><trkpt lat="45.606791592412755" lon="10.798942841418574"><ele>271.57142857142856</ele><time>2026-03-24T12:42:16.999Z</time></trkpt><trkpt lat="45.60678923850198" lon="10.799040752278435"><ele>271.8571428571429</ele><time>2026-03-24T12:42:22.998Z</time></trkpt><trkpt lat="45.606796840559134" lon="10.799143449972357"><ele>272.1428571428571</ele><time>2026-03-24T12:42:28.998Z</time></trkpt><trkpt lat="45.60679831962673" lon="10.799251625323828"><ele>272.42857142857144</ele><time>2026-03-24T12:42:34.998Z</time></trkpt><trkpt lat="45.60678868295768" lon="10.799345255785843"><ele>272.7142857142857</ele><time>2026-03-24T12:42:42Z</time></trkpt><trkpt lat="45.60678545126428" lon="10.799438222627503"><ele>273.0</ele><time>2026-03-24T12:42:49Z</time></trkpt><trkpt lat="45.606787187100835" lon="10.799542837793888"><ele>273.14285714285717</ele><time>2026-03-24T12:42:55Z</time></trkpt><trkpt lat="45.60679601470701" lon="10.799655389013992"><ele>273.2857142857143</ele><time>2026-03-24T12:43:01Z</time></trkpt><trkpt lat="45.6068070697361" lon="10.79976680485664"><ele>273.42857142857144</ele><time>2026-03-24T12:43:06Z</time></trkpt><trkpt lat="45.60681756293348" lon="10.799864439570014"><ele>273.57142857142856</ele><time>2026-03-24T12:43:10Z</time></trkpt><trkpt lat="45.60683294739472" lon="10.799960851305466"><ele>273.7142857142857</ele><time>2026-03-24T12:43:14Z</time></trkpt><trkpt lat="45.60686454928054" lon="10.800061811248753"><ele>273.8571428571429</ele><time>2026-03-24T12:43:18Z</time></trkpt><trkpt lat="45.60690850946533" lon="10.800131912756862"><ele>274.0</ele><time>2026-03-24T12:43:22Z</time></trkpt><trkpt lat="45.60694563630308" lon="10.800205776765488"><ele>274.28571428571433</ele><time>2026-03-24T12:43:25.999Z</time></trkpt><trkpt lat="45.60698649835331" lon="10.800279943177097"><ele>274.57142857142856</ele><time>2026-03-24T12:43:29.999Z</time></trkpt><trkpt lat="45.607030007672655" lon="10.800357146059863"><ele>274.8571428571429</ele><time>2026-03-24T12:43:33.999Z</time></trkpt><trkpt lat="45.60707228420568" lon="10.800430630046039"><ele>275.14285714285717</ele><time>2026-03-24T12:43:37.999Z</time></trkpt><trkpt lat="45.60711627674661" lon="10.800495529724136"><ele>275.42857142857144</ele><time>2026-03-24T12:43:41.999Z</time></trkpt><trkpt lat="45.60716294405546" lon="10.80057713600577"><ele>275.7142857142857</ele><time>2026-03-24T12:43:45.999Z</time></trkpt><trkpt lat="45.60721034162584" lon="10.800671456782664"><ele>276.0</ele><time>2026-03-24T12:43:49.999Z</time></trkpt><trkpt lat="45.60724989325176" lon="10.800743512383244"><ele>276.1666666666667</ele><time>2026-03-24T12:43:52.999Z</time></trkpt><trkpt lat="45.60729961636726" lon="10.8008343462048"><ele>276.3333333333333</ele><time>2026-03-24T12:43:56.999Z</time></trkpt><trkpt lat="45.6073515665159" lon="10.800922390513927"><ele>276.5</ele><time>2026-03-24T12:44:00.999Z</time></trkpt><trkpt lat="45.60740190110818" lon="10.801013368678278"><ele>276.66666666666663</ele><time>2026-03-24T12:44:04.999Z</time></trkpt><trkpt lat="45.60744796251931" lon="10.801104467359503"><ele>276.8333333333333</ele><time>2026-03-24T12:44:08.999Z</time></trkpt><trkpt lat="45.60748957010281" lon="10.801174014139876"><ele>277.0</ele><time>2026-03-24T12:44:11.999Z</time></trkpt><trkpt lat="45.60753845130192" lon="10.801248117210223"><ele>277.3333333333333</ele><time>2026-03-24T12:44:15.999Z</time></trkpt><trkpt lat="45.60758474899727" lon="10.80133432063389"><ele>277.66666666666663</ele><time>2026-03-24T12:44:19.999Z</time></trkpt><trkpt lat="45.60763280248208" lon="10.8014175764423"><ele>278.0</ele><time>2026-03-24T12:44:23.999Z</time></trkpt><trkpt lat="45.607678765712635" lon="10.801502060599395"><ele>278.3333333333333</ele><time>2026-03-24T12:44:27.998Z</time></trkpt><trkpt lat="45.60772644687985" lon="10.801590288741654"><ele>278.6666666666667</ele><time>2026-03-24T12:44:31.998Z</time></trkpt><trkpt lat="45.60778358768166" lon="10.801675581796882"><ele>279.0</ele><time>2026-03-24T12:44:36.998Z</time></trkpt><trkpt lat="45.60784020236993" lon="10.801744063072723"><ele>279.4285714285714</ele><time>2026-03-24T12:44:40.998Z</time></trkpt><trkpt lat="45.60788536639547" lon="10.80181475219383"><ele>279.85714285714283</ele><time>2026-03-24T12:44:45Z</time></trkpt><trkpt lat="45.60792960485754" lon="10.801893554041404"><ele>280.2857142857143</ele><time>2026-03-24T12:44:49Z</time></trkpt><trkpt lat="45.60798385965794" lon="10.80197848725965"><ele>280.71428571428567</ele><time>2026-03-24T12:44:54Z</time></trkpt><trkpt lat="45.608026316816506" lon="10.802060891139858"><ele>281.1428571428571</ele><time>2026-03-24T12:44:58Z</time></trkpt><trkpt lat="45.608070890313954" lon="10.802130310643827"><ele>281.57142857142856</ele><time>2026-03-24T12:45:02Z</time></trkpt><trkpt lat="45.60811529504602" lon="10.802212813564484"><ele>282.0</ele><time>2026-03-24T12:45:06Z</time></trkpt><trkpt lat="45.60814973479181" lon="10.802304929980348"><ele>282.1666666666667</ele><time>2026-03-24T12:45:10Z</time></trkpt><trkpt lat="45.60818781251882" lon="10.802401064685965"><ele>282.3333333333333</ele><time>2026-03-24T12:45:14Z</time></trkpt><trkpt lat="45.60822804090271" lon="10.802504320510149"><ele>282.5</ele><time>2026-03-24T12:45:18Z</time></trkpt><trkpt lat="45.60826776933726" lon="10.80259188035488"><ele>282.66666666666663</ele><time>2026-03-24T12:45:22Z</time></trkpt><trkpt lat="45.608302941347" lon="10.80269286118073"><ele>282.8333333333333</ele><time>2026-03-24T12:45:26Z</time></trkpt><trkpt lat="45.60834051087519" lon="10.802784423786427"><ele>283.0</ele><time>2026-03-24T12:45:29.999Z</time></trkpt><trkpt lat="45.60836612883829" lon="10.80287334654288"><ele>283.0</ele><time>2026-03-24T12:45:33.999Z</time></trkpt><trkpt lat="45.60840775796081" lon="10.802966835114077"><ele>283.0</ele><time>2026-03-24T12:45:37.999Z</time></trkpt><trkpt lat="45.608439670591935" lon="10.803065182880838"><ele>283.0</ele><time>2026-03-24T12:45:41.999Z</time></trkpt><trkpt lat="45.60847125100544" lon="10.803156072875206"><ele>283.0</ele><time>2026-03-24T12:45:45.999Z</time></trkpt><trkpt lat="45.608502330606" lon="10.803234825503415"><ele>283.0</ele><time>2026-03-24T12:45:48.999Z</time></trkpt><trkpt lat="45.60854620494564" lon="10.803315632696078"><ele>283.0</ele><time>2026-03-24T12:45:52.999Z</time></trkpt><trkpt lat="45.608580324905" lon="10.803421073033867"><ele>283.0</ele><time>2026-03-24T12:45:56.999Z</time></trkpt><trkpt lat="45.60860604845784" lon="10.803505885825743"><ele>282.66666666666663</ele><time>2026-03-24T12:45:59.999Z</time></trkpt><trkpt lat="45.608646590538186" lon="10.803602775845883"><ele>282.3333333333333</ele><time>2026-03-24T12:46:03.999Z</time></trkpt><trkpt lat="45.6086873049697" lon="10.803701056737271"><ele>282.0</ele><time>2026-03-24T12:46:07.999Z</time></trkpt><trkpt lat="45.60872039259179" lon="10.803778480111285"><ele>281.6666666666667</ele><time>2026-03-24T12:46:10.999Z</time></trkpt><trkpt lat="45.60875640850639" lon="10.803883575151968"><ele>281.33333333333337</ele><time>2026-03-24T12:46:14.999Z</time></trkpt><trkpt lat="45.608807233251135" lon="10.803971541277793"><ele>281.0</ele><time>2026-03-24T12:46:18.999Z</time></trkpt><trkpt lat="45.60886132149184" lon="10.804042847919991"><ele>281.8571428571429</ele><time>2026-03-24T12:46:22.999Z</time></trkpt><trkpt lat="45.60889503211195" lon="10.804125997608786"><ele>282.7142857142857</ele><time>2026-03-24T12:46:26.999Z</time></trkpt><trkpt lat="45.608960228531146" lon="10.804170895542546"><ele>283.57142857142856</ele><time>2026-03-24T12:46:31.998Z</time></trkpt><trkpt lat="45.609012736368" lon="10.804237557450309"><ele>284.42857142857144</ele><time>2026-03-24T12:46:36.998Z</time></trkpt><trkpt lat="45.60906447942294" lon="10.80429204954881"><ele>285.2857142857143</ele><time>2026-03-24T12:46:40.998Z</time></trkpt><trkpt lat="45.60912327867975" lon="10.804361242823974"><ele>286.14285714285717</ele><time>2026-03-24T12:46:45.998Z</time></trkpt><trkpt lat="45.60917715025688" lon="10.804440212285803"><ele>287.0</ele><time>2026-03-24T12:46:51Z</time></trkpt><trkpt lat="45.60924506055529" lon="10.804507103371892"><ele>287.0</ele><time>2026-03-24T12:46:55Z</time></trkpt><trkpt lat="45.6092958908637" lon="10.80457084115512"><ele>287.0</ele><time>2026-03-24T12:46:58Z</time></trkpt><trkpt lat="45.609346636150356" lon="10.804640210496377"><ele>287.0</ele><time>2026-03-24T12:47:02Z</time></trkpt><trkpt lat="45.60941171073723" lon="10.80463765312462"><ele>287.0</ele><time>2026-03-24T12:47:05Z</time></trkpt><trkpt lat="45.60948385348906" lon="10.80460216090105"><ele>287.0</ele><time>2026-03-24T12:47:10Z</time></trkpt><trkpt lat="45.60955006392036" lon="10.804576191267453"><ele>287.0</ele><time>2026-03-24T12:47:15Z</time></trkpt><trkpt lat="45.609611411537806" lon="10.804502957950916"><ele>287.0</ele><time>2026-03-24T12:47:19Z</time></trkpt><trkpt lat="45.60966634932056" lon="10.80444597826304"><ele>287.57142857142856</ele><time>2026-03-24T12:47:23Z</time></trkpt><trkpt lat="45.60973197773184" lon="10.804396625225221"><ele>288.1428571428571</ele><time>2026-03-24T12:47:27Z</time></trkpt><trkpt lat="45.60978686506492" lon="10.804337279273803"><ele>288.7142857142857</ele><time>2026-03-24T12:47:31Z</time></trkpt><trkpt lat="45.6098410206542" lon="10.804280234206685"><ele>289.2857142857143</ele><time>2026-03-24T12:47:35Z</time></trkpt><trkpt lat="45.609905843846754" lon="10.804228273843668"><ele>289.85714285714283</ele><time>2026-03-24T12:47:39.999Z</time></trkpt><trkpt lat="45.60996841170645" lon="10.804160276005668"><ele>290.42857142857144</ele><time>2026-03-24T12:47:44.999Z</time></trkpt><trkpt lat="45.610034860037786" lon="10.804116721965624"><ele>291.0</ele><time>2026-03-24T12:47:49.999Z</time></trkpt><trkpt lat="45.610095836209304" lon="10.804055354555581"><ele>291.0</ele><time>2026-03-24T12:47:56.999Z</time></trkpt><trkpt lat="45.61015511130262" lon="10.803991817246818"><ele>291.0</ele><time>2026-03-24T12:48:02.999Z</time></trkpt><trkpt lat="45.61021105731235" lon="10.803938659086478"><ele>291.0</ele><time>2026-03-24T12:48:08.999Z</time></trkpt><trkpt lat="45.61027531098075" lon="10.80388686341971"><ele>291.0</ele><time>2026-03-24T12:48:14.999Z</time></trkpt><trkpt lat="45.61033432704237" lon="10.803833845145933"><ele>291.0</ele><time>2026-03-24T12:48:21.999Z</time></trkpt><trkpt lat="45.61038254311695" lon="10.803767090621003"><ele>291.0</ele><time>2026-03-24T12:48:28.999Z</time></trkpt><trkpt lat="45.61043850286862" lon="10.803722955652175"><ele>291.0</ele><time>2026-03-24T12:48:35.998Z</time></trkpt><trkpt lat="45.610495403355124" lon="10.80365961575372"><ele>297.0</ele><time>2026-03-24T12:48:42.998Z</time></trkpt><trkpt lat="45.610544825595674" lon="10.80358837437527"><ele>297.0</ele><time>2026-03-24T12:48:49.998Z</time></trkpt><trkpt lat="45.6106058970641" lon="10.80355487501098"><ele>297.0</ele><time>2026-03-24T12:48:59Z</time></trkpt><trkpt lat="45.610648831126475" lon="10.803468845360339"><ele>300.0</ele><time>2026-03-24T12:49:05Z</time></trkpt></trkseg></trk></gpx>